<?xml version="1.0" encoding="UTF-8" standalone="no" ?>
<gpx xmlns="http://www.topografix.com/GPX/1/1" xmlns:xsi="http://www.w3.org/2001/XMLSchema-instance" xsi:schemaLocation="http://www.topografix.com/GPX/1/1 http://www.topografix.com/GPX/1/1/gpx.xsd" version="1.1" creator="VisuGPX - https://www.visugpx.com">
  <metadata>
    <name>Diagonale du Vide - J18</name>
    <desc><![CDATA[File with points/tracks from Locus Map/3.37.2]]></desc>
  </metadata>
  <trk>
    <name><![CDATA[2021-06-24-j18]]></name>
    <trkseg>
      <trkpt lat="43.0942" lon="0.7026">
        <ele>343</ele>
        <time>2021-06-24T07:08:40.000Z</time>
      </trkpt>
      <trkpt lat="43.09433" lon="0.70261">
        <ele>350.28</ele>
        <time>2021-06-24T07:10:30.000Z</time>
      </trkpt>
      <trkpt lat="43.09446" lon="0.70255">
        <ele>353.55</ele>
        <time>2021-06-24T07:10:48.000Z</time>
      </trkpt>
      <trkpt lat="43.09442" lon="0.70243">
        <ele>352.2</ele>
        <time>2021-06-24T07:11:13.000Z</time>
      </trkpt>
      <trkpt lat="43.09439" lon="0.70222">
        <ele>352.21</ele>
        <time>2021-06-24T07:11:18.000Z</time>
      </trkpt>
      <trkpt lat="43.09439" lon="0.70198">
        <ele>352.78</ele>
        <time>2021-06-24T07:11:23.000Z</time>
      </trkpt>
      <trkpt lat="43.09445" lon="0.70175">
        <ele>359.62</ele>
        <time>2021-06-24T07:11:28.000Z</time>
      </trkpt>
      <trkpt lat="43.0945" lon="0.70153">
        <ele>359.63</ele>
        <time>2021-06-24T07:11:33.000Z</time>
      </trkpt>
      <trkpt lat="43.09468" lon="0.70161">
        <ele>356.97</ele>
        <time>2021-06-24T07:11:38.000Z</time>
      </trkpt>
      <trkpt lat="43.09481" lon="0.7018">
        <ele>355.74</ele>
        <time>2021-06-24T07:11:43.000Z</time>
      </trkpt>
      <trkpt lat="43.09488" lon="0.7019">
        <ele>354.57</ele>
        <time>2021-06-24T07:11:48.000Z</time>
      </trkpt>
      <trkpt lat="43.09495" lon="0.70198">
        <ele>354.03</ele>
        <time>2021-06-24T07:11:53.000Z</time>
      </trkpt>
      <trkpt lat="43.09506" lon="0.70205">
        <ele>353.09</ele>
        <time>2021-06-24T07:11:58.000Z</time>
      </trkpt>
      <trkpt lat="43.0952" lon="0.70199">
        <ele>351.58</ele>
        <time>2021-06-24T07:12:03.000Z</time>
      </trkpt>
      <trkpt lat="43.09531" lon="0.70182">
        <ele>350.69</ele>
        <time>2021-06-24T07:12:08.000Z</time>
      </trkpt>
      <trkpt lat="43.09535" lon="0.7016">
        <ele>350.31</ele>
        <time>2021-06-24T07:12:13.000Z</time>
      </trkpt>
      <trkpt lat="43.09538" lon="0.70147">
        <ele>349.05</ele>
        <time>2021-06-24T07:12:19.000Z</time>
      </trkpt>
      <trkpt lat="43.09528" lon="0.70138">
        <ele>346.48</ele>
        <time>2021-06-24T07:13:27.000Z</time>
      </trkpt>
      <trkpt lat="43.09518" lon="0.70134">
        <ele>347.52</ele>
        <time>2021-06-24T07:14:15.000Z</time>
      </trkpt>
      <trkpt lat="43.09511" lon="0.70145">
        <ele>352.68</ele>
        <time>2021-06-24T07:15:19.000Z</time>
      </trkpt>
      <trkpt lat="43.0952" lon="0.70145">
        <ele>359.15</ele>
        <time>2021-06-24T07:16:31.000Z</time>
      </trkpt>
      <trkpt lat="43.0953" lon="0.70145">
        <ele>362.32</ele>
        <time>2021-06-24T07:17:07.000Z</time>
      </trkpt>
      <trkpt lat="43.0954" lon="0.70145">
        <ele>363.82</ele>
        <time>2021-06-24T07:17:40.000Z</time>
      </trkpt>
      <trkpt lat="43.09542" lon="0.70158">
        <ele>363.32</ele>
        <time>2021-06-24T07:18:03.000Z</time>
      </trkpt>
      <trkpt lat="43.09539" lon="0.70174">
        <ele>362.9</ele>
        <time>2021-06-24T07:18:35.000Z</time>
      </trkpt>
      <trkpt lat="43.09539" lon="0.70191">
        <ele>362.97</ele>
        <time>2021-06-24T07:18:40.000Z</time>
      </trkpt>
      <trkpt lat="43.0954" lon="0.70206">
        <ele>362.85</ele>
        <time>2021-06-24T07:18:45.000Z</time>
      </trkpt>
      <trkpt lat="43.09552" lon="0.70208">
        <ele>362.31</ele>
        <time>2021-06-24T07:18:50.000Z</time>
      </trkpt>
      <trkpt lat="43.09567" lon="0.70209">
        <ele>362.89</ele>
        <time>2021-06-24T07:18:55.000Z</time>
      </trkpt>
      <trkpt lat="43.09581" lon="0.70222">
        <ele>363.99</ele>
        <time>2021-06-24T07:19:00.000Z</time>
      </trkpt>
      <trkpt lat="43.09592" lon="0.70245">
        <ele>363.66</ele>
        <time>2021-06-24T07:19:05.000Z</time>
      </trkpt>
      <trkpt lat="43.09598" lon="0.70279">
        <ele>362.68</ele>
        <time>2021-06-24T07:19:10.000Z</time>
      </trkpt>
      <trkpt lat="43.09605" lon="0.70315">
        <ele>362.55</ele>
        <time>2021-06-24T07:19:15.000Z</time>
      </trkpt>
      <trkpt lat="43.09613" lon="0.70351">
        <ele>362.37</ele>
        <time>2021-06-24T07:19:20.000Z</time>
      </trkpt>
      <trkpt lat="43.09621" lon="0.70388">
        <ele>361.43</ele>
        <time>2021-06-24T07:19:25.000Z</time>
      </trkpt>
      <trkpt lat="43.09631" lon="0.70426">
        <ele>360.29</ele>
        <time>2021-06-24T07:19:30.000Z</time>
      </trkpt>
      <trkpt lat="43.09639" lon="0.70465">
        <ele>359.98</ele>
        <time>2021-06-24T07:19:35.000Z</time>
      </trkpt>
      <trkpt lat="43.09647" lon="0.70503">
        <ele>359.16</ele>
        <time>2021-06-24T07:19:40.000Z</time>
      </trkpt>
      <trkpt lat="43.09656" lon="0.7054">
        <ele>359.25</ele>
        <time>2021-06-24T07:19:45.000Z</time>
      </trkpt>
      <trkpt lat="43.0967" lon="0.7057">
        <ele>361.1</ele>
        <time>2021-06-24T07:19:50.000Z</time>
      </trkpt>
      <trkpt lat="43.09685" lon="0.70594">
        <ele>364.28</ele>
        <time>2021-06-24T07:19:55.000Z</time>
      </trkpt>
      <trkpt lat="43.09703" lon="0.7061">
        <ele>365.33</ele>
        <time>2021-06-24T07:20:00.000Z</time>
      </trkpt>
      <trkpt lat="43.09723" lon="0.70623">
        <ele>366.33</ele>
        <time>2021-06-24T07:20:05.000Z</time>
      </trkpt>
      <trkpt lat="43.09743" lon="0.70637">
        <ele>367.57</ele>
        <time>2021-06-24T07:20:10.000Z</time>
      </trkpt>
      <trkpt lat="43.09767" lon="0.70654">
        <ele>368.59</ele>
        <time>2021-06-24T07:20:15.000Z</time>
      </trkpt>
      <trkpt lat="43.09791" lon="0.70671">
        <ele>369.12</ele>
        <time>2021-06-24T07:20:20.000Z</time>
      </trkpt>
      <trkpt lat="43.09813" lon="0.7069">
        <ele>369.72</ele>
        <time>2021-06-24T07:20:25.000Z</time>
      </trkpt>
      <trkpt lat="43.09831" lon="0.70714">
        <ele>369.21</ele>
        <time>2021-06-24T07:20:30.000Z</time>
      </trkpt>
      <trkpt lat="43.0985" lon="0.70742">
        <ele>367.96</ele>
        <time>2021-06-24T07:20:35.000Z</time>
      </trkpt>
      <trkpt lat="43.09866" lon="0.70772">
        <ele>367.51</ele>
        <time>2021-06-24T07:20:40.000Z</time>
      </trkpt>
      <trkpt lat="43.09874" lon="0.70803">
        <ele>366.61</ele>
        <time>2021-06-24T07:20:45.000Z</time>
      </trkpt>
      <trkpt lat="43.09893" lon="0.70801">
        <ele>367.47</ele>
        <time>2021-06-24T07:20:50.000Z</time>
      </trkpt>
      <trkpt lat="43.09906" lon="0.70778">
        <ele>368.4</ele>
        <time>2021-06-24T07:20:55.000Z</time>
      </trkpt>
      <trkpt lat="43.09924" lon="0.70757">
        <ele>369.56</ele>
        <time>2021-06-24T07:21:00.000Z</time>
      </trkpt>
      <trkpt lat="43.09947" lon="0.70737">
        <ele>369.62</ele>
        <time>2021-06-24T07:21:05.000Z</time>
      </trkpt>
      <trkpt lat="43.09972" lon="0.70733">
        <ele>369.38</ele>
        <time>2021-06-24T07:21:10.000Z</time>
      </trkpt>
      <trkpt lat="43.09995" lon="0.70734">
        <ele>369.51</ele>
        <time>2021-06-24T07:21:15.000Z</time>
      </trkpt>
      <trkpt lat="43.10016" lon="0.70736">
        <ele>368.69</ele>
        <time>2021-06-24T07:21:20.000Z</time>
      </trkpt>
      <trkpt lat="43.10036" lon="0.70733">
        <ele>368.46</ele>
        <time>2021-06-24T07:21:25.000Z</time>
      </trkpt>
      <trkpt lat="43.10057" lon="0.70724">
        <ele>367.4</ele>
        <time>2021-06-24T07:21:30.000Z</time>
      </trkpt>
      <trkpt lat="43.10077" lon="0.70709">
        <ele>368.93</ele>
        <time>2021-06-24T07:21:35.000Z</time>
      </trkpt>
      <trkpt lat="43.10094" lon="0.70691">
        <ele>368.62</ele>
        <time>2021-06-24T07:21:40.000Z</time>
      </trkpt>
      <trkpt lat="43.10109" lon="0.70671">
        <ele>368.08</ele>
        <time>2021-06-24T07:21:45.000Z</time>
      </trkpt>
      <trkpt lat="43.10124" lon="0.70651">
        <ele>367.07</ele>
        <time>2021-06-24T07:21:50.000Z</time>
      </trkpt>
      <trkpt lat="43.1014" lon="0.70629">
        <ele>366.78</ele>
        <time>2021-06-24T07:21:55.000Z</time>
      </trkpt>
      <trkpt lat="43.10164" lon="0.70604">
        <ele>367.48</ele>
        <time>2021-06-24T07:22:00.000Z</time>
      </trkpt>
      <trkpt lat="43.10186" lon="0.70574">
        <ele>369.67</ele>
        <time>2021-06-24T07:22:05.000Z</time>
      </trkpt>
      <trkpt lat="43.10203" lon="0.70541">
        <ele>370.01</ele>
        <time>2021-06-24T07:22:10.000Z</time>
      </trkpt>
      <trkpt lat="43.10216" lon="0.70507">
        <ele>369.25</ele>
        <time>2021-06-24T07:22:15.000Z</time>
      </trkpt>
      <trkpt lat="43.10229" lon="0.70475">
        <ele>368.35</ele>
        <time>2021-06-24T07:22:20.000Z</time>
      </trkpt>
      <trkpt lat="43.10241" lon="0.70443">
        <ele>367.1</ele>
        <time>2021-06-24T07:22:25.000Z</time>
      </trkpt>
      <trkpt lat="43.10252" lon="0.70411">
        <ele>365.11</ele>
        <time>2021-06-24T07:22:30.000Z</time>
      </trkpt>
      <trkpt lat="43.10265" lon="0.70378">
        <ele>364.4</ele>
        <time>2021-06-24T07:22:35.000Z</time>
      </trkpt>
      <trkpt lat="43.10279" lon="0.70346">
        <ele>363.53</ele>
        <time>2021-06-24T07:22:40.000Z</time>
      </trkpt>
      <trkpt lat="43.1029" lon="0.70314">
        <ele>363.47</ele>
        <time>2021-06-24T07:22:45.000Z</time>
      </trkpt>
      <trkpt lat="43.10307" lon="0.70284">
        <ele>365.77</ele>
        <time>2021-06-24T07:22:50.000Z</time>
      </trkpt>
      <trkpt lat="43.1032" lon="0.70253">
        <ele>368.52</ele>
        <time>2021-06-24T07:22:55.000Z</time>
      </trkpt>
      <trkpt lat="43.10332" lon="0.70221">
        <ele>368.55</ele>
        <time>2021-06-24T07:23:00.000Z</time>
      </trkpt>
      <trkpt lat="43.10344" lon="0.70189">
        <ele>367.29</ele>
        <time>2021-06-24T07:23:05.000Z</time>
      </trkpt>
      <trkpt lat="43.10358" lon="0.70156">
        <ele>366.43</ele>
        <time>2021-06-24T07:23:10.000Z</time>
      </trkpt>
      <trkpt lat="43.1037" lon="0.70121">
        <ele>366.17</ele>
        <time>2021-06-24T07:23:15.000Z</time>
      </trkpt>
      <trkpt lat="43.10382" lon="0.70088">
        <ele>366.43</ele>
        <time>2021-06-24T07:23:20.000Z</time>
      </trkpt>
      <trkpt lat="43.10393" lon="0.70055">
        <ele>368.58</ele>
        <time>2021-06-24T07:23:25.000Z</time>
      </trkpt>
      <trkpt lat="43.10403" lon="0.70022">
        <ele>369.75</ele>
        <time>2021-06-24T07:23:30.000Z</time>
      </trkpt>
      <trkpt lat="43.10415" lon="0.69988">
        <ele>369.24</ele>
        <time>2021-06-24T07:23:35.000Z</time>
      </trkpt>
      <trkpt lat="43.10423" lon="0.69952">
        <ele>370.47</ele>
        <time>2021-06-24T07:23:40.000Z</time>
      </trkpt>
      <trkpt lat="43.10431" lon="0.69917">
        <ele>371.67</ele>
        <time>2021-06-24T07:23:45.000Z</time>
      </trkpt>
      <trkpt lat="43.1044" lon="0.69884">
        <ele>371.31</ele>
        <time>2021-06-24T07:23:50.000Z</time>
      </trkpt>
      <trkpt lat="43.1045" lon="0.69851">
        <ele>371.49</ele>
        <time>2021-06-24T07:23:55.000Z</time>
      </trkpt>
      <trkpt lat="43.10461" lon="0.69819">
        <ele>371.5</ele>
        <time>2021-06-24T07:24:00.000Z</time>
      </trkpt>
      <trkpt lat="43.1047" lon="0.69786">
        <ele>371.95</ele>
        <time>2021-06-24T07:24:05.000Z</time>
      </trkpt>
      <trkpt lat="43.10481" lon="0.69753">
        <ele>372.1</ele>
        <time>2021-06-24T07:24:10.000Z</time>
      </trkpt>
      <trkpt lat="43.105" lon="0.69724">
        <ele>372.95</ele>
        <time>2021-06-24T07:24:15.000Z</time>
      </trkpt>
      <trkpt lat="43.10511" lon="0.69695">
        <ele>373.83</ele>
        <time>2021-06-24T07:24:20.000Z</time>
      </trkpt>
      <trkpt lat="43.10501" lon="0.6967">
        <ele>373.66</ele>
        <time>2021-06-24T07:24:25.000Z</time>
      </trkpt>
      <trkpt lat="43.10494" lon="0.69649">
        <ele>374.02</ele>
        <time>2021-06-24T07:24:30.000Z</time>
      </trkpt>
      <trkpt lat="43.10492" lon="0.69637">
        <ele>364.86</ele>
        <time>2021-06-24T07:26:04.000Z</time>
      </trkpt>
      <trkpt lat="43.10486" lon="0.69618">
        <ele>364.31</ele>
        <time>2021-06-24T07:26:09.000Z</time>
      </trkpt>
      <trkpt lat="43.10479" lon="0.69587">
        <ele>365.21</ele>
        <time>2021-06-24T07:26:14.000Z</time>
      </trkpt>
      <trkpt lat="43.10475" lon="0.69555">
        <ele>366.4</ele>
        <time>2021-06-24T07:26:19.000Z</time>
      </trkpt>
      <trkpt lat="43.10468" lon="0.69527">
        <ele>367.63</ele>
        <time>2021-06-24T07:26:24.000Z</time>
      </trkpt>
      <trkpt lat="43.10462" lon="0.69499">
        <ele>367.99</ele>
        <time>2021-06-24T07:26:29.000Z</time>
      </trkpt>
      <trkpt lat="43.1046" lon="0.69467">
        <ele>367.98</ele>
        <time>2021-06-24T07:26:34.000Z</time>
      </trkpt>
      <trkpt lat="43.10465" lon="0.69438">
        <ele>368.34</ele>
        <time>2021-06-24T07:26:39.000Z</time>
      </trkpt>
      <trkpt lat="43.10468" lon="0.6941">
        <ele>368.8</ele>
        <time>2021-06-24T07:26:44.000Z</time>
      </trkpt>
      <trkpt lat="43.10472" lon="0.69378">
        <ele>370.28</ele>
        <time>2021-06-24T07:26:49.000Z</time>
      </trkpt>
      <trkpt lat="43.10478" lon="0.69346">
        <ele>371.35</ele>
        <time>2021-06-24T07:26:54.000Z</time>
      </trkpt>
      <trkpt lat="43.10483" lon="0.69316">
        <ele>371.94</ele>
        <time>2021-06-24T07:26:59.000Z</time>
      </trkpt>
      <trkpt lat="43.10489" lon="0.69287">
        <ele>371.87</ele>
        <time>2021-06-24T07:27:04.000Z</time>
      </trkpt>
      <trkpt lat="43.10493" lon="0.69259">
        <ele>372.5</ele>
        <time>2021-06-24T07:27:09.000Z</time>
      </trkpt>
      <trkpt lat="43.10501" lon="0.69228">
        <ele>372.03</ele>
        <time>2021-06-24T07:27:14.000Z</time>
      </trkpt>
      <trkpt lat="43.10508" lon="0.69196">
        <ele>372.79</ele>
        <time>2021-06-24T07:27:19.000Z</time>
      </trkpt>
      <trkpt lat="43.10516" lon="0.69166">
        <ele>372.82</ele>
        <time>2021-06-24T07:27:24.000Z</time>
      </trkpt>
      <trkpt lat="43.10523" lon="0.69132">
        <ele>372.95</ele>
        <time>2021-06-24T07:27:29.000Z</time>
      </trkpt>
      <trkpt lat="43.10531" lon="0.691">
        <ele>373.78</ele>
        <time>2021-06-24T07:27:34.000Z</time>
      </trkpt>
      <trkpt lat="43.10541" lon="0.6907">
        <ele>373.3</ele>
        <time>2021-06-24T07:27:39.000Z</time>
      </trkpt>
      <trkpt lat="43.10551" lon="0.6904">
        <ele>371.58</ele>
        <time>2021-06-24T07:27:44.000Z</time>
      </trkpt>
      <trkpt lat="43.10559" lon="0.69007">
        <ele>371.35</ele>
        <time>2021-06-24T07:27:49.000Z</time>
      </trkpt>
      <trkpt lat="43.10569" lon="0.68978">
        <ele>371.45</ele>
        <time>2021-06-24T07:27:54.000Z</time>
      </trkpt>
      <trkpt lat="43.10577" lon="0.68949">
        <ele>371.96</ele>
        <time>2021-06-24T07:27:59.000Z</time>
      </trkpt>
      <trkpt lat="43.10583" lon="0.68922">
        <ele>373.67</ele>
        <time>2021-06-24T07:28:04.000Z</time>
      </trkpt>
      <trkpt lat="43.1059" lon="0.68895">
        <ele>373.51</ele>
        <time>2021-06-24T07:28:09.000Z</time>
      </trkpt>
      <trkpt lat="43.10596" lon="0.68872">
        <ele>373.82</ele>
        <time>2021-06-24T07:28:14.000Z</time>
      </trkpt>
      <trkpt lat="43.10602" lon="0.68846">
        <ele>373.7</ele>
        <time>2021-06-24T07:28:19.000Z</time>
      </trkpt>
      <trkpt lat="43.10608" lon="0.68825">
        <ele>373.68</ele>
        <time>2021-06-24T07:28:24.000Z</time>
      </trkpt>
      <trkpt lat="43.10611" lon="0.688">
        <ele>373.68</ele>
        <time>2021-06-24T07:28:29.000Z</time>
      </trkpt>
      <trkpt lat="43.10613" lon="0.68773">
        <ele>374.3</ele>
        <time>2021-06-24T07:28:34.000Z</time>
      </trkpt>
      <trkpt lat="43.10616" lon="0.68743">
        <ele>374.47</ele>
        <time>2021-06-24T07:28:39.000Z</time>
      </trkpt>
      <trkpt lat="43.10619" lon="0.68712">
        <ele>374.69</ele>
        <time>2021-06-24T07:28:44.000Z</time>
      </trkpt>
      <trkpt lat="43.10622" lon="0.68682">
        <ele>374.5</ele>
        <time>2021-06-24T07:28:49.000Z</time>
      </trkpt>
      <trkpt lat="43.10625" lon="0.6865">
        <ele>374</ele>
        <time>2021-06-24T07:28:54.000Z</time>
      </trkpt>
      <trkpt lat="43.10628" lon="0.6862">
        <ele>373.4</ele>
        <time>2021-06-24T07:28:59.000Z</time>
      </trkpt>
      <trkpt lat="43.10637" lon="0.68586">
        <ele>373.06</ele>
        <time>2021-06-24T07:29:04.000Z</time>
      </trkpt>
      <trkpt lat="43.10644" lon="0.68554">
        <ele>372.41</ele>
        <time>2021-06-24T07:29:09.000Z</time>
      </trkpt>
      <trkpt lat="43.10654" lon="0.68521">
        <ele>371.66</ele>
        <time>2021-06-24T07:29:14.000Z</time>
      </trkpt>
      <trkpt lat="43.10662" lon="0.68489">
        <ele>371.12</ele>
        <time>2021-06-24T07:29:19.000Z</time>
      </trkpt>
      <trkpt lat="43.10669" lon="0.6846">
        <ele>371.14</ele>
        <time>2021-06-24T07:29:24.000Z</time>
      </trkpt>
      <trkpt lat="43.10677" lon="0.6843">
        <ele>371.69</ele>
        <time>2021-06-24T07:29:29.000Z</time>
      </trkpt>
      <trkpt lat="43.10684" lon="0.68399">
        <ele>371.42</ele>
        <time>2021-06-24T07:29:34.000Z</time>
      </trkpt>
      <trkpt lat="43.10693" lon="0.68369">
        <ele>371.08</ele>
        <time>2021-06-24T07:29:39.000Z</time>
      </trkpt>
      <trkpt lat="43.10701" lon="0.68341">
        <ele>371.5</ele>
        <time>2021-06-24T07:29:44.000Z</time>
      </trkpt>
      <trkpt lat="43.10707" lon="0.68316">
        <ele>371.6</ele>
        <time>2021-06-24T07:29:49.000Z</time>
      </trkpt>
      <trkpt lat="43.10714" lon="0.68292">
        <ele>371.6</ele>
        <time>2021-06-24T07:29:54.000Z</time>
      </trkpt>
      <trkpt lat="43.10721" lon="0.68266">
        <ele>371.41</ele>
        <time>2021-06-24T07:29:59.000Z</time>
      </trkpt>
      <trkpt lat="43.10729" lon="0.68242">
        <ele>371.5</ele>
        <time>2021-06-24T07:30:04.000Z</time>
      </trkpt>
      <trkpt lat="43.10735" lon="0.68215">
        <ele>372.33</ele>
        <time>2021-06-24T07:30:09.000Z</time>
      </trkpt>
      <trkpt lat="43.10739" lon="0.68191">
        <ele>372.97</ele>
        <time>2021-06-24T07:30:14.000Z</time>
      </trkpt>
      <trkpt lat="43.10743" lon="0.68169">
        <ele>373.69</ele>
        <time>2021-06-24T07:30:19.000Z</time>
      </trkpt>
      <trkpt lat="43.10749" lon="0.68145">
        <ele>374.41</ele>
        <time>2021-06-24T07:30:24.000Z</time>
      </trkpt>
      <trkpt lat="43.10754" lon="0.68122">
        <ele>374.71</ele>
        <time>2021-06-24T07:30:29.000Z</time>
      </trkpt>
      <trkpt lat="43.10759" lon="0.68097">
        <ele>374.09</ele>
        <time>2021-06-24T07:30:34.000Z</time>
      </trkpt>
      <trkpt lat="43.10765" lon="0.68072">
        <ele>373.68</ele>
        <time>2021-06-24T07:30:39.000Z</time>
      </trkpt>
      <trkpt lat="43.1077" lon="0.68045">
        <ele>374.5</ele>
        <time>2021-06-24T07:30:44.000Z</time>
      </trkpt>
      <trkpt lat="43.10775" lon="0.68017">
        <ele>375.16</ele>
        <time>2021-06-24T07:30:49.000Z</time>
      </trkpt>
      <trkpt lat="43.10783" lon="0.67991">
        <ele>374.85</ele>
        <time>2021-06-24T07:30:54.000Z</time>
      </trkpt>
      <trkpt lat="43.10788" lon="0.67965">
        <ele>375.59</ele>
        <time>2021-06-24T07:30:59.000Z</time>
      </trkpt>
      <trkpt lat="43.10793" lon="0.6794">
        <ele>376.51</ele>
        <time>2021-06-24T07:31:04.000Z</time>
      </trkpt>
      <trkpt lat="43.10799" lon="0.67914">
        <ele>376.9</ele>
        <time>2021-06-24T07:31:09.000Z</time>
      </trkpt>
      <trkpt lat="43.10804" lon="0.67885">
        <ele>377.05</ele>
        <time>2021-06-24T07:31:14.000Z</time>
      </trkpt>
      <trkpt lat="43.10809" lon="0.67857">
        <ele>376.68</ele>
        <time>2021-06-24T07:31:19.000Z</time>
      </trkpt>
      <trkpt lat="43.10814" lon="0.6783">
        <ele>376.82</ele>
        <time>2021-06-24T07:31:24.000Z</time>
      </trkpt>
      <trkpt lat="43.10821" lon="0.67803">
        <ele>375.91</ele>
        <time>2021-06-24T07:31:29.000Z</time>
      </trkpt>
      <trkpt lat="43.10826" lon="0.67777">
        <ele>374.67</ele>
        <time>2021-06-24T07:31:34.000Z</time>
      </trkpt>
      <trkpt lat="43.10833" lon="0.67749">
        <ele>375.5</ele>
        <time>2021-06-24T07:31:39.000Z</time>
      </trkpt>
      <trkpt lat="43.10839" lon="0.67724">
        <ele>376.16</ele>
        <time>2021-06-24T07:31:44.000Z</time>
      </trkpt>
      <trkpt lat="43.10845" lon="0.67696">
        <ele>376.84</ele>
        <time>2021-06-24T07:31:49.000Z</time>
      </trkpt>
      <trkpt lat="43.10847" lon="0.67668">
        <ele>377.54</ele>
        <time>2021-06-24T07:31:54.000Z</time>
      </trkpt>
      <trkpt lat="43.10847" lon="0.67638">
        <ele>378.8</ele>
        <time>2021-06-24T07:31:59.000Z</time>
      </trkpt>
      <trkpt lat="43.10846" lon="0.6761">
        <ele>379.32</ele>
        <time>2021-06-24T07:32:04.000Z</time>
      </trkpt>
      <trkpt lat="43.10846" lon="0.6758">
        <ele>380.04</ele>
        <time>2021-06-24T07:32:09.000Z</time>
      </trkpt>
      <trkpt lat="43.10847" lon="0.6755">
        <ele>379.26</ele>
        <time>2021-06-24T07:32:14.000Z</time>
      </trkpt>
      <trkpt lat="43.10847" lon="0.67522">
        <ele>378.66</ele>
        <time>2021-06-24T07:32:19.000Z</time>
      </trkpt>
      <trkpt lat="43.10847" lon="0.67493">
        <ele>378.02</ele>
        <time>2021-06-24T07:32:24.000Z</time>
      </trkpt>
      <trkpt lat="43.10847" lon="0.67464">
        <ele>376.85</ele>
        <time>2021-06-24T07:32:29.000Z</time>
      </trkpt>
      <trkpt lat="43.10849" lon="0.67434">
        <ele>376.41</ele>
        <time>2021-06-24T07:32:34.000Z</time>
      </trkpt>
      <trkpt lat="43.1085" lon="0.67399">
        <ele>375.93</ele>
        <time>2021-06-24T07:32:39.000Z</time>
      </trkpt>
      <trkpt lat="43.1085" lon="0.67372">
        <ele>375.43</ele>
        <time>2021-06-24T07:32:44.000Z</time>
      </trkpt>
      <trkpt lat="43.10853" lon="0.67343">
        <ele>375.13</ele>
        <time>2021-06-24T07:32:49.000Z</time>
      </trkpt>
      <trkpt lat="43.10859" lon="0.67313">
        <ele>375.22</ele>
        <time>2021-06-24T07:32:54.000Z</time>
      </trkpt>
      <trkpt lat="43.10863" lon="0.67288">
        <ele>376.02</ele>
        <time>2021-06-24T07:32:59.000Z</time>
      </trkpt>
      <trkpt lat="43.10865" lon="0.67265">
        <ele>376.86</ele>
        <time>2021-06-24T07:33:04.000Z</time>
      </trkpt>
      <trkpt lat="43.10871" lon="0.67238">
        <ele>376.6</ele>
        <time>2021-06-24T07:33:09.000Z</time>
      </trkpt>
      <trkpt lat="43.10877" lon="0.6721">
        <ele>376.59</ele>
        <time>2021-06-24T07:33:14.000Z</time>
      </trkpt>
      <trkpt lat="43.10884" lon="0.6718">
        <ele>377.45</ele>
        <time>2021-06-24T07:33:19.000Z</time>
      </trkpt>
      <trkpt lat="43.10893" lon="0.67152">
        <ele>377.3</ele>
        <time>2021-06-24T07:33:24.000Z</time>
      </trkpt>
      <trkpt lat="43.10903" lon="0.67125">
        <ele>377.54</ele>
        <time>2021-06-24T07:33:29.000Z</time>
      </trkpt>
      <trkpt lat="43.10916" lon="0.67099">
        <ele>376.94</ele>
        <time>2021-06-24T07:33:34.000Z</time>
      </trkpt>
      <trkpt lat="43.10928" lon="0.67076">
        <ele>376.9</ele>
        <time>2021-06-24T07:33:39.000Z</time>
      </trkpt>
      <trkpt lat="43.10939" lon="0.6705">
        <ele>376.9</ele>
        <time>2021-06-24T07:33:44.000Z</time>
      </trkpt>
      <trkpt lat="43.10948" lon="0.67026">
        <ele>377</ele>
        <time>2021-06-24T07:33:49.000Z</time>
      </trkpt>
      <trkpt lat="43.10959" lon="0.66997">
        <ele>377.59</ele>
        <time>2021-06-24T07:33:54.000Z</time>
      </trkpt>
      <trkpt lat="43.10975" lon="0.66974">
        <ele>378.14</ele>
        <time>2021-06-24T07:33:59.000Z</time>
      </trkpt>
      <trkpt lat="43.1099" lon="0.66952">
        <ele>378.85</ele>
        <time>2021-06-24T07:34:04.000Z</time>
      </trkpt>
      <trkpt lat="43.11006" lon="0.66932">
        <ele>380.05</ele>
        <time>2021-06-24T07:34:09.000Z</time>
      </trkpt>
      <trkpt lat="43.11023" lon="0.66908">
        <ele>380.99</ele>
        <time>2021-06-24T07:34:14.000Z</time>
      </trkpt>
      <trkpt lat="43.11039" lon="0.66886">
        <ele>382.48</ele>
        <time>2021-06-24T07:34:19.000Z</time>
      </trkpt>
      <trkpt lat="43.11055" lon="0.66863">
        <ele>382.62</ele>
        <time>2021-06-24T07:34:24.000Z</time>
      </trkpt>
      <trkpt lat="43.1107" lon="0.66842">
        <ele>383.28</ele>
        <time>2021-06-24T07:34:29.000Z</time>
      </trkpt>
      <trkpt lat="43.11082" lon="0.66818">
        <ele>383.46</ele>
        <time>2021-06-24T07:34:34.000Z</time>
      </trkpt>
      <trkpt lat="43.11097" lon="0.66796">
        <ele>383.33</ele>
        <time>2021-06-24T07:34:39.000Z</time>
      </trkpt>
      <trkpt lat="43.1111" lon="0.66771">
        <ele>382.33</ele>
        <time>2021-06-24T07:34:44.000Z</time>
      </trkpt>
      <trkpt lat="43.11124" lon="0.66746">
        <ele>381.6</ele>
        <time>2021-06-24T07:34:49.000Z</time>
      </trkpt>
      <trkpt lat="43.11138" lon="0.66722">
        <ele>381.21</ele>
        <time>2021-06-24T07:34:54.000Z</time>
      </trkpt>
      <trkpt lat="43.11153" lon="0.66696">
        <ele>381.03</ele>
        <time>2021-06-24T07:34:59.000Z</time>
      </trkpt>
      <trkpt lat="43.1117" lon="0.66672">
        <ele>380.63</ele>
        <time>2021-06-24T07:35:04.000Z</time>
      </trkpt>
      <trkpt lat="43.11188" lon="0.66651">
        <ele>380.7</ele>
        <time>2021-06-24T07:35:09.000Z</time>
      </trkpt>
      <trkpt lat="43.11205" lon="0.66632">
        <ele>380.68</ele>
        <time>2021-06-24T07:35:14.000Z</time>
      </trkpt>
      <trkpt lat="43.11223" lon="0.66616">
        <ele>381.27</ele>
        <time>2021-06-24T07:35:19.000Z</time>
      </trkpt>
      <trkpt lat="43.11238" lon="0.66605">
        <ele>382.72</ele>
        <time>2021-06-24T07:35:24.000Z</time>
      </trkpt>
      <trkpt lat="43.1125" lon="0.66596">
        <ele>384.62</ele>
        <time>2021-06-24T07:35:29.000Z</time>
      </trkpt>
      <trkpt lat="43.11265" lon="0.6659">
        <ele>386.9</ele>
        <time>2021-06-24T07:35:34.000Z</time>
      </trkpt>
      <trkpt lat="43.11278" lon="0.66586">
        <ele>388.99</ele>
        <time>2021-06-24T07:35:39.000Z</time>
      </trkpt>
      <trkpt lat="43.11294" lon="0.66584">
        <ele>390.17</ele>
        <time>2021-06-24T07:35:44.000Z</time>
      </trkpt>
      <trkpt lat="43.11308" lon="0.66582">
        <ele>391.95</ele>
        <time>2021-06-24T07:35:49.000Z</time>
      </trkpt>
      <trkpt lat="43.1132" lon="0.66581">
        <ele>392.95</ele>
        <time>2021-06-24T07:35:54.000Z</time>
      </trkpt>
      <trkpt lat="43.11331" lon="0.6658">
        <ele>395.18</ele>
        <time>2021-06-24T07:35:59.000Z</time>
      </trkpt>
      <trkpt lat="43.11345" lon="0.6658">
        <ele>397.31</ele>
        <time>2021-06-24T07:36:04.000Z</time>
      </trkpt>
      <trkpt lat="43.11361" lon="0.66583">
        <ele>398.62</ele>
        <time>2021-06-24T07:36:09.000Z</time>
      </trkpt>
      <trkpt lat="43.1138" lon="0.66585">
        <ele>400.3</ele>
        <time>2021-06-24T07:36:14.000Z</time>
      </trkpt>
      <trkpt lat="43.11389" lon="0.66587">
        <ele>401.55</ele>
        <time>2021-06-24T07:36:19.000Z</time>
      </trkpt>
      <trkpt lat="43.11401" lon="0.66589">
        <ele>401.28</ele>
        <time>2021-06-24T07:36:24.000Z</time>
      </trkpt>
      <trkpt lat="43.11414" lon="0.6659">
        <ele>399.44</ele>
        <time>2021-06-24T07:36:29.000Z</time>
      </trkpt>
      <trkpt lat="43.11431" lon="0.6659">
        <ele>398.88</ele>
        <time>2021-06-24T07:36:34.000Z</time>
      </trkpt>
      <trkpt lat="43.11447" lon="0.66592">
        <ele>398.74</ele>
        <time>2021-06-24T07:36:39.000Z</time>
      </trkpt>
      <trkpt lat="43.11472" lon="0.66596">
        <ele>399.53</ele>
        <time>2021-06-24T07:36:44.000Z</time>
      </trkpt>
      <trkpt lat="43.11498" lon="0.66598">
        <ele>398.23</ele>
        <time>2021-06-24T07:36:49.000Z</time>
      </trkpt>
      <trkpt lat="43.11531" lon="0.66601">
        <ele>397.53</ele>
        <time>2021-06-24T07:36:54.000Z</time>
      </trkpt>
      <trkpt lat="43.11567" lon="0.66609">
        <ele>394.96</ele>
        <time>2021-06-24T07:36:59.000Z</time>
      </trkpt>
      <trkpt lat="43.1161" lon="0.66618">
        <ele>395.3</ele>
        <time>2021-06-24T07:37:04.000Z</time>
      </trkpt>
      <trkpt lat="43.11646" lon="0.66625">
        <ele>395.13</ele>
        <time>2021-06-24T07:37:09.000Z</time>
      </trkpt>
      <trkpt lat="43.11681" lon="0.66632">
        <ele>393.01</ele>
        <time>2021-06-24T07:37:14.000Z</time>
      </trkpt>
      <trkpt lat="43.11707" lon="0.66635">
        <ele>390.58</ele>
        <time>2021-06-24T07:37:19.000Z</time>
      </trkpt>
      <trkpt lat="43.11721" lon="0.66639">
        <ele>387.37</ele>
        <time>2021-06-24T07:37:24.000Z</time>
      </trkpt>
      <trkpt lat="43.11729" lon="0.66635">
        <ele>385.03</ele>
        <time>2021-06-24T07:37:55.000Z</time>
      </trkpt>
      <trkpt lat="43.11736" lon="0.66626">
        <ele>385.25</ele>
        <time>2021-06-24T07:38:00.000Z</time>
      </trkpt>
      <trkpt lat="43.11744" lon="0.66602">
        <ele>385.99</ele>
        <time>2021-06-24T07:38:05.000Z</time>
      </trkpt>
      <trkpt lat="43.1175" lon="0.6657">
        <ele>385.46</ele>
        <time>2021-06-24T07:38:10.000Z</time>
      </trkpt>
      <trkpt lat="43.11756" lon="0.66537">
        <ele>385.38</ele>
        <time>2021-06-24T07:38:15.000Z</time>
      </trkpt>
      <trkpt lat="43.11762" lon="0.66503">
        <ele>385.69</ele>
        <time>2021-06-24T07:38:20.000Z</time>
      </trkpt>
      <trkpt lat="43.11769" lon="0.66468">
        <ele>385.56</ele>
        <time>2021-06-24T07:38:25.000Z</time>
      </trkpt>
      <trkpt lat="43.11774" lon="0.66434">
        <ele>385.85</ele>
        <time>2021-06-24T07:38:30.000Z</time>
      </trkpt>
      <trkpt lat="43.11778" lon="0.66401">
        <ele>385.45</ele>
        <time>2021-06-24T07:38:35.000Z</time>
      </trkpt>
      <trkpt lat="43.11784" lon="0.66371">
        <ele>385.04</ele>
        <time>2021-06-24T07:38:40.000Z</time>
      </trkpt>
      <trkpt lat="43.1179" lon="0.6634">
        <ele>384.9</ele>
        <time>2021-06-24T07:38:45.000Z</time>
      </trkpt>
      <trkpt lat="43.11797" lon="0.66313">
        <ele>385.26</ele>
        <time>2021-06-24T07:38:50.000Z</time>
      </trkpt>
      <trkpt lat="43.11802" lon="0.66285">
        <ele>385.18</ele>
        <time>2021-06-24T07:38:55.000Z</time>
      </trkpt>
      <trkpt lat="43.11807" lon="0.66255">
        <ele>385.24</ele>
        <time>2021-06-24T07:39:00.000Z</time>
      </trkpt>
      <trkpt lat="43.11813" lon="0.66229">
        <ele>384.81</ele>
        <time>2021-06-24T07:39:05.000Z</time>
      </trkpt>
      <trkpt lat="43.11819" lon="0.66205">
        <ele>384.16</ele>
        <time>2021-06-24T07:39:10.000Z</time>
      </trkpt>
      <trkpt lat="43.11824" lon="0.66177">
        <ele>383.71</ele>
        <time>2021-06-24T07:39:15.000Z</time>
      </trkpt>
      <trkpt lat="43.11829" lon="0.66148">
        <ele>384.58</ele>
        <time>2021-06-24T07:39:20.000Z</time>
      </trkpt>
      <trkpt lat="43.11834" lon="0.66119">
        <ele>385.66</ele>
        <time>2021-06-24T07:39:25.000Z</time>
      </trkpt>
      <trkpt lat="43.11839" lon="0.66094">
        <ele>385.52</ele>
        <time>2021-06-24T07:39:30.000Z</time>
      </trkpt>
      <trkpt lat="43.11847" lon="0.66071">
        <ele>385.68</ele>
        <time>2021-06-24T07:39:35.000Z</time>
      </trkpt>
      <trkpt lat="43.11851" lon="0.66041">
        <ele>386.91</ele>
        <time>2021-06-24T07:39:40.000Z</time>
      </trkpt>
      <trkpt lat="43.11855" lon="0.66013">
        <ele>386.61</ele>
        <time>2021-06-24T07:39:45.000Z</time>
      </trkpt>
      <trkpt lat="43.1186" lon="0.65986">
        <ele>388.1</ele>
        <time>2021-06-24T07:39:50.000Z</time>
      </trkpt>
      <trkpt lat="43.11864" lon="0.6596">
        <ele>388.31</ele>
        <time>2021-06-24T07:39:55.000Z</time>
      </trkpt>
      <trkpt lat="43.11869" lon="0.65935">
        <ele>388.75</ele>
        <time>2021-06-24T07:40:00.000Z</time>
      </trkpt>
      <trkpt lat="43.11873" lon="0.65912">
        <ele>388.48</ele>
        <time>2021-06-24T07:40:05.000Z</time>
      </trkpt>
      <trkpt lat="43.11876" lon="0.65892">
        <ele>389.2</ele>
        <time>2021-06-24T07:40:10.000Z</time>
      </trkpt>
      <trkpt lat="43.1188" lon="0.6587">
        <ele>390.73</ele>
        <time>2021-06-24T07:40:15.000Z</time>
      </trkpt>
      <trkpt lat="43.11884" lon="0.65847">
        <ele>391.37</ele>
        <time>2021-06-24T07:40:20.000Z</time>
      </trkpt>
      <trkpt lat="43.11888" lon="0.65825">
        <ele>391.53</ele>
        <time>2021-06-24T07:40:25.000Z</time>
      </trkpt>
      <trkpt lat="43.1189" lon="0.658">
        <ele>392.51</ele>
        <time>2021-06-24T07:40:30.000Z</time>
      </trkpt>
      <trkpt lat="43.11896" lon="0.65775">
        <ele>393.98</ele>
        <time>2021-06-24T07:40:35.000Z</time>
      </trkpt>
      <trkpt lat="43.11897" lon="0.6575">
        <ele>393.77</ele>
        <time>2021-06-24T07:40:40.000Z</time>
      </trkpt>
      <trkpt lat="43.11897" lon="0.65726">
        <ele>393.14</ele>
        <time>2021-06-24T07:40:45.000Z</time>
      </trkpt>
      <trkpt lat="43.11896" lon="0.65703">
        <ele>392.77</ele>
        <time>2021-06-24T07:40:50.000Z</time>
      </trkpt>
      <trkpt lat="43.11893" lon="0.6568">
        <ele>392.43</ele>
        <time>2021-06-24T07:40:55.000Z</time>
      </trkpt>
      <trkpt lat="43.11892" lon="0.65663">
        <ele>392.17</ele>
        <time>2021-06-24T07:41:00.000Z</time>
      </trkpt>
      <trkpt lat="43.11882" lon="0.65666">
        <ele>387.95</ele>
        <time>2021-06-24T07:46:12.000Z</time>
      </trkpt>
      <trkpt lat="43.11888" lon="0.65655">
        <ele>387.71</ele>
        <time>2021-06-24T07:46:26.000Z</time>
      </trkpt>
      <trkpt lat="43.11891" lon="0.65644">
        <ele>387.8</ele>
        <time>2021-06-24T07:46:34.000Z</time>
      </trkpt>
      <trkpt lat="43.11897" lon="0.65634">
        <ele>389.39</ele>
        <time>2021-06-24T08:07:57.000Z</time>
      </trkpt>
      <trkpt lat="43.11902" lon="0.65622">
        <ele>388.98</ele>
        <time>2021-06-24T08:08:16.000Z</time>
      </trkpt>
      <trkpt lat="43.11906" lon="0.65611">
        <ele>385.47</ele>
        <time>2021-06-24T08:09:20.000Z</time>
      </trkpt>
      <trkpt lat="43.11902" lon="0.65623">
        <ele>383.3</ele>
        <time>2021-06-24T08:09:56.000Z</time>
      </trkpt>
      <trkpt lat="43.11895" lon="0.65633">
        <ele>383.04</ele>
        <time>2021-06-24T08:10:05.000Z</time>
      </trkpt>
      <trkpt lat="43.11905" lon="0.65635">
        <ele>385.4</ele>
        <time>2021-06-24T08:10:33.000Z</time>
      </trkpt>
      <trkpt lat="43.11914" lon="0.65637">
        <ele>385.28</ele>
        <time>2021-06-24T08:10:39.000Z</time>
      </trkpt>
      <trkpt lat="43.11923" lon="0.65635">
        <ele>385.49</ele>
        <time>2021-06-24T08:10:46.000Z</time>
      </trkpt>
      <trkpt lat="43.11933" lon="0.65633">
        <ele>385.57</ele>
        <time>2021-06-24T08:10:53.000Z</time>
      </trkpt>
      <trkpt lat="43.11942" lon="0.6563">
        <ele>385.82</ele>
        <time>2021-06-24T08:11:01.000Z</time>
      </trkpt>
      <trkpt lat="43.11949" lon="0.65622">
        <ele>385.53</ele>
        <time>2021-06-24T08:11:10.000Z</time>
      </trkpt>
      <trkpt lat="43.11955" lon="0.65632">
        <ele>387.87</ele>
        <time>2021-06-24T08:11:43.000Z</time>
      </trkpt>
      <trkpt lat="43.11965" lon="0.65633">
        <ele>388.69</ele>
        <time>2021-06-24T08:11:51.000Z</time>
      </trkpt>
      <trkpt lat="43.11974" lon="0.65633">
        <ele>388.73</ele>
        <time>2021-06-24T08:11:57.000Z</time>
      </trkpt>
      <trkpt lat="43.11983" lon="0.65636">
        <ele>389.55</ele>
        <time>2021-06-24T08:12:03.000Z</time>
      </trkpt>
      <trkpt lat="43.11993" lon="0.65639">
        <ele>391.28</ele>
        <time>2021-06-24T08:12:09.000Z</time>
      </trkpt>
      <trkpt lat="43.12002" lon="0.65641">
        <ele>391.4</ele>
        <time>2021-06-24T08:12:15.000Z</time>
      </trkpt>
      <trkpt lat="43.12011" lon="0.65644">
        <ele>391.91</ele>
        <time>2021-06-24T08:12:23.000Z</time>
      </trkpt>
      <trkpt lat="43.12019" lon="0.65641">
        <ele>392.76</ele>
        <time>2021-06-24T08:12:33.000Z</time>
      </trkpt>
      <trkpt lat="43.12026" lon="0.65631">
        <ele>393.5</ele>
        <time>2021-06-24T08:12:44.000Z</time>
      </trkpt>
      <trkpt lat="43.12016" lon="0.65635">
        <ele>392.83</ele>
        <time>2021-06-24T08:13:27.000Z</time>
      </trkpt>
      <trkpt lat="43.12007" lon="0.6564">
        <ele>396.66</ele>
        <time>2021-06-24T08:27:59.000Z</time>
      </trkpt>
      <trkpt lat="43.11998" lon="0.65638">
        <ele>395.55</ele>
        <time>2021-06-24T08:28:09.000Z</time>
      </trkpt>
      <trkpt lat="43.11988" lon="0.65639">
        <ele>394.23</ele>
        <time>2021-06-24T08:28:24.000Z</time>
      </trkpt>
      <trkpt lat="43.11979" lon="0.65637">
        <ele>394.03</ele>
        <time>2021-06-24T08:28:31.000Z</time>
      </trkpt>
      <trkpt lat="43.1197" lon="0.65633">
        <ele>393.62</ele>
        <time>2021-06-24T08:28:49.000Z</time>
      </trkpt>
      <trkpt lat="43.1196" lon="0.65631">
        <ele>393.33</ele>
        <time>2021-06-24T08:28:55.000Z</time>
      </trkpt>
      <trkpt lat="43.11951" lon="0.65633">
        <ele>392.73</ele>
        <time>2021-06-24T08:29:01.000Z</time>
      </trkpt>
      <trkpt lat="43.11941" lon="0.65633">
        <ele>392</ele>
        <time>2021-06-24T08:29:11.000Z</time>
      </trkpt>
      <trkpt lat="43.11931" lon="0.65633">
        <ele>391.54</ele>
        <time>2021-06-24T08:29:17.000Z</time>
      </trkpt>
      <trkpt lat="43.11922" lon="0.65634">
        <ele>390.74</ele>
        <time>2021-06-24T08:29:25.000Z</time>
      </trkpt>
      <trkpt lat="43.11912" lon="0.65634">
        <ele>390.06</ele>
        <time>2021-06-24T08:29:31.000Z</time>
      </trkpt>
      <trkpt lat="43.11902" lon="0.65635">
        <ele>389.34</ele>
        <time>2021-06-24T08:29:36.000Z</time>
      </trkpt>
      <trkpt lat="43.11893" lon="0.65636">
        <ele>388.66</ele>
        <time>2021-06-24T08:29:44.000Z</time>
      </trkpt>
      <trkpt lat="43.11899" lon="0.65645">
        <ele>383.38</ele>
        <time>2021-06-24T08:36:37.000Z</time>
      </trkpt>
      <trkpt lat="43.1189" lon="0.65645">
        <ele>381.98</ele>
        <time>2021-06-24T08:37:44.000Z</time>
      </trkpt>
      <trkpt lat="43.11883" lon="0.65636">
        <ele>384.57</ele>
        <time>2021-06-24T08:45:03.000Z</time>
      </trkpt>
      <trkpt lat="43.11877" lon="0.65623">
        <ele>384.52</ele>
        <time>2021-06-24T08:45:08.000Z</time>
      </trkpt>
      <trkpt lat="43.11871" lon="0.65599">
        <ele>384.5</ele>
        <time>2021-06-24T08:45:13.000Z</time>
      </trkpt>
      <trkpt lat="43.11863" lon="0.65575">
        <ele>384.5</ele>
        <time>2021-06-24T08:45:18.000Z</time>
      </trkpt>
      <trkpt lat="43.11853" lon="0.65553">
        <ele>384.7</ele>
        <time>2021-06-24T08:45:23.000Z</time>
      </trkpt>
      <trkpt lat="43.11843" lon="0.65528">
        <ele>384.62</ele>
        <time>2021-06-24T08:45:28.000Z</time>
      </trkpt>
      <trkpt lat="43.11835" lon="0.65503">
        <ele>384.77</ele>
        <time>2021-06-24T08:45:33.000Z</time>
      </trkpt>
      <trkpt lat="43.11826" lon="0.65473">
        <ele>384.97</ele>
        <time>2021-06-24T08:45:38.000Z</time>
      </trkpt>
      <trkpt lat="43.11814" lon="0.65441">
        <ele>385.37</ele>
        <time>2021-06-24T08:45:43.000Z</time>
      </trkpt>
      <trkpt lat="43.11801" lon="0.65407">
        <ele>385.72</ele>
        <time>2021-06-24T08:45:48.000Z</time>
      </trkpt>
      <trkpt lat="43.11787" lon="0.65371">
        <ele>385.6</ele>
        <time>2021-06-24T08:45:53.000Z</time>
      </trkpt>
      <trkpt lat="43.11776" lon="0.65337">
        <ele>385.52</ele>
        <time>2021-06-24T08:45:58.000Z</time>
      </trkpt>
      <trkpt lat="43.11766" lon="0.65308">
        <ele>385.49</ele>
        <time>2021-06-24T08:46:03.000Z</time>
      </trkpt>
      <trkpt lat="43.11757" lon="0.65281">
        <ele>385.11</ele>
        <time>2021-06-24T08:46:08.000Z</time>
      </trkpt>
      <trkpt lat="43.11745" lon="0.65255">
        <ele>384.01</ele>
        <time>2021-06-24T08:46:13.000Z</time>
      </trkpt>
      <trkpt lat="43.11736" lon="0.65228">
        <ele>383.18</ele>
        <time>2021-06-24T08:46:18.000Z</time>
      </trkpt>
      <trkpt lat="43.11726" lon="0.65198">
        <ele>383.71</ele>
        <time>2021-06-24T08:46:23.000Z</time>
      </trkpt>
      <trkpt lat="43.11715" lon="0.65169">
        <ele>385.99</ele>
        <time>2021-06-24T08:46:28.000Z</time>
      </trkpt>
      <trkpt lat="43.11704" lon="0.65138">
        <ele>386.82</ele>
        <time>2021-06-24T08:46:33.000Z</time>
      </trkpt>
      <trkpt lat="43.11696" lon="0.65107">
        <ele>387.08</ele>
        <time>2021-06-24T08:46:38.000Z</time>
      </trkpt>
      <trkpt lat="43.1169" lon="0.6508">
        <ele>388.58</ele>
        <time>2021-06-24T08:46:43.000Z</time>
      </trkpt>
      <trkpt lat="43.11683" lon="0.65052">
        <ele>390.33</ele>
        <time>2021-06-24T08:46:48.000Z</time>
      </trkpt>
      <trkpt lat="43.11676" lon="0.65025">
        <ele>391.33</ele>
        <time>2021-06-24T08:46:53.000Z</time>
      </trkpt>
      <trkpt lat="43.11669" lon="0.64997">
        <ele>391.94</ele>
        <time>2021-06-24T08:46:58.000Z</time>
      </trkpt>
      <trkpt lat="43.11662" lon="0.6497">
        <ele>392.16</ele>
        <time>2021-06-24T08:47:03.000Z</time>
      </trkpt>
      <trkpt lat="43.11657" lon="0.64944">
        <ele>392.01</ele>
        <time>2021-06-24T08:47:08.000Z</time>
      </trkpt>
      <trkpt lat="43.11653" lon="0.64921">
        <ele>391.55</ele>
        <time>2021-06-24T08:47:13.000Z</time>
      </trkpt>
      <trkpt lat="43.1165" lon="0.64898">
        <ele>391.42</ele>
        <time>2021-06-24T08:47:18.000Z</time>
      </trkpt>
      <trkpt lat="43.11647" lon="0.64875">
        <ele>390.25</ele>
        <time>2021-06-24T08:47:23.000Z</time>
      </trkpt>
      <trkpt lat="43.11643" lon="0.6485">
        <ele>389.69</ele>
        <time>2021-06-24T08:47:28.000Z</time>
      </trkpt>
      <trkpt lat="43.11638" lon="0.64826">
        <ele>388.99</ele>
        <time>2021-06-24T08:47:33.000Z</time>
      </trkpt>
      <trkpt lat="43.11638" lon="0.64804">
        <ele>388.52</ele>
        <time>2021-06-24T08:47:38.000Z</time>
      </trkpt>
      <trkpt lat="43.11637" lon="0.64781">
        <ele>389.16</ele>
        <time>2021-06-24T08:47:43.000Z</time>
      </trkpt>
      <trkpt lat="43.11633" lon="0.64756">
        <ele>389.28</ele>
        <time>2021-06-24T08:47:48.000Z</time>
      </trkpt>
      <trkpt lat="43.11633" lon="0.6473">
        <ele>390.53</ele>
        <time>2021-06-24T08:47:53.000Z</time>
      </trkpt>
      <trkpt lat="43.11634" lon="0.64703">
        <ele>392.59</ele>
        <time>2021-06-24T08:47:58.000Z</time>
      </trkpt>
      <trkpt lat="43.11634" lon="0.64676">
        <ele>393.36</ele>
        <time>2021-06-24T08:48:03.000Z</time>
      </trkpt>
      <trkpt lat="43.11635" lon="0.64649">
        <ele>393.8</ele>
        <time>2021-06-24T08:48:08.000Z</time>
      </trkpt>
      <trkpt lat="43.11635" lon="0.64622">
        <ele>393.58</ele>
        <time>2021-06-24T08:48:13.000Z</time>
      </trkpt>
      <trkpt lat="43.11636" lon="0.64596">
        <ele>393.5</ele>
        <time>2021-06-24T08:48:18.000Z</time>
      </trkpt>
      <trkpt lat="43.11636" lon="0.64569">
        <ele>392.99</ele>
        <time>2021-06-24T08:48:23.000Z</time>
      </trkpt>
      <trkpt lat="43.11637" lon="0.64545">
        <ele>392.34</ele>
        <time>2021-06-24T08:48:28.000Z</time>
      </trkpt>
      <trkpt lat="43.11638" lon="0.64518">
        <ele>392.47</ele>
        <time>2021-06-24T08:48:33.000Z</time>
      </trkpt>
      <trkpt lat="43.11638" lon="0.64493">
        <ele>392.63</ele>
        <time>2021-06-24T08:48:38.000Z</time>
      </trkpt>
      <trkpt lat="43.11634" lon="0.64468">
        <ele>391.84</ele>
        <time>2021-06-24T08:48:43.000Z</time>
      </trkpt>
      <trkpt lat="43.1163" lon="0.64444">
        <ele>391.89</ele>
        <time>2021-06-24T08:48:48.000Z</time>
      </trkpt>
      <trkpt lat="43.11624" lon="0.64418">
        <ele>390.47</ele>
        <time>2021-06-24T08:48:53.000Z</time>
      </trkpt>
      <trkpt lat="43.11617" lon="0.64392">
        <ele>389.49</ele>
        <time>2021-06-24T08:48:58.000Z</time>
      </trkpt>
      <trkpt lat="43.11608" lon="0.64367">
        <ele>389.46</ele>
        <time>2021-06-24T08:49:03.000Z</time>
      </trkpt>
      <trkpt lat="43.116" lon="0.64346">
        <ele>389.36</ele>
        <time>2021-06-24T08:49:08.000Z</time>
      </trkpt>
      <trkpt lat="43.11589" lon="0.64324">
        <ele>390.13</ele>
        <time>2021-06-24T08:49:13.000Z</time>
      </trkpt>
      <trkpt lat="43.11576" lon="0.64296">
        <ele>390.72</ele>
        <time>2021-06-24T08:49:18.000Z</time>
      </trkpt>
      <trkpt lat="43.11562" lon="0.64273">
        <ele>391.51</ele>
        <time>2021-06-24T08:49:23.000Z</time>
      </trkpt>
      <trkpt lat="43.11547" lon="0.64252">
        <ele>393.61</ele>
        <time>2021-06-24T08:49:28.000Z</time>
      </trkpt>
      <trkpt lat="43.11533" lon="0.64234">
        <ele>395.33</ele>
        <time>2021-06-24T08:49:33.000Z</time>
      </trkpt>
      <trkpt lat="43.11517" lon="0.64217">
        <ele>396.59</ele>
        <time>2021-06-24T08:49:38.000Z</time>
      </trkpt>
      <trkpt lat="43.11498" lon="0.642">
        <ele>398.42</ele>
        <time>2021-06-24T08:49:43.000Z</time>
      </trkpt>
      <trkpt lat="43.11479" lon="0.64183">
        <ele>398.58</ele>
        <time>2021-06-24T08:49:48.000Z</time>
      </trkpt>
      <trkpt lat="43.11462" lon="0.64165">
        <ele>398.67</ele>
        <time>2021-06-24T08:49:53.000Z</time>
      </trkpt>
      <trkpt lat="43.11442" lon="0.64146">
        <ele>398.16</ele>
        <time>2021-06-24T08:49:58.000Z</time>
      </trkpt>
      <trkpt lat="43.11421" lon="0.64125">
        <ele>397.93</ele>
        <time>2021-06-24T08:50:03.000Z</time>
      </trkpt>
      <trkpt lat="43.11399" lon="0.64104">
        <ele>397.71</ele>
        <time>2021-06-24T08:50:08.000Z</time>
      </trkpt>
      <trkpt lat="43.11377" lon="0.64081">
        <ele>397.87</ele>
        <time>2021-06-24T08:50:13.000Z</time>
      </trkpt>
      <trkpt lat="43.11353" lon="0.64054">
        <ele>396.96</ele>
        <time>2021-06-24T08:50:18.000Z</time>
      </trkpt>
      <trkpt lat="43.1133" lon="0.64022">
        <ele>395.99</ele>
        <time>2021-06-24T08:50:23.000Z</time>
      </trkpt>
      <trkpt lat="43.11308" lon="0.63989">
        <ele>396.72</ele>
        <time>2021-06-24T08:50:28.000Z</time>
      </trkpt>
      <trkpt lat="43.11291" lon="0.63956">
        <ele>396.64</ele>
        <time>2021-06-24T08:50:33.000Z</time>
      </trkpt>
      <trkpt lat="43.11277" lon="0.63922">
        <ele>395.62</ele>
        <time>2021-06-24T08:50:38.000Z</time>
      </trkpt>
      <trkpt lat="43.11265" lon="0.63891">
        <ele>393.51</ele>
        <time>2021-06-24T08:50:43.000Z</time>
      </trkpt>
      <trkpt lat="43.11256" lon="0.63864">
        <ele>392.93</ele>
        <time>2021-06-24T08:50:48.000Z</time>
      </trkpt>
      <trkpt lat="43.11247" lon="0.63838">
        <ele>392.07</ele>
        <time>2021-06-24T08:50:53.000Z</time>
      </trkpt>
      <trkpt lat="43.11236" lon="0.6381">
        <ele>391.24</ele>
        <time>2021-06-24T08:50:58.000Z</time>
      </trkpt>
      <trkpt lat="43.11226" lon="0.63781">
        <ele>390.9</ele>
        <time>2021-06-24T08:51:03.000Z</time>
      </trkpt>
      <trkpt lat="43.11218" lon="0.63752">
        <ele>391.24</ele>
        <time>2021-06-24T08:51:08.000Z</time>
      </trkpt>
      <trkpt lat="43.11208" lon="0.63725">
        <ele>391</ele>
        <time>2021-06-24T08:51:13.000Z</time>
      </trkpt>
      <trkpt lat="43.11203" lon="0.63697">
        <ele>392.08</ele>
        <time>2021-06-24T08:51:18.000Z</time>
      </trkpt>
      <trkpt lat="43.11193" lon="0.6367">
        <ele>393.89</ele>
        <time>2021-06-24T08:51:23.000Z</time>
      </trkpt>
      <trkpt lat="43.11183" lon="0.63643">
        <ele>394.88</ele>
        <time>2021-06-24T08:51:28.000Z</time>
      </trkpt>
      <trkpt lat="43.11175" lon="0.63614">
        <ele>395.87</ele>
        <time>2021-06-24T08:51:33.000Z</time>
      </trkpt>
      <trkpt lat="43.11164" lon="0.63588">
        <ele>396.36</ele>
        <time>2021-06-24T08:51:38.000Z</time>
      </trkpt>
      <trkpt lat="43.11152" lon="0.63563">
        <ele>395.94</ele>
        <time>2021-06-24T08:51:43.000Z</time>
      </trkpt>
      <trkpt lat="43.1114" lon="0.63537">
        <ele>396.29</ele>
        <time>2021-06-24T08:51:48.000Z</time>
      </trkpt>
      <trkpt lat="43.11132" lon="0.6351">
        <ele>394.11</ele>
        <time>2021-06-24T08:51:53.000Z</time>
      </trkpt>
      <trkpt lat="43.11123" lon="0.63487">
        <ele>393.97</ele>
        <time>2021-06-24T08:51:58.000Z</time>
      </trkpt>
      <trkpt lat="43.11113" lon="0.63463">
        <ele>394.37</ele>
        <time>2021-06-24T08:52:03.000Z</time>
      </trkpt>
      <trkpt lat="43.11104" lon="0.63437">
        <ele>393.34</ele>
        <time>2021-06-24T08:52:08.000Z</time>
      </trkpt>
      <trkpt lat="43.11094" lon="0.63412">
        <ele>393.06</ele>
        <time>2021-06-24T08:52:13.000Z</time>
      </trkpt>
      <trkpt lat="43.11085" lon="0.63387">
        <ele>391.27</ele>
        <time>2021-06-24T08:52:18.000Z</time>
      </trkpt>
      <trkpt lat="43.11074" lon="0.63359">
        <ele>390.96</ele>
        <time>2021-06-24T08:52:23.000Z</time>
      </trkpt>
      <trkpt lat="43.11064" lon="0.63331">
        <ele>389.63</ele>
        <time>2021-06-24T08:52:28.000Z</time>
      </trkpt>
      <trkpt lat="43.11056" lon="0.63305">
        <ele>389.38</ele>
        <time>2021-06-24T08:52:33.000Z</time>
      </trkpt>
      <trkpt lat="43.11045" lon="0.63277">
        <ele>389.35</ele>
        <time>2021-06-24T08:52:38.000Z</time>
      </trkpt>
      <trkpt lat="43.11036" lon="0.6325">
        <ele>389.08</ele>
        <time>2021-06-24T08:52:43.000Z</time>
      </trkpt>
      <trkpt lat="43.11025" lon="0.63223">
        <ele>388.46</ele>
        <time>2021-06-24T08:52:48.000Z</time>
      </trkpt>
      <trkpt lat="43.11014" lon="0.63196">
        <ele>385.63</ele>
        <time>2021-06-24T08:52:53.000Z</time>
      </trkpt>
      <trkpt lat="43.11004" lon="0.6317">
        <ele>383.89</ele>
        <time>2021-06-24T08:52:58.000Z</time>
      </trkpt>
      <trkpt lat="43.10993" lon="0.63142">
        <ele>383.56</ele>
        <time>2021-06-24T08:53:03.000Z</time>
      </trkpt>
      <trkpt lat="43.10983" lon="0.63116">
        <ele>383.35</ele>
        <time>2021-06-24T08:53:08.000Z</time>
      </trkpt>
      <trkpt lat="43.10975" lon="0.6309">
        <ele>383.7</ele>
        <time>2021-06-24T08:53:13.000Z</time>
      </trkpt>
      <trkpt lat="43.10965" lon="0.63064">
        <ele>382.67</ele>
        <time>2021-06-24T08:53:18.000Z</time>
      </trkpt>
      <trkpt lat="43.10953" lon="0.63031">
        <ele>383.11</ele>
        <time>2021-06-24T08:53:23.000Z</time>
      </trkpt>
      <trkpt lat="43.10941" lon="0.63001">
        <ele>383.72</ele>
        <time>2021-06-24T08:53:28.000Z</time>
      </trkpt>
      <trkpt lat="43.10933" lon="0.62974">
        <ele>384.16</ele>
        <time>2021-06-24T08:53:33.000Z</time>
      </trkpt>
      <trkpt lat="43.10923" lon="0.62946">
        <ele>384.49</ele>
        <time>2021-06-24T08:53:38.000Z</time>
      </trkpt>
      <trkpt lat="43.10914" lon="0.62919">
        <ele>384.22</ele>
        <time>2021-06-24T08:53:43.000Z</time>
      </trkpt>
      <trkpt lat="43.10903" lon="0.62889">
        <ele>385.26</ele>
        <time>2021-06-24T08:53:48.000Z</time>
      </trkpt>
      <trkpt lat="43.10895" lon="0.62862">
        <ele>386.64</ele>
        <time>2021-06-24T08:53:53.000Z</time>
      </trkpt>
      <trkpt lat="43.10886" lon="0.62837">
        <ele>387.65</ele>
        <time>2021-06-24T08:53:58.000Z</time>
      </trkpt>
      <trkpt lat="43.10878" lon="0.62811">
        <ele>387.58</ele>
        <time>2021-06-24T08:54:03.000Z</time>
      </trkpt>
      <trkpt lat="43.1087" lon="0.62786">
        <ele>386.75</ele>
        <time>2021-06-24T08:54:08.000Z</time>
      </trkpt>
      <trkpt lat="43.10861" lon="0.62759">
        <ele>386.31</ele>
        <time>2021-06-24T08:54:13.000Z</time>
      </trkpt>
      <trkpt lat="43.10851" lon="0.62731">
        <ele>386.3</ele>
        <time>2021-06-24T08:54:18.000Z</time>
      </trkpt>
      <trkpt lat="43.10843" lon="0.62706">
        <ele>387.66</ele>
        <time>2021-06-24T08:54:23.000Z</time>
      </trkpt>
      <trkpt lat="43.10833" lon="0.62682">
        <ele>387.48</ele>
        <time>2021-06-24T08:54:28.000Z</time>
      </trkpt>
      <trkpt lat="43.10825" lon="0.62657">
        <ele>387.97</ele>
        <time>2021-06-24T08:54:33.000Z</time>
      </trkpt>
      <trkpt lat="43.10816" lon="0.62631">
        <ele>388.37</ele>
        <time>2021-06-24T08:54:38.000Z</time>
      </trkpt>
      <trkpt lat="43.10806" lon="0.62604">
        <ele>387.46</ele>
        <time>2021-06-24T08:54:43.000Z</time>
      </trkpt>
      <trkpt lat="43.10796" lon="0.62576">
        <ele>386.32</ele>
        <time>2021-06-24T08:54:48.000Z</time>
      </trkpt>
      <trkpt lat="43.10786" lon="0.62549">
        <ele>386.1</ele>
        <time>2021-06-24T08:54:53.000Z</time>
      </trkpt>
      <trkpt lat="43.10776" lon="0.62522">
        <ele>387.55</ele>
        <time>2021-06-24T08:54:58.000Z</time>
      </trkpt>
      <trkpt lat="43.10766" lon="0.62496">
        <ele>388.63</ele>
        <time>2021-06-24T08:55:03.000Z</time>
      </trkpt>
      <trkpt lat="43.10756" lon="0.6247">
        <ele>389.41</ele>
        <time>2021-06-24T08:55:08.000Z</time>
      </trkpt>
      <trkpt lat="43.10746" lon="0.62443">
        <ele>389.64</ele>
        <time>2021-06-24T08:55:13.000Z</time>
      </trkpt>
      <trkpt lat="43.10736" lon="0.62414">
        <ele>388.52</ele>
        <time>2021-06-24T08:55:18.000Z</time>
      </trkpt>
      <trkpt lat="43.10726" lon="0.62384">
        <ele>387.42</ele>
        <time>2021-06-24T08:55:23.000Z</time>
      </trkpt>
      <trkpt lat="43.10714" lon="0.62353">
        <ele>387.52</ele>
        <time>2021-06-24T08:55:28.000Z</time>
      </trkpt>
      <trkpt lat="43.10704" lon="0.62324">
        <ele>387.24</ele>
        <time>2021-06-24T08:55:33.000Z</time>
      </trkpt>
      <trkpt lat="43.10693" lon="0.62297">
        <ele>386.76</ele>
        <time>2021-06-24T08:55:38.000Z</time>
      </trkpt>
      <trkpt lat="43.10683" lon="0.6227">
        <ele>385.79</ele>
        <time>2021-06-24T08:55:43.000Z</time>
      </trkpt>
      <trkpt lat="43.10674" lon="0.62241">
        <ele>385.71</ele>
        <time>2021-06-24T08:55:48.000Z</time>
      </trkpt>
      <trkpt lat="43.10665" lon="0.62213">
        <ele>384.72</ele>
        <time>2021-06-24T08:55:53.000Z</time>
      </trkpt>
      <trkpt lat="43.10656" lon="0.62183">
        <ele>384.48</ele>
        <time>2021-06-24T08:55:58.000Z</time>
      </trkpt>
      <trkpt lat="43.10645" lon="0.62151">
        <ele>384.99</ele>
        <time>2021-06-24T08:56:03.000Z</time>
      </trkpt>
      <trkpt lat="43.10634" lon="0.62119">
        <ele>385.3</ele>
        <time>2021-06-24T08:56:08.000Z</time>
      </trkpt>
      <trkpt lat="43.10623" lon="0.62086">
        <ele>385.4</ele>
        <time>2021-06-24T08:56:13.000Z</time>
      </trkpt>
      <trkpt lat="43.10612" lon="0.6205">
        <ele>385.22</ele>
        <time>2021-06-24T08:56:18.000Z</time>
      </trkpt>
      <trkpt lat="43.10597" lon="0.62012">
        <ele>384.64</ele>
        <time>2021-06-24T08:56:23.000Z</time>
      </trkpt>
      <trkpt lat="43.10583" lon="0.61973">
        <ele>384.48</ele>
        <time>2021-06-24T08:56:28.000Z</time>
      </trkpt>
      <trkpt lat="43.10565" lon="0.61928">
        <ele>384.23</ele>
        <time>2021-06-24T08:56:33.000Z</time>
      </trkpt>
      <trkpt lat="43.1055" lon="0.61886">
        <ele>383.8</ele>
        <time>2021-06-24T08:56:38.000Z</time>
      </trkpt>
      <trkpt lat="43.10536" lon="0.61845">
        <ele>384.05</ele>
        <time>2021-06-24T08:56:43.000Z</time>
      </trkpt>
      <trkpt lat="43.10523" lon="0.61808">
        <ele>384.66</ele>
        <time>2021-06-24T08:56:48.000Z</time>
      </trkpt>
      <trkpt lat="43.10511" lon="0.61774">
        <ele>384.94</ele>
        <time>2021-06-24T08:56:53.000Z</time>
      </trkpt>
      <trkpt lat="43.10498" lon="0.61741">
        <ele>385.58</ele>
        <time>2021-06-24T08:56:58.000Z</time>
      </trkpt>
      <trkpt lat="43.10487" lon="0.61708">
        <ele>385.26</ele>
        <time>2021-06-24T08:57:03.000Z</time>
      </trkpt>
      <trkpt lat="43.10477" lon="0.61677">
        <ele>385.14</ele>
        <time>2021-06-24T08:57:08.000Z</time>
      </trkpt>
      <trkpt lat="43.10467" lon="0.61648">
        <ele>384.92</ele>
        <time>2021-06-24T08:57:13.000Z</time>
      </trkpt>
      <trkpt lat="43.10457" lon="0.61621">
        <ele>385.93</ele>
        <time>2021-06-24T08:57:18.000Z</time>
      </trkpt>
      <trkpt lat="43.10445" lon="0.61594">
        <ele>387.21</ele>
        <time>2021-06-24T08:57:23.000Z</time>
      </trkpt>
      <trkpt lat="43.10436" lon="0.61566">
        <ele>387.21</ele>
        <time>2021-06-24T08:57:28.000Z</time>
      </trkpt>
      <trkpt lat="43.10426" lon="0.61538">
        <ele>387.12</ele>
        <time>2021-06-24T08:57:33.000Z</time>
      </trkpt>
      <trkpt lat="43.10416" lon="0.6151">
        <ele>387.38</ele>
        <time>2021-06-24T08:57:38.000Z</time>
      </trkpt>
      <trkpt lat="43.10406" lon="0.61481">
        <ele>387.91</ele>
        <time>2021-06-24T08:57:43.000Z</time>
      </trkpt>
      <trkpt lat="43.10396" lon="0.61453">
        <ele>389.04</ele>
        <time>2021-06-24T08:57:48.000Z</time>
      </trkpt>
      <trkpt lat="43.10386" lon="0.61425">
        <ele>389.7</ele>
        <time>2021-06-24T08:57:53.000Z</time>
      </trkpt>
      <trkpt lat="43.10377" lon="0.61399">
        <ele>390.58</ele>
        <time>2021-06-24T08:57:58.000Z</time>
      </trkpt>
      <trkpt lat="43.10369" lon="0.61375">
        <ele>390.67</ele>
        <time>2021-06-24T08:58:03.000Z</time>
      </trkpt>
      <trkpt lat="43.10357" lon="0.6135">
        <ele>389.9</ele>
        <time>2021-06-24T08:58:08.000Z</time>
      </trkpt>
      <trkpt lat="43.10348" lon="0.61324">
        <ele>390.34</ele>
        <time>2021-06-24T08:58:13.000Z</time>
      </trkpt>
      <trkpt lat="43.10341" lon="0.61298">
        <ele>390.87</ele>
        <time>2021-06-24T08:58:18.000Z</time>
      </trkpt>
      <trkpt lat="43.10334" lon="0.61276">
        <ele>391.75</ele>
        <time>2021-06-24T08:58:23.000Z</time>
      </trkpt>
      <trkpt lat="43.10325" lon="0.61256">
        <ele>392.2</ele>
        <time>2021-06-24T08:58:28.000Z</time>
      </trkpt>
      <trkpt lat="43.10317" lon="0.61235">
        <ele>392.13</ele>
        <time>2021-06-24T08:58:33.000Z</time>
      </trkpt>
      <trkpt lat="43.10309" lon="0.61215">
        <ele>391.78</ele>
        <time>2021-06-24T08:58:38.000Z</time>
      </trkpt>
      <trkpt lat="43.10301" lon="0.61189">
        <ele>391.99</ele>
        <time>2021-06-24T08:58:43.000Z</time>
      </trkpt>
      <trkpt lat="43.10293" lon="0.61159">
        <ele>392.22</ele>
        <time>2021-06-24T08:58:48.000Z</time>
      </trkpt>
      <trkpt lat="43.10282" lon="0.6113">
        <ele>393.25</ele>
        <time>2021-06-24T08:58:53.000Z</time>
      </trkpt>
      <trkpt lat="43.10272" lon="0.61104">
        <ele>394.03</ele>
        <time>2021-06-24T08:58:58.000Z</time>
      </trkpt>
      <trkpt lat="43.10263" lon="0.61079">
        <ele>396</ele>
        <time>2021-06-24T08:59:03.000Z</time>
      </trkpt>
      <trkpt lat="43.10253" lon="0.61054">
        <ele>397.05</ele>
        <time>2021-06-24T08:59:08.000Z</time>
      </trkpt>
      <trkpt lat="43.10246" lon="0.61027">
        <ele>397.57</ele>
        <time>2021-06-24T08:59:13.000Z</time>
      </trkpt>
      <trkpt lat="43.10236" lon="0.61002">
        <ele>397.39</ele>
        <time>2021-06-24T08:59:18.000Z</time>
      </trkpt>
      <trkpt lat="43.10226" lon="0.60978">
        <ele>397.02</ele>
        <time>2021-06-24T08:59:23.000Z</time>
      </trkpt>
      <trkpt lat="43.10218" lon="0.60953">
        <ele>397.08</ele>
        <time>2021-06-24T08:59:28.000Z</time>
      </trkpt>
      <trkpt lat="43.10208" lon="0.60928">
        <ele>396.71</ele>
        <time>2021-06-24T08:59:33.000Z</time>
      </trkpt>
      <trkpt lat="43.10201" lon="0.60903">
        <ele>397.07</ele>
        <time>2021-06-24T08:59:38.000Z</time>
      </trkpt>
      <trkpt lat="43.10191" lon="0.6088">
        <ele>396.06</ele>
        <time>2021-06-24T08:59:43.000Z</time>
      </trkpt>
      <trkpt lat="43.1018" lon="0.60854">
        <ele>393.72</ele>
        <time>2021-06-24T08:59:48.000Z</time>
      </trkpt>
      <trkpt lat="43.1017" lon="0.60828">
        <ele>392.6</ele>
        <time>2021-06-24T08:59:53.000Z</time>
      </trkpt>
      <trkpt lat="43.10163" lon="0.60803">
        <ele>393.92</ele>
        <time>2021-06-24T08:59:58.000Z</time>
      </trkpt>
      <trkpt lat="43.10156" lon="0.60779">
        <ele>395.47</ele>
        <time>2021-06-24T09:00:03.000Z</time>
      </trkpt>
      <trkpt lat="43.10149" lon="0.60756">
        <ele>396.46</ele>
        <time>2021-06-24T09:00:08.000Z</time>
      </trkpt>
      <trkpt lat="43.10144" lon="0.60732">
        <ele>395.77</ele>
        <time>2021-06-24T09:00:13.000Z</time>
      </trkpt>
      <trkpt lat="43.10136" lon="0.60709">
        <ele>396.59</ele>
        <time>2021-06-24T09:00:18.000Z</time>
      </trkpt>
      <trkpt lat="43.10127" lon="0.60686">
        <ele>395.94</ele>
        <time>2021-06-24T09:00:23.000Z</time>
      </trkpt>
      <trkpt lat="43.10117" lon="0.60665">
        <ele>395.3</ele>
        <time>2021-06-24T09:00:28.000Z</time>
      </trkpt>
      <trkpt lat="43.10109" lon="0.60642">
        <ele>393.58</ele>
        <time>2021-06-24T09:00:33.000Z</time>
      </trkpt>
      <trkpt lat="43.101" lon="0.60621">
        <ele>394.34</ele>
        <time>2021-06-24T09:00:38.000Z</time>
      </trkpt>
      <trkpt lat="43.10094" lon="0.60602">
        <ele>395.98</ele>
        <time>2021-06-24T09:00:43.000Z</time>
      </trkpt>
      <trkpt lat="43.10092" lon="0.60587">
        <ele>397.64</ele>
        <time>2021-06-24T09:00:48.000Z</time>
      </trkpt>
      <trkpt lat="43.10089" lon="0.60572">
        <ele>408.03</ele>
        <time>2021-06-24T09:03:52.000Z</time>
      </trkpt>
      <trkpt lat="43.10081" lon="0.60546">
        <ele>407.46</ele>
        <time>2021-06-24T09:03:57.000Z</time>
      </trkpt>
      <trkpt lat="43.10072" lon="0.60523">
        <ele>406.37</ele>
        <time>2021-06-24T09:04:02.000Z</time>
      </trkpt>
      <trkpt lat="43.10063" lon="0.60499">
        <ele>406.47</ele>
        <time>2021-06-24T09:04:07.000Z</time>
      </trkpt>
      <trkpt lat="43.10053" lon="0.60472">
        <ele>406.97</ele>
        <time>2021-06-24T09:04:12.000Z</time>
      </trkpt>
      <trkpt lat="43.10044" lon="0.60446">
        <ele>406.86</ele>
        <time>2021-06-24T09:04:17.000Z</time>
      </trkpt>
      <trkpt lat="43.10034" lon="0.60421">
        <ele>406.49</ele>
        <time>2021-06-24T09:04:22.000Z</time>
      </trkpt>
      <trkpt lat="43.10023" lon="0.60396">
        <ele>408.78</ele>
        <time>2021-06-24T09:04:27.000Z</time>
      </trkpt>
      <trkpt lat="43.10012" lon="0.60369">
        <ele>408.87</ele>
        <time>2021-06-24T09:04:32.000Z</time>
      </trkpt>
      <trkpt lat="43.10002" lon="0.60344">
        <ele>410.05</ele>
        <time>2021-06-24T09:04:37.000Z</time>
      </trkpt>
      <trkpt lat="43.09993" lon="0.60316">
        <ele>410.4</ele>
        <time>2021-06-24T09:04:42.000Z</time>
      </trkpt>
      <trkpt lat="43.09983" lon="0.60286">
        <ele>410.2</ele>
        <time>2021-06-24T09:04:47.000Z</time>
      </trkpt>
      <trkpt lat="43.09972" lon="0.60256">
        <ele>410.18</ele>
        <time>2021-06-24T09:04:52.000Z</time>
      </trkpt>
      <trkpt lat="43.09962" lon="0.60227">
        <ele>409.43</ele>
        <time>2021-06-24T09:04:57.000Z</time>
      </trkpt>
      <trkpt lat="43.09951" lon="0.60199">
        <ele>409.07</ele>
        <time>2021-06-24T09:05:02.000Z</time>
      </trkpt>
      <trkpt lat="43.09938" lon="0.60171">
        <ele>408.39</ele>
        <time>2021-06-24T09:05:07.000Z</time>
      </trkpt>
      <trkpt lat="43.09926" lon="0.60143">
        <ele>409.32</ele>
        <time>2021-06-24T09:05:12.000Z</time>
      </trkpt>
      <trkpt lat="43.09913" lon="0.60118">
        <ele>410.12</ele>
        <time>2021-06-24T09:05:17.000Z</time>
      </trkpt>
      <trkpt lat="43.09899" lon="0.60093">
        <ele>409.81</ele>
        <time>2021-06-24T09:05:22.000Z</time>
      </trkpt>
      <trkpt lat="43.09885" lon="0.60071">
        <ele>410.5</ele>
        <time>2021-06-24T09:05:27.000Z</time>
      </trkpt>
      <trkpt lat="43.09872" lon="0.60048">
        <ele>411.84</ele>
        <time>2021-06-24T09:05:32.000Z</time>
      </trkpt>
      <trkpt lat="43.09858" lon="0.60026">
        <ele>413.59</ele>
        <time>2021-06-24T09:05:37.000Z</time>
      </trkpt>
      <trkpt lat="43.09844" lon="0.60005">
        <ele>415.31</ele>
        <time>2021-06-24T09:05:42.000Z</time>
      </trkpt>
      <trkpt lat="43.09831" lon="0.59985">
        <ele>417.48</ele>
        <time>2021-06-24T09:05:47.000Z</time>
      </trkpt>
      <trkpt lat="43.09816" lon="0.59967">
        <ele>419.5</ele>
        <time>2021-06-24T09:05:52.000Z</time>
      </trkpt>
      <trkpt lat="43.09798" lon="0.59948">
        <ele>420.24</ele>
        <time>2021-06-24T09:05:57.000Z</time>
      </trkpt>
      <trkpt lat="43.09783" lon="0.59929">
        <ele>420.47</ele>
        <time>2021-06-24T09:06:02.000Z</time>
      </trkpt>
      <trkpt lat="43.0977" lon="0.59911">
        <ele>421.15</ele>
        <time>2021-06-24T09:06:07.000Z</time>
      </trkpt>
      <trkpt lat="43.09754" lon="0.59887">
        <ele>420.07</ele>
        <time>2021-06-24T09:06:12.000Z</time>
      </trkpt>
      <trkpt lat="43.09741" lon="0.59858">
        <ele>419.27</ele>
        <time>2021-06-24T09:06:17.000Z</time>
      </trkpt>
      <trkpt lat="43.09734" lon="0.59832">
        <ele>419.18</ele>
        <time>2021-06-24T09:06:22.000Z</time>
      </trkpt>
      <trkpt lat="43.09731" lon="0.59808">
        <ele>419</ele>
        <time>2021-06-24T09:06:27.000Z</time>
      </trkpt>
      <trkpt lat="43.09733" lon="0.59783">
        <ele>419.83</ele>
        <time>2021-06-24T09:06:32.000Z</time>
      </trkpt>
      <trkpt lat="43.09727" lon="0.59755">
        <ele>419.09</ele>
        <time>2021-06-24T09:06:37.000Z</time>
      </trkpt>
      <trkpt lat="43.09713" lon="0.59735">
        <ele>418.51</ele>
        <time>2021-06-24T09:06:42.000Z</time>
      </trkpt>
      <trkpt lat="43.09702" lon="0.5971">
        <ele>418.38</ele>
        <time>2021-06-24T09:06:47.000Z</time>
      </trkpt>
      <trkpt lat="43.09692" lon="0.59682">
        <ele>417.98</ele>
        <time>2021-06-24T09:06:52.000Z</time>
      </trkpt>
      <trkpt lat="43.09681" lon="0.59651">
        <ele>418.09</ele>
        <time>2021-06-24T09:06:57.000Z</time>
      </trkpt>
      <trkpt lat="43.09672" lon="0.59623">
        <ele>418.17</ele>
        <time>2021-06-24T09:07:02.000Z</time>
      </trkpt>
      <trkpt lat="43.09665" lon="0.59593">
        <ele>417.47</ele>
        <time>2021-06-24T09:07:07.000Z</time>
      </trkpt>
      <trkpt lat="43.09657" lon="0.59562">
        <ele>416.57</ele>
        <time>2021-06-24T09:07:12.000Z</time>
      </trkpt>
      <trkpt lat="43.09648" lon="0.59529">
        <ele>415.62</ele>
        <time>2021-06-24T09:07:17.000Z</time>
      </trkpt>
      <trkpt lat="43.09642" lon="0.59492">
        <ele>414.84</ele>
        <time>2021-06-24T09:07:22.000Z</time>
      </trkpt>
      <trkpt lat="43.09636" lon="0.59455">
        <ele>414.38</ele>
        <time>2021-06-24T09:07:27.000Z</time>
      </trkpt>
      <trkpt lat="43.09628" lon="0.59422">
        <ele>413.76</ele>
        <time>2021-06-24T09:07:32.000Z</time>
      </trkpt>
      <trkpt lat="43.09621" lon="0.59395">
        <ele>412.22</ele>
        <time>2021-06-24T09:07:37.000Z</time>
      </trkpt>
      <trkpt lat="43.09615" lon="0.5937">
        <ele>411.43</ele>
        <time>2021-06-24T09:07:42.000Z</time>
      </trkpt>
      <trkpt lat="43.09611" lon="0.59347">
        <ele>411.01</ele>
        <time>2021-06-24T09:07:47.000Z</time>
      </trkpt>
      <trkpt lat="43.09607" lon="0.59325">
        <ele>410.51</ele>
        <time>2021-06-24T09:07:52.000Z</time>
      </trkpt>
      <trkpt lat="43.09603" lon="0.59304">
        <ele>409.96</ele>
        <time>2021-06-24T09:07:57.000Z</time>
      </trkpt>
      <trkpt lat="43.09599" lon="0.59283">
        <ele>409.07</ele>
        <time>2021-06-24T09:08:02.000Z</time>
      </trkpt>
      <trkpt lat="43.09597" lon="0.59262">
        <ele>408.51</ele>
        <time>2021-06-24T09:08:07.000Z</time>
      </trkpt>
      <trkpt lat="43.09594" lon="0.59243">
        <ele>408.71</ele>
        <time>2021-06-24T09:08:12.000Z</time>
      </trkpt>
      <trkpt lat="43.09589" lon="0.59224">
        <ele>409.57</ele>
        <time>2021-06-24T09:08:17.000Z</time>
      </trkpt>
      <trkpt lat="43.09586" lon="0.59209">
        <ele>410.37</ele>
        <time>2021-06-24T09:08:22.000Z</time>
      </trkpt>
      <trkpt lat="43.09584" lon="0.59194">
        <ele>410.52</ele>
        <time>2021-06-24T09:08:27.000Z</time>
      </trkpt>
      <trkpt lat="43.09584" lon="0.59172">
        <ele>410.28</ele>
        <time>2021-06-24T09:08:32.000Z</time>
      </trkpt>
      <trkpt lat="43.0958" lon="0.59158">
        <ele>409.83</ele>
        <time>2021-06-24T09:08:37.000Z</time>
      </trkpt>
      <trkpt lat="43.09574" lon="0.59146">
        <ele>410.54</ele>
        <time>2021-06-24T09:08:43.000Z</time>
      </trkpt>
      <trkpt lat="43.0957" lon="0.59135">
        <ele>410.83</ele>
        <time>2021-06-24T09:08:49.000Z</time>
      </trkpt>
      <trkpt lat="43.09564" lon="0.59124">
        <ele>412.98</ele>
        <time>2021-06-24T09:08:55.000Z</time>
      </trkpt>
      <trkpt lat="43.0956" lon="0.59112">
        <ele>413.2</ele>
        <time>2021-06-24T09:09:01.000Z</time>
      </trkpt>
      <trkpt lat="43.09556" lon="0.59101">
        <ele>413.64</ele>
        <time>2021-06-24T09:09:07.000Z</time>
      </trkpt>
      <trkpt lat="43.09552" lon="0.59087">
        <ele>414.39</ele>
        <time>2021-06-24T09:09:13.000Z</time>
      </trkpt>
      <trkpt lat="43.09549" lon="0.59074">
        <ele>415.04</ele>
        <time>2021-06-24T09:09:19.000Z</time>
      </trkpt>
      <trkpt lat="43.09544" lon="0.59061">
        <ele>416.16</ele>
        <time>2021-06-24T09:09:25.000Z</time>
      </trkpt>
      <trkpt lat="43.09541" lon="0.59049">
        <ele>416.3</ele>
        <time>2021-06-24T09:09:30.000Z</time>
      </trkpt>
      <trkpt lat="43.09536" lon="0.59036">
        <ele>415.83</ele>
        <time>2021-06-24T09:09:37.000Z</time>
      </trkpt>
      <trkpt lat="43.09531" lon="0.59024">
        <ele>415.9</ele>
        <time>2021-06-24T09:09:44.000Z</time>
      </trkpt>
      <trkpt lat="43.09526" lon="0.59013">
        <ele>416.22</ele>
        <time>2021-06-24T09:09:51.000Z</time>
      </trkpt>
      <trkpt lat="43.09522" lon="0.59002">
        <ele>416.44</ele>
        <time>2021-06-24T09:09:56.000Z</time>
      </trkpt>
      <trkpt lat="43.09518" lon="0.5899">
        <ele>416.99</ele>
        <time>2021-06-24T09:10:02.000Z</time>
      </trkpt>
      <trkpt lat="43.09513" lon="0.58977">
        <ele>417.17</ele>
        <time>2021-06-24T09:10:09.000Z</time>
      </trkpt>
      <trkpt lat="43.09507" lon="0.58966">
        <ele>417.59</ele>
        <time>2021-06-24T09:10:16.000Z</time>
      </trkpt>
      <trkpt lat="43.09504" lon="0.58954">
        <ele>417.89</ele>
        <time>2021-06-24T09:10:22.000Z</time>
      </trkpt>
      <trkpt lat="43.095" lon="0.58939">
        <ele>417.91</ele>
        <time>2021-06-24T09:10:28.000Z</time>
      </trkpt>
      <trkpt lat="43.09496" lon="0.58928">
        <ele>418</ele>
        <time>2021-06-24T09:10:33.000Z</time>
      </trkpt>
      <trkpt lat="43.09493" lon="0.58915">
        <ele>417.91</ele>
        <time>2021-06-24T09:10:38.000Z</time>
      </trkpt>
      <trkpt lat="43.09489" lon="0.589">
        <ele>418.34</ele>
        <time>2021-06-24T09:10:44.000Z</time>
      </trkpt>
      <trkpt lat="43.09484" lon="0.58885">
        <ele>419.89</ele>
        <time>2021-06-24T09:10:50.000Z</time>
      </trkpt>
      <trkpt lat="43.09479" lon="0.58875">
        <ele>421.4</ele>
        <time>2021-06-24T09:10:55.000Z</time>
      </trkpt>
      <trkpt lat="43.09473" lon="0.58863">
        <ele>423.16</ele>
        <time>2021-06-24T09:11:01.000Z</time>
      </trkpt>
      <trkpt lat="43.09471" lon="0.58849">
        <ele>424.76</ele>
        <time>2021-06-24T09:11:07.000Z</time>
      </trkpt>
      <trkpt lat="43.09464" lon="0.5884">
        <ele>424.89</ele>
        <time>2021-06-24T09:11:12.000Z</time>
      </trkpt>
      <trkpt lat="43.0946" lon="0.58821">
        <ele>427.58</ele>
        <time>2021-06-24T09:11:17.000Z</time>
      </trkpt>
      <trkpt lat="43.09455" lon="0.58809">
        <ele>430.29</ele>
        <time>2021-06-24T09:11:23.000Z</time>
      </trkpt>
      <trkpt lat="43.09449" lon="0.58799">
        <ele>432.8</ele>
        <time>2021-06-24T09:11:29.000Z</time>
      </trkpt>
      <trkpt lat="43.09444" lon="0.58787">
        <ele>434.77</ele>
        <time>2021-06-24T09:11:35.000Z</time>
      </trkpt>
      <trkpt lat="43.09437" lon="0.58779">
        <ele>435.89</ele>
        <time>2021-06-24T09:11:40.000Z</time>
      </trkpt>
      <trkpt lat="43.0943" lon="0.58768">
        <ele>438.41</ele>
        <time>2021-06-24T09:11:47.000Z</time>
      </trkpt>
      <trkpt lat="43.09423" lon="0.58757">
        <ele>440.69</ele>
        <time>2021-06-24T09:11:52.000Z</time>
      </trkpt>
      <trkpt lat="43.09416" lon="0.58742">
        <ele>443.17</ele>
        <time>2021-06-24T09:11:57.000Z</time>
      </trkpt>
      <trkpt lat="43.09406" lon="0.58723">
        <ele>445.6</ele>
        <time>2021-06-24T09:12:02.000Z</time>
      </trkpt>
      <trkpt lat="43.09395" lon="0.58705">
        <ele>447.16</ele>
        <time>2021-06-24T09:12:07.000Z</time>
      </trkpt>
      <trkpt lat="43.09385" lon="0.58688">
        <ele>448.4</ele>
        <time>2021-06-24T09:12:12.000Z</time>
      </trkpt>
      <trkpt lat="43.09373" lon="0.58672">
        <ele>449.43</ele>
        <time>2021-06-24T09:12:17.000Z</time>
      </trkpt>
      <trkpt lat="43.09361" lon="0.58653">
        <ele>448.61</ele>
        <time>2021-06-24T09:12:22.000Z</time>
      </trkpt>
      <trkpt lat="43.09349" lon="0.58633">
        <ele>448.12</ele>
        <time>2021-06-24T09:12:27.000Z</time>
      </trkpt>
      <trkpt lat="43.09338" lon="0.58615">
        <ele>448.44</ele>
        <time>2021-06-24T09:12:32.000Z</time>
      </trkpt>
      <trkpt lat="43.09327" lon="0.58595">
        <ele>447.31</ele>
        <time>2021-06-24T09:12:37.000Z</time>
      </trkpt>
      <trkpt lat="43.09314" lon="0.58575">
        <ele>445.59</ele>
        <time>2021-06-24T09:12:42.000Z</time>
      </trkpt>
      <trkpt lat="43.09301" lon="0.58557">
        <ele>443.81</ele>
        <time>2021-06-24T09:12:47.000Z</time>
      </trkpt>
      <trkpt lat="43.09289" lon="0.5854">
        <ele>442.6</ele>
        <time>2021-06-24T09:12:52.000Z</time>
      </trkpt>
      <trkpt lat="43.09277" lon="0.58517">
        <ele>443.55</ele>
        <time>2021-06-24T09:12:57.000Z</time>
      </trkpt>
      <trkpt lat="43.09265" lon="0.58498">
        <ele>443.02</ele>
        <time>2021-06-24T09:13:02.000Z</time>
      </trkpt>
      <trkpt lat="43.09253" lon="0.58476">
        <ele>442.97</ele>
        <time>2021-06-24T09:13:07.000Z</time>
      </trkpt>
      <trkpt lat="43.09237" lon="0.58455">
        <ele>442.09</ele>
        <time>2021-06-24T09:13:12.000Z</time>
      </trkpt>
      <trkpt lat="43.09223" lon="0.58433">
        <ele>440.76</ele>
        <time>2021-06-24T09:13:17.000Z</time>
      </trkpt>
      <trkpt lat="43.0921" lon="0.5841">
        <ele>440.04</ele>
        <time>2021-06-24T09:13:22.000Z</time>
      </trkpt>
      <trkpt lat="43.09197" lon="0.58387">
        <ele>438.65</ele>
        <time>2021-06-24T09:13:27.000Z</time>
      </trkpt>
      <trkpt lat="43.09181" lon="0.5836">
        <ele>437.92</ele>
        <time>2021-06-24T09:13:32.000Z</time>
      </trkpt>
      <trkpt lat="43.09165" lon="0.58333">
        <ele>438.06</ele>
        <time>2021-06-24T09:13:37.000Z</time>
      </trkpt>
      <trkpt lat="43.09147" lon="0.58302">
        <ele>437.74</ele>
        <time>2021-06-24T09:13:42.000Z</time>
      </trkpt>
      <trkpt lat="43.09126" lon="0.58267">
        <ele>439.26</ele>
        <time>2021-06-24T09:13:47.000Z</time>
      </trkpt>
      <trkpt lat="43.09105" lon="0.58229">
        <ele>439.37</ele>
        <time>2021-06-24T09:13:52.000Z</time>
      </trkpt>
      <trkpt lat="43.09083" lon="0.58189">
        <ele>439.23</ele>
        <time>2021-06-24T09:13:57.000Z</time>
      </trkpt>
      <trkpt lat="43.09061" lon="0.58147">
        <ele>438.86</ele>
        <time>2021-06-24T09:14:02.000Z</time>
      </trkpt>
      <trkpt lat="43.09039" lon="0.58106">
        <ele>440</ele>
        <time>2021-06-24T09:14:07.000Z</time>
      </trkpt>
      <trkpt lat="43.09015" lon="0.5807">
        <ele>440.42</ele>
        <time>2021-06-24T09:14:12.000Z</time>
      </trkpt>
      <trkpt lat="43.08993" lon="0.58033">
        <ele>439.31</ele>
        <time>2021-06-24T09:14:17.000Z</time>
      </trkpt>
      <trkpt lat="43.08969" lon="0.57991">
        <ele>437.83</ele>
        <time>2021-06-24T09:14:22.000Z</time>
      </trkpt>
      <trkpt lat="43.08944" lon="0.57948">
        <ele>435.42</ele>
        <time>2021-06-24T09:14:27.000Z</time>
      </trkpt>
      <trkpt lat="43.08915" lon="0.57895">
        <ele>434.15</ele>
        <time>2021-06-24T09:14:32.000Z</time>
      </trkpt>
      <trkpt lat="43.08876" lon="0.57837">
        <ele>431.52</ele>
        <time>2021-06-24T09:14:37.000Z</time>
      </trkpt>
      <trkpt lat="43.08839" lon="0.57775">
        <ele>428.41</ele>
        <time>2021-06-24T09:14:42.000Z</time>
      </trkpt>
      <trkpt lat="43.08804" lon="0.57716">
        <ele>423.98</ele>
        <time>2021-06-24T09:14:47.000Z</time>
      </trkpt>
      <trkpt lat="43.08772" lon="0.57661">
        <ele>421.08</ele>
        <time>2021-06-24T09:14:52.000Z</time>
      </trkpt>
      <trkpt lat="43.08741" lon="0.57609">
        <ele>417.74</ele>
        <time>2021-06-24T09:14:57.000Z</time>
      </trkpt>
      <trkpt lat="43.08713" lon="0.57562">
        <ele>416.05</ele>
        <time>2021-06-24T09:15:02.000Z</time>
      </trkpt>
      <trkpt lat="43.08688" lon="0.5752">
        <ele>415.29</ele>
        <time>2021-06-24T09:15:07.000Z</time>
      </trkpt>
      <trkpt lat="43.08663" lon="0.57486">
        <ele>414.45</ele>
        <time>2021-06-24T09:15:12.000Z</time>
      </trkpt>
      <trkpt lat="43.08645" lon="0.57447">
        <ele>416.47</ele>
        <time>2021-06-24T09:15:17.000Z</time>
      </trkpt>
      <trkpt lat="43.08632" lon="0.57414">
        <ele>419.36</ele>
        <time>2021-06-24T09:15:22.000Z</time>
      </trkpt>
      <trkpt lat="43.08626" lon="0.57388">
        <ele>420.34</ele>
        <time>2021-06-24T09:15:27.000Z</time>
      </trkpt>
      <trkpt lat="43.08604" lon="0.57378">
        <ele>421.97</ele>
        <time>2021-06-24T09:15:32.000Z</time>
      </trkpt>
      <trkpt lat="43.08591" lon="0.57353">
        <ele>423.55</ele>
        <time>2021-06-24T09:15:37.000Z</time>
      </trkpt>
      <trkpt lat="43.08578" lon="0.57327">
        <ele>424.24</ele>
        <time>2021-06-24T09:15:42.000Z</time>
      </trkpt>
      <trkpt lat="43.08568" lon="0.57307">
        <ele>426.8</ele>
        <time>2021-06-24T09:15:47.000Z</time>
      </trkpt>
      <trkpt lat="43.08561" lon="0.57295">
        <ele>428.12</ele>
        <time>2021-06-24T09:15:52.000Z</time>
      </trkpt>
      <trkpt lat="43.08554" lon="0.57282">
        <ele>428.59</ele>
        <time>2021-06-24T09:15:57.000Z</time>
      </trkpt>
      <trkpt lat="43.08547" lon="0.5727">
        <ele>428.34</ele>
        <time>2021-06-24T09:16:14.000Z</time>
      </trkpt>
      <trkpt lat="43.08535" lon="0.57258">
        <ele>427.83</ele>
        <time>2021-06-24T09:16:19.000Z</time>
      </trkpt>
      <trkpt lat="43.08531" lon="0.57246">
        <ele>428.84</ele>
        <time>2021-06-24T09:16:25.000Z</time>
      </trkpt>
      <trkpt lat="43.08523" lon="0.57239">
        <ele>429.32</ele>
        <time>2021-06-24T09:16:32.000Z</time>
      </trkpt>
      <trkpt lat="43.08514" lon="0.57229">
        <ele>429.85</ele>
        <time>2021-06-24T09:16:38.000Z</time>
      </trkpt>
      <trkpt lat="43.08507" lon="0.57219">
        <ele>430.88</ele>
        <time>2021-06-24T09:16:43.000Z</time>
      </trkpt>
      <trkpt lat="43.08501" lon="0.57208">
        <ele>432.43</ele>
        <time>2021-06-24T09:16:48.000Z</time>
      </trkpt>
      <trkpt lat="43.08492" lon="0.57203">
        <ele>434.02</ele>
        <time>2021-06-24T09:16:54.000Z</time>
      </trkpt>
      <trkpt lat="43.08483" lon="0.57203">
        <ele>436.6</ele>
        <time>2021-06-24T09:17:01.000Z</time>
      </trkpt>
      <trkpt lat="43.08474" lon="0.57202">
        <ele>438.26</ele>
        <time>2021-06-24T09:17:07.000Z</time>
      </trkpt>
      <trkpt lat="43.08464" lon="0.57203">
        <ele>439.96</ele>
        <time>2021-06-24T09:17:14.000Z</time>
      </trkpt>
      <trkpt lat="43.08454" lon="0.57201">
        <ele>440.57</ele>
        <time>2021-06-24T09:17:21.000Z</time>
      </trkpt>
      <trkpt lat="43.08444" lon="0.57198">
        <ele>441.36</ele>
        <time>2021-06-24T09:17:27.000Z</time>
      </trkpt>
      <trkpt lat="43.08437" lon="0.57191">
        <ele>442.16</ele>
        <time>2021-06-24T09:17:33.000Z</time>
      </trkpt>
      <trkpt lat="43.08425" lon="0.572">
        <ele>443.13</ele>
        <time>2021-06-24T09:17:38.000Z</time>
      </trkpt>
      <trkpt lat="43.08416" lon="0.57197">
        <ele>444.56</ele>
        <time>2021-06-24T09:17:45.000Z</time>
      </trkpt>
      <trkpt lat="43.08407" lon="0.57202">
        <ele>446.37</ele>
        <time>2021-06-24T09:17:50.000Z</time>
      </trkpt>
      <trkpt lat="43.08401" lon="0.57191">
        <ele>447.95</ele>
        <time>2021-06-24T09:17:55.000Z</time>
      </trkpt>
      <trkpt lat="43.08404" lon="0.57178">
        <ele>449.18</ele>
        <time>2021-06-24T09:18:01.000Z</time>
      </trkpt>
      <trkpt lat="43.08406" lon="0.57166">
        <ele>450.34</ele>
        <time>2021-06-24T09:18:07.000Z</time>
      </trkpt>
      <trkpt lat="43.08407" lon="0.57152">
        <ele>452.19</ele>
        <time>2021-06-24T09:18:13.000Z</time>
      </trkpt>
      <trkpt lat="43.0841" lon="0.5714">
        <ele>455.49</ele>
        <time>2021-06-24T09:18:21.000Z</time>
      </trkpt>
      <trkpt lat="43.0841" lon="0.57127">
        <ele>456.81</ele>
        <time>2021-06-24T09:18:26.000Z</time>
      </trkpt>
      <trkpt lat="43.08417" lon="0.57116">
        <ele>458.13</ele>
        <time>2021-06-24T09:18:32.000Z</time>
      </trkpt>
      <trkpt lat="43.08423" lon="0.57106">
        <ele>459.63</ele>
        <time>2021-06-24T09:18:40.000Z</time>
      </trkpt>
      <trkpt lat="43.08428" lon="0.57093">
        <ele>461.04</ele>
        <time>2021-06-24T09:18:48.000Z</time>
      </trkpt>
      <trkpt lat="43.08433" lon="0.57082">
        <ele>462.34</ele>
        <time>2021-06-24T09:18:55.000Z</time>
      </trkpt>
      <trkpt lat="43.08439" lon="0.57072">
        <ele>463.33</ele>
        <time>2021-06-24T09:19:00.000Z</time>
      </trkpt>
      <trkpt lat="43.08446" lon="0.5706">
        <ele>464.43</ele>
        <time>2021-06-24T09:19:05.000Z</time>
      </trkpt>
      <trkpt lat="43.08452" lon="0.57043">
        <ele>465.34</ele>
        <time>2021-06-24T09:19:10.000Z</time>
      </trkpt>
      <trkpt lat="43.08459" lon="0.57026">
        <ele>466.43</ele>
        <time>2021-06-24T09:19:15.000Z</time>
      </trkpt>
      <trkpt lat="43.08465" lon="0.5701">
        <ele>467.53</ele>
        <time>2021-06-24T09:19:20.000Z</time>
      </trkpt>
      <trkpt lat="43.08473" lon="0.56992">
        <ele>468.7</ele>
        <time>2021-06-24T09:19:25.000Z</time>
      </trkpt>
      <trkpt lat="43.0848" lon="0.56979">
        <ele>469.93</ele>
        <time>2021-06-24T09:19:30.000Z</time>
      </trkpt>
      <trkpt lat="43.08489" lon="0.56964">
        <ele>470.47</ele>
        <time>2021-06-24T09:19:35.000Z</time>
      </trkpt>
      <trkpt lat="43.08497" lon="0.56945">
        <ele>471.07</ele>
        <time>2021-06-24T09:19:40.000Z</time>
      </trkpt>
      <trkpt lat="43.08501" lon="0.5692">
        <ele>471.93</ele>
        <time>2021-06-24T09:19:45.000Z</time>
      </trkpt>
      <trkpt lat="43.0851" lon="0.56901">
        <ele>473.31</ele>
        <time>2021-06-24T09:19:50.000Z</time>
      </trkpt>
      <trkpt lat="43.08522" lon="0.56885">
        <ele>474.16</ele>
        <time>2021-06-24T09:19:55.000Z</time>
      </trkpt>
      <trkpt lat="43.0853" lon="0.56863">
        <ele>475.23</ele>
        <time>2021-06-24T09:20:00.000Z</time>
      </trkpt>
      <trkpt lat="43.08536" lon="0.56838">
        <ele>475.84</ele>
        <time>2021-06-24T09:20:05.000Z</time>
      </trkpt>
      <trkpt lat="43.0854" lon="0.5682">
        <ele>475.28</ele>
        <time>2021-06-24T09:20:10.000Z</time>
      </trkpt>
      <trkpt lat="43.08543" lon="0.56797">
        <ele>474.44</ele>
        <time>2021-06-24T09:20:15.000Z</time>
      </trkpt>
      <trkpt lat="43.08548" lon="0.56775">
        <ele>474.28</ele>
        <time>2021-06-24T09:20:20.000Z</time>
      </trkpt>
      <trkpt lat="43.08556" lon="0.56753">
        <ele>474.57</ele>
        <time>2021-06-24T09:20:25.000Z</time>
      </trkpt>
      <trkpt lat="43.08565" lon="0.5673">
        <ele>475.14</ele>
        <time>2021-06-24T09:20:30.000Z</time>
      </trkpt>
      <trkpt lat="43.08573" lon="0.5671">
        <ele>474.96</ele>
        <time>2021-06-24T09:20:35.000Z</time>
      </trkpt>
      <trkpt lat="43.08573" lon="0.5668">
        <ele>475.47</ele>
        <time>2021-06-24T09:20:40.000Z</time>
      </trkpt>
      <trkpt lat="43.08576" lon="0.56653">
        <ele>474.89</ele>
        <time>2021-06-24T09:20:45.000Z</time>
      </trkpt>
      <trkpt lat="43.08581" lon="0.56629">
        <ele>474.31</ele>
        <time>2021-06-24T09:20:50.000Z</time>
      </trkpt>
      <trkpt lat="43.08581" lon="0.56599">
        <ele>474.03</ele>
        <time>2021-06-24T09:20:55.000Z</time>
      </trkpt>
      <trkpt lat="43.08581" lon="0.56567">
        <ele>473.71</ele>
        <time>2021-06-24T09:21:00.000Z</time>
      </trkpt>
      <trkpt lat="43.08576" lon="0.56533">
        <ele>473.5</ele>
        <time>2021-06-24T09:21:05.000Z</time>
      </trkpt>
      <trkpt lat="43.08571" lon="0.56498">
        <ele>473.61</ele>
        <time>2021-06-24T09:21:10.000Z</time>
      </trkpt>
      <trkpt lat="43.08564" lon="0.56463">
        <ele>473.41</ele>
        <time>2021-06-24T09:21:15.000Z</time>
      </trkpt>
      <trkpt lat="43.0856" lon="0.56424">
        <ele>473.4</ele>
        <time>2021-06-24T09:21:20.000Z</time>
      </trkpt>
      <trkpt lat="43.08553" lon="0.56385">
        <ele>473.57</ele>
        <time>2021-06-24T09:21:25.000Z</time>
      </trkpt>
      <trkpt lat="43.08549" lon="0.56356">
        <ele>473.33</ele>
        <time>2021-06-24T09:21:30.000Z</time>
      </trkpt>
      <trkpt lat="43.08548" lon="0.5634">
        <ele>473.5</ele>
        <time>2021-06-24T09:21:35.000Z</time>
      </trkpt>
      <trkpt lat="43.08543" lon="0.56324">
        <ele>473.41</ele>
        <time>2021-06-24T09:21:40.000Z</time>
      </trkpt>
      <trkpt lat="43.08538" lon="0.56294">
        <ele>472.64</ele>
        <time>2021-06-24T09:21:45.000Z</time>
      </trkpt>
      <trkpt lat="43.0853" lon="0.56266">
        <ele>472.12</ele>
        <time>2021-06-24T09:21:50.000Z</time>
      </trkpt>
      <trkpt lat="43.08522" lon="0.56237">
        <ele>472.59</ele>
        <time>2021-06-24T09:21:55.000Z</time>
      </trkpt>
      <trkpt lat="43.08514" lon="0.56211">
        <ele>473.07</ele>
        <time>2021-06-24T09:22:00.000Z</time>
      </trkpt>
      <trkpt lat="43.08508" lon="0.56182">
        <ele>472.61</ele>
        <time>2021-06-24T09:22:05.000Z</time>
      </trkpt>
      <trkpt lat="43.08505" lon="0.56157">
        <ele>472.53</ele>
        <time>2021-06-24T09:22:10.000Z</time>
      </trkpt>
      <trkpt lat="43.08507" lon="0.56131">
        <ele>472.31</ele>
        <time>2021-06-24T09:22:15.000Z</time>
      </trkpt>
      <trkpt lat="43.0851" lon="0.56108">
        <ele>472.47</ele>
        <time>2021-06-24T09:22:20.000Z</time>
      </trkpt>
      <trkpt lat="43.08515" lon="0.56082">
        <ele>472.18</ele>
        <time>2021-06-24T09:22:25.000Z</time>
      </trkpt>
      <trkpt lat="43.08517" lon="0.56056">
        <ele>472.05</ele>
        <time>2021-06-24T09:22:30.000Z</time>
      </trkpt>
      <trkpt lat="43.0852" lon="0.56027">
        <ele>471.43</ele>
        <time>2021-06-24T09:22:35.000Z</time>
      </trkpt>
      <trkpt lat="43.08525" lon="0.55994">
        <ele>470.96</ele>
        <time>2021-06-24T09:22:40.000Z</time>
      </trkpt>
      <trkpt lat="43.08532" lon="0.5596">
        <ele>470.83</ele>
        <time>2021-06-24T09:22:45.000Z</time>
      </trkpt>
      <trkpt lat="43.08537" lon="0.55928">
        <ele>470.35</ele>
        <time>2021-06-24T09:22:50.000Z</time>
      </trkpt>
      <trkpt lat="43.08541" lon="0.55898">
        <ele>470.62</ele>
        <time>2021-06-24T09:22:55.000Z</time>
      </trkpt>
      <trkpt lat="43.08545" lon="0.55868">
        <ele>471.11</ele>
        <time>2021-06-24T09:23:00.000Z</time>
      </trkpt>
      <trkpt lat="43.08549" lon="0.5584">
        <ele>472.63</ele>
        <time>2021-06-24T09:23:05.000Z</time>
      </trkpt>
      <trkpt lat="43.08553" lon="0.55809">
        <ele>473.77</ele>
        <time>2021-06-24T09:23:10.000Z</time>
      </trkpt>
      <trkpt lat="43.08557" lon="0.5578">
        <ele>474.26</ele>
        <time>2021-06-24T09:23:15.000Z</time>
      </trkpt>
      <trkpt lat="43.08561" lon="0.5575">
        <ele>474.98</ele>
        <time>2021-06-24T09:23:20.000Z</time>
      </trkpt>
      <trkpt lat="43.08562" lon="0.55724">
        <ele>476.52</ele>
        <time>2021-06-24T09:23:25.000Z</time>
      </trkpt>
      <trkpt lat="43.08566" lon="0.55697">
        <ele>476.43</ele>
        <time>2021-06-24T09:23:30.000Z</time>
      </trkpt>
      <trkpt lat="43.0857" lon="0.55671">
        <ele>475.55</ele>
        <time>2021-06-24T09:23:35.000Z</time>
      </trkpt>
      <trkpt lat="43.08578" lon="0.5564">
        <ele>475.1</ele>
        <time>2021-06-24T09:23:40.000Z</time>
      </trkpt>
      <trkpt lat="43.08584" lon="0.55614">
        <ele>475.05</ele>
        <time>2021-06-24T09:23:45.000Z</time>
      </trkpt>
      <trkpt lat="43.08589" lon="0.5559">
        <ele>474.61</ele>
        <time>2021-06-24T09:23:50.000Z</time>
      </trkpt>
      <trkpt lat="43.08591" lon="0.55565">
        <ele>474.81</ele>
        <time>2021-06-24T09:23:55.000Z</time>
      </trkpt>
      <trkpt lat="43.08595" lon="0.55541">
        <ele>474.88</ele>
        <time>2021-06-24T09:24:00.000Z</time>
      </trkpt>
      <trkpt lat="43.08598" lon="0.55515">
        <ele>474.35</ele>
        <time>2021-06-24T09:24:05.000Z</time>
      </trkpt>
      <trkpt lat="43.086" lon="0.55489">
        <ele>473.93</ele>
        <time>2021-06-24T09:24:10.000Z</time>
      </trkpt>
      <trkpt lat="43.08605" lon="0.5546">
        <ele>473.41</ele>
        <time>2021-06-24T09:24:15.000Z</time>
      </trkpt>
      <trkpt lat="43.08606" lon="0.55436">
        <ele>473.35</ele>
        <time>2021-06-24T09:24:20.000Z</time>
      </trkpt>
      <trkpt lat="43.08609" lon="0.55412">
        <ele>473.27</ele>
        <time>2021-06-24T09:24:25.000Z</time>
      </trkpt>
      <trkpt lat="43.08612" lon="0.55388">
        <ele>473.58</ele>
        <time>2021-06-24T09:24:30.000Z</time>
      </trkpt>
      <trkpt lat="43.08616" lon="0.55365">
        <ele>473.56</ele>
        <time>2021-06-24T09:24:35.000Z</time>
      </trkpt>
      <trkpt lat="43.0862" lon="0.55342">
        <ele>473.94</ele>
        <time>2021-06-24T09:24:40.000Z</time>
      </trkpt>
      <trkpt lat="43.08624" lon="0.55318">
        <ele>474.36</ele>
        <time>2021-06-24T09:24:45.000Z</time>
      </trkpt>
      <trkpt lat="43.08627" lon="0.55297">
        <ele>474.89</ele>
        <time>2021-06-24T09:24:50.000Z</time>
      </trkpt>
      <trkpt lat="43.08631" lon="0.55276">
        <ele>474.53</ele>
        <time>2021-06-24T09:24:55.000Z</time>
      </trkpt>
      <trkpt lat="43.08633" lon="0.55257">
        <ele>474.36</ele>
        <time>2021-06-24T09:25:00.000Z</time>
      </trkpt>
      <trkpt lat="43.08636" lon="0.55238">
        <ele>474.23</ele>
        <time>2021-06-24T09:25:05.000Z</time>
      </trkpt>
      <trkpt lat="43.08639" lon="0.55216">
        <ele>473.93</ele>
        <time>2021-06-24T09:25:10.000Z</time>
      </trkpt>
      <trkpt lat="43.08643" lon="0.55194">
        <ele>474.27</ele>
        <time>2021-06-24T09:25:15.000Z</time>
      </trkpt>
      <trkpt lat="43.08646" lon="0.55173">
        <ele>474.79</ele>
        <time>2021-06-24T09:25:20.000Z</time>
      </trkpt>
      <trkpt lat="43.08649" lon="0.55151">
        <ele>475.09</ele>
        <time>2021-06-24T09:25:25.000Z</time>
      </trkpt>
      <trkpt lat="43.08652" lon="0.55128">
        <ele>475.29</ele>
        <time>2021-06-24T09:25:30.000Z</time>
      </trkpt>
      <trkpt lat="43.08657" lon="0.55105">
        <ele>475.28</ele>
        <time>2021-06-24T09:25:35.000Z</time>
      </trkpt>
      <trkpt lat="43.0866" lon="0.55083">
        <ele>474.95</ele>
        <time>2021-06-24T09:25:40.000Z</time>
      </trkpt>
      <trkpt lat="43.08662" lon="0.55062">
        <ele>474.7</ele>
        <time>2021-06-24T09:25:45.000Z</time>
      </trkpt>
      <trkpt lat="43.08664" lon="0.55038">
        <ele>474.31</ele>
        <time>2021-06-24T09:25:50.000Z</time>
      </trkpt>
      <trkpt lat="43.08666" lon="0.55016">
        <ele>473.62</ele>
        <time>2021-06-24T09:25:55.000Z</time>
      </trkpt>
      <trkpt lat="43.08668" lon="0.54996">
        <ele>474.16</ele>
        <time>2021-06-24T09:26:00.000Z</time>
      </trkpt>
      <trkpt lat="43.08672" lon="0.54975">
        <ele>475.03</ele>
        <time>2021-06-24T09:26:05.000Z</time>
      </trkpt>
      <trkpt lat="43.08675" lon="0.54954">
        <ele>475.93</ele>
        <time>2021-06-24T09:26:10.000Z</time>
      </trkpt>
      <trkpt lat="43.08677" lon="0.54932">
        <ele>476.98</ele>
        <time>2021-06-24T09:26:15.000Z</time>
      </trkpt>
      <trkpt lat="43.08682" lon="0.54908">
        <ele>478.03</ele>
        <time>2021-06-24T09:26:20.000Z</time>
      </trkpt>
      <trkpt lat="43.08685" lon="0.54883">
        <ele>478.56</ele>
        <time>2021-06-24T09:26:25.000Z</time>
      </trkpt>
      <trkpt lat="43.0869" lon="0.5486">
        <ele>479.59</ele>
        <time>2021-06-24T09:26:30.000Z</time>
      </trkpt>
      <trkpt lat="43.08693" lon="0.54839">
        <ele>480.64</ele>
        <time>2021-06-24T09:26:35.000Z</time>
      </trkpt>
      <trkpt lat="43.08696" lon="0.54821">
        <ele>482.21</ele>
        <time>2021-06-24T09:26:40.000Z</time>
      </trkpt>
      <trkpt lat="43.08697" lon="0.54805">
        <ele>483.03</ele>
        <time>2021-06-24T09:26:45.000Z</time>
      </trkpt>
      <trkpt lat="43.08698" lon="0.54786">
        <ele>482.6</ele>
        <time>2021-06-24T09:26:50.000Z</time>
      </trkpt>
      <trkpt lat="43.08701" lon="0.54768">
        <ele>483.4</ele>
        <time>2021-06-24T09:26:55.000Z</time>
      </trkpt>
      <trkpt lat="43.08703" lon="0.54754">
        <ele>484.14</ele>
        <time>2021-06-24T09:27:00.000Z</time>
      </trkpt>
      <trkpt lat="43.08704" lon="0.54737">
        <ele>484.67</ele>
        <time>2021-06-24T09:27:05.000Z</time>
      </trkpt>
      <trkpt lat="43.08708" lon="0.54711">
        <ele>484.8</ele>
        <time>2021-06-24T09:27:10.000Z</time>
      </trkpt>
      <trkpt lat="43.08712" lon="0.54691">
        <ele>485.28</ele>
        <time>2021-06-24T09:27:15.000Z</time>
      </trkpt>
      <trkpt lat="43.08716" lon="0.5467">
        <ele>485.07</ele>
        <time>2021-06-24T09:27:20.000Z</time>
      </trkpt>
      <trkpt lat="43.08718" lon="0.54648">
        <ele>485.5</ele>
        <time>2021-06-24T09:27:25.000Z</time>
      </trkpt>
      <trkpt lat="43.08723" lon="0.54627">
        <ele>485.01</ele>
        <time>2021-06-24T09:27:30.000Z</time>
      </trkpt>
      <trkpt lat="43.08725" lon="0.54611">
        <ele>485.2</ele>
        <time>2021-06-24T09:27:35.000Z</time>
      </trkpt>
      <trkpt lat="43.08725" lon="0.54594">
        <ele>485.69</ele>
        <time>2021-06-24T09:27:40.000Z</time>
      </trkpt>
      <trkpt lat="43.08729" lon="0.54575">
        <ele>486.49</ele>
        <time>2021-06-24T09:27:45.000Z</time>
      </trkpt>
      <trkpt lat="43.08733" lon="0.54554">
        <ele>486.12</ele>
        <time>2021-06-24T09:27:50.000Z</time>
      </trkpt>
      <trkpt lat="43.08734" lon="0.54534">
        <ele>485.56</ele>
        <time>2021-06-24T09:27:55.000Z</time>
      </trkpt>
      <trkpt lat="43.0874" lon="0.54515">
        <ele>485.2</ele>
        <time>2021-06-24T09:28:00.000Z</time>
      </trkpt>
      <trkpt lat="43.08743" lon="0.54495">
        <ele>485.62</ele>
        <time>2021-06-24T09:28:05.000Z</time>
      </trkpt>
      <trkpt lat="43.08746" lon="0.54476">
        <ele>486</ele>
        <time>2021-06-24T09:28:10.000Z</time>
      </trkpt>
      <trkpt lat="43.08747" lon="0.54458">
        <ele>487.06</ele>
        <time>2021-06-24T09:28:15.000Z</time>
      </trkpt>
      <trkpt lat="43.08751" lon="0.54434">
        <ele>488.34</ele>
        <time>2021-06-24T09:28:20.000Z</time>
      </trkpt>
      <trkpt lat="43.08758" lon="0.54407">
        <ele>489.24</ele>
        <time>2021-06-24T09:28:25.000Z</time>
      </trkpt>
      <trkpt lat="43.08762" lon="0.54374">
        <ele>489.99</ele>
        <time>2021-06-24T09:28:30.000Z</time>
      </trkpt>
      <trkpt lat="43.08767" lon="0.54346">
        <ele>490.66</ele>
        <time>2021-06-24T09:28:35.000Z</time>
      </trkpt>
      <trkpt lat="43.0877" lon="0.54314">
        <ele>491.7</ele>
        <time>2021-06-24T09:28:40.000Z</time>
      </trkpt>
      <trkpt lat="43.08775" lon="0.54281">
        <ele>491</ele>
        <time>2021-06-24T09:28:45.000Z</time>
      </trkpt>
      <trkpt lat="43.08779" lon="0.5425">
        <ele>490.64</ele>
        <time>2021-06-24T09:28:50.000Z</time>
      </trkpt>
      <trkpt lat="43.08783" lon="0.54219">
        <ele>490.66</ele>
        <time>2021-06-24T09:28:55.000Z</time>
      </trkpt>
      <trkpt lat="43.08787" lon="0.5419">
        <ele>489.82</ele>
        <time>2021-06-24T09:29:00.000Z</time>
      </trkpt>
      <trkpt lat="43.08789" lon="0.5416">
        <ele>490.04</ele>
        <time>2021-06-24T09:29:05.000Z</time>
      </trkpt>
      <trkpt lat="43.08792" lon="0.54132">
        <ele>489.66</ele>
        <time>2021-06-24T09:29:10.000Z</time>
      </trkpt>
      <trkpt lat="43.08795" lon="0.54107">
        <ele>490.48</ele>
        <time>2021-06-24T09:29:15.000Z</time>
      </trkpt>
      <trkpt lat="43.08799" lon="0.54082">
        <ele>489.33</ele>
        <time>2021-06-24T09:29:20.000Z</time>
      </trkpt>
      <trkpt lat="43.08802" lon="0.54057">
        <ele>488.51</ele>
        <time>2021-06-24T09:29:25.000Z</time>
      </trkpt>
      <trkpt lat="43.08807" lon="0.54032">
        <ele>489</ele>
        <time>2021-06-24T09:29:30.000Z</time>
      </trkpt>
      <trkpt lat="43.08811" lon="0.5401">
        <ele>489.08</ele>
        <time>2021-06-24T09:29:35.000Z</time>
      </trkpt>
      <trkpt lat="43.08816" lon="0.5399">
        <ele>489.37</ele>
        <time>2021-06-24T09:29:40.000Z</time>
      </trkpt>
      <trkpt lat="43.08818" lon="0.53966">
        <ele>490.31</ele>
        <time>2021-06-24T09:29:45.000Z</time>
      </trkpt>
      <trkpt lat="43.08822" lon="0.53943">
        <ele>491.14</ele>
        <time>2021-06-24T09:29:50.000Z</time>
      </trkpt>
      <trkpt lat="43.08824" lon="0.53925">
        <ele>491.5</ele>
        <time>2021-06-24T09:29:55.000Z</time>
      </trkpt>
      <trkpt lat="43.08828" lon="0.53906">
        <ele>491.6</ele>
        <time>2021-06-24T09:30:00.000Z</time>
      </trkpt>
      <trkpt lat="43.08834" lon="0.53888">
        <ele>492.92</ele>
        <time>2021-06-24T09:30:05.000Z</time>
      </trkpt>
      <trkpt lat="43.08839" lon="0.53871">
        <ele>492.85</ele>
        <time>2021-06-24T09:30:10.000Z</time>
      </trkpt>
      <trkpt lat="43.0884" lon="0.53858">
        <ele>492.67</ele>
        <time>2021-06-24T09:30:15.000Z</time>
      </trkpt>
      <trkpt lat="43.08841" lon="0.53843">
        <ele>493.43</ele>
        <time>2021-06-24T09:30:20.000Z</time>
      </trkpt>
      <trkpt lat="43.08842" lon="0.5383">
        <ele>493.62</ele>
        <time>2021-06-24T09:30:25.000Z</time>
      </trkpt>
      <trkpt lat="43.08845" lon="0.53818">
        <ele>494.33</ele>
        <time>2021-06-24T09:30:30.000Z</time>
      </trkpt>
      <trkpt lat="43.08846" lon="0.53805">
        <ele>495.14</ele>
        <time>2021-06-24T09:30:35.000Z</time>
      </trkpt>
      <trkpt lat="43.08848" lon="0.53791">
        <ele>496.86</ele>
        <time>2021-06-24T09:30:41.000Z</time>
      </trkpt>
      <trkpt lat="43.08851" lon="0.53778">
        <ele>497.1</ele>
        <time>2021-06-24T09:30:46.000Z</time>
      </trkpt>
      <trkpt lat="43.08854" lon="0.53765">
        <ele>496.93</ele>
        <time>2021-06-24T09:30:51.000Z</time>
      </trkpt>
      <trkpt lat="43.08856" lon="0.53752">
        <ele>497.63</ele>
        <time>2021-06-24T09:30:56.000Z</time>
      </trkpt>
      <trkpt lat="43.08859" lon="0.53737">
        <ele>498.37</ele>
        <time>2021-06-24T09:31:02.000Z</time>
      </trkpt>
      <trkpt lat="43.08863" lon="0.53724">
        <ele>499.05</ele>
        <time>2021-06-24T09:31:07.000Z</time>
      </trkpt>
      <trkpt lat="43.08863" lon="0.5371">
        <ele>500.45</ele>
        <time>2021-06-24T09:31:13.000Z</time>
      </trkpt>
      <trkpt lat="43.08865" lon="0.53696">
        <ele>501.33</ele>
        <time>2021-06-24T09:31:18.000Z</time>
      </trkpt>
      <trkpt lat="43.08867" lon="0.53682">
        <ele>502.89</ele>
        <time>2021-06-24T09:31:23.000Z</time>
      </trkpt>
      <trkpt lat="43.08869" lon="0.53669">
        <ele>504.13</ele>
        <time>2021-06-24T09:31:28.000Z</time>
      </trkpt>
      <trkpt lat="43.08869" lon="0.53655">
        <ele>505.48</ele>
        <time>2021-06-24T09:31:34.000Z</time>
      </trkpt>
      <trkpt lat="43.08871" lon="0.5364">
        <ele>506.63</ele>
        <time>2021-06-24T09:31:39.000Z</time>
      </trkpt>
      <trkpt lat="43.08874" lon="0.53627">
        <ele>507.57</ele>
        <time>2021-06-24T09:31:44.000Z</time>
      </trkpt>
      <trkpt lat="43.08876" lon="0.53614">
        <ele>509.19</ele>
        <time>2021-06-24T09:31:49.000Z</time>
      </trkpt>
      <trkpt lat="43.08875" lon="0.53601">
        <ele>511.53</ele>
        <time>2021-06-24T09:31:56.000Z</time>
      </trkpt>
      <trkpt lat="43.08877" lon="0.53588">
        <ele>512.63</ele>
        <time>2021-06-24T09:32:02.000Z</time>
      </trkpt>
      <trkpt lat="43.0888" lon="0.53573">
        <ele>514.67</ele>
        <time>2021-06-24T09:32:07.000Z</time>
      </trkpt>
      <trkpt lat="43.08884" lon="0.53557">
        <ele>515.39</ele>
        <time>2021-06-24T09:32:12.000Z</time>
      </trkpt>
      <trkpt lat="43.08886" lon="0.53545">
        <ele>515.94</ele>
        <time>2021-06-24T09:32:17.000Z</time>
      </trkpt>
      <trkpt lat="43.08888" lon="0.53531">
        <ele>516.64</ele>
        <time>2021-06-24T09:32:23.000Z</time>
      </trkpt>
      <trkpt lat="43.08888" lon="0.53519">
        <ele>517.27</ele>
        <time>2021-06-24T09:32:28.000Z</time>
      </trkpt>
      <trkpt lat="43.08885" lon="0.53505">
        <ele>518.26</ele>
        <time>2021-06-24T09:32:35.000Z</time>
      </trkpt>
      <trkpt lat="43.08887" lon="0.53492">
        <ele>518</ele>
        <time>2021-06-24T09:32:40.000Z</time>
      </trkpt>
      <trkpt lat="43.08891" lon="0.53475">
        <ele>518.09</ele>
        <time>2021-06-24T09:32:45.000Z</time>
      </trkpt>
      <trkpt lat="43.08896" lon="0.5346">
        <ele>518.01</ele>
        <time>2021-06-24T09:32:50.000Z</time>
      </trkpt>
      <trkpt lat="43.08898" lon="0.53446">
        <ele>518.47</ele>
        <time>2021-06-24T09:32:55.000Z</time>
      </trkpt>
      <trkpt lat="43.089" lon="0.53431">
        <ele>519.36</ele>
        <time>2021-06-24T09:33:00.000Z</time>
      </trkpt>
      <trkpt lat="43.08901" lon="0.53417">
        <ele>520.43</ele>
        <time>2021-06-24T09:33:06.000Z</time>
      </trkpt>
      <trkpt lat="43.08903" lon="0.53404">
        <ele>520.93</ele>
        <time>2021-06-24T09:33:11.000Z</time>
      </trkpt>
      <trkpt lat="43.08905" lon="0.53385">
        <ele>521.83</ele>
        <time>2021-06-24T09:33:16.000Z</time>
      </trkpt>
      <trkpt lat="43.08906" lon="0.53368">
        <ele>523.16</ele>
        <time>2021-06-24T09:33:21.000Z</time>
      </trkpt>
      <trkpt lat="43.08911" lon="0.53348">
        <ele>522.59</ele>
        <time>2021-06-24T09:33:26.000Z</time>
      </trkpt>
      <trkpt lat="43.08914" lon="0.53332">
        <ele>521.9</ele>
        <time>2021-06-24T09:33:31.000Z</time>
      </trkpt>
      <trkpt lat="43.08915" lon="0.53319">
        <ele>520.95</ele>
        <time>2021-06-24T09:33:36.000Z</time>
      </trkpt>
      <trkpt lat="43.08917" lon="0.53301">
        <ele>520.52</ele>
        <time>2021-06-24T09:33:41.000Z</time>
      </trkpt>
      <trkpt lat="43.08921" lon="0.53284">
        <ele>520.81</ele>
        <time>2021-06-24T09:33:46.000Z</time>
      </trkpt>
      <trkpt lat="43.08924" lon="0.53266">
        <ele>521.91</ele>
        <time>2021-06-24T09:33:51.000Z</time>
      </trkpt>
      <trkpt lat="43.08926" lon="0.53248">
        <ele>521.82</ele>
        <time>2021-06-24T09:33:56.000Z</time>
      </trkpt>
      <trkpt lat="43.08929" lon="0.53229">
        <ele>521.61</ele>
        <time>2021-06-24T09:34:01.000Z</time>
      </trkpt>
      <trkpt lat="43.08932" lon="0.53211">
        <ele>521.87</ele>
        <time>2021-06-24T09:34:06.000Z</time>
      </trkpt>
      <trkpt lat="43.08934" lon="0.53193">
        <ele>522.53</ele>
        <time>2021-06-24T09:34:11.000Z</time>
      </trkpt>
      <trkpt lat="43.08937" lon="0.53177">
        <ele>523.27</ele>
        <time>2021-06-24T09:34:16.000Z</time>
      </trkpt>
      <trkpt lat="43.0894" lon="0.53159">
        <ele>523.68</ele>
        <time>2021-06-24T09:34:21.000Z</time>
      </trkpt>
      <trkpt lat="43.08944" lon="0.53141">
        <ele>524.61</ele>
        <time>2021-06-24T09:34:26.000Z</time>
      </trkpt>
      <trkpt lat="43.08947" lon="0.53125">
        <ele>526.09</ele>
        <time>2021-06-24T09:34:31.000Z</time>
      </trkpt>
      <trkpt lat="43.08949" lon="0.53109">
        <ele>527.09</ele>
        <time>2021-06-24T09:34:36.000Z</time>
      </trkpt>
      <trkpt lat="43.08952" lon="0.53094">
        <ele>527.34</ele>
        <time>2021-06-24T09:34:41.000Z</time>
      </trkpt>
      <trkpt lat="43.08954" lon="0.53078">
        <ele>527.97</ele>
        <time>2021-06-24T09:34:46.000Z</time>
      </trkpt>
      <trkpt lat="43.08955" lon="0.53065">
        <ele>528.17</ele>
        <time>2021-06-24T09:34:51.000Z</time>
      </trkpt>
      <trkpt lat="43.08957" lon="0.53051">
        <ele>528.69</ele>
        <time>2021-06-24T09:34:56.000Z</time>
      </trkpt>
      <trkpt lat="43.0896" lon="0.53034">
        <ele>528.97</ele>
        <time>2021-06-24T09:35:01.000Z</time>
      </trkpt>
      <trkpt lat="43.08965" lon="0.53012">
        <ele>529.1</ele>
        <time>2021-06-24T09:35:06.000Z</time>
      </trkpt>
      <trkpt lat="43.08967" lon="0.52994">
        <ele>528.76</ele>
        <time>2021-06-24T09:35:11.000Z</time>
      </trkpt>
      <trkpt lat="43.0897" lon="0.52977">
        <ele>529.72</ele>
        <time>2021-06-24T09:35:16.000Z</time>
      </trkpt>
      <trkpt lat="43.08973" lon="0.52962">
        <ele>530.07</ele>
        <time>2021-06-24T09:35:21.000Z</time>
      </trkpt>
      <trkpt lat="43.08975" lon="0.52945">
        <ele>531.09</ele>
        <time>2021-06-24T09:35:26.000Z</time>
      </trkpt>
      <trkpt lat="43.08979" lon="0.52926">
        <ele>532.35</ele>
        <time>2021-06-24T09:35:31.000Z</time>
      </trkpt>
      <trkpt lat="43.08983" lon="0.52904">
        <ele>534</ele>
        <time>2021-06-24T09:35:36.000Z</time>
      </trkpt>
      <trkpt lat="43.08986" lon="0.52883">
        <ele>536.28</ele>
        <time>2021-06-24T09:35:41.000Z</time>
      </trkpt>
      <trkpt lat="43.0899" lon="0.52859">
        <ele>537.25</ele>
        <time>2021-06-24T09:35:46.000Z</time>
      </trkpt>
      <trkpt lat="43.08993" lon="0.52833">
        <ele>538.95</ele>
        <time>2021-06-24T09:35:51.000Z</time>
      </trkpt>
      <trkpt lat="43.08996" lon="0.52806">
        <ele>539.63</ele>
        <time>2021-06-24T09:35:56.000Z</time>
      </trkpt>
      <trkpt lat="43.09001" lon="0.52777">
        <ele>539.3</ele>
        <time>2021-06-24T09:36:01.000Z</time>
      </trkpt>
      <trkpt lat="43.09003" lon="0.52751">
        <ele>539.78</ele>
        <time>2021-06-24T09:36:06.000Z</time>
      </trkpt>
      <trkpt lat="43.09006" lon="0.52718">
        <ele>540.44</ele>
        <time>2021-06-24T09:36:11.000Z</time>
      </trkpt>
      <trkpt lat="43.0901" lon="0.52685">
        <ele>541.23</ele>
        <time>2021-06-24T09:36:16.000Z</time>
      </trkpt>
      <trkpt lat="43.09014" lon="0.52651">
        <ele>542.13</ele>
        <time>2021-06-24T09:36:21.000Z</time>
      </trkpt>
      <trkpt lat="43.09019" lon="0.52617">
        <ele>543.25</ele>
        <time>2021-06-24T09:36:26.000Z</time>
      </trkpt>
      <trkpt lat="43.09024" lon="0.52587">
        <ele>543.74</ele>
        <time>2021-06-24T09:36:31.000Z</time>
      </trkpt>
      <trkpt lat="43.09029" lon="0.52566">
        <ele>544.07</ele>
        <time>2021-06-24T09:36:36.000Z</time>
      </trkpt>
      <trkpt lat="43.09032" lon="0.52548">
        <ele>544.3</ele>
        <time>2021-06-24T09:36:41.000Z</time>
      </trkpt>
      <trkpt lat="43.09035" lon="0.52533">
        <ele>544.14</ele>
        <time>2021-06-24T09:36:46.000Z</time>
      </trkpt>
      <trkpt lat="43.09037" lon="0.52517">
        <ele>544.03</ele>
        <time>2021-06-24T09:36:51.000Z</time>
      </trkpt>
      <trkpt lat="43.0904" lon="0.52504">
        <ele>543.09</ele>
        <time>2021-06-24T09:36:56.000Z</time>
      </trkpt>
      <trkpt lat="43.09041" lon="0.5249">
        <ele>542.9</ele>
        <time>2021-06-24T09:37:01.000Z</time>
      </trkpt>
      <trkpt lat="43.09042" lon="0.52475">
        <ele>542.63</ele>
        <time>2021-06-24T09:37:06.000Z</time>
      </trkpt>
      <trkpt lat="43.09043" lon="0.52461">
        <ele>542.22</ele>
        <time>2021-06-24T09:37:11.000Z</time>
      </trkpt>
      <trkpt lat="43.09045" lon="0.52443">
        <ele>541.93</ele>
        <time>2021-06-24T09:37:16.000Z</time>
      </trkpt>
      <trkpt lat="43.09046" lon="0.52427">
        <ele>541.96</ele>
        <time>2021-06-24T09:37:21.000Z</time>
      </trkpt>
      <trkpt lat="43.09047" lon="0.5241">
        <ele>541.69</ele>
        <time>2021-06-24T09:37:26.000Z</time>
      </trkpt>
      <trkpt lat="43.09048" lon="0.52394">
        <ele>540.89</ele>
        <time>2021-06-24T09:37:31.000Z</time>
      </trkpt>
      <trkpt lat="43.09049" lon="0.52377">
        <ele>540.12</ele>
        <time>2021-06-24T09:37:36.000Z</time>
      </trkpt>
      <trkpt lat="43.09052" lon="0.52358">
        <ele>539.83</ele>
        <time>2021-06-24T09:37:41.000Z</time>
      </trkpt>
      <trkpt lat="43.09052" lon="0.52342">
        <ele>539.6</ele>
        <time>2021-06-24T09:37:46.000Z</time>
      </trkpt>
      <trkpt lat="43.09052" lon="0.52324">
        <ele>539.44</ele>
        <time>2021-06-24T09:37:51.000Z</time>
      </trkpt>
      <trkpt lat="43.09053" lon="0.52307">
        <ele>538.55</ele>
        <time>2021-06-24T09:37:56.000Z</time>
      </trkpt>
      <trkpt lat="43.09054" lon="0.5229">
        <ele>538.19</ele>
        <time>2021-06-24T09:38:01.000Z</time>
      </trkpt>
      <trkpt lat="43.09054" lon="0.52272">
        <ele>537.32</ele>
        <time>2021-06-24T09:38:06.000Z</time>
      </trkpt>
      <trkpt lat="43.09055" lon="0.52251">
        <ele>537.13</ele>
        <time>2021-06-24T09:38:11.000Z</time>
      </trkpt>
      <trkpt lat="43.09054" lon="0.52231">
        <ele>536.69</ele>
        <time>2021-06-24T09:38:16.000Z</time>
      </trkpt>
      <trkpt lat="43.09055" lon="0.52213">
        <ele>536.33</ele>
        <time>2021-06-24T09:38:21.000Z</time>
      </trkpt>
      <trkpt lat="43.09055" lon="0.52193">
        <ele>536.78</ele>
        <time>2021-06-24T09:38:26.000Z</time>
      </trkpt>
      <trkpt lat="43.09056" lon="0.52171">
        <ele>537.08</ele>
        <time>2021-06-24T09:38:31.000Z</time>
      </trkpt>
      <trkpt lat="43.09057" lon="0.52151">
        <ele>538.29</ele>
        <time>2021-06-24T09:38:36.000Z</time>
      </trkpt>
      <trkpt lat="43.09056" lon="0.52133">
        <ele>539.35</ele>
        <time>2021-06-24T09:38:41.000Z</time>
      </trkpt>
      <trkpt lat="43.09055" lon="0.52116">
        <ele>540.49</ele>
        <time>2021-06-24T09:38:46.000Z</time>
      </trkpt>
      <trkpt lat="43.09054" lon="0.52098">
        <ele>541.39</ele>
        <time>2021-06-24T09:38:51.000Z</time>
      </trkpt>
      <trkpt lat="43.09054" lon="0.52079">
        <ele>541.58</ele>
        <time>2021-06-24T09:38:56.000Z</time>
      </trkpt>
      <trkpt lat="43.09054" lon="0.52059">
        <ele>541.23</ele>
        <time>2021-06-24T09:39:01.000Z</time>
      </trkpt>
      <trkpt lat="43.09055" lon="0.5204">
        <ele>541.15</ele>
        <time>2021-06-24T09:39:06.000Z</time>
      </trkpt>
      <trkpt lat="43.09057" lon="0.52019">
        <ele>541.74</ele>
        <time>2021-06-24T09:39:11.000Z</time>
      </trkpt>
      <trkpt lat="43.0906" lon="0.51996">
        <ele>542.62</ele>
        <time>2021-06-24T09:39:16.000Z</time>
      </trkpt>
      <trkpt lat="43.09061" lon="0.51976">
        <ele>542.75</ele>
        <time>2021-06-24T09:39:21.000Z</time>
      </trkpt>
      <trkpt lat="43.09063" lon="0.51955">
        <ele>542.81</ele>
        <time>2021-06-24T09:39:26.000Z</time>
      </trkpt>
      <trkpt lat="43.09065" lon="0.51931">
        <ele>542.55</ele>
        <time>2021-06-24T09:39:31.000Z</time>
      </trkpt>
      <trkpt lat="43.09067" lon="0.5191">
        <ele>542.67</ele>
        <time>2021-06-24T09:39:36.000Z</time>
      </trkpt>
      <trkpt lat="43.09067" lon="0.5189">
        <ele>543.27</ele>
        <time>2021-06-24T09:39:41.000Z</time>
      </trkpt>
      <trkpt lat="43.09067" lon="0.5187">
        <ele>543.47</ele>
        <time>2021-06-24T09:39:46.000Z</time>
      </trkpt>
      <trkpt lat="43.09068" lon="0.51849">
        <ele>543.99</ele>
        <time>2021-06-24T09:39:51.000Z</time>
      </trkpt>
      <trkpt lat="43.0907" lon="0.5183">
        <ele>543.83</ele>
        <time>2021-06-24T09:39:56.000Z</time>
      </trkpt>
      <trkpt lat="43.09072" lon="0.5181">
        <ele>543.7</ele>
        <time>2021-06-24T09:40:01.000Z</time>
      </trkpt>
      <trkpt lat="43.09074" lon="0.51789">
        <ele>544.17</ele>
        <time>2021-06-24T09:40:06.000Z</time>
      </trkpt>
      <trkpt lat="43.09075" lon="0.51769">
        <ele>544.84</ele>
        <time>2021-06-24T09:40:11.000Z</time>
      </trkpt>
      <trkpt lat="43.09077" lon="0.51747">
        <ele>545.14</ele>
        <time>2021-06-24T09:40:16.000Z</time>
      </trkpt>
      <trkpt lat="43.0908" lon="0.51726">
        <ele>545.94</ele>
        <time>2021-06-24T09:40:21.000Z</time>
      </trkpt>
      <trkpt lat="43.09082" lon="0.51705">
        <ele>545.98</ele>
        <time>2021-06-24T09:40:26.000Z</time>
      </trkpt>
      <trkpt lat="43.09084" lon="0.51685">
        <ele>546.64</ele>
        <time>2021-06-24T09:40:31.000Z</time>
      </trkpt>
      <trkpt lat="43.09086" lon="0.51664">
        <ele>547.98</ele>
        <time>2021-06-24T09:40:36.000Z</time>
      </trkpt>
      <trkpt lat="43.09086" lon="0.51644">
        <ele>548.86</ele>
        <time>2021-06-24T09:40:41.000Z</time>
      </trkpt>
      <trkpt lat="43.09089" lon="0.51619">
        <ele>548.88</ele>
        <time>2021-06-24T09:40:46.000Z</time>
      </trkpt>
      <trkpt lat="43.09092" lon="0.51594">
        <ele>548</ele>
        <time>2021-06-24T09:40:51.000Z</time>
      </trkpt>
      <trkpt lat="43.09093" lon="0.5157">
        <ele>547.49</ele>
        <time>2021-06-24T09:40:56.000Z</time>
      </trkpt>
      <trkpt lat="43.09096" lon="0.51548">
        <ele>546.96</ele>
        <time>2021-06-24T09:41:01.000Z</time>
      </trkpt>
      <trkpt lat="43.09098" lon="0.51524">
        <ele>547.55</ele>
        <time>2021-06-24T09:41:06.000Z</time>
      </trkpt>
      <trkpt lat="43.09101" lon="0.51498">
        <ele>548.52</ele>
        <time>2021-06-24T09:41:11.000Z</time>
      </trkpt>
      <trkpt lat="43.09103" lon="0.51474">
        <ele>548.66</ele>
        <time>2021-06-24T09:41:16.000Z</time>
      </trkpt>
      <trkpt lat="43.09106" lon="0.51448">
        <ele>549.53</ele>
        <time>2021-06-24T09:41:21.000Z</time>
      </trkpt>
      <trkpt lat="43.09108" lon="0.51424">
        <ele>549.76</ele>
        <time>2021-06-24T09:41:26.000Z</time>
      </trkpt>
      <trkpt lat="43.09112" lon="0.51397">
        <ele>549.34</ele>
        <time>2021-06-24T09:41:31.000Z</time>
      </trkpt>
      <trkpt lat="43.09116" lon="0.51368">
        <ele>548.27</ele>
        <time>2021-06-24T09:41:36.000Z</time>
      </trkpt>
      <trkpt lat="43.09119" lon="0.51335">
        <ele>548.5</ele>
        <time>2021-06-24T09:41:41.000Z</time>
      </trkpt>
      <trkpt lat="43.09121" lon="0.51302">
        <ele>548.9</ele>
        <time>2021-06-24T09:41:46.000Z</time>
      </trkpt>
      <trkpt lat="43.09124" lon="0.51262">
        <ele>548.93</ele>
        <time>2021-06-24T09:41:51.000Z</time>
      </trkpt>
      <trkpt lat="43.09127" lon="0.51217">
        <ele>547.87</ele>
        <time>2021-06-24T09:41:56.000Z</time>
      </trkpt>
      <trkpt lat="43.0913" lon="0.51173">
        <ele>546.77</ele>
        <time>2021-06-24T09:42:01.000Z</time>
      </trkpt>
      <trkpt lat="43.09132" lon="0.51129">
        <ele>546.46</ele>
        <time>2021-06-24T09:42:06.000Z</time>
      </trkpt>
      <trkpt lat="43.09132" lon="0.51089">
        <ele>545.69</ele>
        <time>2021-06-24T09:42:11.000Z</time>
      </trkpt>
      <trkpt lat="43.09133" lon="0.51051">
        <ele>545.19</ele>
        <time>2021-06-24T09:42:16.000Z</time>
      </trkpt>
      <trkpt lat="43.09133" lon="0.51021">
        <ele>545.28</ele>
        <time>2021-06-24T09:42:21.000Z</time>
      </trkpt>
      <trkpt lat="43.09134" lon="0.50999">
        <ele>545.03</ele>
        <time>2021-06-24T09:42:26.000Z</time>
      </trkpt>
      <trkpt lat="43.09135" lon="0.5098">
        <ele>545.02</ele>
        <time>2021-06-24T09:42:31.000Z</time>
      </trkpt>
      <trkpt lat="43.09138" lon="0.50959">
        <ele>544.7</ele>
        <time>2021-06-24T09:42:36.000Z</time>
      </trkpt>
      <trkpt lat="43.0914" lon="0.50937">
        <ele>544.94</ele>
        <time>2021-06-24T09:42:41.000Z</time>
      </trkpt>
      <trkpt lat="43.09143" lon="0.50913">
        <ele>545.53</ele>
        <time>2021-06-24T09:42:46.000Z</time>
      </trkpt>
      <trkpt lat="43.09144" lon="0.50893">
        <ele>546.37</ele>
        <time>2021-06-24T09:42:51.000Z</time>
      </trkpt>
      <trkpt lat="43.09145" lon="0.50875">
        <ele>546.28</ele>
        <time>2021-06-24T09:42:56.000Z</time>
      </trkpt>
      <trkpt lat="43.09145" lon="0.5086">
        <ele>546.3</ele>
        <time>2021-06-24T09:43:01.000Z</time>
      </trkpt>
      <trkpt lat="43.09146" lon="0.50843">
        <ele>546.4</ele>
        <time>2021-06-24T09:43:06.000Z</time>
      </trkpt>
      <trkpt lat="43.09146" lon="0.50826">
        <ele>546.86</ele>
        <time>2021-06-24T09:43:11.000Z</time>
      </trkpt>
      <trkpt lat="43.09147" lon="0.50807">
        <ele>547.57</ele>
        <time>2021-06-24T09:43:16.000Z</time>
      </trkpt>
      <trkpt lat="43.09149" lon="0.50787">
        <ele>548.23</ele>
        <time>2021-06-24T09:43:21.000Z</time>
      </trkpt>
      <trkpt lat="43.09151" lon="0.50767">
        <ele>548.94</ele>
        <time>2021-06-24T09:43:26.000Z</time>
      </trkpt>
      <trkpt lat="43.09151" lon="0.50749">
        <ele>549.49</ele>
        <time>2021-06-24T09:43:31.000Z</time>
      </trkpt>
      <trkpt lat="43.09152" lon="0.50732">
        <ele>549.59</ele>
        <time>2021-06-24T09:43:36.000Z</time>
      </trkpt>
      <trkpt lat="43.09154" lon="0.50714">
        <ele>550.23</ele>
        <time>2021-06-24T09:43:41.000Z</time>
      </trkpt>
      <trkpt lat="43.09155" lon="0.50697">
        <ele>550.42</ele>
        <time>2021-06-24T09:43:46.000Z</time>
      </trkpt>
      <trkpt lat="43.09157" lon="0.50681">
        <ele>550.4</ele>
        <time>2021-06-24T09:43:51.000Z</time>
      </trkpt>
      <trkpt lat="43.09158" lon="0.50663">
        <ele>550.8</ele>
        <time>2021-06-24T09:43:56.000Z</time>
      </trkpt>
      <trkpt lat="43.09163" lon="0.50642">
        <ele>550.78</ele>
        <time>2021-06-24T09:44:01.000Z</time>
      </trkpt>
      <trkpt lat="43.09165" lon="0.50615">
        <ele>551.61</ele>
        <time>2021-06-24T09:44:06.000Z</time>
      </trkpt>
      <trkpt lat="43.0917" lon="0.50585">
        <ele>552.56</ele>
        <time>2021-06-24T09:44:11.000Z</time>
      </trkpt>
      <trkpt lat="43.09177" lon="0.50556">
        <ele>553.22</ele>
        <time>2021-06-24T09:44:16.000Z</time>
      </trkpt>
      <trkpt lat="43.09184" lon="0.50523">
        <ele>553.96</ele>
        <time>2021-06-24T09:44:21.000Z</time>
      </trkpt>
      <trkpt lat="43.09191" lon="0.50492">
        <ele>554.47</ele>
        <time>2021-06-24T09:44:26.000Z</time>
      </trkpt>
      <trkpt lat="43.09202" lon="0.50453">
        <ele>553.89</ele>
        <time>2021-06-24T09:44:31.000Z</time>
      </trkpt>
      <trkpt lat="43.09213" lon="0.50413">
        <ele>552.64</ele>
        <time>2021-06-24T09:44:36.000Z</time>
      </trkpt>
      <trkpt lat="43.09223" lon="0.50375">
        <ele>552.62</ele>
        <time>2021-06-24T09:44:41.000Z</time>
      </trkpt>
      <trkpt lat="43.09233" lon="0.50339">
        <ele>552.33</ele>
        <time>2021-06-24T09:44:46.000Z</time>
      </trkpt>
      <trkpt lat="43.09242" lon="0.50304">
        <ele>552.65</ele>
        <time>2021-06-24T09:44:51.000Z</time>
      </trkpt>
      <trkpt lat="43.09251" lon="0.50269">
        <ele>554.28</ele>
        <time>2021-06-24T09:44:56.000Z</time>
      </trkpt>
      <trkpt lat="43.0926" lon="0.50238">
        <ele>554.64</ele>
        <time>2021-06-24T09:45:01.000Z</time>
      </trkpt>
      <trkpt lat="43.0927" lon="0.50208">
        <ele>555.03</ele>
        <time>2021-06-24T09:45:06.000Z</time>
      </trkpt>
      <trkpt lat="43.09274" lon="0.50179">
        <ele>555.73</ele>
        <time>2021-06-24T09:45:11.000Z</time>
      </trkpt>
      <trkpt lat="43.0928" lon="0.50157">
        <ele>554.26</ele>
        <time>2021-06-24T09:45:16.000Z</time>
      </trkpt>
      <trkpt lat="43.09284" lon="0.50146">
        <ele>552.91</ele>
        <time>2021-06-24T09:45:21.000Z</time>
      </trkpt>
      <trkpt lat="43.09288" lon="0.50133">
        <ele>552.22</ele>
        <time>2021-06-24T09:45:58.000Z</time>
      </trkpt>
      <trkpt lat="43.09294" lon="0.50114">
        <ele>552.74</ele>
        <time>2021-06-24T09:46:03.000Z</time>
      </trkpt>
      <trkpt lat="43.09302" lon="0.50088">
        <ele>553.28</ele>
        <time>2021-06-24T09:46:08.000Z</time>
      </trkpt>
      <trkpt lat="43.09311" lon="0.50054">
        <ele>553.42</ele>
        <time>2021-06-24T09:46:13.000Z</time>
      </trkpt>
      <trkpt lat="43.09322" lon="0.50017">
        <ele>553.92</ele>
        <time>2021-06-24T09:46:18.000Z</time>
      </trkpt>
      <trkpt lat="43.09332" lon="0.49982">
        <ele>554.65</ele>
        <time>2021-06-24T09:46:23.000Z</time>
      </trkpt>
      <trkpt lat="43.09342" lon="0.49949">
        <ele>554.62</ele>
        <time>2021-06-24T09:46:28.000Z</time>
      </trkpt>
      <trkpt lat="43.09348" lon="0.49921">
        <ele>554.6</ele>
        <time>2021-06-24T09:46:33.000Z</time>
      </trkpt>
      <trkpt lat="43.09354" lon="0.49899">
        <ele>554.46</ele>
        <time>2021-06-24T09:46:38.000Z</time>
      </trkpt>
      <trkpt lat="43.09362" lon="0.49874">
        <ele>555.51</ele>
        <time>2021-06-24T09:46:43.000Z</time>
      </trkpt>
      <trkpt lat="43.09369" lon="0.4985">
        <ele>555.82</ele>
        <time>2021-06-24T09:46:48.000Z</time>
      </trkpt>
      <trkpt lat="43.09376" lon="0.49828">
        <ele>556.44</ele>
        <time>2021-06-24T09:46:53.000Z</time>
      </trkpt>
      <trkpt lat="43.09382" lon="0.49806">
        <ele>557.78</ele>
        <time>2021-06-24T09:46:58.000Z</time>
      </trkpt>
      <trkpt lat="43.09389" lon="0.49782">
        <ele>559.21</ele>
        <time>2021-06-24T09:47:03.000Z</time>
      </trkpt>
      <trkpt lat="43.09397" lon="0.4976">
        <ele>559.39</ele>
        <time>2021-06-24T09:47:08.000Z</time>
      </trkpt>
      <trkpt lat="43.09404" lon="0.49735">
        <ele>558.37</ele>
        <time>2021-06-24T09:47:13.000Z</time>
      </trkpt>
      <trkpt lat="43.09411" lon="0.49712">
        <ele>559.13</ele>
        <time>2021-06-24T09:47:18.000Z</time>
      </trkpt>
      <trkpt lat="43.09418" lon="0.49688">
        <ele>559.92</ele>
        <time>2021-06-24T09:47:23.000Z</time>
      </trkpt>
      <trkpt lat="43.09426" lon="0.49664">
        <ele>559.65</ele>
        <time>2021-06-24T09:47:28.000Z</time>
      </trkpt>
      <trkpt lat="43.09434" lon="0.4964">
        <ele>558.83</ele>
        <time>2021-06-24T09:47:33.000Z</time>
      </trkpt>
      <trkpt lat="43.09442" lon="0.49612">
        <ele>558.84</ele>
        <time>2021-06-24T09:47:38.000Z</time>
      </trkpt>
      <trkpt lat="43.09451" lon="0.49581">
        <ele>558.77</ele>
        <time>2021-06-24T09:47:43.000Z</time>
      </trkpt>
      <trkpt lat="43.0946" lon="0.4955">
        <ele>558.68</ele>
        <time>2021-06-24T09:47:48.000Z</time>
      </trkpt>
      <trkpt lat="43.09468" lon="0.49517">
        <ele>558.42</ele>
        <time>2021-06-24T09:47:53.000Z</time>
      </trkpt>
      <trkpt lat="43.09476" lon="0.49486">
        <ele>558.82</ele>
        <time>2021-06-24T09:47:58.000Z</time>
      </trkpt>
      <trkpt lat="43.09485" lon="0.49455">
        <ele>559.08</ele>
        <time>2021-06-24T09:48:03.000Z</time>
      </trkpt>
      <trkpt lat="43.09495" lon="0.4943">
        <ele>560.06</ele>
        <time>2021-06-24T09:48:08.000Z</time>
      </trkpt>
      <trkpt lat="43.09502" lon="0.49404">
        <ele>560.47</ele>
        <time>2021-06-24T09:48:13.000Z</time>
      </trkpt>
      <trkpt lat="43.09508" lon="0.49376">
        <ele>560.28</ele>
        <time>2021-06-24T09:48:18.000Z</time>
      </trkpt>
      <trkpt lat="43.09517" lon="0.49346">
        <ele>559.61</ele>
        <time>2021-06-24T09:48:23.000Z</time>
      </trkpt>
      <trkpt lat="43.09527" lon="0.49316">
        <ele>560.22</ele>
        <time>2021-06-24T09:48:28.000Z</time>
      </trkpt>
      <trkpt lat="43.09535" lon="0.49287">
        <ele>562.02</ele>
        <time>2021-06-24T09:48:33.000Z</time>
      </trkpt>
      <trkpt lat="43.09542" lon="0.49261">
        <ele>562.14</ele>
        <time>2021-06-24T09:48:38.000Z</time>
      </trkpt>
      <trkpt lat="43.09549" lon="0.49235">
        <ele>563.07</ele>
        <time>2021-06-24T09:48:43.000Z</time>
      </trkpt>
      <trkpt lat="43.09556" lon="0.49211">
        <ele>563.12</ele>
        <time>2021-06-24T09:48:48.000Z</time>
      </trkpt>
      <trkpt lat="43.09562" lon="0.49189">
        <ele>562.99</ele>
        <time>2021-06-24T09:48:53.000Z</time>
      </trkpt>
      <trkpt lat="43.09569" lon="0.49166">
        <ele>563.73</ele>
        <time>2021-06-24T09:48:58.000Z</time>
      </trkpt>
      <trkpt lat="43.09576" lon="0.49145">
        <ele>564.66</ele>
        <time>2021-06-24T09:49:03.000Z</time>
      </trkpt>
      <trkpt lat="43.09584" lon="0.49125">
        <ele>564.82</ele>
        <time>2021-06-24T09:49:08.000Z</time>
      </trkpt>
      <trkpt lat="43.0959" lon="0.49099">
        <ele>565</ele>
        <time>2021-06-24T09:49:13.000Z</time>
      </trkpt>
      <trkpt lat="43.09597" lon="0.49077">
        <ele>565.58</ele>
        <time>2021-06-24T09:49:18.000Z</time>
      </trkpt>
      <trkpt lat="43.09603" lon="0.49056">
        <ele>565.8</ele>
        <time>2021-06-24T09:49:23.000Z</time>
      </trkpt>
      <trkpt lat="43.09608" lon="0.49038">
        <ele>565.13</ele>
        <time>2021-06-24T09:49:28.000Z</time>
      </trkpt>
      <trkpt lat="43.09612" lon="0.49021">
        <ele>566.29</ele>
        <time>2021-06-24T09:49:33.000Z</time>
      </trkpt>
      <trkpt lat="43.09618" lon="0.48999">
        <ele>567.6</ele>
        <time>2021-06-24T09:49:38.000Z</time>
      </trkpt>
      <trkpt lat="43.09625" lon="0.4898">
        <ele>568.54</ele>
        <time>2021-06-24T09:49:43.000Z</time>
      </trkpt>
      <trkpt lat="43.09631" lon="0.4896">
        <ele>569.13</ele>
        <time>2021-06-24T09:49:48.000Z</time>
      </trkpt>
      <trkpt lat="43.09637" lon="0.48941">
        <ele>569.49</ele>
        <time>2021-06-24T09:49:53.000Z</time>
      </trkpt>
      <trkpt lat="43.09643" lon="0.4892">
        <ele>569.1</ele>
        <time>2021-06-24T09:49:58.000Z</time>
      </trkpt>
      <trkpt lat="43.09649" lon="0.48898">
        <ele>568.24</ele>
        <time>2021-06-24T09:50:03.000Z</time>
      </trkpt>
      <trkpt lat="43.09657" lon="0.48875">
        <ele>568.52</ele>
        <time>2021-06-24T09:50:08.000Z</time>
      </trkpt>
      <trkpt lat="43.09664" lon="0.48855">
        <ele>568.33</ele>
        <time>2021-06-24T09:50:13.000Z</time>
      </trkpt>
      <trkpt lat="43.09669" lon="0.48835">
        <ele>568.22</ele>
        <time>2021-06-24T09:50:18.000Z</time>
      </trkpt>
      <trkpt lat="43.09675" lon="0.48815">
        <ele>567.61</ele>
        <time>2021-06-24T09:50:23.000Z</time>
      </trkpt>
      <trkpt lat="43.09681" lon="0.48789">
        <ele>567.15</ele>
        <time>2021-06-24T09:50:28.000Z</time>
      </trkpt>
      <trkpt lat="43.09688" lon="0.48761">
        <ele>568.92</ele>
        <time>2021-06-24T09:50:33.000Z</time>
      </trkpt>
      <trkpt lat="43.09695" lon="0.48733">
        <ele>569.2</ele>
        <time>2021-06-24T09:50:38.000Z</time>
      </trkpt>
      <trkpt lat="43.09703" lon="0.48703">
        <ele>568.59</ele>
        <time>2021-06-24T09:50:43.000Z</time>
      </trkpt>
      <trkpt lat="43.09712" lon="0.4867">
        <ele>568.48</ele>
        <time>2021-06-24T09:50:48.000Z</time>
      </trkpt>
      <trkpt lat="43.09722" lon="0.48635">
        <ele>567.49</ele>
        <time>2021-06-24T09:50:53.000Z</time>
      </trkpt>
      <trkpt lat="43.09734" lon="0.48599">
        <ele>566.64</ele>
        <time>2021-06-24T09:50:58.000Z</time>
      </trkpt>
      <trkpt lat="43.09745" lon="0.48563">
        <ele>566.41</ele>
        <time>2021-06-24T09:51:03.000Z</time>
      </trkpt>
      <trkpt lat="43.09756" lon="0.48528">
        <ele>565.71</ele>
        <time>2021-06-24T09:51:08.000Z</time>
      </trkpt>
      <trkpt lat="43.09766" lon="0.48492">
        <ele>565.31</ele>
        <time>2021-06-24T09:51:13.000Z</time>
      </trkpt>
      <trkpt lat="43.09777" lon="0.48458">
        <ele>565.73</ele>
        <time>2021-06-24T09:51:18.000Z</time>
      </trkpt>
      <trkpt lat="43.09787" lon="0.48422">
        <ele>565.2</ele>
        <time>2021-06-24T09:51:23.000Z</time>
      </trkpt>
      <trkpt lat="43.09797" lon="0.48384">
        <ele>566.83</ele>
        <time>2021-06-24T09:51:28.000Z</time>
      </trkpt>
      <trkpt lat="43.09809" lon="0.48347">
        <ele>564.41</ele>
        <time>2021-06-24T09:51:33.000Z</time>
      </trkpt>
      <trkpt lat="43.09821" lon="0.48309">
        <ele>565.07</ele>
        <time>2021-06-24T09:51:38.000Z</time>
      </trkpt>
      <trkpt lat="43.09831" lon="0.48269">
        <ele>563.92</ele>
        <time>2021-06-24T09:51:43.000Z</time>
      </trkpt>
      <trkpt lat="43.09842" lon="0.48229">
        <ele>563.57</ele>
        <time>2021-06-24T09:51:48.000Z</time>
      </trkpt>
      <trkpt lat="43.09853" lon="0.48191">
        <ele>565.58</ele>
        <time>2021-06-24T09:51:53.000Z</time>
      </trkpt>
      <trkpt lat="43.09863" lon="0.48157">
        <ele>565.19</ele>
        <time>2021-06-24T09:51:58.000Z</time>
      </trkpt>
      <trkpt lat="43.09873" lon="0.48123">
        <ele>563.22</ele>
        <time>2021-06-24T09:52:03.000Z</time>
      </trkpt>
      <trkpt lat="43.09882" lon="0.48093">
        <ele>562.75</ele>
        <time>2021-06-24T09:52:08.000Z</time>
      </trkpt>
      <trkpt lat="43.09891" lon="0.48067">
        <ele>562.81</ele>
        <time>2021-06-24T09:52:13.000Z</time>
      </trkpt>
      <trkpt lat="43.09898" lon="0.48042">
        <ele>566.1</ele>
        <time>2021-06-24T09:52:18.000Z</time>
      </trkpt>
      <trkpt lat="43.09907" lon="0.48017">
        <ele>569.55</ele>
        <time>2021-06-24T09:52:23.000Z</time>
      </trkpt>
      <trkpt lat="43.09914" lon="0.47993">
        <ele>571.42</ele>
        <time>2021-06-24T09:52:28.000Z</time>
      </trkpt>
      <trkpt lat="43.09921" lon="0.47968">
        <ele>571.49</ele>
        <time>2021-06-24T09:52:33.000Z</time>
      </trkpt>
      <trkpt lat="43.09929" lon="0.47944">
        <ele>572.25</ele>
        <time>2021-06-24T09:52:38.000Z</time>
      </trkpt>
      <trkpt lat="43.09934" lon="0.47921">
        <ele>572.69</ele>
        <time>2021-06-24T09:52:43.000Z</time>
      </trkpt>
      <trkpt lat="43.09939" lon="0.47895">
        <ele>572.18</ele>
        <time>2021-06-24T09:52:48.000Z</time>
      </trkpt>
      <trkpt lat="43.09947" lon="0.47867">
        <ele>569.51</ele>
        <time>2021-06-24T09:52:53.000Z</time>
      </trkpt>
      <trkpt lat="43.09956" lon="0.47834">
        <ele>569.21</ele>
        <time>2021-06-24T09:52:58.000Z</time>
      </trkpt>
      <trkpt lat="43.09966" lon="0.47799">
        <ele>570.19</ele>
        <time>2021-06-24T09:53:03.000Z</time>
      </trkpt>
      <trkpt lat="43.09977" lon="0.47762">
        <ele>570.69</ele>
        <time>2021-06-24T09:53:08.000Z</time>
      </trkpt>
      <trkpt lat="43.09988" lon="0.47726">
        <ele>569.14</ele>
        <time>2021-06-24T09:53:13.000Z</time>
      </trkpt>
      <trkpt lat="43.09997" lon="0.47693">
        <ele>569.66</ele>
        <time>2021-06-24T09:53:18.000Z</time>
      </trkpt>
      <trkpt lat="43.10011" lon="0.47654">
        <ele>568.83</ele>
        <time>2021-06-24T09:53:23.000Z</time>
      </trkpt>
      <trkpt lat="43.10022" lon="0.47615">
        <ele>569.57</ele>
        <time>2021-06-24T09:53:28.000Z</time>
      </trkpt>
      <trkpt lat="43.10033" lon="0.47579">
        <ele>570.4</ele>
        <time>2021-06-24T09:53:33.000Z</time>
      </trkpt>
      <trkpt lat="43.10042" lon="0.47544">
        <ele>570.09</ele>
        <time>2021-06-24T09:53:38.000Z</time>
      </trkpt>
      <trkpt lat="43.10053" lon="0.47509">
        <ele>568.5</ele>
        <time>2021-06-24T09:53:43.000Z</time>
      </trkpt>
      <trkpt lat="43.10065" lon="0.47474">
        <ele>567.57</ele>
        <time>2021-06-24T09:53:48.000Z</time>
      </trkpt>
      <trkpt lat="43.10074" lon="0.47439">
        <ele>567.21</ele>
        <time>2021-06-24T09:53:53.000Z</time>
      </trkpt>
      <trkpt lat="43.10084" lon="0.47404">
        <ele>567.51</ele>
        <time>2021-06-24T09:53:58.000Z</time>
      </trkpt>
      <trkpt lat="43.10094" lon="0.47368">
        <ele>567.76</ele>
        <time>2021-06-24T09:54:03.000Z</time>
      </trkpt>
      <trkpt lat="43.10105" lon="0.47333">
        <ele>567.48</ele>
        <time>2021-06-24T09:54:08.000Z</time>
      </trkpt>
      <trkpt lat="43.10117" lon="0.47296">
        <ele>566.47</ele>
        <time>2021-06-24T09:54:13.000Z</time>
      </trkpt>
      <trkpt lat="43.10129" lon="0.4726">
        <ele>565.12</ele>
        <time>2021-06-24T09:54:18.000Z</time>
      </trkpt>
      <trkpt lat="43.1014" lon="0.47222">
        <ele>564.23</ele>
        <time>2021-06-24T09:54:23.000Z</time>
      </trkpt>
      <trkpt lat="43.10151" lon="0.47183">
        <ele>564.43</ele>
        <time>2021-06-24T09:54:28.000Z</time>
      </trkpt>
      <trkpt lat="43.10162" lon="0.47145">
        <ele>564.2</ele>
        <time>2021-06-24T09:54:33.000Z</time>
      </trkpt>
      <trkpt lat="43.10171" lon="0.47107">
        <ele>564.38</ele>
        <time>2021-06-24T09:54:38.000Z</time>
      </trkpt>
      <trkpt lat="43.1018" lon="0.47071">
        <ele>565.13</ele>
        <time>2021-06-24T09:54:43.000Z</time>
      </trkpt>
      <trkpt lat="43.1019" lon="0.47034">
        <ele>566.11</ele>
        <time>2021-06-24T09:54:48.000Z</time>
      </trkpt>
      <trkpt lat="43.102" lon="0.46998">
        <ele>566.73</ele>
        <time>2021-06-24T09:54:53.000Z</time>
      </trkpt>
      <trkpt lat="43.1021" lon="0.46968">
        <ele>566.09</ele>
        <time>2021-06-24T09:54:58.000Z</time>
      </trkpt>
      <trkpt lat="43.10217" lon="0.46942">
        <ele>564.96</ele>
        <time>2021-06-24T09:55:03.000Z</time>
      </trkpt>
      <trkpt lat="43.10226" lon="0.46917">
        <ele>566.15</ele>
        <time>2021-06-24T09:55:08.000Z</time>
      </trkpt>
      <trkpt lat="43.10234" lon="0.46892">
        <ele>566.54</ele>
        <time>2021-06-24T09:55:13.000Z</time>
      </trkpt>
      <trkpt lat="43.10242" lon="0.46867">
        <ele>564.82</ele>
        <time>2021-06-24T09:55:18.000Z</time>
      </trkpt>
      <trkpt lat="43.10251" lon="0.46843">
        <ele>564.02</ele>
        <time>2021-06-24T09:55:23.000Z</time>
      </trkpt>
      <trkpt lat="43.10257" lon="0.46817">
        <ele>565.9</ele>
        <time>2021-06-24T09:55:28.000Z</time>
      </trkpt>
      <trkpt lat="43.10265" lon="0.46792">
        <ele>567.67</ele>
        <time>2021-06-24T09:55:33.000Z</time>
      </trkpt>
      <trkpt lat="43.10272" lon="0.46768">
        <ele>568.64</ele>
        <time>2021-06-24T09:55:38.000Z</time>
      </trkpt>
      <trkpt lat="43.10279" lon="0.46744">
        <ele>569.31</ele>
        <time>2021-06-24T09:55:43.000Z</time>
      </trkpt>
      <trkpt lat="43.10286" lon="0.46719">
        <ele>569.59</ele>
        <time>2021-06-24T09:55:48.000Z</time>
      </trkpt>
      <trkpt lat="43.10293" lon="0.46691">
        <ele>569.37</ele>
        <time>2021-06-24T09:55:53.000Z</time>
      </trkpt>
      <trkpt lat="43.10303" lon="0.46658">
        <ele>569.83</ele>
        <time>2021-06-24T09:55:58.000Z</time>
      </trkpt>
      <trkpt lat="43.10316" lon="0.46619">
        <ele>571.33</ele>
        <time>2021-06-24T09:56:03.000Z</time>
      </trkpt>
      <trkpt lat="43.10327" lon="0.4658">
        <ele>571.34</ele>
        <time>2021-06-24T09:56:08.000Z</time>
      </trkpt>
      <trkpt lat="43.10336" lon="0.46543">
        <ele>571.13</ele>
        <time>2021-06-24T09:56:13.000Z</time>
      </trkpt>
      <trkpt lat="43.10344" lon="0.46511">
        <ele>571.08</ele>
        <time>2021-06-24T09:56:18.000Z</time>
      </trkpt>
      <trkpt lat="43.10351" lon="0.46482">
        <ele>570.19</ele>
        <time>2021-06-24T09:56:23.000Z</time>
      </trkpt>
      <trkpt lat="43.10359" lon="0.46455">
        <ele>570.2</ele>
        <time>2021-06-24T09:56:28.000Z</time>
      </trkpt>
      <trkpt lat="43.10366" lon="0.4643">
        <ele>569.4</ele>
        <time>2021-06-24T09:56:33.000Z</time>
      </trkpt>
      <trkpt lat="43.10375" lon="0.46405">
        <ele>569.29</ele>
        <time>2021-06-24T09:56:38.000Z</time>
      </trkpt>
      <trkpt lat="43.10384" lon="0.46379">
        <ele>569.83</ele>
        <time>2021-06-24T09:56:43.000Z</time>
      </trkpt>
      <trkpt lat="43.10391" lon="0.46354">
        <ele>570.56</ele>
        <time>2021-06-24T09:56:48.000Z</time>
      </trkpt>
      <trkpt lat="43.10399" lon="0.46327">
        <ele>570.93</ele>
        <time>2021-06-24T09:56:53.000Z</time>
      </trkpt>
      <trkpt lat="43.10405" lon="0.463">
        <ele>570.69</ele>
        <time>2021-06-24T09:56:58.000Z</time>
      </trkpt>
      <trkpt lat="43.10413" lon="0.46274">
        <ele>571.07</ele>
        <time>2021-06-24T09:57:03.000Z</time>
      </trkpt>
      <trkpt lat="43.10421" lon="0.46249">
        <ele>569.88</ele>
        <time>2021-06-24T09:57:08.000Z</time>
      </trkpt>
      <trkpt lat="43.10428" lon="0.46227">
        <ele>569.21</ele>
        <time>2021-06-24T09:57:13.000Z</time>
      </trkpt>
      <trkpt lat="43.10435" lon="0.46202">
        <ele>568.17</ele>
        <time>2021-06-24T09:57:18.000Z</time>
      </trkpt>
      <trkpt lat="43.10441" lon="0.46179">
        <ele>567.69</ele>
        <time>2021-06-24T09:57:23.000Z</time>
      </trkpt>
      <trkpt lat="43.10446" lon="0.46155">
        <ele>568.29</ele>
        <time>2021-06-24T09:57:28.000Z</time>
      </trkpt>
      <trkpt lat="43.10454" lon="0.46133">
        <ele>569.92</ele>
        <time>2021-06-24T09:57:33.000Z</time>
      </trkpt>
      <trkpt lat="43.10461" lon="0.46111">
        <ele>571.13</ele>
        <time>2021-06-24T09:57:38.000Z</time>
      </trkpt>
      <trkpt lat="43.10468" lon="0.46089">
        <ele>571.69</ele>
        <time>2021-06-24T09:57:43.000Z</time>
      </trkpt>
      <trkpt lat="43.10474" lon="0.46066">
        <ele>571.68</ele>
        <time>2021-06-24T09:57:48.000Z</time>
      </trkpt>
      <trkpt lat="43.1048" lon="0.46043">
        <ele>571.47</ele>
        <time>2021-06-24T09:57:53.000Z</time>
      </trkpt>
      <trkpt lat="43.10487" lon="0.46021">
        <ele>571.22</ele>
        <time>2021-06-24T09:57:58.000Z</time>
      </trkpt>
      <trkpt lat="43.10493" lon="0.46001">
        <ele>571.35</ele>
        <time>2021-06-24T09:58:03.000Z</time>
      </trkpt>
      <trkpt lat="43.10499" lon="0.45979">
        <ele>570.89</ele>
        <time>2021-06-24T09:58:08.000Z</time>
      </trkpt>
      <trkpt lat="43.10505" lon="0.45958">
        <ele>569.77</ele>
        <time>2021-06-24T09:58:13.000Z</time>
      </trkpt>
      <trkpt lat="43.10511" lon="0.45936">
        <ele>570.74</ele>
        <time>2021-06-24T09:58:18.000Z</time>
      </trkpt>
      <trkpt lat="43.10516" lon="0.45915">
        <ele>572.55</ele>
        <time>2021-06-24T09:58:23.000Z</time>
      </trkpt>
      <trkpt lat="43.1052" lon="0.45895">
        <ele>573.43</ele>
        <time>2021-06-24T09:58:28.000Z</time>
      </trkpt>
      <trkpt lat="43.10526" lon="0.45876">
        <ele>574.8</ele>
        <time>2021-06-24T09:58:33.000Z</time>
      </trkpt>
      <trkpt lat="43.10532" lon="0.45857">
        <ele>576.59</ele>
        <time>2021-06-24T09:58:38.000Z</time>
      </trkpt>
      <trkpt lat="43.10537" lon="0.4584">
        <ele>576.85</ele>
        <time>2021-06-24T09:58:43.000Z</time>
      </trkpt>
      <trkpt lat="43.10542" lon="0.45821">
        <ele>578.61</ele>
        <time>2021-06-24T09:58:48.000Z</time>
      </trkpt>
      <trkpt lat="43.10547" lon="0.45802">
        <ele>579.28</ele>
        <time>2021-06-24T09:58:53.000Z</time>
      </trkpt>
      <trkpt lat="43.10554" lon="0.45784">
        <ele>578.38</ele>
        <time>2021-06-24T09:58:58.000Z</time>
      </trkpt>
      <trkpt lat="43.10559" lon="0.45765">
        <ele>578.7</ele>
        <time>2021-06-24T09:59:03.000Z</time>
      </trkpt>
      <trkpt lat="43.10563" lon="0.45746">
        <ele>578.62</ele>
        <time>2021-06-24T09:59:08.000Z</time>
      </trkpt>
      <trkpt lat="43.10569" lon="0.45728">
        <ele>579.08</ele>
        <time>2021-06-24T09:59:13.000Z</time>
      </trkpt>
      <trkpt lat="43.10574" lon="0.45709">
        <ele>579.43</ele>
        <time>2021-06-24T09:59:18.000Z</time>
      </trkpt>
      <trkpt lat="43.1058" lon="0.45689">
        <ele>579.65</ele>
        <time>2021-06-24T09:59:23.000Z</time>
      </trkpt>
      <trkpt lat="43.10586" lon="0.4567">
        <ele>579.1</ele>
        <time>2021-06-24T09:59:28.000Z</time>
      </trkpt>
      <trkpt lat="43.10593" lon="0.4565">
        <ele>578.93</ele>
        <time>2021-06-24T09:59:33.000Z</time>
      </trkpt>
      <trkpt lat="43.10598" lon="0.4563">
        <ele>579.46</ele>
        <time>2021-06-24T09:59:38.000Z</time>
      </trkpt>
      <trkpt lat="43.10603" lon="0.45609">
        <ele>579.22</ele>
        <time>2021-06-24T09:59:43.000Z</time>
      </trkpt>
      <trkpt lat="43.1061" lon="0.45587">
        <ele>580.09</ele>
        <time>2021-06-24T09:59:48.000Z</time>
      </trkpt>
      <trkpt lat="43.10618" lon="0.45564">
        <ele>580.13</ele>
        <time>2021-06-24T09:59:53.000Z</time>
      </trkpt>
      <trkpt lat="43.10623" lon="0.45542">
        <ele>580.17</ele>
        <time>2021-06-24T09:59:58.000Z</time>
      </trkpt>
      <trkpt lat="43.10631" lon="0.45518">
        <ele>580.6</ele>
        <time>2021-06-24T10:00:03.000Z</time>
      </trkpt>
      <trkpt lat="43.10639" lon="0.45496">
        <ele>580.89</ele>
        <time>2021-06-24T10:00:08.000Z</time>
      </trkpt>
      <trkpt lat="43.10644" lon="0.45474">
        <ele>582.28</ele>
        <time>2021-06-24T10:00:13.000Z</time>
      </trkpt>
      <trkpt lat="43.10649" lon="0.45453">
        <ele>583.56</ele>
        <time>2021-06-24T10:00:18.000Z</time>
      </trkpt>
      <trkpt lat="43.10654" lon="0.4543">
        <ele>584.56</ele>
        <time>2021-06-24T10:00:23.000Z</time>
      </trkpt>
      <trkpt lat="43.10661" lon="0.45409">
        <ele>584.82</ele>
        <time>2021-06-24T10:00:28.000Z</time>
      </trkpt>
      <trkpt lat="43.10667" lon="0.45389">
        <ele>585.01</ele>
        <time>2021-06-24T10:00:33.000Z</time>
      </trkpt>
      <trkpt lat="43.10673" lon="0.45369">
        <ele>584.02</ele>
        <time>2021-06-24T10:00:38.000Z</time>
      </trkpt>
      <trkpt lat="43.10678" lon="0.4535">
        <ele>584.27</ele>
        <time>2021-06-24T10:00:43.000Z</time>
      </trkpt>
      <trkpt lat="43.10687" lon="0.4533">
        <ele>585.18</ele>
        <time>2021-06-24T10:00:48.000Z</time>
      </trkpt>
      <trkpt lat="43.10692" lon="0.45312">
        <ele>585.79</ele>
        <time>2021-06-24T10:00:53.000Z</time>
      </trkpt>
      <trkpt lat="43.10698" lon="0.45293">
        <ele>587</ele>
        <time>2021-06-24T10:00:58.000Z</time>
      </trkpt>
      <trkpt lat="43.10702" lon="0.45275">
        <ele>589.87</ele>
        <time>2021-06-24T10:01:03.000Z</time>
      </trkpt>
      <trkpt lat="43.10706" lon="0.45256">
        <ele>591.41</ele>
        <time>2021-06-24T10:01:08.000Z</time>
      </trkpt>
      <trkpt lat="43.10712" lon="0.45235">
        <ele>590.54</ele>
        <time>2021-06-24T10:01:13.000Z</time>
      </trkpt>
      <trkpt lat="43.10718" lon="0.45213">
        <ele>590.34</ele>
        <time>2021-06-24T10:01:18.000Z</time>
      </trkpt>
      <trkpt lat="43.10725" lon="0.45191">
        <ele>591.42</ele>
        <time>2021-06-24T10:01:23.000Z</time>
      </trkpt>
      <trkpt lat="43.10732" lon="0.45171">
        <ele>590.57</ele>
        <time>2021-06-24T10:01:28.000Z</time>
      </trkpt>
      <trkpt lat="43.10739" lon="0.45151">
        <ele>591.02</ele>
        <time>2021-06-24T10:01:33.000Z</time>
      </trkpt>
      <trkpt lat="43.10743" lon="0.45134">
        <ele>591.45</ele>
        <time>2021-06-24T10:01:38.000Z</time>
      </trkpt>
      <trkpt lat="43.10747" lon="0.4512">
        <ele>590.73</ele>
        <time>2021-06-24T10:01:43.000Z</time>
      </trkpt>
      <trkpt lat="43.10751" lon="0.45104">
        <ele>590.23</ele>
        <time>2021-06-24T10:01:48.000Z</time>
      </trkpt>
      <trkpt lat="43.10755" lon="0.45088">
        <ele>590.2</ele>
        <time>2021-06-24T10:01:53.000Z</time>
      </trkpt>
      <trkpt lat="43.10761" lon="0.45071">
        <ele>588.23</ele>
        <time>2021-06-24T10:01:58.000Z</time>
      </trkpt>
      <trkpt lat="43.10765" lon="0.45053">
        <ele>588.35</ele>
        <time>2021-06-24T10:02:03.000Z</time>
      </trkpt>
      <trkpt lat="43.1077" lon="0.45032">
        <ele>589.95</ele>
        <time>2021-06-24T10:02:08.000Z</time>
      </trkpt>
      <trkpt lat="43.10774" lon="0.45012">
        <ele>591.81</ele>
        <time>2021-06-24T10:02:13.000Z</time>
      </trkpt>
      <trkpt lat="43.1078" lon="0.44991">
        <ele>592.66</ele>
        <time>2021-06-24T10:02:18.000Z</time>
      </trkpt>
      <trkpt lat="43.10786" lon="0.44968">
        <ele>593.02</ele>
        <time>2021-06-24T10:02:23.000Z</time>
      </trkpt>
      <trkpt lat="43.10792" lon="0.44944">
        <ele>593.59</ele>
        <time>2021-06-24T10:02:28.000Z</time>
      </trkpt>
      <trkpt lat="43.10799" lon="0.44921">
        <ele>593.07</ele>
        <time>2021-06-24T10:02:33.000Z</time>
      </trkpt>
      <trkpt lat="43.10808" lon="0.44893">
        <ele>591.62</ele>
        <time>2021-06-24T10:02:38.000Z</time>
      </trkpt>
      <trkpt lat="43.10817" lon="0.44863">
        <ele>591.13</ele>
        <time>2021-06-24T10:02:43.000Z</time>
      </trkpt>
      <trkpt lat="43.10822" lon="0.44829">
        <ele>590.71</ele>
        <time>2021-06-24T10:02:48.000Z</time>
      </trkpt>
      <trkpt lat="43.10818" lon="0.44808">
        <ele>590.5</ele>
        <time>2021-06-24T10:02:53.000Z</time>
      </trkpt>
      <trkpt lat="43.10822" lon="0.44797">
        <ele>590.3</ele>
        <time>2021-06-24T10:03:01.000Z</time>
      </trkpt>
      <trkpt lat="43.10824" lon="0.44813">
        <ele>590.39</ele>
        <time>2021-06-24T10:03:06.000Z</time>
      </trkpt>
      <trkpt lat="43.10828" lon="0.44824">
        <ele>590.4</ele>
        <time>2021-06-24T10:03:13.000Z</time>
      </trkpt>
      <trkpt lat="43.10818" lon="0.44836">
        <ele>590.67</ele>
        <time>2021-06-24T10:03:25.000Z</time>
      </trkpt>
      <trkpt lat="43.10811" lon="0.44847">
        <ele>590.8</ele>
        <time>2021-06-24T10:03:30.000Z</time>
      </trkpt>
      <trkpt lat="43.10831" lon="0.4486">
        <ele>592.54</ele>
        <time>2021-06-24T10:04:03.000Z</time>
      </trkpt>
      <trkpt lat="43.1083" lon="0.44846">
        <ele>592.48</ele>
        <time>2021-06-24T10:04:08.000Z</time>
      </trkpt>
      <trkpt lat="43.10822" lon="0.44832">
        <ele>593.27</ele>
        <time>2021-06-24T10:04:14.000Z</time>
      </trkpt>
      <trkpt lat="43.10811" lon="0.44833">
        <ele>595.25</ele>
        <time>2021-06-24T10:04:28.000Z</time>
      </trkpt>
      <trkpt lat="43.10801" lon="0.44845">
        <ele>594.91</ele>
        <time>2021-06-24T10:04:33.000Z</time>
      </trkpt>
      <trkpt lat="43.10817" lon="0.44842">
        <ele>595.72</ele>
        <time>2021-06-24T10:04:39.000Z</time>
      </trkpt>
      <trkpt lat="43.10823" lon="0.44826">
        <ele>594.6</ele>
        <time>2021-06-24T10:05:42.000Z</time>
      </trkpt>
      <trkpt lat="43.10827" lon="0.44812">
        <ele>593.62</ele>
        <time>2021-06-24T10:05:47.000Z</time>
      </trkpt>
      <trkpt lat="43.10834" lon="0.44784">
        <ele>592.86</ele>
        <time>2021-06-24T10:05:52.000Z</time>
      </trkpt>
      <trkpt lat="43.10846" lon="0.44748">
        <ele>591.77</ele>
        <time>2021-06-24T10:05:57.000Z</time>
      </trkpt>
      <trkpt lat="43.10859" lon="0.44707">
        <ele>591.53</ele>
        <time>2021-06-24T10:06:02.000Z</time>
      </trkpt>
      <trkpt lat="43.10872" lon="0.44668">
        <ele>590.63</ele>
        <time>2021-06-24T10:06:07.000Z</time>
      </trkpt>
      <trkpt lat="43.10882" lon="0.44633">
        <ele>589.28</ele>
        <time>2021-06-24T10:06:12.000Z</time>
      </trkpt>
      <trkpt lat="43.10893" lon="0.44599">
        <ele>588.69</ele>
        <time>2021-06-24T10:06:17.000Z</time>
      </trkpt>
      <trkpt lat="43.10903" lon="0.44565">
        <ele>588.51</ele>
        <time>2021-06-24T10:06:22.000Z</time>
      </trkpt>
      <trkpt lat="43.10912" lon="0.44532">
        <ele>589.32</ele>
        <time>2021-06-24T10:06:27.000Z</time>
      </trkpt>
      <trkpt lat="43.10922" lon="0.445">
        <ele>589.25</ele>
        <time>2021-06-24T10:06:32.000Z</time>
      </trkpt>
      <trkpt lat="43.10932" lon="0.44468">
        <ele>588.27</ele>
        <time>2021-06-24T10:06:37.000Z</time>
      </trkpt>
      <trkpt lat="43.10941" lon="0.44435">
        <ele>589.39</ele>
        <time>2021-06-24T10:06:42.000Z</time>
      </trkpt>
      <trkpt lat="43.10948" lon="0.44402">
        <ele>589.9</ele>
        <time>2021-06-24T10:06:47.000Z</time>
      </trkpt>
      <trkpt lat="43.10956" lon="0.44371">
        <ele>589</ele>
        <time>2021-06-24T10:06:52.000Z</time>
      </trkpt>
      <trkpt lat="43.10966" lon="0.4434">
        <ele>588.84</ele>
        <time>2021-06-24T10:06:57.000Z</time>
      </trkpt>
      <trkpt lat="43.10974" lon="0.4431">
        <ele>588.91</ele>
        <time>2021-06-24T10:07:02.000Z</time>
      </trkpt>
      <trkpt lat="43.10983" lon="0.44279">
        <ele>589.48</ele>
        <time>2021-06-24T10:07:07.000Z</time>
      </trkpt>
      <trkpt lat="43.10993" lon="0.44246">
        <ele>588.74</ele>
        <time>2021-06-24T10:07:12.000Z</time>
      </trkpt>
      <trkpt lat="43.11002" lon="0.44212">
        <ele>588.79</ele>
        <time>2021-06-24T10:07:17.000Z</time>
      </trkpt>
      <trkpt lat="43.11012" lon="0.44178">
        <ele>590.07</ele>
        <time>2021-06-24T10:07:22.000Z</time>
      </trkpt>
      <trkpt lat="43.11023" lon="0.44138">
        <ele>590.78</ele>
        <time>2021-06-24T10:07:27.000Z</time>
      </trkpt>
      <trkpt lat="43.11035" lon="0.44096">
        <ele>589.83</ele>
        <time>2021-06-24T10:07:32.000Z</time>
      </trkpt>
      <trkpt lat="43.11047" lon="0.44054">
        <ele>588.76</ele>
        <time>2021-06-24T10:07:37.000Z</time>
      </trkpt>
      <trkpt lat="43.1106" lon="0.44011">
        <ele>587.82</ele>
        <time>2021-06-24T10:07:42.000Z</time>
      </trkpt>
      <trkpt lat="43.11072" lon="0.43971">
        <ele>586.6</ele>
        <time>2021-06-24T10:07:47.000Z</time>
      </trkpt>
      <trkpt lat="43.11082" lon="0.43931">
        <ele>585.08</ele>
        <time>2021-06-24T10:07:52.000Z</time>
      </trkpt>
      <trkpt lat="43.11093" lon="0.43893">
        <ele>585.7</ele>
        <time>2021-06-24T10:07:57.000Z</time>
      </trkpt>
      <trkpt lat="43.11105" lon="0.43851">
        <ele>585.11</ele>
        <time>2021-06-24T10:08:02.000Z</time>
      </trkpt>
      <trkpt lat="43.11127" lon="0.43804">
        <ele>584.7</ele>
        <time>2021-06-24T10:08:07.000Z</time>
      </trkpt>
      <trkpt lat="43.11165" lon="0.4376">
        <ele>581.42</ele>
        <time>2021-06-24T10:08:12.000Z</time>
      </trkpt>
      <trkpt lat="43.11212" lon="0.43722">
        <ele>579.57</ele>
        <time>2021-06-24T10:08:17.000Z</time>
      </trkpt>
      <trkpt lat="43.11257" lon="0.43688">
        <ele>577.95</ele>
        <time>2021-06-24T10:08:22.000Z</time>
      </trkpt>
      <trkpt lat="43.11297" lon="0.4366">
        <ele>576.25</ele>
        <time>2021-06-24T10:08:27.000Z</time>
      </trkpt>
      <trkpt lat="43.11328" lon="0.43638">
        <ele>575.2</ele>
        <time>2021-06-24T10:08:32.000Z</time>
      </trkpt>
      <trkpt lat="43.11351" lon="0.4362">
        <ele>575.32</ele>
        <time>2021-06-24T10:08:37.000Z</time>
      </trkpt>
      <trkpt lat="43.11371" lon="0.43603">
        <ele>575.86</ele>
        <time>2021-06-24T10:08:42.000Z</time>
      </trkpt>
      <trkpt lat="43.11389" lon="0.43589">
        <ele>576.42</ele>
        <time>2021-06-24T10:08:47.000Z</time>
      </trkpt>
      <trkpt lat="43.11409" lon="0.43576">
        <ele>573.35</ele>
        <time>2021-06-24T10:08:52.000Z</time>
      </trkpt>
      <trkpt lat="43.11425" lon="0.43564">
        <ele>572.37</ele>
        <time>2021-06-24T10:08:57.000Z</time>
      </trkpt>
      <trkpt lat="43.11439" lon="0.43555">
        <ele>571.54</ele>
        <time>2021-06-24T10:09:02.000Z</time>
      </trkpt>
      <trkpt lat="43.1145" lon="0.43543">
        <ele>572.95</ele>
        <time>2021-06-24T10:09:07.000Z</time>
      </trkpt>
      <trkpt lat="43.11463" lon="0.43533">
        <ele>573.2</ele>
        <time>2021-06-24T10:09:12.000Z</time>
      </trkpt>
      <trkpt lat="43.11476" lon="0.43523">
        <ele>573.51</ele>
        <time>2021-06-24T10:09:17.000Z</time>
      </trkpt>
      <trkpt lat="43.11488" lon="0.43512">
        <ele>574.22</ele>
        <time>2021-06-24T10:09:22.000Z</time>
      </trkpt>
      <trkpt lat="43.11504" lon="0.43505">
        <ele>575.35</ele>
        <time>2021-06-24T10:09:27.000Z</time>
      </trkpt>
      <trkpt lat="43.1152" lon="0.43496">
        <ele>576.24</ele>
        <time>2021-06-24T10:09:32.000Z</time>
      </trkpt>
      <trkpt lat="43.11531" lon="0.43483">
        <ele>577.61</ele>
        <time>2021-06-24T10:09:37.000Z</time>
      </trkpt>
      <trkpt lat="43.11545" lon="0.4347">
        <ele>577.98</ele>
        <time>2021-06-24T10:09:42.000Z</time>
      </trkpt>
      <trkpt lat="43.1156" lon="0.43456">
        <ele>579.58</ele>
        <time>2021-06-24T10:09:47.000Z</time>
      </trkpt>
      <trkpt lat="43.11573" lon="0.43441">
        <ele>581.88</ele>
        <time>2021-06-24T10:09:52.000Z</time>
      </trkpt>
      <trkpt lat="43.11588" lon="0.43425">
        <ele>582.57</ele>
        <time>2021-06-24T10:09:57.000Z</time>
      </trkpt>
      <trkpt lat="43.11605" lon="0.43408">
        <ele>584.15</ele>
        <time>2021-06-24T10:10:02.000Z</time>
      </trkpt>
      <trkpt lat="43.11621" lon="0.43388">
        <ele>586.36</ele>
        <time>2021-06-24T10:10:07.000Z</time>
      </trkpt>
      <trkpt lat="43.11633" lon="0.43366">
        <ele>586.93</ele>
        <time>2021-06-24T10:10:12.000Z</time>
      </trkpt>
      <trkpt lat="43.11643" lon="0.43337">
        <ele>588.1</ele>
        <time>2021-06-24T10:10:17.000Z</time>
      </trkpt>
      <trkpt lat="43.11652" lon="0.43303">
        <ele>587.28</ele>
        <time>2021-06-24T10:10:22.000Z</time>
      </trkpt>
      <trkpt lat="43.11657" lon="0.43269">
        <ele>587.86</ele>
        <time>2021-06-24T10:10:27.000Z</time>
      </trkpt>
      <trkpt lat="43.11662" lon="0.43238">
        <ele>587.7</ele>
        <time>2021-06-24T10:10:32.000Z</time>
      </trkpt>
      <trkpt lat="43.11666" lon="0.43209">
        <ele>587.97</ele>
        <time>2021-06-24T10:10:37.000Z</time>
      </trkpt>
      <trkpt lat="43.1167" lon="0.43183">
        <ele>587.87</ele>
        <time>2021-06-24T10:10:42.000Z</time>
      </trkpt>
      <trkpt lat="43.11673" lon="0.43156">
        <ele>588.52</ele>
        <time>2021-06-24T10:10:47.000Z</time>
      </trkpt>
      <trkpt lat="43.11677" lon="0.43128">
        <ele>590.33</ele>
        <time>2021-06-24T10:10:52.000Z</time>
      </trkpt>
      <trkpt lat="43.11682" lon="0.43102">
        <ele>591.7</ele>
        <time>2021-06-24T10:10:57.000Z</time>
      </trkpt>
      <trkpt lat="43.11685" lon="0.43078">
        <ele>590.87</ele>
        <time>2021-06-24T10:11:02.000Z</time>
      </trkpt>
      <trkpt lat="43.11688" lon="0.43052">
        <ele>590.44</ele>
        <time>2021-06-24T10:11:07.000Z</time>
      </trkpt>
      <trkpt lat="43.11689" lon="0.43029">
        <ele>590.32</ele>
        <time>2021-06-24T10:11:12.000Z</time>
      </trkpt>
      <trkpt lat="43.11691" lon="0.43006">
        <ele>589.04</ele>
        <time>2021-06-24T10:11:17.000Z</time>
      </trkpt>
      <trkpt lat="43.11696" lon="0.4298">
        <ele>586.95</ele>
        <time>2021-06-24T10:11:22.000Z</time>
      </trkpt>
      <trkpt lat="43.11699" lon="0.42954">
        <ele>586.82</ele>
        <time>2021-06-24T10:11:27.000Z</time>
      </trkpt>
      <trkpt lat="43.11702" lon="0.4293">
        <ele>588.08</ele>
        <time>2021-06-24T10:11:32.000Z</time>
      </trkpt>
      <trkpt lat="43.11706" lon="0.42903">
        <ele>588.71</ele>
        <time>2021-06-24T10:11:37.000Z</time>
      </trkpt>
      <trkpt lat="43.11709" lon="0.42874">
        <ele>589.65</ele>
        <time>2021-06-24T10:11:42.000Z</time>
      </trkpt>
      <trkpt lat="43.11712" lon="0.42848">
        <ele>590.3</ele>
        <time>2021-06-24T10:11:47.000Z</time>
      </trkpt>
      <trkpt lat="43.11717" lon="0.42819">
        <ele>589.94</ele>
        <time>2021-06-24T10:11:52.000Z</time>
      </trkpt>
      <trkpt lat="43.11722" lon="0.42791">
        <ele>592</ele>
        <time>2021-06-24T10:11:57.000Z</time>
      </trkpt>
      <trkpt lat="43.11726" lon="0.42766">
        <ele>593.77</ele>
        <time>2021-06-24T10:12:02.000Z</time>
      </trkpt>
      <trkpt lat="43.1173" lon="0.4274">
        <ele>594.85</ele>
        <time>2021-06-24T10:12:07.000Z</time>
      </trkpt>
      <trkpt lat="43.11733" lon="0.4271">
        <ele>595.63</ele>
        <time>2021-06-24T10:12:12.000Z</time>
      </trkpt>
      <trkpt lat="43.11736" lon="0.42679">
        <ele>596.82</ele>
        <time>2021-06-24T10:12:17.000Z</time>
      </trkpt>
      <trkpt lat="43.1174" lon="0.4265">
        <ele>597.85</ele>
        <time>2021-06-24T10:12:22.000Z</time>
      </trkpt>
      <trkpt lat="43.11744" lon="0.42616">
        <ele>598.36</ele>
        <time>2021-06-24T10:12:27.000Z</time>
      </trkpt>
      <trkpt lat="43.11748" lon="0.42583">
        <ele>598.6</ele>
        <time>2021-06-24T10:12:32.000Z</time>
      </trkpt>
      <trkpt lat="43.11751" lon="0.42551">
        <ele>598.95</ele>
        <time>2021-06-24T10:12:37.000Z</time>
      </trkpt>
      <trkpt lat="43.11757" lon="0.42521">
        <ele>599.22</ele>
        <time>2021-06-24T10:12:42.000Z</time>
      </trkpt>
      <trkpt lat="43.11762" lon="0.42486">
        <ele>598.35</ele>
        <time>2021-06-24T10:12:47.000Z</time>
      </trkpt>
      <trkpt lat="43.11768" lon="0.42451">
        <ele>596.75</ele>
        <time>2021-06-24T10:12:52.000Z</time>
      </trkpt>
      <trkpt lat="43.11772" lon="0.42415">
        <ele>595.14</ele>
        <time>2021-06-24T10:12:57.000Z</time>
      </trkpt>
      <trkpt lat="43.11775" lon="0.42382">
        <ele>593.41</ele>
        <time>2021-06-24T10:13:02.000Z</time>
      </trkpt>
      <trkpt lat="43.1178" lon="0.42347">
        <ele>591.78</ele>
        <time>2021-06-24T10:13:07.000Z</time>
      </trkpt>
      <trkpt lat="43.11785" lon="0.42316">
        <ele>590.65</ele>
        <time>2021-06-24T10:13:12.000Z</time>
      </trkpt>
      <trkpt lat="43.11789" lon="0.4228">
        <ele>588.7</ele>
        <time>2021-06-24T10:13:17.000Z</time>
      </trkpt>
      <trkpt lat="43.11793" lon="0.42245">
        <ele>587.77</ele>
        <time>2021-06-24T10:13:22.000Z</time>
      </trkpt>
      <trkpt lat="43.11798" lon="0.4221">
        <ele>587.49</ele>
        <time>2021-06-24T10:13:27.000Z</time>
      </trkpt>
      <trkpt lat="43.11802" lon="0.42175">
        <ele>587.48</ele>
        <time>2021-06-24T10:13:32.000Z</time>
      </trkpt>
      <trkpt lat="43.11807" lon="0.42139">
        <ele>587.67</ele>
        <time>2021-06-24T10:13:37.000Z</time>
      </trkpt>
      <trkpt lat="43.11812" lon="0.42107">
        <ele>587.61</ele>
        <time>2021-06-24T10:13:42.000Z</time>
      </trkpt>
      <trkpt lat="43.11818" lon="0.42077">
        <ele>587.13</ele>
        <time>2021-06-24T10:13:47.000Z</time>
      </trkpt>
      <trkpt lat="43.11822" lon="0.4205">
        <ele>586.75</ele>
        <time>2021-06-24T10:13:52.000Z</time>
      </trkpt>
      <trkpt lat="43.11828" lon="0.42021">
        <ele>586.14</ele>
        <time>2021-06-24T10:13:57.000Z</time>
      </trkpt>
      <trkpt lat="43.11831" lon="0.4199">
        <ele>586.93</ele>
        <time>2021-06-24T10:14:02.000Z</time>
      </trkpt>
      <trkpt lat="43.11835" lon="0.4196">
        <ele>587.5</ele>
        <time>2021-06-24T10:14:07.000Z</time>
      </trkpt>
      <trkpt lat="43.11838" lon="0.41932">
        <ele>586.57</ele>
        <time>2021-06-24T10:14:12.000Z</time>
      </trkpt>
      <trkpt lat="43.11841" lon="0.41901">
        <ele>585.82</ele>
        <time>2021-06-24T10:14:17.000Z</time>
      </trkpt>
      <trkpt lat="43.11845" lon="0.41876">
        <ele>583.84</ele>
        <time>2021-06-24T10:14:22.000Z</time>
      </trkpt>
      <trkpt lat="43.1185" lon="0.41851">
        <ele>582.95</ele>
        <time>2021-06-24T10:14:27.000Z</time>
      </trkpt>
      <trkpt lat="43.11854" lon="0.41828">
        <ele>581.82</ele>
        <time>2021-06-24T10:14:32.000Z</time>
      </trkpt>
      <trkpt lat="43.1186" lon="0.41805">
        <ele>581.85</ele>
        <time>2021-06-24T10:14:37.000Z</time>
      </trkpt>
      <trkpt lat="43.11864" lon="0.41779">
        <ele>581.92</ele>
        <time>2021-06-24T10:14:42.000Z</time>
      </trkpt>
      <trkpt lat="43.11869" lon="0.41746">
        <ele>580.84</ele>
        <time>2021-06-24T10:14:47.000Z</time>
      </trkpt>
      <trkpt lat="43.11873" lon="0.4172">
        <ele>580.53</ele>
        <time>2021-06-24T10:14:52.000Z</time>
      </trkpt>
      <trkpt lat="43.11877" lon="0.41691">
        <ele>581.21</ele>
        <time>2021-06-24T10:14:57.000Z</time>
      </trkpt>
      <trkpt lat="43.1188" lon="0.41662">
        <ele>582.54</ele>
        <time>2021-06-24T10:15:02.000Z</time>
      </trkpt>
      <trkpt lat="43.11884" lon="0.41633">
        <ele>585.63</ele>
        <time>2021-06-24T10:15:07.000Z</time>
      </trkpt>
      <trkpt lat="43.11884" lon="0.41603">
        <ele>588.7</ele>
        <time>2021-06-24T10:15:12.000Z</time>
      </trkpt>
      <trkpt lat="43.11885" lon="0.41572">
        <ele>591.03</ele>
        <time>2021-06-24T10:15:17.000Z</time>
      </trkpt>
      <trkpt lat="43.11886" lon="0.41546">
        <ele>591.96</ele>
        <time>2021-06-24T10:15:22.000Z</time>
      </trkpt>
      <trkpt lat="43.11886" lon="0.41524">
        <ele>592.47</ele>
        <time>2021-06-24T10:15:27.000Z</time>
      </trkpt>
      <trkpt lat="43.11892" lon="0.41502">
        <ele>593.74</ele>
        <time>2021-06-24T10:15:32.000Z</time>
      </trkpt>
      <trkpt lat="43.11894" lon="0.41488">
        <ele>595.64</ele>
        <time>2021-06-24T10:16:34.000Z</time>
      </trkpt>
      <trkpt lat="43.11894" lon="0.4147">
        <ele>595.4</ele>
        <time>2021-06-24T10:16:39.000Z</time>
      </trkpt>
      <trkpt lat="43.11898" lon="0.41446">
        <ele>595.87</ele>
        <time>2021-06-24T10:16:44.000Z</time>
      </trkpt>
      <trkpt lat="43.11902" lon="0.41423">
        <ele>596.15</ele>
        <time>2021-06-24T10:16:49.000Z</time>
      </trkpt>
      <trkpt lat="43.11907" lon="0.41396">
        <ele>595.86</ele>
        <time>2021-06-24T10:16:54.000Z</time>
      </trkpt>
      <trkpt lat="43.11911" lon="0.41371">
        <ele>595.32</ele>
        <time>2021-06-24T10:16:59.000Z</time>
      </trkpt>
      <trkpt lat="43.11914" lon="0.41344">
        <ele>596.49</ele>
        <time>2021-06-24T10:17:04.000Z</time>
      </trkpt>
      <trkpt lat="43.11918" lon="0.41317">
        <ele>597.47</ele>
        <time>2021-06-24T10:17:09.000Z</time>
      </trkpt>
      <trkpt lat="43.11922" lon="0.4129">
        <ele>598.11</ele>
        <time>2021-06-24T10:17:14.000Z</time>
      </trkpt>
      <trkpt lat="43.11927" lon="0.41262">
        <ele>598.48</ele>
        <time>2021-06-24T10:17:19.000Z</time>
      </trkpt>
      <trkpt lat="43.11938" lon="0.4124">
        <ele>600.29</ele>
        <time>2021-06-24T10:17:24.000Z</time>
      </trkpt>
      <trkpt lat="43.11942" lon="0.41212">
        <ele>601.76</ele>
        <time>2021-06-24T10:17:29.000Z</time>
      </trkpt>
      <trkpt lat="43.11936" lon="0.41185">
        <ele>602.3</ele>
        <time>2021-06-24T10:17:34.000Z</time>
      </trkpt>
      <trkpt lat="43.11941" lon="0.41156">
        <ele>603.09</ele>
        <time>2021-06-24T10:17:39.000Z</time>
      </trkpt>
      <trkpt lat="43.11943" lon="0.41126">
        <ele>604.03</ele>
        <time>2021-06-24T10:17:44.000Z</time>
      </trkpt>
      <trkpt lat="43.11947" lon="0.41097">
        <ele>603.92</ele>
        <time>2021-06-24T10:17:49.000Z</time>
      </trkpt>
      <trkpt lat="43.11952" lon="0.4107">
        <ele>603.86</ele>
        <time>2021-06-24T10:17:54.000Z</time>
      </trkpt>
      <trkpt lat="43.11956" lon="0.41042">
        <ele>603.77</ele>
        <time>2021-06-24T10:17:59.000Z</time>
      </trkpt>
      <trkpt lat="43.11961" lon="0.41016">
        <ele>603.86</ele>
        <time>2021-06-24T10:18:04.000Z</time>
      </trkpt>
      <trkpt lat="43.11966" lon="0.40992">
        <ele>604.72</ele>
        <time>2021-06-24T10:18:09.000Z</time>
      </trkpt>
      <trkpt lat="43.11971" lon="0.40968">
        <ele>606.88</ele>
        <time>2021-06-24T10:18:14.000Z</time>
      </trkpt>
      <trkpt lat="43.11973" lon="0.40944">
        <ele>607.59</ele>
        <time>2021-06-24T10:18:19.000Z</time>
      </trkpt>
      <trkpt lat="43.11975" lon="0.40914">
        <ele>608.94</ele>
        <time>2021-06-24T10:18:24.000Z</time>
      </trkpt>
      <trkpt lat="43.11979" lon="0.40881">
        <ele>608.24</ele>
        <time>2021-06-24T10:18:29.000Z</time>
      </trkpt>
      <trkpt lat="43.11983" lon="0.40848">
        <ele>607.83</ele>
        <time>2021-06-24T10:18:34.000Z</time>
      </trkpt>
      <trkpt lat="43.11987" lon="0.40814">
        <ele>607.78</ele>
        <time>2021-06-24T10:18:39.000Z</time>
      </trkpt>
      <trkpt lat="43.11989" lon="0.40775">
        <ele>607.72</ele>
        <time>2021-06-24T10:18:44.000Z</time>
      </trkpt>
      <trkpt lat="43.11995" lon="0.40733">
        <ele>607.84</ele>
        <time>2021-06-24T10:18:49.000Z</time>
      </trkpt>
      <trkpt lat="43.12" lon="0.40691">
        <ele>608.32</ele>
        <time>2021-06-24T10:18:54.000Z</time>
      </trkpt>
      <trkpt lat="43.12005" lon="0.40648">
        <ele>608.29</ele>
        <time>2021-06-24T10:18:59.000Z</time>
      </trkpt>
      <trkpt lat="43.12011" lon="0.40603">
        <ele>607.28</ele>
        <time>2021-06-24T10:19:04.000Z</time>
      </trkpt>
      <trkpt lat="43.12017" lon="0.40556">
        <ele>607.49</ele>
        <time>2021-06-24T10:19:09.000Z</time>
      </trkpt>
      <trkpt lat="43.12023" lon="0.40506">
        <ele>607.28</ele>
        <time>2021-06-24T10:19:14.000Z</time>
      </trkpt>
      <trkpt lat="43.12029" lon="0.40454">
        <ele>605.78</ele>
        <time>2021-06-24T10:19:19.000Z</time>
      </trkpt>
      <trkpt lat="43.12037" lon="0.40401">
        <ele>604.16</ele>
        <time>2021-06-24T10:19:24.000Z</time>
      </trkpt>
      <trkpt lat="43.12047" lon="0.40341">
        <ele>602.13</ele>
        <time>2021-06-24T10:19:29.000Z</time>
      </trkpt>
      <trkpt lat="43.12055" lon="0.40281">
        <ele>600.87</ele>
        <time>2021-06-24T10:19:34.000Z</time>
      </trkpt>
      <trkpt lat="43.12062" lon="0.40224">
        <ele>599.87</ele>
        <time>2021-06-24T10:19:39.000Z</time>
      </trkpt>
      <trkpt lat="43.12066" lon="0.40181">
        <ele>598.95</ele>
        <time>2021-06-24T10:19:44.000Z</time>
      </trkpt>
      <trkpt lat="43.12073" lon="0.40144">
        <ele>599.46</ele>
        <time>2021-06-24T10:19:49.000Z</time>
      </trkpt>
      <trkpt lat="43.12088" lon="0.40113">
        <ele>599.93</ele>
        <time>2021-06-24T10:19:54.000Z</time>
      </trkpt>
      <trkpt lat="43.12086" lon="0.40079">
        <ele>598.86</ele>
        <time>2021-06-24T10:19:59.000Z</time>
      </trkpt>
      <trkpt lat="43.1209" lon="0.40044">
        <ele>598.99</ele>
        <time>2021-06-24T10:20:04.000Z</time>
      </trkpt>
      <trkpt lat="43.12092" lon="0.40013">
        <ele>599.23</ele>
        <time>2021-06-24T10:20:09.000Z</time>
      </trkpt>
      <trkpt lat="43.12094" lon="0.39986">
        <ele>599.69</ele>
        <time>2021-06-24T10:20:14.000Z</time>
      </trkpt>
      <trkpt lat="43.12098" lon="0.39961">
        <ele>599.89</ele>
        <time>2021-06-24T10:20:19.000Z</time>
      </trkpt>
      <trkpt lat="43.121" lon="0.39941">
        <ele>599.68</ele>
        <time>2021-06-24T10:20:24.000Z</time>
      </trkpt>
      <trkpt lat="43.12103" lon="0.39921">
        <ele>598.27</ele>
        <time>2021-06-24T10:20:29.000Z</time>
      </trkpt>
      <trkpt lat="43.12106" lon="0.39901">
        <ele>598.58</ele>
        <time>2021-06-24T10:20:34.000Z</time>
      </trkpt>
      <trkpt lat="43.12108" lon="0.39882">
        <ele>600.52</ele>
        <time>2021-06-24T10:20:39.000Z</time>
      </trkpt>
      <trkpt lat="43.1211" lon="0.39861">
        <ele>602.21</ele>
        <time>2021-06-24T10:20:44.000Z</time>
      </trkpt>
      <trkpt lat="43.12111" lon="0.39837">
        <ele>603.26</ele>
        <time>2021-06-24T10:20:49.000Z</time>
      </trkpt>
      <trkpt lat="43.12114" lon="0.39814">
        <ele>603.48</ele>
        <time>2021-06-24T10:20:54.000Z</time>
      </trkpt>
      <trkpt lat="43.12117" lon="0.39791">
        <ele>602.88</ele>
        <time>2021-06-24T10:20:59.000Z</time>
      </trkpt>
      <trkpt lat="43.12121" lon="0.39766">
        <ele>602.72</ele>
        <time>2021-06-24T10:21:04.000Z</time>
      </trkpt>
      <trkpt lat="43.12124" lon="0.39742">
        <ele>603.41</ele>
        <time>2021-06-24T10:21:09.000Z</time>
      </trkpt>
      <trkpt lat="43.12129" lon="0.39718">
        <ele>603.33</ele>
        <time>2021-06-24T10:21:14.000Z</time>
      </trkpt>
      <trkpt lat="43.12133" lon="0.39692">
        <ele>604.82</ele>
        <time>2021-06-24T10:21:19.000Z</time>
      </trkpt>
      <trkpt lat="43.12138" lon="0.39664">
        <ele>605.77</ele>
        <time>2021-06-24T10:21:24.000Z</time>
      </trkpt>
      <trkpt lat="43.12141" lon="0.39634">
        <ele>605.83</ele>
        <time>2021-06-24T10:21:29.000Z</time>
      </trkpt>
      <trkpt lat="43.12145" lon="0.39602">
        <ele>605.41</ele>
        <time>2021-06-24T10:21:34.000Z</time>
      </trkpt>
      <trkpt lat="43.12148" lon="0.39573">
        <ele>605.51</ele>
        <time>2021-06-24T10:21:39.000Z</time>
      </trkpt>
      <trkpt lat="43.12153" lon="0.39542">
        <ele>605.06</ele>
        <time>2021-06-24T10:21:44.000Z</time>
      </trkpt>
      <trkpt lat="43.12157" lon="0.39509">
        <ele>604.11</ele>
        <time>2021-06-24T10:21:49.000Z</time>
      </trkpt>
      <trkpt lat="43.12163" lon="0.39474">
        <ele>603.42</ele>
        <time>2021-06-24T10:21:54.000Z</time>
      </trkpt>
      <trkpt lat="43.12168" lon="0.39439">
        <ele>602.64</ele>
        <time>2021-06-24T10:21:59.000Z</time>
      </trkpt>
      <trkpt lat="43.12172" lon="0.39404">
        <ele>601.55</ele>
        <time>2021-06-24T10:22:04.000Z</time>
      </trkpt>
      <trkpt lat="43.12178" lon="0.39369">
        <ele>600.6</ele>
        <time>2021-06-24T10:22:09.000Z</time>
      </trkpt>
      <trkpt lat="43.12186" lon="0.39326">
        <ele>599.41</ele>
        <time>2021-06-24T10:22:14.000Z</time>
      </trkpt>
      <trkpt lat="43.12191" lon="0.39279">
        <ele>598.11</ele>
        <time>2021-06-24T10:22:19.000Z</time>
      </trkpt>
      <trkpt lat="43.12196" lon="0.39224">
        <ele>596.53</ele>
        <time>2021-06-24T10:22:24.000Z</time>
      </trkpt>
      <trkpt lat="43.12203" lon="0.3916">
        <ele>596.04</ele>
        <time>2021-06-24T10:22:29.000Z</time>
      </trkpt>
      <trkpt lat="43.12212" lon="0.39093">
        <ele>593.86</ele>
        <time>2021-06-24T10:22:34.000Z</time>
      </trkpt>
      <trkpt lat="43.12221" lon="0.39021">
        <ele>590.9</ele>
        <time>2021-06-24T10:22:39.000Z</time>
      </trkpt>
      <trkpt lat="43.12229" lon="0.38952">
        <ele>588.83</ele>
        <time>2021-06-24T10:22:44.000Z</time>
      </trkpt>
      <trkpt lat="43.12238" lon="0.38887">
        <ele>586.22</ele>
        <time>2021-06-24T10:22:49.000Z</time>
      </trkpt>
      <trkpt lat="43.12247" lon="0.3883">
        <ele>583.68</ele>
        <time>2021-06-24T10:22:54.000Z</time>
      </trkpt>
      <trkpt lat="43.12254" lon="0.3878">
        <ele>582.53</ele>
        <time>2021-06-24T10:22:59.000Z</time>
      </trkpt>
      <trkpt lat="43.12259" lon="0.38733">
        <ele>581.09</ele>
        <time>2021-06-24T10:23:04.000Z</time>
      </trkpt>
      <trkpt lat="43.12268" lon="0.38698">
        <ele>580.38</ele>
        <time>2021-06-24T10:23:09.000Z</time>
      </trkpt>
      <trkpt lat="43.12276" lon="0.38676">
        <ele>579.46</ele>
        <time>2021-06-24T10:23:14.000Z</time>
      </trkpt>
      <trkpt lat="43.12285" lon="0.38654">
        <ele>581.4</ele>
        <time>2021-06-24T10:23:19.000Z</time>
      </trkpt>
      <trkpt lat="43.12299" lon="0.38639">
        <ele>582.72</ele>
        <time>2021-06-24T10:23:24.000Z</time>
      </trkpt>
      <trkpt lat="43.12308" lon="0.38625">
        <ele>582.88</ele>
        <time>2021-06-24T10:23:29.000Z</time>
      </trkpt>
      <trkpt lat="43.1232" lon="0.3861">
        <ele>583.47</ele>
        <time>2021-06-24T10:23:34.000Z</time>
      </trkpt>
      <trkpt lat="43.12336" lon="0.38593">
        <ele>583.7</ele>
        <time>2021-06-24T10:23:39.000Z</time>
      </trkpt>
      <trkpt lat="43.12351" lon="0.38578">
        <ele>583.85</ele>
        <time>2021-06-24T10:23:44.000Z</time>
      </trkpt>
      <trkpt lat="43.12368" lon="0.38564">
        <ele>584.96</ele>
        <time>2021-06-24T10:23:49.000Z</time>
      </trkpt>
      <trkpt lat="43.12383" lon="0.38547">
        <ele>587.08</ele>
        <time>2021-06-24T10:23:54.000Z</time>
      </trkpt>
      <trkpt lat="43.12399" lon="0.38532">
        <ele>588.18</ele>
        <time>2021-06-24T10:23:59.000Z</time>
      </trkpt>
      <trkpt lat="43.12419" lon="0.38519">
        <ele>588.19</ele>
        <time>2021-06-24T10:24:04.000Z</time>
      </trkpt>
      <trkpt lat="43.12434" lon="0.38508">
        <ele>588.29</ele>
        <time>2021-06-24T10:24:09.000Z</time>
      </trkpt>
      <trkpt lat="43.12451" lon="0.38495">
        <ele>589.21</ele>
        <time>2021-06-24T10:24:14.000Z</time>
      </trkpt>
      <trkpt lat="43.12464" lon="0.38486">
        <ele>589.39</ele>
        <time>2021-06-24T10:24:19.000Z</time>
      </trkpt>
      <trkpt lat="43.12477" lon="0.3848">
        <ele>589.57</ele>
        <time>2021-06-24T10:24:24.000Z</time>
      </trkpt>
      <trkpt lat="43.12489" lon="0.3847">
        <ele>589.97</ele>
        <time>2021-06-24T10:24:29.000Z</time>
      </trkpt>
      <trkpt lat="43.12498" lon="0.38459">
        <ele>590.62</ele>
        <time>2021-06-24T10:24:34.000Z</time>
      </trkpt>
      <trkpt lat="43.12506" lon="0.38444">
        <ele>591.93</ele>
        <time>2021-06-24T10:24:39.000Z</time>
      </trkpt>
      <trkpt lat="43.12517" lon="0.3843">
        <ele>592.54</ele>
        <time>2021-06-24T10:24:44.000Z</time>
      </trkpt>
      <trkpt lat="43.12524" lon="0.38411">
        <ele>593.3</ele>
        <time>2021-06-24T10:24:49.000Z</time>
      </trkpt>
      <trkpt lat="43.12532" lon="0.38392">
        <ele>592.61</ele>
        <time>2021-06-24T10:24:54.000Z</time>
      </trkpt>
      <trkpt lat="43.12543" lon="0.38375">
        <ele>592.51</ele>
        <time>2021-06-24T10:24:59.000Z</time>
      </trkpt>
      <trkpt lat="43.12553" lon="0.38357">
        <ele>592.5</ele>
        <time>2021-06-24T10:25:04.000Z</time>
      </trkpt>
      <trkpt lat="43.12553" lon="0.38334">
        <ele>592.32</ele>
        <time>2021-06-24T10:25:09.000Z</time>
      </trkpt>
      <trkpt lat="43.12555" lon="0.38308">
        <ele>592.22</ele>
        <time>2021-06-24T10:25:14.000Z</time>
      </trkpt>
      <trkpt lat="43.12556" lon="0.3828">
        <ele>592.37</ele>
        <time>2021-06-24T10:25:19.000Z</time>
      </trkpt>
      <trkpt lat="43.1256" lon="0.38255">
        <ele>592.49</ele>
        <time>2021-06-24T10:25:24.000Z</time>
      </trkpt>
      <trkpt lat="43.12561" lon="0.38228">
        <ele>592.59</ele>
        <time>2021-06-24T10:25:29.000Z</time>
      </trkpt>
      <trkpt lat="43.12564" lon="0.38195">
        <ele>592.79</ele>
        <time>2021-06-24T10:25:34.000Z</time>
      </trkpt>
      <trkpt lat="43.12552" lon="0.38152">
        <ele>592.37</ele>
        <time>2021-06-24T10:25:39.000Z</time>
      </trkpt>
      <trkpt lat="43.12528" lon="0.38114">
        <ele>592.1</ele>
        <time>2021-06-24T10:25:44.000Z</time>
      </trkpt>
      <trkpt lat="43.12499" lon="0.38083">
        <ele>591.63</ele>
        <time>2021-06-24T10:25:49.000Z</time>
      </trkpt>
      <trkpt lat="43.12471" lon="0.3806">
        <ele>590.32</ele>
        <time>2021-06-24T10:25:54.000Z</time>
      </trkpt>
      <trkpt lat="43.12443" lon="0.3804">
        <ele>590.21</ele>
        <time>2021-06-24T10:25:59.000Z</time>
      </trkpt>
      <trkpt lat="43.12422" lon="0.38022">
        <ele>590.3</ele>
        <time>2021-06-24T10:26:04.000Z</time>
      </trkpt>
      <trkpt lat="43.12402" lon="0.38">
        <ele>590.56</ele>
        <time>2021-06-24T10:26:09.000Z</time>
      </trkpt>
      <trkpt lat="43.12383" lon="0.37983">
        <ele>590.47</ele>
        <time>2021-06-24T10:26:14.000Z</time>
      </trkpt>
      <trkpt lat="43.12364" lon="0.37968">
        <ele>590.47</ele>
        <time>2021-06-24T10:26:19.000Z</time>
      </trkpt>
      <trkpt lat="43.12344" lon="0.37952">
        <ele>590.79</ele>
        <time>2021-06-24T10:26:24.000Z</time>
      </trkpt>
      <trkpt lat="43.12324" lon="0.37937">
        <ele>591</ele>
        <time>2021-06-24T10:26:29.000Z</time>
      </trkpt>
      <trkpt lat="43.12306" lon="0.37919">
        <ele>591.29</ele>
        <time>2021-06-24T10:26:34.000Z</time>
      </trkpt>
      <trkpt lat="43.1229" lon="0.37903">
        <ele>590.54</ele>
        <time>2021-06-24T10:26:39.000Z</time>
      </trkpt>
      <trkpt lat="43.12269" lon="0.37887">
        <ele>590.09</ele>
        <time>2021-06-24T10:26:44.000Z</time>
      </trkpt>
      <trkpt lat="43.1225" lon="0.37869">
        <ele>590.01</ele>
        <time>2021-06-24T10:26:49.000Z</time>
      </trkpt>
      <trkpt lat="43.12229" lon="0.37851">
        <ele>590.28</ele>
        <time>2021-06-24T10:26:54.000Z</time>
      </trkpt>
      <trkpt lat="43.12206" lon="0.3783">
        <ele>589.78</ele>
        <time>2021-06-24T10:26:59.000Z</time>
      </trkpt>
      <trkpt lat="43.12184" lon="0.37812">
        <ele>589.41</ele>
        <time>2021-06-24T10:27:04.000Z</time>
      </trkpt>
      <trkpt lat="43.12161" lon="0.37793">
        <ele>589.32</ele>
        <time>2021-06-24T10:27:09.000Z</time>
      </trkpt>
      <trkpt lat="43.12138" lon="0.3777">
        <ele>588.96</ele>
        <time>2021-06-24T10:27:14.000Z</time>
      </trkpt>
      <trkpt lat="43.12116" lon="0.37751">
        <ele>588.24</ele>
        <time>2021-06-24T10:27:19.000Z</time>
      </trkpt>
      <trkpt lat="43.12096" lon="0.37733">
        <ele>587.83</ele>
        <time>2021-06-24T10:27:24.000Z</time>
      </trkpt>
      <trkpt lat="43.12071" lon="0.37712">
        <ele>588.12</ele>
        <time>2021-06-24T10:27:29.000Z</time>
      </trkpt>
      <trkpt lat="43.12044" lon="0.37691">
        <ele>587.55</ele>
        <time>2021-06-24T10:27:34.000Z</time>
      </trkpt>
      <trkpt lat="43.12019" lon="0.3767">
        <ele>587.13</ele>
        <time>2021-06-24T10:27:39.000Z</time>
      </trkpt>
      <trkpt lat="43.11998" lon="0.3765">
        <ele>586.64</ele>
        <time>2021-06-24T10:27:44.000Z</time>
      </trkpt>
      <trkpt lat="43.1198" lon="0.3763">
        <ele>586.4</ele>
        <time>2021-06-24T10:27:49.000Z</time>
      </trkpt>
      <trkpt lat="43.11959" lon="0.37611">
        <ele>587.2</ele>
        <time>2021-06-24T10:27:54.000Z</time>
      </trkpt>
      <trkpt lat="43.1194" lon="0.37576">
        <ele>586.93</ele>
        <time>2021-06-24T10:27:59.000Z</time>
      </trkpt>
      <trkpt lat="43.11919" lon="0.37535">
        <ele>586.18</ele>
        <time>2021-06-24T10:28:04.000Z</time>
      </trkpt>
      <trkpt lat="43.11897" lon="0.37485">
        <ele>584.8</ele>
        <time>2021-06-24T10:28:09.000Z</time>
      </trkpt>
      <trkpt lat="43.11876" lon="0.37436">
        <ele>584.05</ele>
        <time>2021-06-24T10:28:14.000Z</time>
      </trkpt>
      <trkpt lat="43.11861" lon="0.37389">
        <ele>582.7</ele>
        <time>2021-06-24T10:28:19.000Z</time>
      </trkpt>
      <trkpt lat="43.11847" lon="0.37352">
        <ele>581.81</ele>
        <time>2021-06-24T10:28:24.000Z</time>
      </trkpt>
      <trkpt lat="43.11835" lon="0.37324">
        <ele>581.79</ele>
        <time>2021-06-24T10:28:29.000Z</time>
      </trkpt>
      <trkpt lat="43.11829" lon="0.37306">
        <ele>580.57</ele>
        <time>2021-06-24T10:28:34.000Z</time>
      </trkpt>
      <trkpt lat="43.11821" lon="0.37292">
        <ele>581.48</ele>
        <time>2021-06-24T10:28:39.000Z</time>
      </trkpt>
      <trkpt lat="43.11816" lon="0.37278">
        <ele>583.12</ele>
        <time>2021-06-24T10:28:44.000Z</time>
      </trkpt>
      <trkpt lat="43.1181" lon="0.37264">
        <ele>584.85</ele>
        <time>2021-06-24T10:28:49.000Z</time>
      </trkpt>
      <trkpt lat="43.11804" lon="0.37247">
        <ele>586.06</ele>
        <time>2021-06-24T10:28:54.000Z</time>
      </trkpt>
      <trkpt lat="43.11797" lon="0.3723">
        <ele>586.64</ele>
        <time>2021-06-24T10:28:59.000Z</time>
      </trkpt>
      <trkpt lat="43.11791" lon="0.37214">
        <ele>587.83</ele>
        <time>2021-06-24T10:29:04.000Z</time>
      </trkpt>
      <trkpt lat="43.11783" lon="0.37198">
        <ele>589.09</ele>
        <time>2021-06-24T10:29:09.000Z</time>
      </trkpt>
      <trkpt lat="43.11776" lon="0.37182">
        <ele>590.8</ele>
        <time>2021-06-24T10:29:14.000Z</time>
      </trkpt>
      <trkpt lat="43.11772" lon="0.37162">
        <ele>590.7</ele>
        <time>2021-06-24T10:29:19.000Z</time>
      </trkpt>
      <trkpt lat="43.11764" lon="0.37144">
        <ele>591.2</ele>
        <time>2021-06-24T10:29:24.000Z</time>
      </trkpt>
      <trkpt lat="43.11758" lon="0.37127">
        <ele>591.04</ele>
        <time>2021-06-24T10:29:29.000Z</time>
      </trkpt>
      <trkpt lat="43.11752" lon="0.37109">
        <ele>590.18</ele>
        <time>2021-06-24T10:29:34.000Z</time>
      </trkpt>
      <trkpt lat="43.11747" lon="0.37091">
        <ele>591.08</ele>
        <time>2021-06-24T10:29:39.000Z</time>
      </trkpt>
      <trkpt lat="43.11742" lon="0.37074">
        <ele>589.99</ele>
        <time>2021-06-24T10:29:44.000Z</time>
      </trkpt>
      <trkpt lat="43.11735" lon="0.37057">
        <ele>589.41</ele>
        <time>2021-06-24T10:29:49.000Z</time>
      </trkpt>
      <trkpt lat="43.11728" lon="0.37037">
        <ele>588.2</ele>
        <time>2021-06-24T10:29:54.000Z</time>
      </trkpt>
      <trkpt lat="43.11723" lon="0.37018">
        <ele>587.69</ele>
        <time>2021-06-24T10:29:59.000Z</time>
      </trkpt>
      <trkpt lat="43.11713" lon="0.36999">
        <ele>588.31</ele>
        <time>2021-06-24T10:30:04.000Z</time>
      </trkpt>
      <trkpt lat="43.11705" lon="0.3698">
        <ele>589.89</ele>
        <time>2021-06-24T10:30:09.000Z</time>
      </trkpt>
      <trkpt lat="43.11698" lon="0.36959">
        <ele>590.33</ele>
        <time>2021-06-24T10:30:14.000Z</time>
      </trkpt>
      <trkpt lat="43.11689" lon="0.3694">
        <ele>591.71</ele>
        <time>2021-06-24T10:30:19.000Z</time>
      </trkpt>
      <trkpt lat="43.11684" lon="0.36921">
        <ele>593.31</ele>
        <time>2021-06-24T10:30:24.000Z</time>
      </trkpt>
      <trkpt lat="43.11676" lon="0.36903">
        <ele>595.12</ele>
        <time>2021-06-24T10:30:29.000Z</time>
      </trkpt>
      <trkpt lat="43.11667" lon="0.36883">
        <ele>595.84</ele>
        <time>2021-06-24T10:30:34.000Z</time>
      </trkpt>
      <trkpt lat="43.11659" lon="0.36864">
        <ele>595.53</ele>
        <time>2021-06-24T10:30:39.000Z</time>
      </trkpt>
      <trkpt lat="43.11652" lon="0.36848">
        <ele>595.62</ele>
        <time>2021-06-24T10:30:44.000Z</time>
      </trkpt>
      <trkpt lat="43.11645" lon="0.36831">
        <ele>596.43</ele>
        <time>2021-06-24T10:30:49.000Z</time>
      </trkpt>
      <trkpt lat="43.1164" lon="0.36814">
        <ele>597.05</ele>
        <time>2021-06-24T10:30:54.000Z</time>
      </trkpt>
      <trkpt lat="43.11634" lon="0.36798">
        <ele>596.61</ele>
        <time>2021-06-24T10:30:59.000Z</time>
      </trkpt>
      <trkpt lat="43.11628" lon="0.36781">
        <ele>596.47</ele>
        <time>2021-06-24T10:31:04.000Z</time>
      </trkpt>
      <trkpt lat="43.11621" lon="0.36766">
        <ele>597.38</ele>
        <time>2021-06-24T10:31:09.000Z</time>
      </trkpt>
      <trkpt lat="43.11614" lon="0.36752">
        <ele>599.07</ele>
        <time>2021-06-24T10:31:14.000Z</time>
      </trkpt>
      <trkpt lat="43.11608" lon="0.36737">
        <ele>600.23</ele>
        <time>2021-06-24T10:31:19.000Z</time>
      </trkpt>
      <trkpt lat="43.11604" lon="0.36723">
        <ele>600.89</ele>
        <time>2021-06-24T10:31:24.000Z</time>
      </trkpt>
      <trkpt lat="43.11598" lon="0.36707">
        <ele>600.93</ele>
        <time>2021-06-24T10:31:29.000Z</time>
      </trkpt>
      <trkpt lat="43.11593" lon="0.36689">
        <ele>599.7</ele>
        <time>2021-06-24T10:31:34.000Z</time>
      </trkpt>
      <trkpt lat="43.11587" lon="0.36672">
        <ele>598.95</ele>
        <time>2021-06-24T10:31:39.000Z</time>
      </trkpt>
      <trkpt lat="43.1158" lon="0.36654">
        <ele>598.76</ele>
        <time>2021-06-24T10:31:44.000Z</time>
      </trkpt>
      <trkpt lat="43.1157" lon="0.36634">
        <ele>600.77</ele>
        <time>2021-06-24T10:31:49.000Z</time>
      </trkpt>
      <trkpt lat="43.11563" lon="0.36614">
        <ele>602.92</ele>
        <time>2021-06-24T10:31:54.000Z</time>
      </trkpt>
      <trkpt lat="43.11554" lon="0.36596">
        <ele>604.04</ele>
        <time>2021-06-24T10:31:59.000Z</time>
      </trkpt>
      <trkpt lat="43.11546" lon="0.36576">
        <ele>604.39</ele>
        <time>2021-06-24T10:32:04.000Z</time>
      </trkpt>
      <trkpt lat="43.11536" lon="0.36554">
        <ele>605.33</ele>
        <time>2021-06-24T10:32:09.000Z</time>
      </trkpt>
      <trkpt lat="43.11527" lon="0.36532">
        <ele>606.16</ele>
        <time>2021-06-24T10:32:14.000Z</time>
      </trkpt>
      <trkpt lat="43.11517" lon="0.36507">
        <ele>605.54</ele>
        <time>2021-06-24T10:32:19.000Z</time>
      </trkpt>
      <trkpt lat="43.11509" lon="0.36484">
        <ele>605.37</ele>
        <time>2021-06-24T10:32:24.000Z</time>
      </trkpt>
      <trkpt lat="43.11499" lon="0.3646">
        <ele>604.68</ele>
        <time>2021-06-24T10:32:29.000Z</time>
      </trkpt>
      <trkpt lat="43.11483" lon="0.36433">
        <ele>606.38</ele>
        <time>2021-06-24T10:32:34.000Z</time>
      </trkpt>
      <trkpt lat="43.11466" lon="0.36399">
        <ele>607.05</ele>
        <time>2021-06-24T10:32:39.000Z</time>
      </trkpt>
      <trkpt lat="43.11453" lon="0.36364">
        <ele>607.96</ele>
        <time>2021-06-24T10:32:44.000Z</time>
      </trkpt>
      <trkpt lat="43.1144" lon="0.36331">
        <ele>608.54</ele>
        <time>2021-06-24T10:32:49.000Z</time>
      </trkpt>
      <trkpt lat="43.11428" lon="0.36296">
        <ele>607.32</ele>
        <time>2021-06-24T10:32:54.000Z</time>
      </trkpt>
      <trkpt lat="43.11416" lon="0.36264">
        <ele>607.31</ele>
        <time>2021-06-24T10:32:59.000Z</time>
      </trkpt>
      <trkpt lat="43.11406" lon="0.36234">
        <ele>607.57</ele>
        <time>2021-06-24T10:33:04.000Z</time>
      </trkpt>
      <trkpt lat="43.11396" lon="0.36206">
        <ele>608.03</ele>
        <time>2021-06-24T10:33:09.000Z</time>
      </trkpt>
      <trkpt lat="43.11387" lon="0.36178">
        <ele>608.37</ele>
        <time>2021-06-24T10:33:14.000Z</time>
      </trkpt>
      <trkpt lat="43.11377" lon="0.36154">
        <ele>608.61</ele>
        <time>2021-06-24T10:33:19.000Z</time>
      </trkpt>
      <trkpt lat="43.11366" lon="0.36129">
        <ele>609.05</ele>
        <time>2021-06-24T10:33:24.000Z</time>
      </trkpt>
      <trkpt lat="43.11356" lon="0.361">
        <ele>609.85</ele>
        <time>2021-06-24T10:33:29.000Z</time>
      </trkpt>
      <trkpt lat="43.11345" lon="0.36073">
        <ele>610.47</ele>
        <time>2021-06-24T10:33:34.000Z</time>
      </trkpt>
      <trkpt lat="43.11334" lon="0.36047">
        <ele>611.56</ele>
        <time>2021-06-24T10:33:39.000Z</time>
      </trkpt>
      <trkpt lat="43.11322" lon="0.3602">
        <ele>612.29</ele>
        <time>2021-06-24T10:33:44.000Z</time>
      </trkpt>
      <trkpt lat="43.11311" lon="0.35993">
        <ele>612.61</ele>
        <time>2021-06-24T10:33:49.000Z</time>
      </trkpt>
      <trkpt lat="43.11301" lon="0.35964">
        <ele>612.26</ele>
        <time>2021-06-24T10:33:54.000Z</time>
      </trkpt>
      <trkpt lat="43.11294" lon="0.35932">
        <ele>612.18</ele>
        <time>2021-06-24T10:33:59.000Z</time>
      </trkpt>
      <trkpt lat="43.11284" lon="0.35895">
        <ele>611.7</ele>
        <time>2021-06-24T10:34:04.000Z</time>
      </trkpt>
      <trkpt lat="43.11279" lon="0.35857">
        <ele>610.64</ele>
        <time>2021-06-24T10:34:09.000Z</time>
      </trkpt>
      <trkpt lat="43.11273" lon="0.35814">
        <ele>609.44</ele>
        <time>2021-06-24T10:34:14.000Z</time>
      </trkpt>
      <trkpt lat="43.1127" lon="0.35773">
        <ele>608.66</ele>
        <time>2021-06-24T10:34:19.000Z</time>
      </trkpt>
      <trkpt lat="43.11264" lon="0.35728">
        <ele>607.17</ele>
        <time>2021-06-24T10:34:24.000Z</time>
      </trkpt>
      <trkpt lat="43.1126" lon="0.35688">
        <ele>607</ele>
        <time>2021-06-24T10:34:29.000Z</time>
      </trkpt>
      <trkpt lat="43.11259" lon="0.35648">
        <ele>606.07</ele>
        <time>2021-06-24T10:34:34.000Z</time>
      </trkpt>
      <trkpt lat="43.11262" lon="0.35608">
        <ele>605.11</ele>
        <time>2021-06-24T10:34:39.000Z</time>
      </trkpt>
      <trkpt lat="43.11268" lon="0.35583">
        <ele>606.5</ele>
        <time>2021-06-24T10:34:44.000Z</time>
      </trkpt>
      <trkpt lat="43.11262" lon="0.35573">
        <ele>606.97</ele>
        <time>2021-06-24T10:35:53.000Z</time>
      </trkpt>
      <trkpt lat="43.11255" lon="0.35562">
        <ele>607.17</ele>
        <time>2021-06-24T10:35:58.000Z</time>
      </trkpt>
      <trkpt lat="43.11253" lon="0.35535">
        <ele>607.47</ele>
        <time>2021-06-24T10:36:03.000Z</time>
      </trkpt>
      <trkpt lat="43.11248" lon="0.35499">
        <ele>607.62</ele>
        <time>2021-06-24T10:36:08.000Z</time>
      </trkpt>
      <trkpt lat="43.11244" lon="0.35456">
        <ele>608.19</ele>
        <time>2021-06-24T10:36:13.000Z</time>
      </trkpt>
      <trkpt lat="43.11239" lon="0.35408">
        <ele>607.26</ele>
        <time>2021-06-24T10:36:18.000Z</time>
      </trkpt>
      <trkpt lat="43.11229" lon="0.35358">
        <ele>606.42</ele>
        <time>2021-06-24T10:36:23.000Z</time>
      </trkpt>
      <trkpt lat="43.11214" lon="0.35312">
        <ele>605.28</ele>
        <time>2021-06-24T10:36:28.000Z</time>
      </trkpt>
      <trkpt lat="43.11189" lon="0.35274">
        <ele>603.3</ele>
        <time>2021-06-24T10:36:33.000Z</time>
      </trkpt>
      <trkpt lat="43.11154" lon="0.35243">
        <ele>601.82</ele>
        <time>2021-06-24T10:36:38.000Z</time>
      </trkpt>
      <trkpt lat="43.11115" lon="0.35221">
        <ele>600.22</ele>
        <time>2021-06-24T10:36:43.000Z</time>
      </trkpt>
      <trkpt lat="43.11073" lon="0.35209">
        <ele>599.48</ele>
        <time>2021-06-24T10:36:48.000Z</time>
      </trkpt>
      <trkpt lat="43.11031" lon="0.352">
        <ele>598.21</ele>
        <time>2021-06-24T10:36:53.000Z</time>
      </trkpt>
      <trkpt lat="43.10986" lon="0.35195">
        <ele>596.31</ele>
        <time>2021-06-24T10:36:58.000Z</time>
      </trkpt>
      <trkpt lat="43.1094" lon="0.35195">
        <ele>595.14</ele>
        <time>2021-06-24T10:37:03.000Z</time>
      </trkpt>
      <trkpt lat="43.10893" lon="0.35195">
        <ele>593.7</ele>
        <time>2021-06-24T10:37:08.000Z</time>
      </trkpt>
      <trkpt lat="43.10843" lon="0.35192">
        <ele>592.02</ele>
        <time>2021-06-24T10:37:13.000Z</time>
      </trkpt>
      <trkpt lat="43.10799" lon="0.35167">
        <ele>591.38</ele>
        <time>2021-06-24T10:37:18.000Z</time>
      </trkpt>
      <trkpt lat="43.10767" lon="0.35122">
        <ele>590.04</ele>
        <time>2021-06-24T10:37:23.000Z</time>
      </trkpt>
      <trkpt lat="43.10748" lon="0.35071">
        <ele>587.91</ele>
        <time>2021-06-24T10:37:28.000Z</time>
      </trkpt>
      <trkpt lat="43.1073" lon="0.35021">
        <ele>586.21</ele>
        <time>2021-06-24T10:37:33.000Z</time>
      </trkpt>
      <trkpt lat="43.10714" lon="0.34975">
        <ele>585.12</ele>
        <time>2021-06-24T10:37:38.000Z</time>
      </trkpt>
      <trkpt lat="43.10696" lon="0.34932">
        <ele>583.78</ele>
        <time>2021-06-24T10:37:43.000Z</time>
      </trkpt>
      <trkpt lat="43.10678" lon="0.34889">
        <ele>582.39</ele>
        <time>2021-06-24T10:37:48.000Z</time>
      </trkpt>
      <trkpt lat="43.10654" lon="0.34845">
        <ele>581.66</ele>
        <time>2021-06-24T10:37:53.000Z</time>
      </trkpt>
      <trkpt lat="43.10634" lon="0.34802">
        <ele>580.96</ele>
        <time>2021-06-24T10:37:58.000Z</time>
      </trkpt>
      <trkpt lat="43.1061" lon="0.3476">
        <ele>580</ele>
        <time>2021-06-24T10:38:03.000Z</time>
      </trkpt>
      <trkpt lat="43.10586" lon="0.34718">
        <ele>579.15</ele>
        <time>2021-06-24T10:38:08.000Z</time>
      </trkpt>
      <trkpt lat="43.10559" lon="0.34679">
        <ele>578.63</ele>
        <time>2021-06-24T10:38:13.000Z</time>
      </trkpt>
      <trkpt lat="43.10534" lon="0.34643">
        <ele>576.94</ele>
        <time>2021-06-24T10:38:18.000Z</time>
      </trkpt>
      <trkpt lat="43.1051" lon="0.34607">
        <ele>575.91</ele>
        <time>2021-06-24T10:38:23.000Z</time>
      </trkpt>
      <trkpt lat="43.10488" lon="0.34571">
        <ele>576.44</ele>
        <time>2021-06-24T10:38:28.000Z</time>
      </trkpt>
      <trkpt lat="43.10473" lon="0.34533">
        <ele>576.32</ele>
        <time>2021-06-24T10:38:33.000Z</time>
      </trkpt>
      <trkpt lat="43.10465" lon="0.34485">
        <ele>575.66</ele>
        <time>2021-06-24T10:38:38.000Z</time>
      </trkpt>
      <trkpt lat="43.1046" lon="0.34443">
        <ele>575.17</ele>
        <time>2021-06-24T10:38:43.000Z</time>
      </trkpt>
      <trkpt lat="43.10433" lon="0.3442">
        <ele>576.75</ele>
        <time>2021-06-24T10:38:48.000Z</time>
      </trkpt>
      <trkpt lat="43.10419" lon="0.34378">
        <ele>576.51</ele>
        <time>2021-06-24T10:38:53.000Z</time>
      </trkpt>
      <trkpt lat="43.10408" lon="0.34331">
        <ele>576.35</ele>
        <time>2021-06-24T10:38:58.000Z</time>
      </trkpt>
      <trkpt lat="43.10401" lon="0.34279">
        <ele>575.54</ele>
        <time>2021-06-24T10:39:03.000Z</time>
      </trkpt>
      <trkpt lat="43.10397" lon="0.34222">
        <ele>575.17</ele>
        <time>2021-06-24T10:39:08.000Z</time>
      </trkpt>
      <trkpt lat="43.10399" lon="0.34163">
        <ele>574.05</ele>
        <time>2021-06-24T10:39:13.000Z</time>
      </trkpt>
      <trkpt lat="43.10403" lon="0.34105">
        <ele>574.09</ele>
        <time>2021-06-24T10:39:18.000Z</time>
      </trkpt>
      <trkpt lat="43.10407" lon="0.34047">
        <ele>574.22</ele>
        <time>2021-06-24T10:39:23.000Z</time>
      </trkpt>
      <trkpt lat="43.10413" lon="0.33986">
        <ele>573.76</ele>
        <time>2021-06-24T10:39:28.000Z</time>
      </trkpt>
      <trkpt lat="43.10418" lon="0.33925">
        <ele>572.23</ele>
        <time>2021-06-24T10:39:33.000Z</time>
      </trkpt>
      <trkpt lat="43.10423" lon="0.33867">
        <ele>571.43</ele>
        <time>2021-06-24T10:39:38.000Z</time>
      </trkpt>
      <trkpt lat="43.10426" lon="0.33812">
        <ele>570.97</ele>
        <time>2021-06-24T10:39:43.000Z</time>
      </trkpt>
      <trkpt lat="43.10432" lon="0.33765">
        <ele>570.61</ele>
        <time>2021-06-24T10:39:48.000Z</time>
      </trkpt>
      <trkpt lat="43.10437" lon="0.33724">
        <ele>571.01</ele>
        <time>2021-06-24T10:39:53.000Z</time>
      </trkpt>
      <trkpt lat="43.1044" lon="0.33689">
        <ele>570.35</ele>
        <time>2021-06-24T10:39:58.000Z</time>
      </trkpt>
      <trkpt lat="43.10442" lon="0.33665">
        <ele>570</ele>
        <time>2021-06-24T10:40:03.000Z</time>
      </trkpt>
      <trkpt lat="43.10443" lon="0.33644">
        <ele>570.52</ele>
        <time>2021-06-24T10:40:08.000Z</time>
      </trkpt>
      <trkpt lat="43.10443" lon="0.33625">
        <ele>571.25</ele>
        <time>2021-06-24T10:40:13.000Z</time>
      </trkpt>
      <trkpt lat="43.10444" lon="0.33605">
        <ele>571.56</ele>
        <time>2021-06-24T10:40:18.000Z</time>
      </trkpt>
      <trkpt lat="43.10445" lon="0.33586">
        <ele>573.02</ele>
        <time>2021-06-24T10:40:23.000Z</time>
      </trkpt>
      <trkpt lat="43.10447" lon="0.33567">
        <ele>574.75</ele>
        <time>2021-06-24T10:40:28.000Z</time>
      </trkpt>
      <trkpt lat="43.10448" lon="0.3355">
        <ele>576.22</ele>
        <time>2021-06-24T10:40:33.000Z</time>
      </trkpt>
      <trkpt lat="43.10446" lon="0.33529">
        <ele>578.66</ele>
        <time>2021-06-24T10:40:38.000Z</time>
      </trkpt>
      <trkpt lat="43.10448" lon="0.3351">
        <ele>581.01</ele>
        <time>2021-06-24T10:40:43.000Z</time>
      </trkpt>
      <trkpt lat="43.10449" lon="0.33489">
        <ele>582.48</ele>
        <time>2021-06-24T10:40:48.000Z</time>
      </trkpt>
      <trkpt lat="43.10451" lon="0.33467">
        <ele>583.83</ele>
        <time>2021-06-24T10:40:53.000Z</time>
      </trkpt>
      <trkpt lat="43.10451" lon="0.33444">
        <ele>584.54</ele>
        <time>2021-06-24T10:40:58.000Z</time>
      </trkpt>
      <trkpt lat="43.10454" lon="0.33421">
        <ele>584.48</ele>
        <time>2021-06-24T10:41:03.000Z</time>
      </trkpt>
      <trkpt lat="43.10456" lon="0.33397">
        <ele>584.45</ele>
        <time>2021-06-24T10:41:08.000Z</time>
      </trkpt>
      <trkpt lat="43.10459" lon="0.33372">
        <ele>583.94</ele>
        <time>2021-06-24T10:41:13.000Z</time>
      </trkpt>
      <trkpt lat="43.10462" lon="0.33348">
        <ele>583.88</ele>
        <time>2021-06-24T10:41:18.000Z</time>
      </trkpt>
      <trkpt lat="43.10466" lon="0.33323">
        <ele>584.74</ele>
        <time>2021-06-24T10:41:23.000Z</time>
      </trkpt>
      <trkpt lat="43.10467" lon="0.33294">
        <ele>583.99</ele>
        <time>2021-06-24T10:41:28.000Z</time>
      </trkpt>
      <trkpt lat="43.1047" lon="0.33272">
        <ele>583.52</ele>
        <time>2021-06-24T10:41:33.000Z</time>
      </trkpt>
      <trkpt lat="43.10471" lon="0.33249">
        <ele>584.24</ele>
        <time>2021-06-24T10:41:38.000Z</time>
      </trkpt>
      <trkpt lat="43.10474" lon="0.33227">
        <ele>585.09</ele>
        <time>2021-06-24T10:41:43.000Z</time>
      </trkpt>
      <trkpt lat="43.10476" lon="0.33208">
        <ele>586.68</ele>
        <time>2021-06-24T10:41:48.000Z</time>
      </trkpt>
      <trkpt lat="43.10479" lon="0.3319">
        <ele>587.82</ele>
        <time>2021-06-24T10:41:53.000Z</time>
      </trkpt>
      <trkpt lat="43.10482" lon="0.33173">
        <ele>588.48</ele>
        <time>2021-06-24T10:41:58.000Z</time>
      </trkpt>
      <trkpt lat="43.10487" lon="0.33153">
        <ele>587.92</ele>
        <time>2021-06-24T10:42:03.000Z</time>
      </trkpt>
      <trkpt lat="43.10491" lon="0.33132">
        <ele>587.41</ele>
        <time>2021-06-24T10:42:08.000Z</time>
      </trkpt>
      <trkpt lat="43.10494" lon="0.33111">
        <ele>588.26</ele>
        <time>2021-06-24T10:42:13.000Z</time>
      </trkpt>
      <trkpt lat="43.10498" lon="0.3309">
        <ele>590.5</ele>
        <time>2021-06-24T10:42:18.000Z</time>
      </trkpt>
      <trkpt lat="43.10504" lon="0.3307">
        <ele>592.27</ele>
        <time>2021-06-24T10:42:23.000Z</time>
      </trkpt>
      <trkpt lat="43.10507" lon="0.33051">
        <ele>593.18</ele>
        <time>2021-06-24T10:42:28.000Z</time>
      </trkpt>
      <trkpt lat="43.10511" lon="0.33029">
        <ele>591.53</ele>
        <time>2021-06-24T10:42:33.000Z</time>
      </trkpt>
      <trkpt lat="43.10516" lon="0.3301">
        <ele>590.82</ele>
        <time>2021-06-24T10:42:38.000Z</time>
      </trkpt>
      <trkpt lat="43.1052" lon="0.32992">
        <ele>591.64</ele>
        <time>2021-06-24T10:42:43.000Z</time>
      </trkpt>
      <trkpt lat="43.10523" lon="0.32973">
        <ele>591.55</ele>
        <time>2021-06-24T10:42:48.000Z</time>
      </trkpt>
      <trkpt lat="43.10529" lon="0.32948">
        <ele>593.16</ele>
        <time>2021-06-24T10:42:53.000Z</time>
      </trkpt>
      <trkpt lat="43.10533" lon="0.32924">
        <ele>593.22</ele>
        <time>2021-06-24T10:42:58.000Z</time>
      </trkpt>
      <trkpt lat="43.10543" lon="0.32902">
        <ele>587.45</ele>
        <time>2021-06-24T10:43:03.000Z</time>
      </trkpt>
      <trkpt lat="43.10548" lon="0.3288">
        <ele>586.7</ele>
        <time>2021-06-24T10:43:08.000Z</time>
      </trkpt>
      <trkpt lat="43.10552" lon="0.32859">
        <ele>587.54</ele>
        <time>2021-06-24T10:43:13.000Z</time>
      </trkpt>
      <trkpt lat="43.10556" lon="0.3284">
        <ele>588.01</ele>
        <time>2021-06-24T10:43:18.000Z</time>
      </trkpt>
      <trkpt lat="43.10559" lon="0.32821">
        <ele>588.64</ele>
        <time>2021-06-24T10:43:23.000Z</time>
      </trkpt>
      <trkpt lat="43.10563" lon="0.32801">
        <ele>588.56</ele>
        <time>2021-06-24T10:43:28.000Z</time>
      </trkpt>
      <trkpt lat="43.10569" lon="0.32777">
        <ele>588.29</ele>
        <time>2021-06-24T10:43:33.000Z</time>
      </trkpt>
      <trkpt lat="43.10574" lon="0.32752">
        <ele>589.75</ele>
        <time>2021-06-24T10:43:38.000Z</time>
      </trkpt>
      <trkpt lat="43.10581" lon="0.32725">
        <ele>590.42</ele>
        <time>2021-06-24T10:43:43.000Z</time>
      </trkpt>
      <trkpt lat="43.10586" lon="0.32693">
        <ele>590.22</ele>
        <time>2021-06-24T10:43:48.000Z</time>
      </trkpt>
      <trkpt lat="43.10595" lon="0.3266">
        <ele>590.87</ele>
        <time>2021-06-24T10:43:53.000Z</time>
      </trkpt>
      <trkpt lat="43.10602" lon="0.32627">
        <ele>591.21</ele>
        <time>2021-06-24T10:43:58.000Z</time>
      </trkpt>
      <trkpt lat="43.1061" lon="0.32594">
        <ele>590.32</ele>
        <time>2021-06-24T10:44:03.000Z</time>
      </trkpt>
      <trkpt lat="43.10619" lon="0.3256">
        <ele>590.53</ele>
        <time>2021-06-24T10:44:08.000Z</time>
      </trkpt>
      <trkpt lat="43.10627" lon="0.32524">
        <ele>591.08</ele>
        <time>2021-06-24T10:44:13.000Z</time>
      </trkpt>
      <trkpt lat="43.10629" lon="0.32491">
        <ele>592.41</ele>
        <time>2021-06-24T10:44:18.000Z</time>
      </trkpt>
      <trkpt lat="43.10614" lon="0.32465">
        <ele>593.7</ele>
        <time>2021-06-24T10:44:23.000Z</time>
      </trkpt>
      <trkpt lat="43.10591" lon="0.32441">
        <ele>592.41</ele>
        <time>2021-06-24T10:44:28.000Z</time>
      </trkpt>
      <trkpt lat="43.1058" lon="0.32417">
        <ele>590.57</ele>
        <time>2021-06-24T10:44:33.000Z</time>
      </trkpt>
      <trkpt lat="43.1058" lon="0.32392">
        <ele>589.48</ele>
        <time>2021-06-24T10:44:38.000Z</time>
      </trkpt>
      <trkpt lat="43.10588" lon="0.32386">
        <ele>592.28</ele>
        <time>2021-06-24T10:44:51.000Z</time>
      </trkpt>
      <trkpt lat="43.10606" lon="0.32364">
        <ele>592.67</ele>
        <time>2021-06-24T10:44:56.000Z</time>
      </trkpt>
      <trkpt lat="43.10627" lon="0.32336">
        <ele>592.53</ele>
        <time>2021-06-24T10:45:01.000Z</time>
      </trkpt>
      <trkpt lat="43.1065" lon="0.32302">
        <ele>592.36</ele>
        <time>2021-06-24T10:45:06.000Z</time>
      </trkpt>
      <trkpt lat="43.10667" lon="0.32261">
        <ele>591.76</ele>
        <time>2021-06-24T10:45:11.000Z</time>
      </trkpt>
      <trkpt lat="43.10674" lon="0.32215">
        <ele>590.4</ele>
        <time>2021-06-24T10:45:16.000Z</time>
      </trkpt>
      <trkpt lat="43.10667" lon="0.32174">
        <ele>589.83</ele>
        <time>2021-06-24T10:45:21.000Z</time>
      </trkpt>
      <trkpt lat="43.10651" lon="0.32118">
        <ele>587.47</ele>
        <time>2021-06-24T10:45:26.000Z</time>
      </trkpt>
      <trkpt lat="43.1064" lon="0.32059">
        <ele>585.6</ele>
        <time>2021-06-24T10:45:31.000Z</time>
      </trkpt>
      <trkpt lat="43.1065" lon="0.32008">
        <ele>585.06</ele>
        <time>2021-06-24T10:45:36.000Z</time>
      </trkpt>
      <trkpt lat="43.1068" lon="0.3198">
        <ele>584.61</ele>
        <time>2021-06-24T10:45:41.000Z</time>
      </trkpt>
      <trkpt lat="43.10724" lon="0.31969">
        <ele>583.62</ele>
        <time>2021-06-24T10:45:46.000Z</time>
      </trkpt>
      <trkpt lat="43.10771" lon="0.31974">
        <ele>581.88</ele>
        <time>2021-06-24T10:45:51.000Z</time>
      </trkpt>
      <trkpt lat="43.10815" lon="0.31983">
        <ele>580.51</ele>
        <time>2021-06-24T10:45:56.000Z</time>
      </trkpt>
      <trkpt lat="43.10859" lon="0.31994">
        <ele>579.38</ele>
        <time>2021-06-24T10:46:01.000Z</time>
      </trkpt>
      <trkpt lat="43.10907" lon="0.32006">
        <ele>579.22</ele>
        <time>2021-06-24T10:46:06.000Z</time>
      </trkpt>
      <trkpt lat="43.10953" lon="0.32017">
        <ele>579.77</ele>
        <time>2021-06-24T10:46:11.000Z</time>
      </trkpt>
      <trkpt lat="43.10997" lon="0.32008">
        <ele>577.22</ele>
        <time>2021-06-24T10:46:16.000Z</time>
      </trkpt>
      <trkpt lat="43.11043" lon="0.32">
        <ele>574.6</ele>
        <time>2021-06-24T10:46:21.000Z</time>
      </trkpt>
      <trkpt lat="43.11095" lon="0.32004">
        <ele>572.84</ele>
        <time>2021-06-24T10:46:26.000Z</time>
      </trkpt>
      <trkpt lat="43.11144" lon="0.32026">
        <ele>568.25</ele>
        <time>2021-06-24T10:46:31.000Z</time>
      </trkpt>
      <trkpt lat="43.11177" lon="0.32073">
        <ele>564.7</ele>
        <time>2021-06-24T10:46:36.000Z</time>
      </trkpt>
      <trkpt lat="43.11214" lon="0.32103">
        <ele>563.1</ele>
        <time>2021-06-24T10:46:41.000Z</time>
      </trkpt>
      <trkpt lat="43.1126" lon="0.32123">
        <ele>561.16</ele>
        <time>2021-06-24T10:46:46.000Z</time>
      </trkpt>
      <trkpt lat="43.11307" lon="0.32139">
        <ele>558.86</ele>
        <time>2021-06-24T10:46:51.000Z</time>
      </trkpt>
      <trkpt lat="43.11353" lon="0.32124">
        <ele>556.16</ele>
        <time>2021-06-24T10:46:56.000Z</time>
      </trkpt>
      <trkpt lat="43.11391" lon="0.32094">
        <ele>554.41</ele>
        <time>2021-06-24T10:47:01.000Z</time>
      </trkpt>
      <trkpt lat="43.11437" lon="0.32071">
        <ele>552.1</ele>
        <time>2021-06-24T10:47:06.000Z</time>
      </trkpt>
      <trkpt lat="43.1148" lon="0.32053">
        <ele>549.37</ele>
        <time>2021-06-24T10:47:11.000Z</time>
      </trkpt>
      <trkpt lat="43.11524" lon="0.32031">
        <ele>546.97</ele>
        <time>2021-06-24T10:47:16.000Z</time>
      </trkpt>
      <trkpt lat="43.11569" lon="0.3201">
        <ele>544.27</ele>
        <time>2021-06-24T10:47:21.000Z</time>
      </trkpt>
      <trkpt lat="43.1162" lon="0.31992">
        <ele>541.39</ele>
        <time>2021-06-24T10:47:26.000Z</time>
      </trkpt>
      <trkpt lat="43.11673" lon="0.31985">
        <ele>538.1</ele>
        <time>2021-06-24T10:47:31.000Z</time>
      </trkpt>
      <trkpt lat="43.11728" lon="0.31982">
        <ele>535.58</ele>
        <time>2021-06-24T10:47:36.000Z</time>
      </trkpt>
      <trkpt lat="43.11776" lon="0.31986">
        <ele>533.35</ele>
        <time>2021-06-24T10:47:41.000Z</time>
      </trkpt>
      <trkpt lat="43.11823" lon="0.31991">
        <ele>530.25</ele>
        <time>2021-06-24T10:47:46.000Z</time>
      </trkpt>
      <trkpt lat="43.1187" lon="0.31989">
        <ele>526.82</ele>
        <time>2021-06-24T10:47:51.000Z</time>
      </trkpt>
      <trkpt lat="43.11914" lon="0.31979">
        <ele>523.14</ele>
        <time>2021-06-24T10:47:56.000Z</time>
      </trkpt>
      <trkpt lat="43.11956" lon="0.31963">
        <ele>518.06</ele>
        <time>2021-06-24T10:48:01.000Z</time>
      </trkpt>
      <trkpt lat="43.11997" lon="0.31945">
        <ele>514.91</ele>
        <time>2021-06-24T10:48:06.000Z</time>
      </trkpt>
      <trkpt lat="43.12039" lon="0.31924">
        <ele>511.27</ele>
        <time>2021-06-24T10:48:11.000Z</time>
      </trkpt>
      <trkpt lat="43.12083" lon="0.31905">
        <ele>508.13</ele>
        <time>2021-06-24T10:48:16.000Z</time>
      </trkpt>
      <trkpt lat="43.12129" lon="0.31891">
        <ele>504.24</ele>
        <time>2021-06-24T10:48:21.000Z</time>
      </trkpt>
      <trkpt lat="43.12181" lon="0.3187">
        <ele>500.81</ele>
        <time>2021-06-24T10:48:26.000Z</time>
      </trkpt>
      <trkpt lat="43.12223" lon="0.31844">
        <ele>498.51</ele>
        <time>2021-06-24T10:48:31.000Z</time>
      </trkpt>
      <trkpt lat="43.12276" lon="0.31835">
        <ele>495.25</ele>
        <time>2021-06-24T10:48:36.000Z</time>
      </trkpt>
      <trkpt lat="43.12323" lon="0.31823">
        <ele>492.62</ele>
        <time>2021-06-24T10:48:41.000Z</time>
      </trkpt>
      <trkpt lat="43.12369" lon="0.31798">
        <ele>488.92</ele>
        <time>2021-06-24T10:48:46.000Z</time>
      </trkpt>
      <trkpt lat="43.12417" lon="0.31783">
        <ele>485.15</ele>
        <time>2021-06-24T10:48:51.000Z</time>
      </trkpt>
      <trkpt lat="43.12459" lon="0.31765">
        <ele>481.37</ele>
        <time>2021-06-24T10:48:56.000Z</time>
      </trkpt>
      <trkpt lat="43.12508" lon="0.31753">
        <ele>478.12</ele>
        <time>2021-06-24T10:49:01.000Z</time>
      </trkpt>
      <trkpt lat="43.12553" lon="0.31735">
        <ele>475.69</ele>
        <time>2021-06-24T10:49:06.000Z</time>
      </trkpt>
      <trkpt lat="43.12589" lon="0.317">
        <ele>472.68</ele>
        <time>2021-06-24T10:49:11.000Z</time>
      </trkpt>
      <trkpt lat="43.12625" lon="0.31662">
        <ele>469.45</ele>
        <time>2021-06-24T10:49:16.000Z</time>
      </trkpt>
      <trkpt lat="43.12664" lon="0.31625">
        <ele>466.87</ele>
        <time>2021-06-24T10:49:21.000Z</time>
      </trkpt>
      <trkpt lat="43.12711" lon="0.31599">
        <ele>463.36</ele>
        <time>2021-06-24T10:49:26.000Z</time>
      </trkpt>
      <trkpt lat="43.12752" lon="0.31566">
        <ele>460.09</ele>
        <time>2021-06-24T10:49:31.000Z</time>
      </trkpt>
      <trkpt lat="43.12808" lon="0.31548">
        <ele>456.15</ele>
        <time>2021-06-24T10:49:36.000Z</time>
      </trkpt>
      <trkpt lat="43.12849" lon="0.31522">
        <ele>453.82</ele>
        <time>2021-06-24T10:49:41.000Z</time>
      </trkpt>
      <trkpt lat="43.12892" lon="0.31496">
        <ele>451.04</ele>
        <time>2021-06-24T10:49:46.000Z</time>
      </trkpt>
      <trkpt lat="43.12935" lon="0.31479">
        <ele>448.23</ele>
        <time>2021-06-24T10:49:51.000Z</time>
      </trkpt>
      <trkpt lat="43.12982" lon="0.31464">
        <ele>445.33</ele>
        <time>2021-06-24T10:49:56.000Z</time>
      </trkpt>
      <trkpt lat="43.13027" lon="0.31446">
        <ele>442.1</ele>
        <time>2021-06-24T10:50:01.000Z</time>
      </trkpt>
      <trkpt lat="43.13069" lon="0.31424">
        <ele>439.33</ele>
        <time>2021-06-24T10:50:06.000Z</time>
      </trkpt>
      <trkpt lat="43.13111" lon="0.31408">
        <ele>435.93</ele>
        <time>2021-06-24T10:50:11.000Z</time>
      </trkpt>
      <trkpt lat="43.13164" lon="0.31399">
        <ele>433.57</ele>
        <time>2021-06-24T10:50:16.000Z</time>
      </trkpt>
      <trkpt lat="43.13208" lon="0.31379">
        <ele>430.26</ele>
        <time>2021-06-24T10:50:21.000Z</time>
      </trkpt>
      <trkpt lat="43.13248" lon="0.31355">
        <ele>427.87</ele>
        <time>2021-06-24T10:50:26.000Z</time>
      </trkpt>
      <trkpt lat="43.13288" lon="0.31332">
        <ele>426.96</ele>
        <time>2021-06-24T10:50:31.000Z</time>
      </trkpt>
      <trkpt lat="43.13334" lon="0.31313">
        <ele>425.07</ele>
        <time>2021-06-24T10:50:36.000Z</time>
      </trkpt>
      <trkpt lat="43.1338" lon="0.31295">
        <ele>423.45</ele>
        <time>2021-06-24T10:50:41.000Z</time>
      </trkpt>
      <trkpt lat="43.13427" lon="0.31286">
        <ele>420.72</ele>
        <time>2021-06-24T10:50:46.000Z</time>
      </trkpt>
      <trkpt lat="43.13469" lon="0.31272">
        <ele>417.16</ele>
        <time>2021-06-24T10:50:51.000Z</time>
      </trkpt>
      <trkpt lat="43.13516" lon="0.31265">
        <ele>416.09</ele>
        <time>2021-06-24T10:50:56.000Z</time>
      </trkpt>
      <trkpt lat="43.13562" lon="0.3125">
        <ele>418.49</ele>
        <time>2021-06-24T10:51:01.000Z</time>
      </trkpt>
      <trkpt lat="43.13602" lon="0.31227">
        <ele>422.61</ele>
        <time>2021-06-24T10:51:06.000Z</time>
      </trkpt>
      <trkpt lat="43.13636" lon="0.31199">
        <ele>427.73</ele>
        <time>2021-06-24T10:51:11.000Z</time>
      </trkpt>
      <trkpt lat="43.1367" lon="0.31168">
        <ele>434.24</ele>
        <time>2021-06-24T10:51:16.000Z</time>
      </trkpt>
      <trkpt lat="43.13704" lon="0.31144">
        <ele>442.51</ele>
        <time>2021-06-24T10:51:21.000Z</time>
      </trkpt>
      <trkpt lat="43.13739" lon="0.3112">
        <ele>447.12</ele>
        <time>2021-06-24T10:51:26.000Z</time>
      </trkpt>
      <trkpt lat="43.13773" lon="0.31096">
        <ele>450.45</ele>
        <time>2021-06-24T10:51:31.000Z</time>
      </trkpt>
      <trkpt lat="43.13809" lon="0.3107">
        <ele>451.95</ele>
        <time>2021-06-24T10:51:36.000Z</time>
      </trkpt>
      <trkpt lat="43.13846" lon="0.3104">
        <ele>454.58</ele>
        <time>2021-06-24T10:51:41.000Z</time>
      </trkpt>
      <trkpt lat="43.13882" lon="0.31005">
        <ele>456.15</ele>
        <time>2021-06-24T10:51:46.000Z</time>
      </trkpt>
      <trkpt lat="43.13918" lon="0.30966">
        <ele>457.19</ele>
        <time>2021-06-24T10:51:51.000Z</time>
      </trkpt>
      <trkpt lat="43.1395" lon="0.30927">
        <ele>458.6</ele>
        <time>2021-06-24T10:51:56.000Z</time>
      </trkpt>
      <trkpt lat="43.13984" lon="0.30889">
        <ele>460.57</ele>
        <time>2021-06-24T10:52:01.000Z</time>
      </trkpt>
      <trkpt lat="43.14018" lon="0.30851">
        <ele>462.19</ele>
        <time>2021-06-24T10:52:06.000Z</time>
      </trkpt>
      <trkpt lat="43.14056" lon="0.30818">
        <ele>464.32</ele>
        <time>2021-06-24T10:52:11.000Z</time>
      </trkpt>
      <trkpt lat="43.14099" lon="0.30804">
        <ele>464.81</ele>
        <time>2021-06-24T10:52:16.000Z</time>
      </trkpt>
      <trkpt lat="43.14143" lon="0.30795">
        <ele>464.55</ele>
        <time>2021-06-24T10:52:21.000Z</time>
      </trkpt>
      <trkpt lat="43.1419" lon="0.30773">
        <ele>462.92</ele>
        <time>2021-06-24T10:52:26.000Z</time>
      </trkpt>
      <trkpt lat="43.14226" lon="0.30737">
        <ele>461.94</ele>
        <time>2021-06-24T10:52:31.000Z</time>
      </trkpt>
      <trkpt lat="43.14254" lon="0.30691">
        <ele>461.15</ele>
        <time>2021-06-24T10:52:36.000Z</time>
      </trkpt>
      <trkpt lat="43.14271" lon="0.30638">
        <ele>459.85</ele>
        <time>2021-06-24T10:52:41.000Z</time>
      </trkpt>
      <trkpt lat="43.14296" lon="0.30583">
        <ele>458.8</ele>
        <time>2021-06-24T10:52:46.000Z</time>
      </trkpt>
      <trkpt lat="43.14329" lon="0.30539">
        <ele>458.03</ele>
        <time>2021-06-24T10:52:51.000Z</time>
      </trkpt>
      <trkpt lat="43.14362" lon="0.30487">
        <ele>458.3</ele>
        <time>2021-06-24T10:52:56.000Z</time>
      </trkpt>
      <trkpt lat="43.14394" lon="0.30439">
        <ele>458.67</ele>
        <time>2021-06-24T10:53:01.000Z</time>
      </trkpt>
      <trkpt lat="43.14425" lon="0.30392">
        <ele>459.07</ele>
        <time>2021-06-24T10:53:06.000Z</time>
      </trkpt>
      <trkpt lat="43.14457" lon="0.30344">
        <ele>459.2</ele>
        <time>2021-06-24T10:53:11.000Z</time>
      </trkpt>
      <trkpt lat="43.14486" lon="0.30297">
        <ele>459.18</ele>
        <time>2021-06-24T10:53:16.000Z</time>
      </trkpt>
      <trkpt lat="43.14517" lon="0.30252">
        <ele>459.3</ele>
        <time>2021-06-24T10:53:21.000Z</time>
      </trkpt>
      <trkpt lat="43.14552" lon="0.30207">
        <ele>458.87</ele>
        <time>2021-06-24T10:53:26.000Z</time>
      </trkpt>
      <trkpt lat="43.14588" lon="0.30161">
        <ele>458.49</ele>
        <time>2021-06-24T10:53:31.000Z</time>
      </trkpt>
      <trkpt lat="43.14626" lon="0.30113">
        <ele>458.1</ele>
        <time>2021-06-24T10:53:36.000Z</time>
      </trkpt>
      <trkpt lat="43.14663" lon="0.30066">
        <ele>457.53</ele>
        <time>2021-06-24T10:53:41.000Z</time>
      </trkpt>
      <trkpt lat="43.14682" lon="0.30004">
        <ele>456.02</ele>
        <time>2021-06-24T10:53:46.000Z</time>
      </trkpt>
      <trkpt lat="43.14705" lon="0.29942">
        <ele>455.16</ele>
        <time>2021-06-24T10:53:51.000Z</time>
      </trkpt>
      <trkpt lat="43.14741" lon="0.29885">
        <ele>454.54</ele>
        <time>2021-06-24T10:53:56.000Z</time>
      </trkpt>
      <trkpt lat="43.14774" lon="0.29834">
        <ele>453.74</ele>
        <time>2021-06-24T10:54:01.000Z</time>
      </trkpt>
      <trkpt lat="43.14807" lon="0.29787">
        <ele>453.63</ele>
        <time>2021-06-24T10:54:06.000Z</time>
      </trkpt>
      <trkpt lat="43.14845" lon="0.2974">
        <ele>452.55</ele>
        <time>2021-06-24T10:54:11.000Z</time>
      </trkpt>
      <trkpt lat="43.14878" lon="0.29689">
        <ele>452.11</ele>
        <time>2021-06-24T10:54:16.000Z</time>
      </trkpt>
      <trkpt lat="43.14909" lon="0.29649">
        <ele>450.49</ele>
        <time>2021-06-24T10:54:21.000Z</time>
      </trkpt>
      <trkpt lat="43.14939" lon="0.29606">
        <ele>449.67</ele>
        <time>2021-06-24T10:54:26.000Z</time>
      </trkpt>
      <trkpt lat="43.14969" lon="0.29564">
        <ele>448.61</ele>
        <time>2021-06-24T10:54:31.000Z</time>
      </trkpt>
      <trkpt lat="43.14999" lon="0.29524">
        <ele>445.67</ele>
        <time>2021-06-24T10:54:36.000Z</time>
      </trkpt>
      <trkpt lat="43.15029" lon="0.29485">
        <ele>442.89</ele>
        <time>2021-06-24T10:54:41.000Z</time>
      </trkpt>
      <trkpt lat="43.1506" lon="0.29453">
        <ele>440.28</ele>
        <time>2021-06-24T10:54:46.000Z</time>
      </trkpt>
      <trkpt lat="43.1509" lon="0.29424">
        <ele>438.42</ele>
        <time>2021-06-24T10:54:51.000Z</time>
      </trkpt>
      <trkpt lat="43.15121" lon="0.29393">
        <ele>436.33</ele>
        <time>2021-06-24T10:54:56.000Z</time>
      </trkpt>
      <trkpt lat="43.15154" lon="0.29356">
        <ele>435.27</ele>
        <time>2021-06-24T10:55:01.000Z</time>
      </trkpt>
      <trkpt lat="43.15184" lon="0.2932">
        <ele>433.18</ele>
        <time>2021-06-24T10:55:06.000Z</time>
      </trkpt>
      <trkpt lat="43.15218" lon="0.29281">
        <ele>429.31</ele>
        <time>2021-06-24T10:55:11.000Z</time>
      </trkpt>
      <trkpt lat="43.15252" lon="0.29243">
        <ele>426.58</ele>
        <time>2021-06-24T10:55:16.000Z</time>
      </trkpt>
      <trkpt lat="43.1529" lon="0.29205">
        <ele>423.31</ele>
        <time>2021-06-24T10:55:21.000Z</time>
      </trkpt>
      <trkpt lat="43.15328" lon="0.29168">
        <ele>420.74</ele>
        <time>2021-06-24T10:55:26.000Z</time>
      </trkpt>
      <trkpt lat="43.15359" lon="0.29134">
        <ele>417.6</ele>
        <time>2021-06-24T10:55:31.000Z</time>
      </trkpt>
      <trkpt lat="43.15391" lon="0.29101">
        <ele>413.56</ele>
        <time>2021-06-24T10:55:36.000Z</time>
      </trkpt>
      <trkpt lat="43.15422" lon="0.2907">
        <ele>407.77</ele>
        <time>2021-06-24T10:55:41.000Z</time>
      </trkpt>
      <trkpt lat="43.15451" lon="0.29038">
        <ele>402.61</ele>
        <time>2021-06-24T10:55:46.000Z</time>
      </trkpt>
      <trkpt lat="43.15476" lon="0.2901">
        <ele>398.73</ele>
        <time>2021-06-24T10:55:51.000Z</time>
      </trkpt>
      <trkpt lat="43.15502" lon="0.2898">
        <ele>388.21</ele>
        <time>2021-06-24T10:55:56.000Z</time>
      </trkpt>
      <trkpt lat="43.15529" lon="0.28952">
        <ele>379.54</ele>
        <time>2021-06-24T10:56:01.000Z</time>
      </trkpt>
      <trkpt lat="43.15553" lon="0.28925">
        <ele>374.45</ele>
        <time>2021-06-24T10:56:06.000Z</time>
      </trkpt>
      <trkpt lat="43.15574" lon="0.28899">
        <ele>370.05</ele>
        <time>2021-06-24T10:56:11.000Z</time>
      </trkpt>
      <trkpt lat="43.156" lon="0.28872">
        <ele>368.31</ele>
        <time>2021-06-24T10:56:16.000Z</time>
      </trkpt>
      <trkpt lat="43.15624" lon="0.28843">
        <ele>365.96</ele>
        <time>2021-06-24T10:56:21.000Z</time>
      </trkpt>
      <trkpt lat="43.15654" lon="0.2881">
        <ele>361.78</ele>
        <time>2021-06-24T10:56:26.000Z</time>
      </trkpt>
      <trkpt lat="43.1568" lon="0.28777">
        <ele>358.99</ele>
        <time>2021-06-24T10:56:31.000Z</time>
      </trkpt>
      <trkpt lat="43.15705" lon="0.28742">
        <ele>357.63</ele>
        <time>2021-06-24T10:56:36.000Z</time>
      </trkpt>
      <trkpt lat="43.15731" lon="0.28704">
        <ele>356.32</ele>
        <time>2021-06-24T10:56:41.000Z</time>
      </trkpt>
      <trkpt lat="43.15761" lon="0.28664">
        <ele>354.41</ele>
        <time>2021-06-24T10:56:46.000Z</time>
      </trkpt>
      <trkpt lat="43.15786" lon="0.28624">
        <ele>353.22</ele>
        <time>2021-06-24T10:56:51.000Z</time>
      </trkpt>
      <trkpt lat="43.15813" lon="0.28578">
        <ele>353.87</ele>
        <time>2021-06-24T10:56:56.000Z</time>
      </trkpt>
      <trkpt lat="43.15842" lon="0.28533">
        <ele>355.71</ele>
        <time>2021-06-24T10:57:01.000Z</time>
      </trkpt>
      <trkpt lat="43.15871" lon="0.28484">
        <ele>355.75</ele>
        <time>2021-06-24T10:57:06.000Z</time>
      </trkpt>
      <trkpt lat="43.15902" lon="0.28436">
        <ele>356.33</ele>
        <time>2021-06-24T10:57:11.000Z</time>
      </trkpt>
      <trkpt lat="43.15926" lon="0.28392">
        <ele>355.61</ele>
        <time>2021-06-24T10:57:16.000Z</time>
      </trkpt>
      <trkpt lat="43.1595" lon="0.28346">
        <ele>355.64</ele>
        <time>2021-06-24T10:57:21.000Z</time>
      </trkpt>
      <trkpt lat="43.15976" lon="0.28294">
        <ele>354</ele>
        <time>2021-06-24T10:57:26.000Z</time>
      </trkpt>
      <trkpt lat="43.16" lon="0.28243">
        <ele>352.66</ele>
        <time>2021-06-24T10:57:31.000Z</time>
      </trkpt>
      <trkpt lat="43.16034" lon="0.28199">
        <ele>349.55</ele>
        <time>2021-06-24T10:57:36.000Z</time>
      </trkpt>
      <trkpt lat="43.16068" lon="0.28155">
        <ele>346.5</ele>
        <time>2021-06-24T10:57:41.000Z</time>
      </trkpt>
      <trkpt lat="43.16074" lon="0.28093">
        <ele>344.6</ele>
        <time>2021-06-24T10:57:46.000Z</time>
      </trkpt>
      <trkpt lat="43.16087" lon="0.28029">
        <ele>340.87</ele>
        <time>2021-06-24T10:57:51.000Z</time>
      </trkpt>
      <trkpt lat="43.16107" lon="0.27976">
        <ele>338.36</ele>
        <time>2021-06-24T10:57:56.000Z</time>
      </trkpt>
      <trkpt lat="43.16127" lon="0.27931">
        <ele>337.11</ele>
        <time>2021-06-24T10:58:01.000Z</time>
      </trkpt>
      <trkpt lat="43.16145" lon="0.27893">
        <ele>336.35</ele>
        <time>2021-06-24T10:58:06.000Z</time>
      </trkpt>
      <trkpt lat="43.16163" lon="0.27858">
        <ele>335</ele>
        <time>2021-06-24T10:58:11.000Z</time>
      </trkpt>
      <trkpt lat="43.16181" lon="0.27821">
        <ele>333.5</ele>
        <time>2021-06-24T10:58:16.000Z</time>
      </trkpt>
      <trkpt lat="43.16205" lon="0.27783">
        <ele>332</ele>
        <time>2021-06-24T10:58:21.000Z</time>
      </trkpt>
      <trkpt lat="43.16232" lon="0.27738">
        <ele>330.94</ele>
        <time>2021-06-24T10:58:26.000Z</time>
      </trkpt>
      <trkpt lat="43.1626" lon="0.27688">
        <ele>331.19</ele>
        <time>2021-06-24T10:58:31.000Z</time>
      </trkpt>
      <trkpt lat="43.16289" lon="0.27636">
        <ele>330.12</ele>
        <time>2021-06-24T10:58:36.000Z</time>
      </trkpt>
      <trkpt lat="43.1631" lon="0.27591">
        <ele>330.09</ele>
        <time>2021-06-24T10:58:41.000Z</time>
      </trkpt>
      <trkpt lat="43.16325" lon="0.27554">
        <ele>330.15</ele>
        <time>2021-06-24T10:58:46.000Z</time>
      </trkpt>
      <trkpt lat="43.16339" lon="0.27522">
        <ele>329.95</ele>
        <time>2021-06-24T10:58:51.000Z</time>
      </trkpt>
      <trkpt lat="43.16354" lon="0.27496">
        <ele>329.94</ele>
        <time>2021-06-24T10:58:56.000Z</time>
      </trkpt>
      <trkpt lat="43.16366" lon="0.27467">
        <ele>329.71</ele>
        <time>2021-06-24T10:59:01.000Z</time>
      </trkpt>
      <trkpt lat="43.16381" lon="0.27439">
        <ele>329.71</ele>
        <time>2021-06-24T10:59:06.000Z</time>
      </trkpt>
      <trkpt lat="43.16392" lon="0.27407">
        <ele>329.6</ele>
        <time>2021-06-24T10:59:11.000Z</time>
      </trkpt>
      <trkpt lat="43.16406" lon="0.27378">
        <ele>328.82</ele>
        <time>2021-06-24T10:59:16.000Z</time>
      </trkpt>
      <trkpt lat="43.1642" lon="0.27351">
        <ele>327.97</ele>
        <time>2021-06-24T10:59:21.000Z</time>
      </trkpt>
      <trkpt lat="43.16435" lon="0.27321">
        <ele>327.88</ele>
        <time>2021-06-24T10:59:26.000Z</time>
      </trkpt>
      <trkpt lat="43.16448" lon="0.27293">
        <ele>327.58</ele>
        <time>2021-06-24T10:59:31.000Z</time>
      </trkpt>
      <trkpt lat="43.16463" lon="0.27263">
        <ele>328.04</ele>
        <time>2021-06-24T10:59:36.000Z</time>
      </trkpt>
      <trkpt lat="43.16477" lon="0.27235">
        <ele>329.42</ele>
        <time>2021-06-24T10:59:41.000Z</time>
      </trkpt>
      <trkpt lat="43.16487" lon="0.27209">
        <ele>330.7</ele>
        <time>2021-06-24T10:59:46.000Z</time>
      </trkpt>
      <trkpt lat="43.16502" lon="0.27185">
        <ele>331.96</ele>
        <time>2021-06-24T10:59:51.000Z</time>
      </trkpt>
      <trkpt lat="43.16515" lon="0.27161">
        <ele>331.82</ele>
        <time>2021-06-24T10:59:56.000Z</time>
      </trkpt>
      <trkpt lat="43.1653" lon="0.27142">
        <ele>330.92</ele>
        <time>2021-06-24T11:00:01.000Z</time>
      </trkpt>
      <trkpt lat="43.16552" lon="0.2713">
        <ele>330.7</ele>
        <time>2021-06-24T11:00:06.000Z</time>
      </trkpt>
      <trkpt lat="43.16569" lon="0.27104">
        <ele>331.77</ele>
        <time>2021-06-24T11:00:11.000Z</time>
      </trkpt>
      <trkpt lat="43.16583" lon="0.27067">
        <ele>331.89</ele>
        <time>2021-06-24T11:00:16.000Z</time>
      </trkpt>
      <trkpt lat="43.16606" lon="0.27028">
        <ele>331.09</ele>
        <time>2021-06-24T11:00:21.000Z</time>
      </trkpt>
      <trkpt lat="43.1662" lon="0.26982">
        <ele>330.43</ele>
        <time>2021-06-24T11:00:26.000Z</time>
      </trkpt>
      <trkpt lat="43.16634" lon="0.26933">
        <ele>329.99</ele>
        <time>2021-06-24T11:00:31.000Z</time>
      </trkpt>
      <trkpt lat="43.16649" lon="0.26884">
        <ele>329.17</ele>
        <time>2021-06-24T11:00:36.000Z</time>
      </trkpt>
      <trkpt lat="43.16667" lon="0.26833">
        <ele>327.92</ele>
        <time>2021-06-24T11:00:41.000Z</time>
      </trkpt>
      <trkpt lat="43.16682" lon="0.26787">
        <ele>326.36</ele>
        <time>2021-06-24T11:00:46.000Z</time>
      </trkpt>
      <trkpt lat="43.16692" lon="0.26745">
        <ele>326.38</ele>
        <time>2021-06-24T11:00:51.000Z</time>
      </trkpt>
      <trkpt lat="43.16702" lon="0.26711">
        <ele>326.39</ele>
        <time>2021-06-24T11:00:56.000Z</time>
      </trkpt>
      <trkpt lat="43.16714" lon="0.26677">
        <ele>326.51</ele>
        <time>2021-06-24T11:01:01.000Z</time>
      </trkpt>
      <trkpt lat="43.16724" lon="0.26642">
        <ele>326.4</ele>
        <time>2021-06-24T11:01:06.000Z</time>
      </trkpt>
      <trkpt lat="43.16736" lon="0.26605">
        <ele>326.65</ele>
        <time>2021-06-24T11:01:11.000Z</time>
      </trkpt>
      <trkpt lat="43.1675" lon="0.26568">
        <ele>326.7</ele>
        <time>2021-06-24T11:01:16.000Z</time>
      </trkpt>
      <trkpt lat="43.16763" lon="0.26525">
        <ele>326.09</ele>
        <time>2021-06-24T11:01:21.000Z</time>
      </trkpt>
      <trkpt lat="43.16777" lon="0.26482">
        <ele>325.88</ele>
        <time>2021-06-24T11:01:26.000Z</time>
      </trkpt>
      <trkpt lat="43.16792" lon="0.26443">
        <ele>327.05</ele>
        <time>2021-06-24T11:01:31.000Z</time>
      </trkpt>
      <trkpt lat="43.16807" lon="0.26403">
        <ele>327</ele>
        <time>2021-06-24T11:01:36.000Z</time>
      </trkpt>
      <trkpt lat="43.16821" lon="0.26367">
        <ele>326.98</ele>
        <time>2021-06-24T11:01:41.000Z</time>
      </trkpt>
      <trkpt lat="43.16832" lon="0.2633">
        <ele>327.71</ele>
        <time>2021-06-24T11:01:46.000Z</time>
      </trkpt>
      <trkpt lat="43.16841" lon="0.26298">
        <ele>328.12</ele>
        <time>2021-06-24T11:01:51.000Z</time>
      </trkpt>
      <trkpt lat="43.16847" lon="0.2627">
        <ele>328.32</ele>
        <time>2021-06-24T11:01:56.000Z</time>
      </trkpt>
      <trkpt lat="43.16856" lon="0.26248">
        <ele>328.7</ele>
        <time>2021-06-24T11:02:01.000Z</time>
      </trkpt>
      <trkpt lat="43.16867" lon="0.26224">
        <ele>329.7</ele>
        <time>2021-06-24T11:02:06.000Z</time>
      </trkpt>
      <trkpt lat="43.16878" lon="0.26202">
        <ele>330.39</ele>
        <time>2021-06-24T11:02:11.000Z</time>
      </trkpt>
      <trkpt lat="43.16887" lon="0.26179">
        <ele>330.71</ele>
        <time>2021-06-24T11:02:16.000Z</time>
      </trkpt>
      <trkpt lat="43.16893" lon="0.26159">
        <ele>330.69</ele>
        <time>2021-06-24T11:02:21.000Z</time>
      </trkpt>
      <trkpt lat="43.169" lon="0.26136">
        <ele>331.01</ele>
        <time>2021-06-24T11:02:26.000Z</time>
      </trkpt>
      <trkpt lat="43.16911" lon="0.26111">
        <ele>331.07</ele>
        <time>2021-06-24T11:02:31.000Z</time>
      </trkpt>
      <trkpt lat="43.16921" lon="0.26082">
        <ele>330.49</ele>
        <time>2021-06-24T11:02:36.000Z</time>
      </trkpt>
      <trkpt lat="43.16932" lon="0.26051">
        <ele>329.63</ele>
        <time>2021-06-24T11:02:41.000Z</time>
      </trkpt>
      <trkpt lat="43.16941" lon="0.26019">
        <ele>329.75</ele>
        <time>2021-06-24T11:02:46.000Z</time>
      </trkpt>
      <trkpt lat="43.16952" lon="0.25988">
        <ele>329.47</ele>
        <time>2021-06-24T11:02:51.000Z</time>
      </trkpt>
      <trkpt lat="43.16963" lon="0.25956">
        <ele>327.78</ele>
        <time>2021-06-24T11:02:56.000Z</time>
      </trkpt>
      <trkpt lat="43.16976" lon="0.25923">
        <ele>326.07</ele>
        <time>2021-06-24T11:03:01.000Z</time>
      </trkpt>
      <trkpt lat="43.16989" lon="0.25888">
        <ele>324.26</ele>
        <time>2021-06-24T11:03:06.000Z</time>
      </trkpt>
      <trkpt lat="43.17003" lon="0.25852">
        <ele>322.93</ele>
        <time>2021-06-24T11:03:11.000Z</time>
      </trkpt>
      <trkpt lat="43.17016" lon="0.25812">
        <ele>320.81</ele>
        <time>2021-06-24T11:03:16.000Z</time>
      </trkpt>
      <trkpt lat="43.17031" lon="0.25772">
        <ele>319.12</ele>
        <time>2021-06-24T11:03:21.000Z</time>
      </trkpt>
      <trkpt lat="43.17044" lon="0.25733">
        <ele>317.15</ele>
        <time>2021-06-24T11:03:26.000Z</time>
      </trkpt>
      <trkpt lat="43.17057" lon="0.25698">
        <ele>316.12</ele>
        <time>2021-06-24T11:03:31.000Z</time>
      </trkpt>
      <trkpt lat="43.17068" lon="0.25669">
        <ele>315.4</ele>
        <time>2021-06-24T11:03:36.000Z</time>
      </trkpt>
      <trkpt lat="43.17079" lon="0.25639">
        <ele>315.89</ele>
        <time>2021-06-24T11:03:41.000Z</time>
      </trkpt>
      <trkpt lat="43.17086" lon="0.25603">
        <ele>316.62</ele>
        <time>2021-06-24T11:03:46.000Z</time>
      </trkpt>
      <trkpt lat="43.17099" lon="0.25567">
        <ele>317.58</ele>
        <time>2021-06-24T11:03:51.000Z</time>
      </trkpt>
      <trkpt lat="43.17128" lon="0.25534">
        <ele>317.53</ele>
        <time>2021-06-24T11:03:56.000Z</time>
      </trkpt>
      <trkpt lat="43.17168" lon="0.25508">
        <ele>317.78</ele>
        <time>2021-06-24T11:04:01.000Z</time>
      </trkpt>
      <trkpt lat="43.17213" lon="0.25475">
        <ele>317.8</ele>
        <time>2021-06-24T11:04:06.000Z</time>
      </trkpt>
      <trkpt lat="43.17255" lon="0.25442">
        <ele>315.79</ele>
        <time>2021-06-24T11:04:11.000Z</time>
      </trkpt>
      <trkpt lat="43.17298" lon="0.25409">
        <ele>309.6</ele>
        <time>2021-06-24T11:04:16.000Z</time>
      </trkpt>
      <trkpt lat="43.17339" lon="0.25379">
        <ele>307.44</ele>
        <time>2021-06-24T11:04:21.000Z</time>
      </trkpt>
      <trkpt lat="43.17381" lon="0.25349">
        <ele>303.19</ele>
        <time>2021-06-24T11:04:26.000Z</time>
      </trkpt>
      <trkpt lat="43.17423" lon="0.2532">
        <ele>300.87</ele>
        <time>2021-06-24T11:04:31.000Z</time>
      </trkpt>
      <trkpt lat="43.17461" lon="0.25292">
        <ele>299.9</ele>
        <time>2021-06-24T11:04:36.000Z</time>
      </trkpt>
      <trkpt lat="43.17497" lon="0.25267">
        <ele>298.63</ele>
        <time>2021-06-24T11:04:41.000Z</time>
      </trkpt>
      <trkpt lat="43.17532" lon="0.2524">
        <ele>295.83</ele>
        <time>2021-06-24T11:04:46.000Z</time>
      </trkpt>
      <trkpt lat="43.17571" lon="0.25211">
        <ele>292.28</ele>
        <time>2021-06-24T11:04:51.000Z</time>
      </trkpt>
      <trkpt lat="43.1761" lon="0.25183">
        <ele>288.72</ele>
        <time>2021-06-24T11:04:56.000Z</time>
      </trkpt>
      <trkpt lat="43.17653" lon="0.25152">
        <ele>284.31</ele>
        <time>2021-06-24T11:05:01.000Z</time>
      </trkpt>
      <trkpt lat="43.17697" lon="0.25118">
        <ele>279.39</ele>
        <time>2021-06-24T11:05:06.000Z</time>
      </trkpt>
      <trkpt lat="43.17742" lon="0.25087">
        <ele>277.42</ele>
        <time>2021-06-24T11:05:11.000Z</time>
      </trkpt>
      <trkpt lat="43.17782" lon="0.25057">
        <ele>275.55</ele>
        <time>2021-06-24T11:05:16.000Z</time>
      </trkpt>
      <trkpt lat="43.17819" lon="0.2503">
        <ele>273.49</ele>
        <time>2021-06-24T11:05:21.000Z</time>
      </trkpt>
      <trkpt lat="43.17854" lon="0.25006">
        <ele>272.5</ele>
        <time>2021-06-24T11:05:26.000Z</time>
      </trkpt>
      <trkpt lat="43.17885" lon="0.24982">
        <ele>271.83</ele>
        <time>2021-06-24T11:05:31.000Z</time>
      </trkpt>
      <trkpt lat="43.17914" lon="0.24961">
        <ele>271.44</ele>
        <time>2021-06-24T11:05:36.000Z</time>
      </trkpt>
      <trkpt lat="43.17937" lon="0.24944">
        <ele>271.73</ele>
        <time>2021-06-24T11:05:41.000Z</time>
      </trkpt>
      <trkpt lat="43.17959" lon="0.24929">
        <ele>272.75</ele>
        <time>2021-06-24T11:05:46.000Z</time>
      </trkpt>
      <trkpt lat="43.1798" lon="0.24913">
        <ele>275.09</ele>
        <time>2021-06-24T11:05:51.000Z</time>
      </trkpt>
      <trkpt lat="43.18001" lon="0.24899">
        <ele>276.45</ele>
        <time>2021-06-24T11:05:56.000Z</time>
      </trkpt>
      <trkpt lat="43.1802" lon="0.24882">
        <ele>277.16</ele>
        <time>2021-06-24T11:06:01.000Z</time>
      </trkpt>
      <trkpt lat="43.18041" lon="0.24865">
        <ele>276.97</ele>
        <time>2021-06-24T11:06:06.000Z</time>
      </trkpt>
      <trkpt lat="43.18064" lon="0.24849">
        <ele>277.46</ele>
        <time>2021-06-24T11:06:11.000Z</time>
      </trkpt>
      <trkpt lat="43.1809" lon="0.24831">
        <ele>277.38</ele>
        <time>2021-06-24T11:06:16.000Z</time>
      </trkpt>
      <trkpt lat="43.18115" lon="0.24812">
        <ele>276.68</ele>
        <time>2021-06-24T11:06:21.000Z</time>
      </trkpt>
      <trkpt lat="43.18141" lon="0.24793">
        <ele>276.9</ele>
        <time>2021-06-24T11:06:26.000Z</time>
      </trkpt>
      <trkpt lat="43.18165" lon="0.24775">
        <ele>277.48</ele>
        <time>2021-06-24T11:06:31.000Z</time>
      </trkpt>
      <trkpt lat="43.18188" lon="0.24756">
        <ele>277.02</ele>
        <time>2021-06-24T11:06:36.000Z</time>
      </trkpt>
      <trkpt lat="43.1821" lon="0.24738">
        <ele>276.88</ele>
        <time>2021-06-24T11:06:41.000Z</time>
      </trkpt>
      <trkpt lat="43.18235" lon="0.2472">
        <ele>276.38</ele>
        <time>2021-06-24T11:06:46.000Z</time>
      </trkpt>
      <trkpt lat="43.1826" lon="0.24702">
        <ele>274.18</ele>
        <time>2021-06-24T11:06:51.000Z</time>
      </trkpt>
      <trkpt lat="43.18283" lon="0.24682">
        <ele>272.5</ele>
        <time>2021-06-24T11:06:56.000Z</time>
      </trkpt>
      <trkpt lat="43.18311" lon="0.24667">
        <ele>271.64</ele>
        <time>2021-06-24T11:07:01.000Z</time>
      </trkpt>
      <trkpt lat="43.18336" lon="0.24647">
        <ele>271.11</ele>
        <time>2021-06-24T11:07:06.000Z</time>
      </trkpt>
      <trkpt lat="43.18365" lon="0.24628">
        <ele>270.45</ele>
        <time>2021-06-24T11:07:11.000Z</time>
      </trkpt>
      <trkpt lat="43.18394" lon="0.2461">
        <ele>270.87</ele>
        <time>2021-06-24T11:07:16.000Z</time>
      </trkpt>
      <trkpt lat="43.18421" lon="0.24586">
        <ele>272.28</ele>
        <time>2021-06-24T11:07:21.000Z</time>
      </trkpt>
      <trkpt lat="43.18452" lon="0.24564">
        <ele>272.2</ele>
        <time>2021-06-24T11:07:26.000Z</time>
      </trkpt>
      <trkpt lat="43.1848" lon="0.24539">
        <ele>272.37</ele>
        <time>2021-06-24T11:07:31.000Z</time>
      </trkpt>
      <trkpt lat="43.18493" lon="0.24532">
        <ele>272.03</ele>
        <time>2021-06-24T11:07:36.000Z</time>
      </trkpt>
      <trkpt lat="43.185" lon="0.24541">
        <ele>271.06</ele>
        <time>2021-06-24T11:08:03.000Z</time>
      </trkpt>
      <trkpt lat="43.18489" lon="0.24539">
        <ele>271.59</ele>
        <time>2021-06-24T11:08:19.000Z</time>
      </trkpt>
      <trkpt lat="43.18499" lon="0.24537">
        <ele>272.2</ele>
        <time>2021-06-24T11:08:38.000Z</time>
      </trkpt>
      <trkpt lat="43.18493" lon="0.24526">
        <ele>272.64</ele>
        <time>2021-06-24T11:08:46.000Z</time>
      </trkpt>
      <trkpt lat="43.18497" lon="0.24514">
        <ele>273.8</ele>
        <time>2021-06-24T11:09:07.000Z</time>
      </trkpt>
      <trkpt lat="43.18495" lon="0.24493">
        <ele>274.17</ele>
        <time>2021-06-24T11:09:12.000Z</time>
      </trkpt>
      <trkpt lat="43.18489" lon="0.24463">
        <ele>274.12</ele>
        <time>2021-06-24T11:09:17.000Z</time>
      </trkpt>
      <trkpt lat="43.18483" lon="0.24436">
        <ele>274.2</ele>
        <time>2021-06-24T11:09:22.000Z</time>
      </trkpt>
      <trkpt lat="43.18475" lon="0.24405">
        <ele>274.47</ele>
        <time>2021-06-24T11:09:27.000Z</time>
      </trkpt>
      <trkpt lat="43.18467" lon="0.24384">
        <ele>273.59</ele>
        <time>2021-06-24T11:09:32.000Z</time>
      </trkpt>
      <trkpt lat="43.18458" lon="0.24381">
        <ele>273.49</ele>
        <time>2021-06-24T11:09:37.000Z</time>
      </trkpt>
      <trkpt lat="43.18452" lon="0.24371">
        <ele>271.48</ele>
        <time>2021-06-24T11:10:08.000Z</time>
      </trkpt>
      <trkpt lat="43.1846" lon="0.24378">
        <ele>260.57</ele>
        <time>2021-06-24T11:27:02.000Z</time>
      </trkpt>
      <trkpt lat="43.18468" lon="0.24385">
        <ele>260.71</ele>
        <time>2021-06-24T11:27:09.000Z</time>
      </trkpt>
      <trkpt lat="43.18479" lon="0.24384">
        <ele>260.87</ele>
        <time>2021-06-24T11:27:14.000Z</time>
      </trkpt>
      <trkpt lat="43.18486" lon="0.24391">
        <ele>260.7</ele>
        <time>2021-06-24T11:27:25.000Z</time>
      </trkpt>
      <trkpt lat="43.1848" lon="0.24407">
        <ele>260.43</ele>
        <time>2021-06-24T11:27:30.000Z</time>
      </trkpt>
      <trkpt lat="43.18481" lon="0.24439">
        <ele>260.2</ele>
        <time>2021-06-24T11:27:35.000Z</time>
      </trkpt>
      <trkpt lat="43.18488" lon="0.2447">
        <ele>259.93</ele>
        <time>2021-06-24T11:27:40.000Z</time>
      </trkpt>
      <trkpt lat="43.18494" lon="0.24496">
        <ele>259.61</ele>
        <time>2021-06-24T11:27:45.000Z</time>
      </trkpt>
      <trkpt lat="43.185" lon="0.24517">
        <ele>259.21</ele>
        <time>2021-06-24T11:27:50.000Z</time>
      </trkpt>
      <trkpt lat="43.18503" lon="0.24531">
        <ele>259.2</ele>
        <time>2021-06-24T11:27:55.000Z</time>
      </trkpt>
      <trkpt lat="43.18488" lon="0.24529">
        <ele>263.9</ele>
        <time>2021-06-24T11:29:04.000Z</time>
      </trkpt>
      <trkpt lat="43.1849" lon="0.24517">
        <ele>272.4</ele>
        <time>2021-06-24T11:30:28.000Z</time>
      </trkpt>
      <trkpt lat="43.18495" lon="0.24506">
        <ele>274.55</ele>
        <time>2021-06-24T11:33:02.000Z</time>
      </trkpt>
      <trkpt lat="43.18493" lon="0.24488">
        <ele>273.89</ele>
        <time>2021-06-24T11:33:07.000Z</time>
      </trkpt>
      <trkpt lat="43.18487" lon="0.24468">
        <ele>272.62</ele>
        <time>2021-06-24T11:33:12.000Z</time>
      </trkpt>
      <trkpt lat="43.18484" lon="0.24448">
        <ele>272</ele>
        <time>2021-06-24T11:33:17.000Z</time>
      </trkpt>
      <trkpt lat="43.18481" lon="0.24426">
        <ele>270.87</ele>
        <time>2021-06-24T11:33:22.000Z</time>
      </trkpt>
      <trkpt lat="43.18484" lon="0.24411">
        <ele>268.25</ele>
        <time>2021-06-24T11:33:27.000Z</time>
      </trkpt>
      <trkpt lat="43.18486" lon="0.24399">
        <ele>267.83</ele>
        <time>2021-06-24T11:33:33.000Z</time>
      </trkpt>
      <trkpt lat="43.18496" lon="0.24391">
        <ele>266.4</ele>
        <time>2021-06-24T11:33:50.000Z</time>
      </trkpt>
      <trkpt lat="43.18497" lon="0.24378">
        <ele>268.35</ele>
        <time>2021-06-24T11:34:26.000Z</time>
      </trkpt>
      <trkpt lat="43.18488" lon="0.2437">
        <ele>266.62</ele>
        <time>2021-06-24T11:34:56.000Z</time>
      </trkpt>
      <trkpt lat="43.18495" lon="0.24377">
        <ele>268.86</ele>
        <time>2021-06-24T11:35:53.000Z</time>
      </trkpt>
      <trkpt lat="43.18505" lon="0.24377">
        <ele>268.9</ele>
        <time>2021-06-24T11:36:19.000Z</time>
      </trkpt>
      <trkpt lat="43.18497" lon="0.24369">
        <ele>271.35</ele>
        <time>2021-06-24T11:38:05.000Z</time>
      </trkpt>
      <trkpt lat="43.18505" lon="0.24375">
        <ele>269.31</ele>
        <time>2021-06-24T11:38:59.000Z</time>
      </trkpt>
      <trkpt lat="43.18496" lon="0.24377">
        <ele>270.75</ele>
        <time>2021-06-24T11:39:19.000Z</time>
      </trkpt>
      <trkpt lat="43.18507" lon="0.24378">
        <ele>270.3</ele>
        <time>2021-06-24T11:40:54.000Z</time>
      </trkpt>
      <trkpt lat="43.18493" lon="0.24367">
        <ele>267.63</ele>
        <time>2021-06-24T11:41:36.000Z</time>
      </trkpt>
      <trkpt lat="43.18498" lon="0.24378">
        <ele>267.63</ele>
        <time>2021-06-24T11:42:15.000Z</time>
      </trkpt>
      <trkpt lat="43.18505" lon="0.24385">
        <ele>267.95</ele>
        <time>2021-06-24T11:43:30.000Z</time>
      </trkpt>
      <trkpt lat="43.18489" lon="0.24381">
        <ele>259.2</ele>
        <time>2021-06-24T11:46:48.000Z</time>
      </trkpt>
      <trkpt lat="43.18498" lon="0.24385">
        <ele>252.66</ele>
        <time>2021-06-24T11:47:53.000Z</time>
      </trkpt>
      <trkpt lat="43.18489" lon="0.24382">
        <ele>251.24</ele>
        <time>2021-06-24T11:50:50.000Z</time>
      </trkpt>
      <trkpt lat="43.18479" lon="0.24379">
        <ele>235.97</ele>
        <time>2021-06-24T11:57:08.000Z</time>
      </trkpt>
      <trkpt lat="43.18469" lon="0.24382">
        <ele>236.54</ele>
        <time>2021-06-24T11:57:13.000Z</time>
      </trkpt>
      <trkpt lat="43.18458" lon="0.24381">
        <ele>238.02</ele>
        <time>2021-06-24T11:57:18.000Z</time>
      </trkpt>
      <trkpt lat="43.1845" lon="0.24387">
        <ele>239.53</ele>
        <time>2021-06-24T11:57:24.000Z</time>
      </trkpt>
      <trkpt lat="43.18443" lon="0.24376">
        <ele>241.56</ele>
        <time>2021-06-24T11:57:36.000Z</time>
      </trkpt>
      <trkpt lat="43.18437" lon="0.24386">
        <ele>243.36</ele>
        <time>2021-06-24T11:57:44.000Z</time>
      </trkpt>
      <trkpt lat="43.18443" lon="0.24396">
        <ele>259.82</ele>
        <time>2021-06-24T12:00:42.000Z</time>
      </trkpt>
      <trkpt lat="43.18452" lon="0.24398">
        <ele>259.33</ele>
        <time>2021-06-24T12:00:58.000Z</time>
      </trkpt>
      <trkpt lat="43.18434" lon="0.24397">
        <ele>256.35</ele>
        <time>2021-06-24T12:02:12.000Z</time>
      </trkpt>
      <trkpt lat="43.18427" lon="0.24405">
        <ele>254.15</ele>
        <time>2021-06-24T12:02:46.000Z</time>
      </trkpt>
      <trkpt lat="43.18434" lon="0.24396">
        <ele>252.82</ele>
        <time>2021-06-24T12:03:34.000Z</time>
      </trkpt>
      <trkpt lat="43.18425" lon="0.24389">
        <ele>254.8</ele>
        <time>2021-06-24T12:06:56.000Z</time>
      </trkpt>
      <trkpt lat="43.18433" lon="0.24396">
        <ele>258.16</ele>
        <time>2021-06-24T12:07:40.000Z</time>
      </trkpt>
      <trkpt lat="43.18423" lon="0.24395">
        <ele>254.63</ele>
        <time>2021-06-24T12:12:13.000Z</time>
      </trkpt>
      <trkpt lat="43.18437" lon="0.24386">
        <ele>262.48</ele>
        <time>2021-06-24T12:15:09.000Z</time>
      </trkpt>
      <trkpt lat="43.18442" lon="0.24375">
        <ele>261.23</ele>
        <time>2021-06-24T12:16:11.000Z</time>
      </trkpt>
      <trkpt lat="43.18454" lon="0.24375">
        <ele>261.1</ele>
        <time>2021-06-24T12:16:16.000Z</time>
      </trkpt>
      <trkpt lat="43.1846" lon="0.24364">
        <ele>261.25</ele>
        <time>2021-06-24T12:16:24.000Z</time>
      </trkpt>
      <trkpt lat="43.18456" lon="0.24347">
        <ele>261.01</ele>
        <time>2021-06-24T12:16:29.000Z</time>
      </trkpt>
      <trkpt lat="43.18452" lon="0.24322">
        <ele>260.92</ele>
        <time>2021-06-24T12:16:34.000Z</time>
      </trkpt>
      <trkpt lat="43.18445" lon="0.24298">
        <ele>260.63</ele>
        <time>2021-06-24T12:16:39.000Z</time>
      </trkpt>
      <trkpt lat="43.1844" lon="0.24272">
        <ele>260.77</ele>
        <time>2021-06-24T12:16:44.000Z</time>
      </trkpt>
      <trkpt lat="43.18433" lon="0.24244">
        <ele>260.9</ele>
        <time>2021-06-24T12:16:49.000Z</time>
      </trkpt>
      <trkpt lat="43.18427" lon="0.24222">
        <ele>260.92</ele>
        <time>2021-06-24T12:16:54.000Z</time>
      </trkpt>
      <trkpt lat="43.18421" lon="0.242">
        <ele>261.29</ele>
        <time>2021-06-24T12:16:59.000Z</time>
      </trkpt>
      <trkpt lat="43.18417" lon="0.2418">
        <ele>261.34</ele>
        <time>2021-06-24T12:17:04.000Z</time>
      </trkpt>
      <trkpt lat="43.18413" lon="0.24161">
        <ele>261.13</ele>
        <time>2021-06-24T12:17:09.000Z</time>
      </trkpt>
      <trkpt lat="43.1841" lon="0.24141">
        <ele>261.32</ele>
        <time>2021-06-24T12:17:14.000Z</time>
      </trkpt>
      <trkpt lat="43.18408" lon="0.24122">
        <ele>260.92</ele>
        <time>2021-06-24T12:17:19.000Z</time>
      </trkpt>
      <trkpt lat="43.18404" lon="0.24102">
        <ele>260.55</ele>
        <time>2021-06-24T12:17:24.000Z</time>
      </trkpt>
      <trkpt lat="43.18406" lon="0.24071">
        <ele>259.87</ele>
        <time>2021-06-24T12:17:29.000Z</time>
      </trkpt>
      <trkpt lat="43.18421" lon="0.24044">
        <ele>260.42</ele>
        <time>2021-06-24T12:17:34.000Z</time>
      </trkpt>
      <trkpt lat="43.18441" lon="0.24018">
        <ele>258.16</ele>
        <time>2021-06-24T12:17:39.000Z</time>
      </trkpt>
      <trkpt lat="43.18459" lon="0.23992">
        <ele>256.69</ele>
        <time>2021-06-24T12:17:44.000Z</time>
      </trkpt>
      <trkpt lat="43.18477" lon="0.23968">
        <ele>255.72</ele>
        <time>2021-06-24T12:17:49.000Z</time>
      </trkpt>
      <trkpt lat="43.18494" lon="0.23945">
        <ele>253.53</ele>
        <time>2021-06-24T12:17:54.000Z</time>
      </trkpt>
      <trkpt lat="43.18513" lon="0.2392">
        <ele>252.93</ele>
        <time>2021-06-24T12:17:59.000Z</time>
      </trkpt>
      <trkpt lat="43.18531" lon="0.23895">
        <ele>252.87</ele>
        <time>2021-06-24T12:18:04.000Z</time>
      </trkpt>
      <trkpt lat="43.18551" lon="0.2387">
        <ele>252.73</ele>
        <time>2021-06-24T12:18:09.000Z</time>
      </trkpt>
      <trkpt lat="43.18571" lon="0.23845">
        <ele>252.97</ele>
        <time>2021-06-24T12:18:14.000Z</time>
      </trkpt>
      <trkpt lat="43.1859" lon="0.23819">
        <ele>254</ele>
        <time>2021-06-24T12:18:19.000Z</time>
      </trkpt>
      <trkpt lat="43.18609" lon="0.23793">
        <ele>253.4</ele>
        <time>2021-06-24T12:18:24.000Z</time>
      </trkpt>
      <trkpt lat="43.18628" lon="0.23768">
        <ele>253.64</ele>
        <time>2021-06-24T12:18:29.000Z</time>
      </trkpt>
      <trkpt lat="43.18647" lon="0.23743">
        <ele>255.1</ele>
        <time>2021-06-24T12:18:34.000Z</time>
      </trkpt>
      <trkpt lat="43.18664" lon="0.23719">
        <ele>254.92</ele>
        <time>2021-06-24T12:18:39.000Z</time>
      </trkpt>
      <trkpt lat="43.18683" lon="0.23695">
        <ele>253.61</ele>
        <time>2021-06-24T12:18:44.000Z</time>
      </trkpt>
      <trkpt lat="43.18701" lon="0.23671">
        <ele>253.45</ele>
        <time>2021-06-24T12:18:49.000Z</time>
      </trkpt>
      <trkpt lat="43.18722" lon="0.23647">
        <ele>254.83</ele>
        <time>2021-06-24T12:18:54.000Z</time>
      </trkpt>
      <trkpt lat="43.18739" lon="0.23625">
        <ele>256.27</ele>
        <time>2021-06-24T12:18:59.000Z</time>
      </trkpt>
      <trkpt lat="43.18757" lon="0.236">
        <ele>255.69</ele>
        <time>2021-06-24T12:19:04.000Z</time>
      </trkpt>
      <trkpt lat="43.18775" lon="0.23577">
        <ele>254.22</ele>
        <time>2021-06-24T12:19:09.000Z</time>
      </trkpt>
      <trkpt lat="43.18793" lon="0.23553">
        <ele>253.53</ele>
        <time>2021-06-24T12:19:14.000Z</time>
      </trkpt>
      <trkpt lat="43.18811" lon="0.23529">
        <ele>252.95</ele>
        <time>2021-06-24T12:19:19.000Z</time>
      </trkpt>
      <trkpt lat="43.18829" lon="0.23505">
        <ele>251.74</ele>
        <time>2021-06-24T12:19:24.000Z</time>
      </trkpt>
      <trkpt lat="43.18848" lon="0.23482">
        <ele>251.79</ele>
        <time>2021-06-24T12:19:29.000Z</time>
      </trkpt>
      <trkpt lat="43.18866" lon="0.23458">
        <ele>250.06</ele>
        <time>2021-06-24T12:19:34.000Z</time>
      </trkpt>
      <trkpt lat="43.18885" lon="0.23434">
        <ele>249.81</ele>
        <time>2021-06-24T12:19:39.000Z</time>
      </trkpt>
      <trkpt lat="43.189" lon="0.23411">
        <ele>251.2</ele>
        <time>2021-06-24T12:19:44.000Z</time>
      </trkpt>
      <trkpt lat="43.18915" lon="0.2339">
        <ele>250.17</ele>
        <time>2021-06-24T12:19:49.000Z</time>
      </trkpt>
      <trkpt lat="43.18929" lon="0.2337">
        <ele>250.02</ele>
        <time>2021-06-24T12:19:54.000Z</time>
      </trkpt>
      <trkpt lat="43.18945" lon="0.23349">
        <ele>250.59</ele>
        <time>2021-06-24T12:19:59.000Z</time>
      </trkpt>
      <trkpt lat="43.18962" lon="0.23328">
        <ele>251.51</ele>
        <time>2021-06-24T12:20:04.000Z</time>
      </trkpt>
      <trkpt lat="43.18978" lon="0.23306">
        <ele>252.02</ele>
        <time>2021-06-24T12:20:09.000Z</time>
      </trkpt>
      <trkpt lat="43.18992" lon="0.23284">
        <ele>252.17</ele>
        <time>2021-06-24T12:20:14.000Z</time>
      </trkpt>
      <trkpt lat="43.1901" lon="0.23261">
        <ele>252.35</ele>
        <time>2021-06-24T12:20:19.000Z</time>
      </trkpt>
      <trkpt lat="43.19032" lon="0.23236">
        <ele>252.35</ele>
        <time>2021-06-24T12:20:24.000Z</time>
      </trkpt>
      <trkpt lat="43.19052" lon="0.23213">
        <ele>252.22</ele>
        <time>2021-06-24T12:20:29.000Z</time>
      </trkpt>
      <trkpt lat="43.19068" lon="0.2319">
        <ele>251.62</ele>
        <time>2021-06-24T12:20:34.000Z</time>
      </trkpt>
      <trkpt lat="43.19087" lon="0.23166">
        <ele>251.62</ele>
        <time>2021-06-24T12:20:39.000Z</time>
      </trkpt>
      <trkpt lat="43.19104" lon="0.23142">
        <ele>251.58</ele>
        <time>2021-06-24T12:20:44.000Z</time>
      </trkpt>
      <trkpt lat="43.1912" lon="0.23119">
        <ele>252.05</ele>
        <time>2021-06-24T12:20:49.000Z</time>
      </trkpt>
      <trkpt lat="43.19139" lon="0.23094">
        <ele>252.56</ele>
        <time>2021-06-24T12:20:54.000Z</time>
      </trkpt>
      <trkpt lat="43.19158" lon="0.23069">
        <ele>253.51</ele>
        <time>2021-06-24T12:20:59.000Z</time>
      </trkpt>
      <trkpt lat="43.19174" lon="0.23048">
        <ele>253.88</ele>
        <time>2021-06-24T12:21:04.000Z</time>
      </trkpt>
      <trkpt lat="43.19189" lon="0.23027">
        <ele>254.06</ele>
        <time>2021-06-24T12:21:09.000Z</time>
      </trkpt>
      <trkpt lat="43.19207" lon="0.23006">
        <ele>254.14</ele>
        <time>2021-06-24T12:21:14.000Z</time>
      </trkpt>
      <trkpt lat="43.19222" lon="0.22984">
        <ele>254.88</ele>
        <time>2021-06-24T12:21:19.000Z</time>
      </trkpt>
      <trkpt lat="43.19239" lon="0.22962">
        <ele>255.65</ele>
        <time>2021-06-24T12:21:24.000Z</time>
      </trkpt>
      <trkpt lat="43.19255" lon="0.2294">
        <ele>256.63</ele>
        <time>2021-06-24T12:21:29.000Z</time>
      </trkpt>
      <trkpt lat="43.19274" lon="0.22917">
        <ele>256.28</ele>
        <time>2021-06-24T12:21:34.000Z</time>
      </trkpt>
      <trkpt lat="43.19293" lon="0.22892">
        <ele>256.82</ele>
        <time>2021-06-24T12:21:39.000Z</time>
      </trkpt>
      <trkpt lat="43.19311" lon="0.22868">
        <ele>256.15</ele>
        <time>2021-06-24T12:21:44.000Z</time>
      </trkpt>
      <trkpt lat="43.19328" lon="0.22845">
        <ele>256.36</ele>
        <time>2021-06-24T12:21:49.000Z</time>
      </trkpt>
      <trkpt lat="43.19344" lon="0.22823">
        <ele>255.74</ele>
        <time>2021-06-24T12:21:54.000Z</time>
      </trkpt>
      <trkpt lat="43.19361" lon="0.22802">
        <ele>254.63</ele>
        <time>2021-06-24T12:21:59.000Z</time>
      </trkpt>
      <trkpt lat="43.19376" lon="0.22781">
        <ele>254.67</ele>
        <time>2021-06-24T12:22:04.000Z</time>
      </trkpt>
      <trkpt lat="43.19392" lon="0.22759">
        <ele>254.79</ele>
        <time>2021-06-24T12:22:09.000Z</time>
      </trkpt>
      <trkpt lat="43.19408" lon="0.22738">
        <ele>255.17</ele>
        <time>2021-06-24T12:22:14.000Z</time>
      </trkpt>
      <trkpt lat="43.19425" lon="0.22719">
        <ele>254.96</ele>
        <time>2021-06-24T12:22:19.000Z</time>
      </trkpt>
      <trkpt lat="43.1944" lon="0.22698">
        <ele>254.51</ele>
        <time>2021-06-24T12:22:24.000Z</time>
      </trkpt>
      <trkpt lat="43.19454" lon="0.22677">
        <ele>253.95</ele>
        <time>2021-06-24T12:22:29.000Z</time>
      </trkpt>
      <trkpt lat="43.1947" lon="0.22657">
        <ele>254.47</ele>
        <time>2021-06-24T12:22:34.000Z</time>
      </trkpt>
      <trkpt lat="43.19483" lon="0.22638">
        <ele>254.7</ele>
        <time>2021-06-24T12:22:39.000Z</time>
      </trkpt>
      <trkpt lat="43.19496" lon="0.22622">
        <ele>255.01</ele>
        <time>2021-06-24T12:22:44.000Z</time>
      </trkpt>
      <trkpt lat="43.19508" lon="0.22607">
        <ele>255.63</ele>
        <time>2021-06-24T12:22:49.000Z</time>
      </trkpt>
      <trkpt lat="43.19522" lon="0.22591">
        <ele>256.11</ele>
        <time>2021-06-24T12:22:54.000Z</time>
      </trkpt>
      <trkpt lat="43.19531" lon="0.22577">
        <ele>255.73</ele>
        <time>2021-06-24T12:22:59.000Z</time>
      </trkpt>
      <trkpt lat="43.1954" lon="0.22564">
        <ele>256.21</ele>
        <time>2021-06-24T12:23:04.000Z</time>
      </trkpt>
      <trkpt lat="43.1955" lon="0.22549">
        <ele>256.7</ele>
        <time>2021-06-24T12:23:09.000Z</time>
      </trkpt>
      <trkpt lat="43.19563" lon="0.22534">
        <ele>259.49</ele>
        <time>2021-06-24T12:23:14.000Z</time>
      </trkpt>
      <trkpt lat="43.19574" lon="0.22517">
        <ele>263.13</ele>
        <time>2021-06-24T12:23:19.000Z</time>
      </trkpt>
      <trkpt lat="43.19585" lon="0.22501">
        <ele>265.46</ele>
        <time>2021-06-24T12:23:24.000Z</time>
      </trkpt>
      <trkpt lat="43.19598" lon="0.22486">
        <ele>266.95</ele>
        <time>2021-06-24T12:23:29.000Z</time>
      </trkpt>
      <trkpt lat="43.19609" lon="0.22473">
        <ele>268.54</ele>
        <time>2021-06-24T12:23:34.000Z</time>
      </trkpt>
      <trkpt lat="43.19621" lon="0.22458">
        <ele>270.29</ele>
        <time>2021-06-24T12:23:39.000Z</time>
      </trkpt>
      <trkpt lat="43.1963" lon="0.22445">
        <ele>268.96</ele>
        <time>2021-06-24T12:23:44.000Z</time>
      </trkpt>
      <trkpt lat="43.1964" lon="0.2243">
        <ele>267.71</ele>
        <time>2021-06-24T12:23:49.000Z</time>
      </trkpt>
      <trkpt lat="43.19652" lon="0.22415">
        <ele>268.65</ele>
        <time>2021-06-24T12:23:54.000Z</time>
      </trkpt>
      <trkpt lat="43.19664" lon="0.224">
        <ele>268.01</ele>
        <time>2021-06-24T12:23:59.000Z</time>
      </trkpt>
      <trkpt lat="43.19677" lon="0.22383">
        <ele>266.87</ele>
        <time>2021-06-24T12:24:04.000Z</time>
      </trkpt>
      <trkpt lat="43.1969" lon="0.22367">
        <ele>266.68</ele>
        <time>2021-06-24T12:24:09.000Z</time>
      </trkpt>
      <trkpt lat="43.19702" lon="0.22352">
        <ele>266.29</ele>
        <time>2021-06-24T12:24:14.000Z</time>
      </trkpt>
      <trkpt lat="43.19715" lon="0.22338">
        <ele>267.57</ele>
        <time>2021-06-24T12:24:19.000Z</time>
      </trkpt>
      <trkpt lat="43.19728" lon="0.22326">
        <ele>266.92</ele>
        <time>2021-06-24T12:24:24.000Z</time>
      </trkpt>
      <trkpt lat="43.19741" lon="0.22316">
        <ele>266.31</ele>
        <time>2021-06-24T12:24:29.000Z</time>
      </trkpt>
      <trkpt lat="43.19754" lon="0.22308">
        <ele>264.33</ele>
        <time>2021-06-24T12:24:34.000Z</time>
      </trkpt>
      <trkpt lat="43.19767" lon="0.22298">
        <ele>264.74</ele>
        <time>2021-06-24T12:24:39.000Z</time>
      </trkpt>
      <trkpt lat="43.19781" lon="0.22289">
        <ele>265.77</ele>
        <time>2021-06-24T12:24:44.000Z</time>
      </trkpt>
      <trkpt lat="43.19796" lon="0.22282">
        <ele>266.39</ele>
        <time>2021-06-24T12:24:49.000Z</time>
      </trkpt>
      <trkpt lat="43.19811" lon="0.22272">
        <ele>267.49</ele>
        <time>2021-06-24T12:24:54.000Z</time>
      </trkpt>
      <trkpt lat="43.19828" lon="0.22262">
        <ele>269.1</ele>
        <time>2021-06-24T12:24:59.000Z</time>
      </trkpt>
      <trkpt lat="43.19843" lon="0.22252">
        <ele>270.19</ele>
        <time>2021-06-24T12:25:04.000Z</time>
      </trkpt>
      <trkpt lat="43.19858" lon="0.2224">
        <ele>271.77</ele>
        <time>2021-06-24T12:25:09.000Z</time>
      </trkpt>
      <trkpt lat="43.19874" lon="0.22228">
        <ele>272.17</ele>
        <time>2021-06-24T12:25:14.000Z</time>
      </trkpt>
      <trkpt lat="43.19888" lon="0.22219">
        <ele>271.13</ele>
        <time>2021-06-24T12:25:19.000Z</time>
      </trkpt>
      <trkpt lat="43.19903" lon="0.22209">
        <ele>270.66</ele>
        <time>2021-06-24T12:25:24.000Z</time>
      </trkpt>
      <trkpt lat="43.19919" lon="0.222">
        <ele>269.8</ele>
        <time>2021-06-24T12:25:29.000Z</time>
      </trkpt>
      <trkpt lat="43.19936" lon="0.22188">
        <ele>269.34</ele>
        <time>2021-06-24T12:25:34.000Z</time>
      </trkpt>
      <trkpt lat="43.19957" lon="0.22176">
        <ele>268.11</ele>
        <time>2021-06-24T12:25:39.000Z</time>
      </trkpt>
      <trkpt lat="43.19975" lon="0.22164">
        <ele>267.88</ele>
        <time>2021-06-24T12:25:44.000Z</time>
      </trkpt>
      <trkpt lat="43.19995" lon="0.2215">
        <ele>267.37</ele>
        <time>2021-06-24T12:25:49.000Z</time>
      </trkpt>
      <trkpt lat="43.20013" lon="0.22137">
        <ele>268.33</ele>
        <time>2021-06-24T12:25:54.000Z</time>
      </trkpt>
      <trkpt lat="43.20032" lon="0.22125">
        <ele>269.8</ele>
        <time>2021-06-24T12:25:59.000Z</time>
      </trkpt>
      <trkpt lat="43.20052" lon="0.22113">
        <ele>269.55</ele>
        <time>2021-06-24T12:26:04.000Z</time>
      </trkpt>
      <trkpt lat="43.2007" lon="0.22101">
        <ele>267.3</ele>
        <time>2021-06-24T12:26:09.000Z</time>
      </trkpt>
      <trkpt lat="43.20087" lon="0.22089">
        <ele>267.45</ele>
        <time>2021-06-24T12:26:14.000Z</time>
      </trkpt>
      <trkpt lat="43.20103" lon="0.22078">
        <ele>267.55</ele>
        <time>2021-06-24T12:26:19.000Z</time>
      </trkpt>
      <trkpt lat="43.2012" lon="0.22067">
        <ele>267.77</ele>
        <time>2021-06-24T12:26:24.000Z</time>
      </trkpt>
      <trkpt lat="43.20137" lon="0.22057">
        <ele>268.78</ele>
        <time>2021-06-24T12:26:29.000Z</time>
      </trkpt>
      <trkpt lat="43.20155" lon="0.22045">
        <ele>270.35</ele>
        <time>2021-06-24T12:26:34.000Z</time>
      </trkpt>
      <trkpt lat="43.20175" lon="0.22032">
        <ele>272.04</ele>
        <time>2021-06-24T12:26:39.000Z</time>
      </trkpt>
      <trkpt lat="43.20197" lon="0.22021">
        <ele>273.39</ele>
        <time>2021-06-24T12:26:44.000Z</time>
      </trkpt>
      <trkpt lat="43.20219" lon="0.22011">
        <ele>274.11</ele>
        <time>2021-06-24T12:26:49.000Z</time>
      </trkpt>
      <trkpt lat="43.20242" lon="0.22001">
        <ele>274.01</ele>
        <time>2021-06-24T12:26:54.000Z</time>
      </trkpt>
      <trkpt lat="43.20263" lon="0.21991">
        <ele>273.73</ele>
        <time>2021-06-24T12:26:59.000Z</time>
      </trkpt>
      <trkpt lat="43.20283" lon="0.21982">
        <ele>272.87</ele>
        <time>2021-06-24T12:27:04.000Z</time>
      </trkpt>
      <trkpt lat="43.20308" lon="0.21968">
        <ele>271.42</ele>
        <time>2021-06-24T12:27:09.000Z</time>
      </trkpt>
      <trkpt lat="43.20331" lon="0.21958">
        <ele>270.69</ele>
        <time>2021-06-24T12:27:14.000Z</time>
      </trkpt>
      <trkpt lat="43.20353" lon="0.21948">
        <ele>271.1</ele>
        <time>2021-06-24T12:27:19.000Z</time>
      </trkpt>
      <trkpt lat="43.20376" lon="0.21937">
        <ele>270.39</ele>
        <time>2021-06-24T12:27:24.000Z</time>
      </trkpt>
      <trkpt lat="43.20398" lon="0.21927">
        <ele>270.05</ele>
        <time>2021-06-24T12:27:29.000Z</time>
      </trkpt>
      <trkpt lat="43.20421" lon="0.21915">
        <ele>268.72</ele>
        <time>2021-06-24T12:27:34.000Z</time>
      </trkpt>
      <trkpt lat="43.2044" lon="0.21906">
        <ele>268.07</ele>
        <time>2021-06-24T12:27:39.000Z</time>
      </trkpt>
      <trkpt lat="43.20454" lon="0.21894">
        <ele>270.29</ele>
        <time>2021-06-24T12:27:44.000Z</time>
      </trkpt>
      <trkpt lat="43.20472" lon="0.2188">
        <ele>271.16</ele>
        <time>2021-06-24T12:27:49.000Z</time>
      </trkpt>
      <trkpt lat="43.20487" lon="0.21868">
        <ele>272.01</ele>
        <time>2021-06-24T12:27:54.000Z</time>
      </trkpt>
      <trkpt lat="43.20501" lon="0.21858">
        <ele>273.64</ele>
        <time>2021-06-24T12:27:59.000Z</time>
      </trkpt>
      <trkpt lat="43.20512" lon="0.21849">
        <ele>273.85</ele>
        <time>2021-06-24T12:28:04.000Z</time>
      </trkpt>
      <trkpt lat="43.20527" lon="0.21838">
        <ele>273.49</ele>
        <time>2021-06-24T12:28:09.000Z</time>
      </trkpt>
      <trkpt lat="43.20542" lon="0.21827">
        <ele>272.61</ele>
        <time>2021-06-24T12:28:14.000Z</time>
      </trkpt>
      <trkpt lat="43.20556" lon="0.21816">
        <ele>273.43</ele>
        <time>2021-06-24T12:28:19.000Z</time>
      </trkpt>
      <trkpt lat="43.2057" lon="0.21806">
        <ele>274.54</ele>
        <time>2021-06-24T12:28:24.000Z</time>
      </trkpt>
      <trkpt lat="43.20585" lon="0.21797">
        <ele>276.2</ele>
        <time>2021-06-24T12:28:29.000Z</time>
      </trkpt>
      <trkpt lat="43.20599" lon="0.21786">
        <ele>277.99</ele>
        <time>2021-06-24T12:28:34.000Z</time>
      </trkpt>
      <trkpt lat="43.20612" lon="0.21774">
        <ele>279.23</ele>
        <time>2021-06-24T12:28:39.000Z</time>
      </trkpt>
      <trkpt lat="43.20625" lon="0.21761">
        <ele>280.58</ele>
        <time>2021-06-24T12:28:44.000Z</time>
      </trkpt>
      <trkpt lat="43.2064" lon="0.21745">
        <ele>281.19</ele>
        <time>2021-06-24T12:28:49.000Z</time>
      </trkpt>
      <trkpt lat="43.2066" lon="0.21726">
        <ele>280.75</ele>
        <time>2021-06-24T12:28:54.000Z</time>
      </trkpt>
      <trkpt lat="43.20682" lon="0.21704">
        <ele>277.48</ele>
        <time>2021-06-24T12:28:59.000Z</time>
      </trkpt>
      <trkpt lat="43.20704" lon="0.21678">
        <ele>277</ele>
        <time>2021-06-24T12:29:04.000Z</time>
      </trkpt>
      <trkpt lat="43.20726" lon="0.21647">
        <ele>276.19</ele>
        <time>2021-06-24T12:29:09.000Z</time>
      </trkpt>
      <trkpt lat="43.20748" lon="0.21612">
        <ele>276.15</ele>
        <time>2021-06-24T12:29:14.000Z</time>
      </trkpt>
      <trkpt lat="43.20765" lon="0.21575">
        <ele>275.17</ele>
        <time>2021-06-24T12:29:19.000Z</time>
      </trkpt>
      <trkpt lat="43.2078" lon="0.21539">
        <ele>274.83</ele>
        <time>2021-06-24T12:29:24.000Z</time>
      </trkpt>
      <trkpt lat="43.20791" lon="0.21507">
        <ele>275.78</ele>
        <time>2021-06-24T12:29:29.000Z</time>
      </trkpt>
      <trkpt lat="43.208" lon="0.2148">
        <ele>276.94</ele>
        <time>2021-06-24T12:29:34.000Z</time>
      </trkpt>
      <trkpt lat="43.20807" lon="0.21455">
        <ele>277.92</ele>
        <time>2021-06-24T12:29:39.000Z</time>
      </trkpt>
      <trkpt lat="43.20813" lon="0.21429">
        <ele>279.21</ele>
        <time>2021-06-24T12:29:44.000Z</time>
      </trkpt>
      <trkpt lat="43.20815" lon="0.21402">
        <ele>279.87</ele>
        <time>2021-06-24T12:29:49.000Z</time>
      </trkpt>
      <trkpt lat="43.2082" lon="0.21378">
        <ele>280.74</ele>
        <time>2021-06-24T12:29:54.000Z</time>
      </trkpt>
      <trkpt lat="43.20822" lon="0.21354">
        <ele>281.04</ele>
        <time>2021-06-24T12:29:59.000Z</time>
      </trkpt>
      <trkpt lat="43.20821" lon="0.21328">
        <ele>281.08</ele>
        <time>2021-06-24T12:30:04.000Z</time>
      </trkpt>
      <trkpt lat="43.20821" lon="0.21304">
        <ele>282.2</ele>
        <time>2021-06-24T12:30:09.000Z</time>
      </trkpt>
      <trkpt lat="43.20823" lon="0.2128">
        <ele>284.08</ele>
        <time>2021-06-24T12:30:14.000Z</time>
      </trkpt>
      <trkpt lat="43.20824" lon="0.21256">
        <ele>284.36</ele>
        <time>2021-06-24T12:30:19.000Z</time>
      </trkpt>
      <trkpt lat="43.20823" lon="0.21239">
        <ele>284.93</ele>
        <time>2021-06-24T12:30:24.000Z</time>
      </trkpt>
      <trkpt lat="43.20824" lon="0.21226">
        <ele>291.21</ele>
        <time>2021-06-24T12:31:14.000Z</time>
      </trkpt>
      <trkpt lat="43.20822" lon="0.21201">
        <ele>290.61</ele>
        <time>2021-06-24T12:31:19.000Z</time>
      </trkpt>
      <trkpt lat="43.20822" lon="0.21178">
        <ele>290.73</ele>
        <time>2021-06-24T12:31:24.000Z</time>
      </trkpt>
      <trkpt lat="43.2082" lon="0.21153">
        <ele>291.47</ele>
        <time>2021-06-24T12:31:29.000Z</time>
      </trkpt>
      <trkpt lat="43.20818" lon="0.21129">
        <ele>291.32</ele>
        <time>2021-06-24T12:31:34.000Z</time>
      </trkpt>
      <trkpt lat="43.20819" lon="0.21105">
        <ele>290.02</ele>
        <time>2021-06-24T12:31:39.000Z</time>
      </trkpt>
      <trkpt lat="43.20818" lon="0.21081">
        <ele>290.31</ele>
        <time>2021-06-24T12:31:44.000Z</time>
      </trkpt>
      <trkpt lat="43.2082" lon="0.21054">
        <ele>289.94</ele>
        <time>2021-06-24T12:31:49.000Z</time>
      </trkpt>
      <trkpt lat="43.20819" lon="0.2103">
        <ele>289.64</ele>
        <time>2021-06-24T12:31:54.000Z</time>
      </trkpt>
      <trkpt lat="43.20818" lon="0.21004">
        <ele>289.81</ele>
        <time>2021-06-24T12:31:59.000Z</time>
      </trkpt>
      <trkpt lat="43.20816" lon="0.2098">
        <ele>291.48</ele>
        <time>2021-06-24T12:32:04.000Z</time>
      </trkpt>
      <trkpt lat="43.20815" lon="0.20955">
        <ele>295.32</ele>
        <time>2021-06-24T12:32:09.000Z</time>
      </trkpt>
      <trkpt lat="43.20814" lon="0.20931">
        <ele>297.42</ele>
        <time>2021-06-24T12:32:14.000Z</time>
      </trkpt>
      <trkpt lat="43.20815" lon="0.20907">
        <ele>298.76</ele>
        <time>2021-06-24T12:32:19.000Z</time>
      </trkpt>
      <trkpt lat="43.20813" lon="0.20884">
        <ele>301.53</ele>
        <time>2021-06-24T12:32:24.000Z</time>
      </trkpt>
      <trkpt lat="43.2081" lon="0.20862">
        <ele>303.04</ele>
        <time>2021-06-24T12:32:29.000Z</time>
      </trkpt>
      <trkpt lat="43.20808" lon="0.2084">
        <ele>304.27</ele>
        <time>2021-06-24T12:32:34.000Z</time>
      </trkpt>
      <trkpt lat="43.20809" lon="0.2082">
        <ele>305.48</ele>
        <time>2021-06-24T12:32:39.000Z</time>
      </trkpt>
      <trkpt lat="43.20808" lon="0.20799">
        <ele>305.96</ele>
        <time>2021-06-24T12:32:44.000Z</time>
      </trkpt>
      <trkpt lat="43.20804" lon="0.20779">
        <ele>306.42</ele>
        <time>2021-06-24T12:32:49.000Z</time>
      </trkpt>
      <trkpt lat="43.20803" lon="0.2076">
        <ele>306.95</ele>
        <time>2021-06-24T12:32:54.000Z</time>
      </trkpt>
      <trkpt lat="43.20804" lon="0.2074">
        <ele>307.43</ele>
        <time>2021-06-24T12:32:59.000Z</time>
      </trkpt>
      <trkpt lat="43.20805" lon="0.20721">
        <ele>305.33</ele>
        <time>2021-06-24T12:33:04.000Z</time>
      </trkpt>
      <trkpt lat="43.20805" lon="0.20704">
        <ele>303.66</ele>
        <time>2021-06-24T12:33:09.000Z</time>
      </trkpt>
      <trkpt lat="43.20803" lon="0.20687">
        <ele>303.03</ele>
        <time>2021-06-24T12:33:14.000Z</time>
      </trkpt>
      <trkpt lat="43.20804" lon="0.20666">
        <ele>300.73</ele>
        <time>2021-06-24T12:33:19.000Z</time>
      </trkpt>
      <trkpt lat="43.20805" lon="0.20647">
        <ele>300.01</ele>
        <time>2021-06-24T12:33:24.000Z</time>
      </trkpt>
      <trkpt lat="43.20805" lon="0.20628">
        <ele>300.43</ele>
        <time>2021-06-24T12:33:29.000Z</time>
      </trkpt>
      <trkpt lat="43.20805" lon="0.20609">
        <ele>300.22</ele>
        <time>2021-06-24T12:33:34.000Z</time>
      </trkpt>
      <trkpt lat="43.20804" lon="0.20589">
        <ele>302.29</ele>
        <time>2021-06-24T12:33:39.000Z</time>
      </trkpt>
      <trkpt lat="43.20804" lon="0.20569">
        <ele>304.76</ele>
        <time>2021-06-24T12:33:44.000Z</time>
      </trkpt>
      <trkpt lat="43.20804" lon="0.2055">
        <ele>305.76</ele>
        <time>2021-06-24T12:33:49.000Z</time>
      </trkpt>
      <trkpt lat="43.20804" lon="0.20532">
        <ele>305.67</ele>
        <time>2021-06-24T12:33:54.000Z</time>
      </trkpt>
      <trkpt lat="43.20804" lon="0.20512">
        <ele>306.18</ele>
        <time>2021-06-24T12:33:59.000Z</time>
      </trkpt>
      <trkpt lat="43.20804" lon="0.20494">
        <ele>308.08</ele>
        <time>2021-06-24T12:34:04.000Z</time>
      </trkpt>
      <trkpt lat="43.20803" lon="0.20474">
        <ele>310.86</ele>
        <time>2021-06-24T12:34:09.000Z</time>
      </trkpt>
      <trkpt lat="43.20802" lon="0.20455">
        <ele>313.09</ele>
        <time>2021-06-24T12:34:14.000Z</time>
      </trkpt>
      <trkpt lat="43.20802" lon="0.20437">
        <ele>313.99</ele>
        <time>2021-06-24T12:34:19.000Z</time>
      </trkpt>
      <trkpt lat="43.20801" lon="0.20419">
        <ele>313.15</ele>
        <time>2021-06-24T12:34:24.000Z</time>
      </trkpt>
      <trkpt lat="43.20799" lon="0.204">
        <ele>313.44</ele>
        <time>2021-06-24T12:34:29.000Z</time>
      </trkpt>
      <trkpt lat="43.20799" lon="0.20381">
        <ele>313.92</ele>
        <time>2021-06-24T12:34:34.000Z</time>
      </trkpt>
      <trkpt lat="43.208" lon="0.20366">
        <ele>311.68</ele>
        <time>2021-06-24T12:34:39.000Z</time>
      </trkpt>
      <trkpt lat="43.208" lon="0.2035">
        <ele>309.53</ele>
        <time>2021-06-24T12:34:44.000Z</time>
      </trkpt>
      <trkpt lat="43.208" lon="0.20332">
        <ele>310.71</ele>
        <time>2021-06-24T12:34:49.000Z</time>
      </trkpt>
      <trkpt lat="43.20797" lon="0.20314">
        <ele>311.65</ele>
        <time>2021-06-24T12:34:54.000Z</time>
      </trkpt>
      <trkpt lat="43.20788" lon="0.20295">
        <ele>311.27</ele>
        <time>2021-06-24T12:34:59.000Z</time>
      </trkpt>
      <trkpt lat="43.20773" lon="0.20277">
        <ele>311.5</ele>
        <time>2021-06-24T12:35:04.000Z</time>
      </trkpt>
      <trkpt lat="43.20753" lon="0.20265">
        <ele>310.87</ele>
        <time>2021-06-24T12:35:09.000Z</time>
      </trkpt>
      <trkpt lat="43.20731" lon="0.20253">
        <ele>311.13</ele>
        <time>2021-06-24T12:35:14.000Z</time>
      </trkpt>
      <trkpt lat="43.20712" lon="0.20236">
        <ele>312.31</ele>
        <time>2021-06-24T12:35:19.000Z</time>
      </trkpt>
      <trkpt lat="43.20698" lon="0.20215">
        <ele>312.93</ele>
        <time>2021-06-24T12:35:24.000Z</time>
      </trkpt>
      <trkpt lat="43.20685" lon="0.20199">
        <ele>313.16</ele>
        <time>2021-06-24T12:35:29.000Z</time>
      </trkpt>
      <trkpt lat="43.20674" lon="0.20185">
        <ele>314.35</ele>
        <time>2021-06-24T12:35:34.000Z</time>
      </trkpt>
      <trkpt lat="43.20662" lon="0.20166">
        <ele>315.08</ele>
        <time>2021-06-24T12:35:39.000Z</time>
      </trkpt>
      <trkpt lat="43.20652" lon="0.20148">
        <ele>315.28</ele>
        <time>2021-06-24T12:35:44.000Z</time>
      </trkpt>
      <trkpt lat="43.20641" lon="0.20134">
        <ele>316.26</ele>
        <time>2021-06-24T12:35:49.000Z</time>
      </trkpt>
      <trkpt lat="43.2063" lon="0.2012">
        <ele>315.33</ele>
        <time>2021-06-24T12:35:54.000Z</time>
      </trkpt>
      <trkpt lat="43.20619" lon="0.20105">
        <ele>315.57</ele>
        <time>2021-06-24T12:35:59.000Z</time>
      </trkpt>
      <trkpt lat="43.20607" lon="0.20086">
        <ele>317.24</ele>
        <time>2021-06-24T12:36:04.000Z</time>
      </trkpt>
      <trkpt lat="43.20597" lon="0.2007">
        <ele>319.32</ele>
        <time>2021-06-24T12:36:09.000Z</time>
      </trkpt>
      <trkpt lat="43.2059" lon="0.20053">
        <ele>319.55</ele>
        <time>2021-06-24T12:36:14.000Z</time>
      </trkpt>
      <trkpt lat="43.20581" lon="0.20041">
        <ele>321.05</ele>
        <time>2021-06-24T12:36:19.000Z</time>
      </trkpt>
      <trkpt lat="43.20571" lon="0.20028">
        <ele>322.72</ele>
        <time>2021-06-24T12:36:24.000Z</time>
      </trkpt>
      <trkpt lat="43.20562" lon="0.20012">
        <ele>323.43</ele>
        <time>2021-06-24T12:36:29.000Z</time>
      </trkpt>
      <trkpt lat="43.20551" lon="0.19999">
        <ele>322.33</ele>
        <time>2021-06-24T12:36:34.000Z</time>
      </trkpt>
      <trkpt lat="43.20542" lon="0.19989">
        <ele>320.78</ele>
        <time>2021-06-24T12:36:39.000Z</time>
      </trkpt>
      <trkpt lat="43.20531" lon="0.19981">
        <ele>320.35</ele>
        <time>2021-06-24T12:36:44.000Z</time>
      </trkpt>
      <trkpt lat="43.20519" lon="0.19973">
        <ele>319.53</ele>
        <time>2021-06-24T12:36:49.000Z</time>
      </trkpt>
      <trkpt lat="43.20509" lon="0.19964">
        <ele>318.05</ele>
        <time>2021-06-24T12:36:54.000Z</time>
      </trkpt>
      <trkpt lat="43.20496" lon="0.19957">
        <ele>317.8</ele>
        <time>2021-06-24T12:36:59.000Z</time>
      </trkpt>
      <trkpt lat="43.20487" lon="0.19953">
        <ele>317.68</ele>
        <time>2021-06-24T12:37:04.000Z</time>
      </trkpt>
      <trkpt lat="43.20479" lon="0.19945">
        <ele>317.8</ele>
        <time>2021-06-24T12:37:10.000Z</time>
      </trkpt>
      <trkpt lat="43.2047" lon="0.19938">
        <ele>317.97</ele>
        <time>2021-06-24T12:37:15.000Z</time>
      </trkpt>
      <trkpt lat="43.2046" lon="0.19929">
        <ele>317.99</ele>
        <time>2021-06-24T12:37:20.000Z</time>
      </trkpt>
      <trkpt lat="43.2045" lon="0.19922">
        <ele>317.88</ele>
        <time>2021-06-24T12:37:25.000Z</time>
      </trkpt>
      <trkpt lat="43.20441" lon="0.19915">
        <ele>317.46</ele>
        <time>2021-06-24T12:37:30.000Z</time>
      </trkpt>
      <trkpt lat="43.2043" lon="0.19908">
        <ele>317.01</ele>
        <time>2021-06-24T12:37:35.000Z</time>
      </trkpt>
      <trkpt lat="43.20419" lon="0.199">
        <ele>317.35</ele>
        <time>2021-06-24T12:37:40.000Z</time>
      </trkpt>
      <trkpt lat="43.20408" lon="0.19893">
        <ele>318.82</ele>
        <time>2021-06-24T12:37:45.000Z</time>
      </trkpt>
      <trkpt lat="43.20396" lon="0.19883">
        <ele>319.83</ele>
        <time>2021-06-24T12:37:50.000Z</time>
      </trkpt>
      <trkpt lat="43.20385" lon="0.19876">
        <ele>320.45</ele>
        <time>2021-06-24T12:37:55.000Z</time>
      </trkpt>
      <trkpt lat="43.20373" lon="0.19871">
        <ele>320.86</ele>
        <time>2021-06-24T12:38:00.000Z</time>
      </trkpt>
      <trkpt lat="43.20361" lon="0.19852">
        <ele>322.44</ele>
        <time>2021-06-24T12:38:05.000Z</time>
      </trkpt>
      <trkpt lat="43.2035" lon="0.19842">
        <ele>324.27</ele>
        <time>2021-06-24T12:38:10.000Z</time>
      </trkpt>
      <trkpt lat="43.20338" lon="0.19833">
        <ele>324.84</ele>
        <time>2021-06-24T12:38:15.000Z</time>
      </trkpt>
      <trkpt lat="43.20325" lon="0.19831">
        <ele>325.37</ele>
        <time>2021-06-24T12:38:20.000Z</time>
      </trkpt>
      <trkpt lat="43.20314" lon="0.19826">
        <ele>325.57</ele>
        <time>2021-06-24T12:38:25.000Z</time>
      </trkpt>
      <trkpt lat="43.20302" lon="0.19819">
        <ele>325.59</ele>
        <time>2021-06-24T12:38:30.000Z</time>
      </trkpt>
      <trkpt lat="43.20287" lon="0.19815">
        <ele>326.5</ele>
        <time>2021-06-24T12:38:35.000Z</time>
      </trkpt>
      <trkpt lat="43.20276" lon="0.19802">
        <ele>327.26</ele>
        <time>2021-06-24T12:38:40.000Z</time>
      </trkpt>
      <trkpt lat="43.20262" lon="0.19788">
        <ele>328.24</ele>
        <time>2021-06-24T12:38:45.000Z</time>
      </trkpt>
      <trkpt lat="43.20252" lon="0.19782">
        <ele>330.35</ele>
        <time>2021-06-24T12:38:50.000Z</time>
      </trkpt>
      <trkpt lat="43.20242" lon="0.19775">
        <ele>331.29</ele>
        <time>2021-06-24T12:38:55.000Z</time>
      </trkpt>
      <trkpt lat="43.2023" lon="0.19767">
        <ele>333.75</ele>
        <time>2021-06-24T12:39:00.000Z</time>
      </trkpt>
      <trkpt lat="43.2022" lon="0.19761">
        <ele>335.34</ele>
        <time>2021-06-24T12:39:05.000Z</time>
      </trkpt>
      <trkpt lat="43.20208" lon="0.19754">
        <ele>337.58</ele>
        <time>2021-06-24T12:39:10.000Z</time>
      </trkpt>
      <trkpt lat="43.20195" lon="0.19741">
        <ele>339.06</ele>
        <time>2021-06-24T12:39:15.000Z</time>
      </trkpt>
      <trkpt lat="43.20184" lon="0.19736">
        <ele>340.11</ele>
        <time>2021-06-24T12:39:20.000Z</time>
      </trkpt>
      <trkpt lat="43.20172" lon="0.19728">
        <ele>341.43</ele>
        <time>2021-06-24T12:39:25.000Z</time>
      </trkpt>
      <trkpt lat="43.20162" lon="0.19723">
        <ele>342.51</ele>
        <time>2021-06-24T12:39:30.000Z</time>
      </trkpt>
      <trkpt lat="43.2015" lon="0.19716">
        <ele>344.06</ele>
        <time>2021-06-24T12:39:35.000Z</time>
      </trkpt>
      <trkpt lat="43.20138" lon="0.19711">
        <ele>345.35</ele>
        <time>2021-06-24T12:39:40.000Z</time>
      </trkpt>
      <trkpt lat="43.20127" lon="0.197">
        <ele>346.61</ele>
        <time>2021-06-24T12:39:45.000Z</time>
      </trkpt>
      <trkpt lat="43.20118" lon="0.19686">
        <ele>347.56</ele>
        <time>2021-06-24T12:39:50.000Z</time>
      </trkpt>
      <trkpt lat="43.20107" lon="0.19676">
        <ele>349.2</ele>
        <time>2021-06-24T12:39:55.000Z</time>
      </trkpt>
      <trkpt lat="43.20098" lon="0.19671">
        <ele>351.07</ele>
        <time>2021-06-24T12:40:00.000Z</time>
      </trkpt>
      <trkpt lat="43.20089" lon="0.19659">
        <ele>352.2</ele>
        <time>2021-06-24T12:40:05.000Z</time>
      </trkpt>
      <trkpt lat="43.20079" lon="0.19645">
        <ele>352.81</ele>
        <time>2021-06-24T12:40:10.000Z</time>
      </trkpt>
      <trkpt lat="43.20064" lon="0.19619">
        <ele>351.66</ele>
        <time>2021-06-24T12:40:15.000Z</time>
      </trkpt>
      <trkpt lat="43.20049" lon="0.19591">
        <ele>351.24</ele>
        <time>2021-06-24T12:40:20.000Z</time>
      </trkpt>
      <trkpt lat="43.20031" lon="0.19562">
        <ele>352.12</ele>
        <time>2021-06-24T12:40:25.000Z</time>
      </trkpt>
      <trkpt lat="43.20009" lon="0.19531">
        <ele>352.6</ele>
        <time>2021-06-24T12:40:30.000Z</time>
      </trkpt>
      <trkpt lat="43.19978" lon="0.19501">
        <ele>352.64</ele>
        <time>2021-06-24T12:40:35.000Z</time>
      </trkpt>
      <trkpt lat="43.19938" lon="0.19471">
        <ele>353.46</ele>
        <time>2021-06-24T12:40:40.000Z</time>
      </trkpt>
      <trkpt lat="43.19893" lon="0.19431">
        <ele>353.58</ele>
        <time>2021-06-24T12:40:45.000Z</time>
      </trkpt>
      <trkpt lat="43.19845" lon="0.19382">
        <ele>353.33</ele>
        <time>2021-06-24T12:40:50.000Z</time>
      </trkpt>
      <trkpt lat="43.19793" lon="0.19342">
        <ele>352.94</ele>
        <time>2021-06-24T12:40:55.000Z</time>
      </trkpt>
      <trkpt lat="43.19737" lon="0.19314">
        <ele>352.43</ele>
        <time>2021-06-24T12:41:00.000Z</time>
      </trkpt>
      <trkpt lat="43.19686" lon="0.19279">
        <ele>351.19</ele>
        <time>2021-06-24T12:41:05.000Z</time>
      </trkpt>
      <trkpt lat="43.19642" lon="0.19225">
        <ele>350.64</ele>
        <time>2021-06-24T12:41:10.000Z</time>
      </trkpt>
      <trkpt lat="43.19597" lon="0.19177">
        <ele>349.82</ele>
        <time>2021-06-24T12:41:15.000Z</time>
      </trkpt>
      <trkpt lat="43.19546" lon="0.19144">
        <ele>349.26</ele>
        <time>2021-06-24T12:41:20.000Z</time>
      </trkpt>
      <trkpt lat="43.195" lon="0.19108">
        <ele>348.54</ele>
        <time>2021-06-24T12:41:25.000Z</time>
      </trkpt>
      <trkpt lat="43.19463" lon="0.19051">
        <ele>347.76</ele>
        <time>2021-06-24T12:41:30.000Z</time>
      </trkpt>
      <trkpt lat="43.19442" lon="0.18982">
        <ele>345.62</ele>
        <time>2021-06-24T12:41:35.000Z</time>
      </trkpt>
      <trkpt lat="43.19426" lon="0.18906">
        <ele>342.97</ele>
        <time>2021-06-24T12:41:40.000Z</time>
      </trkpt>
      <trkpt lat="43.19411" lon="0.1883">
        <ele>339.6</ele>
        <time>2021-06-24T12:41:45.000Z</time>
      </trkpt>
      <trkpt lat="43.194" lon="0.18768">
        <ele>335.51</ele>
        <time>2021-06-24T12:41:50.000Z</time>
      </trkpt>
      <trkpt lat="43.19393" lon="0.18723">
        <ele>333.04</ele>
        <time>2021-06-24T12:41:55.000Z</time>
      </trkpt>
      <trkpt lat="43.19387" lon="0.18696">
        <ele>330.6</ele>
        <time>2021-06-24T12:42:00.000Z</time>
      </trkpt>
      <trkpt lat="43.19384" lon="0.18677">
        <ele>327.8</ele>
        <time>2021-06-24T12:42:05.000Z</time>
      </trkpt>
      <trkpt lat="43.19381" lon="0.1866">
        <ele>325.79</ele>
        <time>2021-06-24T12:42:10.000Z</time>
      </trkpt>
      <trkpt lat="43.19379" lon="0.18644">
        <ele>323.44</ele>
        <time>2021-06-24T12:42:15.000Z</time>
      </trkpt>
      <trkpt lat="43.1938" lon="0.18629">
        <ele>321.34</ele>
        <time>2021-06-24T12:42:20.000Z</time>
      </trkpt>
      <trkpt lat="43.19383" lon="0.18615">
        <ele>317.72</ele>
        <time>2021-06-24T12:42:25.000Z</time>
      </trkpt>
      <trkpt lat="43.19385" lon="0.186">
        <ele>315.5</ele>
        <time>2021-06-24T12:42:30.000Z</time>
      </trkpt>
      <trkpt lat="43.19388" lon="0.18586">
        <ele>312.74</ele>
        <time>2021-06-24T12:42:36.000Z</time>
      </trkpt>
      <trkpt lat="43.19389" lon="0.18571">
        <ele>310.07</ele>
        <time>2021-06-24T12:42:41.000Z</time>
      </trkpt>
      <trkpt lat="43.19393" lon="0.18559">
        <ele>308.99</ele>
        <time>2021-06-24T12:42:46.000Z</time>
      </trkpt>
      <trkpt lat="43.19396" lon="0.18545">
        <ele>306.84</ele>
        <time>2021-06-24T12:42:52.000Z</time>
      </trkpt>
      <trkpt lat="43.194" lon="0.18533">
        <ele>304.43</ele>
        <time>2021-06-24T12:42:58.000Z</time>
      </trkpt>
      <trkpt lat="43.19403" lon="0.18519">
        <ele>302.2</ele>
        <time>2021-06-24T12:43:05.000Z</time>
      </trkpt>
      <trkpt lat="43.19405" lon="0.18507">
        <ele>300.79</ele>
        <time>2021-06-24T12:43:10.000Z</time>
      </trkpt>
      <trkpt lat="43.1941" lon="0.18496">
        <ele>299.59</ele>
        <time>2021-06-24T12:43:15.000Z</time>
      </trkpt>
      <trkpt lat="43.19415" lon="0.18484">
        <ele>298.62</ele>
        <time>2021-06-24T12:43:20.000Z</time>
      </trkpt>
      <trkpt lat="43.19419" lon="0.1847">
        <ele>298.09</ele>
        <time>2021-06-24T12:43:26.000Z</time>
      </trkpt>
      <trkpt lat="43.19425" lon="0.18458">
        <ele>297.28</ele>
        <time>2021-06-24T12:43:31.000Z</time>
      </trkpt>
      <trkpt lat="43.19429" lon="0.18446">
        <ele>296.86</ele>
        <time>2021-06-24T12:43:36.000Z</time>
      </trkpt>
      <trkpt lat="43.19433" lon="0.18435">
        <ele>295.45</ele>
        <time>2021-06-24T12:43:41.000Z</time>
      </trkpt>
      <trkpt lat="43.19436" lon="0.18421">
        <ele>294.25</ele>
        <time>2021-06-24T12:43:47.000Z</time>
      </trkpt>
      <trkpt lat="43.19438" lon="0.18407">
        <ele>293.25</ele>
        <time>2021-06-24T12:43:53.000Z</time>
      </trkpt>
      <trkpt lat="43.1944" lon="0.18394">
        <ele>292.49</ele>
        <time>2021-06-24T12:43:58.000Z</time>
      </trkpt>
      <trkpt lat="43.19441" lon="0.18379">
        <ele>290.97</ele>
        <time>2021-06-24T12:44:04.000Z</time>
      </trkpt>
      <trkpt lat="43.19443" lon="0.18367">
        <ele>289.75</ele>
        <time>2021-06-24T12:44:09.000Z</time>
      </trkpt>
      <trkpt lat="43.19445" lon="0.18353">
        <ele>288.77</ele>
        <time>2021-06-24T12:44:14.000Z</time>
      </trkpt>
      <trkpt lat="43.19448" lon="0.1834">
        <ele>287.57</ele>
        <time>2021-06-24T12:44:19.000Z</time>
      </trkpt>
      <trkpt lat="43.19447" lon="0.18327">
        <ele>286.44</ele>
        <time>2021-06-24T12:44:24.000Z</time>
      </trkpt>
      <trkpt lat="43.19449" lon="0.18315">
        <ele>286.33</ele>
        <time>2021-06-24T12:44:29.000Z</time>
      </trkpt>
      <trkpt lat="43.19446" lon="0.18299">
        <ele>291.22</ele>
        <time>2021-06-24T12:44:34.000Z</time>
      </trkpt>
      <trkpt lat="43.19447" lon="0.18285">
        <ele>297.15</ele>
        <time>2021-06-24T12:44:39.000Z</time>
      </trkpt>
      <trkpt lat="43.19449" lon="0.18271">
        <ele>298.56</ele>
        <time>2021-06-24T12:44:44.000Z</time>
      </trkpt>
      <trkpt lat="43.19449" lon="0.18256">
        <ele>302.43</ele>
        <time>2021-06-24T12:44:49.000Z</time>
      </trkpt>
      <trkpt lat="43.19449" lon="0.18243">
        <ele>304.23</ele>
        <time>2021-06-24T12:44:54.000Z</time>
      </trkpt>
      <trkpt lat="43.19451" lon="0.18229">
        <ele>305.49</ele>
        <time>2021-06-24T12:44:59.000Z</time>
      </trkpt>
      <trkpt lat="43.19454" lon="0.18215">
        <ele>307.3</ele>
        <time>2021-06-24T12:45:05.000Z</time>
      </trkpt>
      <trkpt lat="43.19457" lon="0.18203">
        <ele>307.99</ele>
        <time>2021-06-24T12:45:10.000Z</time>
      </trkpt>
      <trkpt lat="43.19465" lon="0.18184">
        <ele>311.04</ele>
        <time>2021-06-24T12:45:15.000Z</time>
      </trkpt>
      <trkpt lat="43.19467" lon="0.18169">
        <ele>314.13</ele>
        <time>2021-06-24T12:45:20.000Z</time>
      </trkpt>
      <trkpt lat="43.19469" lon="0.18152">
        <ele>315.17</ele>
        <time>2021-06-24T12:45:25.000Z</time>
      </trkpt>
      <trkpt lat="43.1947" lon="0.18136">
        <ele>315.67</ele>
        <time>2021-06-24T12:45:30.000Z</time>
      </trkpt>
      <trkpt lat="43.1947" lon="0.18119">
        <ele>316.83</ele>
        <time>2021-06-24T12:45:35.000Z</time>
      </trkpt>
      <trkpt lat="43.19467" lon="0.18105">
        <ele>321.01</ele>
        <time>2021-06-24T12:45:41.000Z</time>
      </trkpt>
      <trkpt lat="43.19469" lon="0.18087">
        <ele>324.49</ele>
        <time>2021-06-24T12:45:46.000Z</time>
      </trkpt>
      <trkpt lat="43.19471" lon="0.18068">
        <ele>326.2</ele>
        <time>2021-06-24T12:45:51.000Z</time>
      </trkpt>
      <trkpt lat="43.19472" lon="0.18049">
        <ele>327.73</ele>
        <time>2021-06-24T12:45:56.000Z</time>
      </trkpt>
      <trkpt lat="43.19473" lon="0.18031">
        <ele>328.44</ele>
        <time>2021-06-24T12:46:01.000Z</time>
      </trkpt>
      <trkpt lat="43.19473" lon="0.18016">
        <ele>329.73</ele>
        <time>2021-06-24T12:46:06.000Z</time>
      </trkpt>
      <trkpt lat="43.19475" lon="0.18">
        <ele>331.04</ele>
        <time>2021-06-24T12:46:11.000Z</time>
      </trkpt>
      <trkpt lat="43.19476" lon="0.17982">
        <ele>332.59</ele>
        <time>2021-06-24T12:46:16.000Z</time>
      </trkpt>
      <trkpt lat="43.19478" lon="0.17963">
        <ele>333.85</ele>
        <time>2021-06-24T12:46:21.000Z</time>
      </trkpt>
      <trkpt lat="43.1948" lon="0.17943">
        <ele>334.83</ele>
        <time>2021-06-24T12:46:26.000Z</time>
      </trkpt>
      <trkpt lat="43.19482" lon="0.17924">
        <ele>335.85</ele>
        <time>2021-06-24T12:46:31.000Z</time>
      </trkpt>
      <trkpt lat="43.19484" lon="0.17906">
        <ele>336.27</ele>
        <time>2021-06-24T12:46:36.000Z</time>
      </trkpt>
      <trkpt lat="43.19486" lon="0.17889">
        <ele>337.2</ele>
        <time>2021-06-24T12:46:41.000Z</time>
      </trkpt>
      <trkpt lat="43.19488" lon="0.1787">
        <ele>337.47</ele>
        <time>2021-06-24T12:46:46.000Z</time>
      </trkpt>
      <trkpt lat="43.19489" lon="0.1785">
        <ele>336.8</ele>
        <time>2021-06-24T12:46:51.000Z</time>
      </trkpt>
      <trkpt lat="43.19492" lon="0.17832">
        <ele>335.73</ele>
        <time>2021-06-24T12:46:56.000Z</time>
      </trkpt>
      <trkpt lat="43.19494" lon="0.17813">
        <ele>336.7</ele>
        <time>2021-06-24T12:47:01.000Z</time>
      </trkpt>
      <trkpt lat="43.19498" lon="0.17796">
        <ele>338.11</ele>
        <time>2021-06-24T12:47:06.000Z</time>
      </trkpt>
      <trkpt lat="43.195" lon="0.17776">
        <ele>339.05</ele>
        <time>2021-06-24T12:47:11.000Z</time>
      </trkpt>
      <trkpt lat="43.19502" lon="0.17755">
        <ele>339.1</ele>
        <time>2021-06-24T12:47:16.000Z</time>
      </trkpt>
      <trkpt lat="43.19505" lon="0.17735">
        <ele>337.43</ele>
        <time>2021-06-24T12:47:21.000Z</time>
      </trkpt>
      <trkpt lat="43.19507" lon="0.17716">
        <ele>336.7</ele>
        <time>2021-06-24T12:47:26.000Z</time>
      </trkpt>
      <trkpt lat="43.1951" lon="0.17696">
        <ele>335.11</ele>
        <time>2021-06-24T12:47:31.000Z</time>
      </trkpt>
      <trkpt lat="43.19511" lon="0.17674">
        <ele>334.13</ele>
        <time>2021-06-24T12:47:36.000Z</time>
      </trkpt>
      <trkpt lat="43.19513" lon="0.17654">
        <ele>333.95</ele>
        <time>2021-06-24T12:47:41.000Z</time>
      </trkpt>
      <trkpt lat="43.19515" lon="0.17634">
        <ele>335.01</ele>
        <time>2021-06-24T12:47:46.000Z</time>
      </trkpt>
      <trkpt lat="43.19517" lon="0.1761">
        <ele>335.26</ele>
        <time>2021-06-24T12:47:51.000Z</time>
      </trkpt>
      <trkpt lat="43.19519" lon="0.17588">
        <ele>336.98</ele>
        <time>2021-06-24T12:47:56.000Z</time>
      </trkpt>
      <trkpt lat="43.19521" lon="0.17567">
        <ele>337.39</ele>
        <time>2021-06-24T12:48:01.000Z</time>
      </trkpt>
      <trkpt lat="43.19522" lon="0.17544">
        <ele>337.65</ele>
        <time>2021-06-24T12:48:06.000Z</time>
      </trkpt>
      <trkpt lat="43.19525" lon="0.17523">
        <ele>337.49</ele>
        <time>2021-06-24T12:48:11.000Z</time>
      </trkpt>
      <trkpt lat="43.19527" lon="0.17501">
        <ele>337.38</ele>
        <time>2021-06-24T12:48:16.000Z</time>
      </trkpt>
      <trkpt lat="43.1953" lon="0.17482">
        <ele>338.09</ele>
        <time>2021-06-24T12:48:21.000Z</time>
      </trkpt>
      <trkpt lat="43.19531" lon="0.17461">
        <ele>339.5</ele>
        <time>2021-06-24T12:48:26.000Z</time>
      </trkpt>
      <trkpt lat="43.19533" lon="0.1744">
        <ele>338.95</ele>
        <time>2021-06-24T12:48:31.000Z</time>
      </trkpt>
      <trkpt lat="43.19534" lon="0.17419">
        <ele>340.03</ele>
        <time>2021-06-24T12:48:36.000Z</time>
      </trkpt>
      <trkpt lat="43.19537" lon="0.17396">
        <ele>340.1</ele>
        <time>2021-06-24T12:48:41.000Z</time>
      </trkpt>
      <trkpt lat="43.19539" lon="0.17374">
        <ele>340.56</ele>
        <time>2021-06-24T12:48:46.000Z</time>
      </trkpt>
      <trkpt lat="43.19541" lon="0.17354">
        <ele>341.15</ele>
        <time>2021-06-24T12:48:51.000Z</time>
      </trkpt>
      <trkpt lat="43.19541" lon="0.17335">
        <ele>341.26</ele>
        <time>2021-06-24T12:48:56.000Z</time>
      </trkpt>
      <trkpt lat="43.19541" lon="0.17314">
        <ele>341.5</ele>
        <time>2021-06-24T12:49:01.000Z</time>
      </trkpt>
      <trkpt lat="43.19545" lon="0.17292">
        <ele>342.42</ele>
        <time>2021-06-24T12:49:06.000Z</time>
      </trkpt>
      <trkpt lat="43.19546" lon="0.1727">
        <ele>342.57</ele>
        <time>2021-06-24T12:49:11.000Z</time>
      </trkpt>
      <trkpt lat="43.19547" lon="0.1725">
        <ele>342.88</ele>
        <time>2021-06-24T12:49:16.000Z</time>
      </trkpt>
      <trkpt lat="43.19549" lon="0.17229">
        <ele>343.75</ele>
        <time>2021-06-24T12:49:21.000Z</time>
      </trkpt>
      <trkpt lat="43.19551" lon="0.17207">
        <ele>344.94</ele>
        <time>2021-06-24T12:49:26.000Z</time>
      </trkpt>
      <trkpt lat="43.19554" lon="0.17185">
        <ele>344.48</ele>
        <time>2021-06-24T12:49:31.000Z</time>
      </trkpt>
      <trkpt lat="43.19555" lon="0.17164">
        <ele>345.07</ele>
        <time>2021-06-24T12:49:36.000Z</time>
      </trkpt>
      <trkpt lat="43.19557" lon="0.17143">
        <ele>345.54</ele>
        <time>2021-06-24T12:49:41.000Z</time>
      </trkpt>
      <trkpt lat="43.19561" lon="0.1712">
        <ele>347.12</ele>
        <time>2021-06-24T12:49:46.000Z</time>
      </trkpt>
      <trkpt lat="43.19564" lon="0.17099">
        <ele>347.61</ele>
        <time>2021-06-24T12:49:51.000Z</time>
      </trkpt>
      <trkpt lat="43.19566" lon="0.17077">
        <ele>347.51</ele>
        <time>2021-06-24T12:49:56.000Z</time>
      </trkpt>
      <trkpt lat="43.19568" lon="0.17056">
        <ele>347.35</ele>
        <time>2021-06-24T12:50:01.000Z</time>
      </trkpt>
      <trkpt lat="43.1957" lon="0.17037">
        <ele>347.7</ele>
        <time>2021-06-24T12:50:06.000Z</time>
      </trkpt>
      <trkpt lat="43.19571" lon="0.17016">
        <ele>347.05</ele>
        <time>2021-06-24T12:50:11.000Z</time>
      </trkpt>
      <trkpt lat="43.19574" lon="0.16996">
        <ele>348.16</ele>
        <time>2021-06-24T12:50:16.000Z</time>
      </trkpt>
      <trkpt lat="43.19576" lon="0.16977">
        <ele>349.44</ele>
        <time>2021-06-24T12:50:21.000Z</time>
      </trkpt>
      <trkpt lat="43.19579" lon="0.16956">
        <ele>349.79</ele>
        <time>2021-06-24T12:50:26.000Z</time>
      </trkpt>
      <trkpt lat="43.19581" lon="0.16934">
        <ele>350.82</ele>
        <time>2021-06-24T12:50:31.000Z</time>
      </trkpt>
      <trkpt lat="43.19584" lon="0.16913">
        <ele>352.19</ele>
        <time>2021-06-24T12:50:36.000Z</time>
      </trkpt>
      <trkpt lat="43.19588" lon="0.16891">
        <ele>353.56</ele>
        <time>2021-06-24T12:50:41.000Z</time>
      </trkpt>
      <trkpt lat="43.19593" lon="0.16869">
        <ele>353.27</ele>
        <time>2021-06-24T12:50:46.000Z</time>
      </trkpt>
      <trkpt lat="43.19599" lon="0.16848">
        <ele>353.38</ele>
        <time>2021-06-24T12:50:51.000Z</time>
      </trkpt>
      <trkpt lat="43.19606" lon="0.16824">
        <ele>353.26</ele>
        <time>2021-06-24T12:50:56.000Z</time>
      </trkpt>
      <trkpt lat="43.19612" lon="0.16802">
        <ele>353.03</ele>
        <time>2021-06-24T12:51:01.000Z</time>
      </trkpt>
      <trkpt lat="43.19618" lon="0.16779">
        <ele>353.81</ele>
        <time>2021-06-24T12:51:06.000Z</time>
      </trkpt>
      <trkpt lat="43.19623" lon="0.16756">
        <ele>354.8</ele>
        <time>2021-06-24T12:51:11.000Z</time>
      </trkpt>
      <trkpt lat="43.19627" lon="0.16734">
        <ele>354.29</ele>
        <time>2021-06-24T12:51:16.000Z</time>
      </trkpt>
      <trkpt lat="43.19633" lon="0.1671">
        <ele>354.12</ele>
        <time>2021-06-24T12:51:21.000Z</time>
      </trkpt>
      <trkpt lat="43.19639" lon="0.16683">
        <ele>353.82</ele>
        <time>2021-06-24T12:51:26.000Z</time>
      </trkpt>
      <trkpt lat="43.19645" lon="0.16654">
        <ele>353.22</ele>
        <time>2021-06-24T12:51:31.000Z</time>
      </trkpt>
      <trkpt lat="43.19652" lon="0.16623">
        <ele>353.08</ele>
        <time>2021-06-24T12:51:36.000Z</time>
      </trkpt>
      <trkpt lat="43.19654" lon="0.16592">
        <ele>352.9</ele>
        <time>2021-06-24T12:51:41.000Z</time>
      </trkpt>
      <trkpt lat="43.19654" lon="0.16551">
        <ele>352.36</ele>
        <time>2021-06-24T12:51:46.000Z</time>
      </trkpt>
      <trkpt lat="43.19653" lon="0.16503">
        <ele>352.03</ele>
        <time>2021-06-24T12:51:51.000Z</time>
      </trkpt>
      <trkpt lat="43.19648" lon="0.16449">
        <ele>351.43</ele>
        <time>2021-06-24T12:51:56.000Z</time>
      </trkpt>
      <trkpt lat="43.19642" lon="0.16389">
        <ele>350.4</ele>
        <time>2021-06-24T12:52:01.000Z</time>
      </trkpt>
      <trkpt lat="43.1964" lon="0.16326">
        <ele>348.76</ele>
        <time>2021-06-24T12:52:06.000Z</time>
      </trkpt>
      <trkpt lat="43.19648" lon="0.16273">
        <ele>346.63</ele>
        <time>2021-06-24T12:52:11.000Z</time>
      </trkpt>
      <trkpt lat="43.1965" lon="0.16233">
        <ele>345.83</ele>
        <time>2021-06-24T12:52:16.000Z</time>
      </trkpt>
      <trkpt lat="43.19653" lon="0.16203">
        <ele>345.65</ele>
        <time>2021-06-24T12:52:21.000Z</time>
      </trkpt>
      <trkpt lat="43.19655" lon="0.16179">
        <ele>344.95</ele>
        <time>2021-06-24T12:52:26.000Z</time>
      </trkpt>
      <trkpt lat="43.19657" lon="0.16156">
        <ele>345</ele>
        <time>2021-06-24T12:52:31.000Z</time>
      </trkpt>
      <trkpt lat="43.1966" lon="0.16135">
        <ele>344.34</ele>
        <time>2021-06-24T12:52:36.000Z</time>
      </trkpt>
      <trkpt lat="43.19663" lon="0.16114">
        <ele>344.25</ele>
        <time>2021-06-24T12:52:41.000Z</time>
      </trkpt>
      <trkpt lat="43.19667" lon="0.16092">
        <ele>344.59</ele>
        <time>2021-06-24T12:52:46.000Z</time>
      </trkpt>
      <trkpt lat="43.19669" lon="0.16071">
        <ele>344.48</ele>
        <time>2021-06-24T12:52:51.000Z</time>
      </trkpt>
      <trkpt lat="43.1967" lon="0.16048">
        <ele>344.84</ele>
        <time>2021-06-24T12:52:56.000Z</time>
      </trkpt>
      <trkpt lat="43.19671" lon="0.16027">
        <ele>346.42</ele>
        <time>2021-06-24T12:53:01.000Z</time>
      </trkpt>
      <trkpt lat="43.19673" lon="0.16006">
        <ele>347.7</ele>
        <time>2021-06-24T12:53:06.000Z</time>
      </trkpt>
      <trkpt lat="43.19675" lon="0.15985">
        <ele>348.59</ele>
        <time>2021-06-24T12:53:11.000Z</time>
      </trkpt>
      <trkpt lat="43.19677" lon="0.15968">
        <ele>349.24</ele>
        <time>2021-06-24T12:53:16.000Z</time>
      </trkpt>
      <trkpt lat="43.19679" lon="0.1595">
        <ele>350.41</ele>
        <time>2021-06-24T12:53:21.000Z</time>
      </trkpt>
      <trkpt lat="43.19681" lon="0.1593">
        <ele>350.74</ele>
        <time>2021-06-24T12:53:26.000Z</time>
      </trkpt>
      <trkpt lat="43.19682" lon="0.15911">
        <ele>351.35</ele>
        <time>2021-06-24T12:53:31.000Z</time>
      </trkpt>
      <trkpt lat="43.19683" lon="0.15893">
        <ele>352.23</ele>
        <time>2021-06-24T12:53:36.000Z</time>
      </trkpt>
      <trkpt lat="43.19684" lon="0.15875">
        <ele>351.9</ele>
        <time>2021-06-24T12:53:41.000Z</time>
      </trkpt>
      <trkpt lat="43.19688" lon="0.15857">
        <ele>351.48</ele>
        <time>2021-06-24T12:53:46.000Z</time>
      </trkpt>
      <trkpt lat="43.1969" lon="0.15838">
        <ele>353.31</ele>
        <time>2021-06-24T12:53:51.000Z</time>
      </trkpt>
      <trkpt lat="43.19693" lon="0.1582">
        <ele>353.65</ele>
        <time>2021-06-24T12:53:56.000Z</time>
      </trkpt>
      <trkpt lat="43.19695" lon="0.15801">
        <ele>354.63</ele>
        <time>2021-06-24T12:54:01.000Z</time>
      </trkpt>
      <trkpt lat="43.19696" lon="0.15784">
        <ele>355.91</ele>
        <time>2021-06-24T12:54:06.000Z</time>
      </trkpt>
      <trkpt lat="43.19697" lon="0.15766">
        <ele>356.27</ele>
        <time>2021-06-24T12:54:11.000Z</time>
      </trkpt>
      <trkpt lat="43.19697" lon="0.15749">
        <ele>356.49</ele>
        <time>2021-06-24T12:54:16.000Z</time>
      </trkpt>
      <trkpt lat="43.19698" lon="0.1573">
        <ele>355.92</ele>
        <time>2021-06-24T12:54:21.000Z</time>
      </trkpt>
      <trkpt lat="43.197" lon="0.15711">
        <ele>356.05</ele>
        <time>2021-06-24T12:54:26.000Z</time>
      </trkpt>
      <trkpt lat="43.19702" lon="0.15692">
        <ele>356.79</ele>
        <time>2021-06-24T12:54:31.000Z</time>
      </trkpt>
      <trkpt lat="43.19705" lon="0.15673">
        <ele>358.26</ele>
        <time>2021-06-24T12:54:36.000Z</time>
      </trkpt>
      <trkpt lat="43.19708" lon="0.15654">
        <ele>358.58</ele>
        <time>2021-06-24T12:54:41.000Z</time>
      </trkpt>
      <trkpt lat="43.19712" lon="0.15635">
        <ele>359.29</ele>
        <time>2021-06-24T12:54:46.000Z</time>
      </trkpt>
      <trkpt lat="43.19713" lon="0.15617">
        <ele>360.31</ele>
        <time>2021-06-24T12:54:51.000Z</time>
      </trkpt>
      <trkpt lat="43.19715" lon="0.15598">
        <ele>361.89</ele>
        <time>2021-06-24T12:54:56.000Z</time>
      </trkpt>
      <trkpt lat="43.19717" lon="0.15579">
        <ele>363.32</ele>
        <time>2021-06-24T12:55:01.000Z</time>
      </trkpt>
      <trkpt lat="43.19718" lon="0.1556">
        <ele>364.74</ele>
        <time>2021-06-24T12:55:06.000Z</time>
      </trkpt>
      <trkpt lat="43.1972" lon="0.15542">
        <ele>366.06</ele>
        <time>2021-06-24T12:55:11.000Z</time>
      </trkpt>
      <trkpt lat="43.19723" lon="0.15523">
        <ele>367.62</ele>
        <time>2021-06-24T12:55:16.000Z</time>
      </trkpt>
      <trkpt lat="43.19725" lon="0.15507">
        <ele>367.87</ele>
        <time>2021-06-24T12:55:21.000Z</time>
      </trkpt>
      <trkpt lat="43.19727" lon="0.15489">
        <ele>368.51</ele>
        <time>2021-06-24T12:55:26.000Z</time>
      </trkpt>
      <trkpt lat="43.19727" lon="0.15473">
        <ele>369.5</ele>
        <time>2021-06-24T12:55:31.000Z</time>
      </trkpt>
      <trkpt lat="43.19729" lon="0.15457">
        <ele>368.46</ele>
        <time>2021-06-24T12:55:36.000Z</time>
      </trkpt>
      <trkpt lat="43.1973" lon="0.15442">
        <ele>368.61</ele>
        <time>2021-06-24T12:55:41.000Z</time>
      </trkpt>
      <trkpt lat="43.19731" lon="0.15427">
        <ele>368.77</ele>
        <time>2021-06-24T12:55:46.000Z</time>
      </trkpt>
      <trkpt lat="43.19732" lon="0.15414">
        <ele>369.61</ele>
        <time>2021-06-24T12:55:51.000Z</time>
      </trkpt>
      <trkpt lat="43.19733" lon="0.15399">
        <ele>370.06</ele>
        <time>2021-06-24T12:55:56.000Z</time>
      </trkpt>
      <trkpt lat="43.19734" lon="0.15385">
        <ele>369.79</ele>
        <time>2021-06-24T12:56:01.000Z</time>
      </trkpt>
      <trkpt lat="43.19736" lon="0.1537">
        <ele>369.75</ele>
        <time>2021-06-24T12:56:06.000Z</time>
      </trkpt>
      <trkpt lat="43.19737" lon="0.15356">
        <ele>370.67</ele>
        <time>2021-06-24T12:56:11.000Z</time>
      </trkpt>
      <trkpt lat="43.19739" lon="0.15341">
        <ele>371.56</ele>
        <time>2021-06-24T12:56:16.000Z</time>
      </trkpt>
      <trkpt lat="43.19741" lon="0.15326">
        <ele>372.05</ele>
        <time>2021-06-24T12:56:21.000Z</time>
      </trkpt>
      <trkpt lat="43.19743" lon="0.15312">
        <ele>373.03</ele>
        <time>2021-06-24T12:56:26.000Z</time>
      </trkpt>
      <trkpt lat="43.19744" lon="0.15298">
        <ele>372.94</ele>
        <time>2021-06-24T12:56:31.000Z</time>
      </trkpt>
      <trkpt lat="43.19746" lon="0.15284">
        <ele>373.29</ele>
        <time>2021-06-24T12:56:36.000Z</time>
      </trkpt>
      <trkpt lat="43.19747" lon="0.1527">
        <ele>373.97</ele>
        <time>2021-06-24T12:56:41.000Z</time>
      </trkpt>
      <trkpt lat="43.19749" lon="0.15256">
        <ele>374.26</ele>
        <time>2021-06-24T12:56:46.000Z</time>
      </trkpt>
      <trkpt lat="43.19751" lon="0.15242">
        <ele>374.65</ele>
        <time>2021-06-24T12:56:51.000Z</time>
      </trkpt>
      <trkpt lat="43.19752" lon="0.15228">
        <ele>375.26</ele>
        <time>2021-06-24T12:56:56.000Z</time>
      </trkpt>
      <trkpt lat="43.19752" lon="0.15215">
        <ele>375.64</ele>
        <time>2021-06-24T12:57:01.000Z</time>
      </trkpt>
      <trkpt lat="43.19754" lon="0.15203">
        <ele>376.44</ele>
        <time>2021-06-24T12:57:06.000Z</time>
      </trkpt>
      <trkpt lat="43.19757" lon="0.15188">
        <ele>376.49</ele>
        <time>2021-06-24T12:57:11.000Z</time>
      </trkpt>
      <trkpt lat="43.19758" lon="0.15176">
        <ele>376.41</ele>
        <time>2021-06-24T12:57:16.000Z</time>
      </trkpt>
      <trkpt lat="43.1976" lon="0.15163">
        <ele>377.19</ele>
        <time>2021-06-24T12:57:21.000Z</time>
      </trkpt>
      <trkpt lat="43.19758" lon="0.15149">
        <ele>378.14</ele>
        <time>2021-06-24T12:57:27.000Z</time>
      </trkpt>
      <trkpt lat="43.1976" lon="0.15135">
        <ele>378.77</ele>
        <time>2021-06-24T12:57:32.000Z</time>
      </trkpt>
      <trkpt lat="43.1976" lon="0.15123">
        <ele>379.17</ele>
        <time>2021-06-24T12:57:37.000Z</time>
      </trkpt>
      <trkpt lat="43.19762" lon="0.15111">
        <ele>379.66</ele>
        <time>2021-06-24T12:57:42.000Z</time>
      </trkpt>
      <trkpt lat="43.19761" lon="0.15096">
        <ele>380.54</ele>
        <time>2021-06-24T12:57:48.000Z</time>
      </trkpt>
      <trkpt lat="43.19762" lon="0.15082">
        <ele>380.67</ele>
        <time>2021-06-24T12:57:54.000Z</time>
      </trkpt>
      <trkpt lat="43.19767" lon="0.15068">
        <ele>380.91</ele>
        <time>2021-06-24T12:57:59.000Z</time>
      </trkpt>
      <trkpt lat="43.19768" lon="0.15054">
        <ele>381.27</ele>
        <time>2021-06-24T12:58:04.000Z</time>
      </trkpt>
      <trkpt lat="43.1977" lon="0.15039">
        <ele>382.82</ele>
        <time>2021-06-24T12:58:09.000Z</time>
      </trkpt>
      <trkpt lat="43.19771" lon="0.15026">
        <ele>383.89</ele>
        <time>2021-06-24T12:58:14.000Z</time>
      </trkpt>
      <trkpt lat="43.19772" lon="0.15013">
        <ele>384.25</ele>
        <time>2021-06-24T12:58:19.000Z</time>
      </trkpt>
      <trkpt lat="43.19774" lon="0.15001">
        <ele>384.72</ele>
        <time>2021-06-24T12:58:24.000Z</time>
      </trkpt>
      <trkpt lat="43.19775" lon="0.14987">
        <ele>384.36</ele>
        <time>2021-06-24T12:58:30.000Z</time>
      </trkpt>
      <trkpt lat="43.19778" lon="0.14971">
        <ele>385.61</ele>
        <time>2021-06-24T12:58:35.000Z</time>
      </trkpt>
      <trkpt lat="43.19778" lon="0.14955">
        <ele>388.01</ele>
        <time>2021-06-24T12:58:40.000Z</time>
      </trkpt>
      <trkpt lat="43.1978" lon="0.14941">
        <ele>389.04</ele>
        <time>2021-06-24T12:58:46.000Z</time>
      </trkpt>
      <trkpt lat="43.19782" lon="0.14928">
        <ele>390.24</ele>
        <time>2021-06-24T12:58:51.000Z</time>
      </trkpt>
      <trkpt lat="43.19783" lon="0.14914">
        <ele>391.48</ele>
        <time>2021-06-24T12:58:56.000Z</time>
      </trkpt>
      <trkpt lat="43.19784" lon="0.149">
        <ele>391.61</ele>
        <time>2021-06-24T12:59:01.000Z</time>
      </trkpt>
      <trkpt lat="43.19785" lon="0.14887">
        <ele>390.87</ele>
        <time>2021-06-24T12:59:06.000Z</time>
      </trkpt>
      <trkpt lat="43.19786" lon="0.14874">
        <ele>391.41</ele>
        <time>2021-06-24T12:59:11.000Z</time>
      </trkpt>
      <trkpt lat="43.19788" lon="0.1486">
        <ele>391.32</ele>
        <time>2021-06-24T12:59:16.000Z</time>
      </trkpt>
      <trkpt lat="43.19789" lon="0.14848">
        <ele>391.06</ele>
        <time>2021-06-24T12:59:21.000Z</time>
      </trkpt>
      <trkpt lat="43.1979" lon="0.14834">
        <ele>391.04</ele>
        <time>2021-06-24T12:59:27.000Z</time>
      </trkpt>
      <trkpt lat="43.1979" lon="0.14821">
        <ele>391.39</ele>
        <time>2021-06-24T12:59:32.000Z</time>
      </trkpt>
      <trkpt lat="43.19791" lon="0.14809">
        <ele>392.05</ele>
        <time>2021-06-24T12:59:37.000Z</time>
      </trkpt>
      <trkpt lat="43.19792" lon="0.14795">
        <ele>392.9</ele>
        <time>2021-06-24T12:59:42.000Z</time>
      </trkpt>
      <trkpt lat="43.19794" lon="0.14782">
        <ele>393.85</ele>
        <time>2021-06-24T12:59:47.000Z</time>
      </trkpt>
      <trkpt lat="43.19795" lon="0.14769">
        <ele>394.83</ele>
        <time>2021-06-24T12:59:52.000Z</time>
      </trkpt>
      <trkpt lat="43.19797" lon="0.14757">
        <ele>395.39</ele>
        <time>2021-06-24T12:59:57.000Z</time>
      </trkpt>
      <trkpt lat="43.19799" lon="0.14743">
        <ele>395.97</ele>
        <time>2021-06-24T13:00:02.000Z</time>
      </trkpt>
      <trkpt lat="43.198" lon="0.1473">
        <ele>395.84</ele>
        <time>2021-06-24T13:00:07.000Z</time>
      </trkpt>
      <trkpt lat="43.19802" lon="0.14717">
        <ele>396.84</ele>
        <time>2021-06-24T13:00:12.000Z</time>
      </trkpt>
      <trkpt lat="43.19803" lon="0.14704">
        <ele>397.93</ele>
        <time>2021-06-24T13:00:17.000Z</time>
      </trkpt>
      <trkpt lat="43.19804" lon="0.14691">
        <ele>398.83</ele>
        <time>2021-06-24T13:00:22.000Z</time>
      </trkpt>
      <trkpt lat="43.19806" lon="0.14678">
        <ele>399.9</ele>
        <time>2021-06-24T13:00:27.000Z</time>
      </trkpt>
      <trkpt lat="43.19807" lon="0.14663">
        <ele>401.13</ele>
        <time>2021-06-24T13:00:32.000Z</time>
      </trkpt>
      <trkpt lat="43.19807" lon="0.1465">
        <ele>401.77</ele>
        <time>2021-06-24T13:00:37.000Z</time>
      </trkpt>
      <trkpt lat="43.19808" lon="0.14637">
        <ele>401.46</ele>
        <time>2021-06-24T13:00:42.000Z</time>
      </trkpt>
      <trkpt lat="43.1981" lon="0.14623">
        <ele>400.65</ele>
        <time>2021-06-24T13:00:47.000Z</time>
      </trkpt>
      <trkpt lat="43.19812" lon="0.1461">
        <ele>399.87</ele>
        <time>2021-06-24T13:00:52.000Z</time>
      </trkpt>
      <trkpt lat="43.19814" lon="0.14594">
        <ele>399.34</ele>
        <time>2021-06-24T13:00:57.000Z</time>
      </trkpt>
      <trkpt lat="43.19817" lon="0.14575">
        <ele>399.67</ele>
        <time>2021-06-24T13:01:02.000Z</time>
      </trkpt>
      <trkpt lat="43.1982" lon="0.14559">
        <ele>400.17</ele>
        <time>2021-06-24T13:01:07.000Z</time>
      </trkpt>
      <trkpt lat="43.19823" lon="0.14543">
        <ele>400.27</ele>
        <time>2021-06-24T13:01:12.000Z</time>
      </trkpt>
      <trkpt lat="43.19824" lon="0.14525">
        <ele>401.74</ele>
        <time>2021-06-24T13:01:17.000Z</time>
      </trkpt>
      <trkpt lat="43.19828" lon="0.14498">
        <ele>401.7</ele>
        <time>2021-06-24T13:01:22.000Z</time>
      </trkpt>
      <trkpt lat="43.19834" lon="0.14463">
        <ele>400.84</ele>
        <time>2021-06-24T13:01:27.000Z</time>
      </trkpt>
      <trkpt lat="43.19842" lon="0.14422">
        <ele>399.13</ele>
        <time>2021-06-24T13:01:32.000Z</time>
      </trkpt>
      <trkpt lat="43.1985" lon="0.14371">
        <ele>398.13</ele>
        <time>2021-06-24T13:01:37.000Z</time>
      </trkpt>
      <trkpt lat="43.19861" lon="0.14317">
        <ele>396.52</ele>
        <time>2021-06-24T13:01:42.000Z</time>
      </trkpt>
      <trkpt lat="43.19873" lon="0.14258">
        <ele>392.87</ele>
        <time>2021-06-24T13:01:47.000Z</time>
      </trkpt>
      <trkpt lat="43.19885" lon="0.14199">
        <ele>390.77</ele>
        <time>2021-06-24T13:01:52.000Z</time>
      </trkpt>
      <trkpt lat="43.19895" lon="0.14144">
        <ele>390.16</ele>
        <time>2021-06-24T13:01:57.000Z</time>
      </trkpt>
      <trkpt lat="43.19905" lon="0.14103">
        <ele>389.23</ele>
        <time>2021-06-24T13:02:02.000Z</time>
      </trkpt>
      <trkpt lat="43.19911" lon="0.1407">
        <ele>390.27</ele>
        <time>2021-06-24T13:02:07.000Z</time>
      </trkpt>
      <trkpt lat="43.19916" lon="0.14043">
        <ele>391.7</ele>
        <time>2021-06-24T13:02:12.000Z</time>
      </trkpt>
      <trkpt lat="43.19919" lon="0.14019">
        <ele>392.71</ele>
        <time>2021-06-24T13:02:17.000Z</time>
      </trkpt>
      <trkpt lat="43.19923" lon="0.13998">
        <ele>393.7</ele>
        <time>2021-06-24T13:02:22.000Z</time>
      </trkpt>
      <trkpt lat="43.19927" lon="0.13979">
        <ele>394.1</ele>
        <time>2021-06-24T13:02:27.000Z</time>
      </trkpt>
      <trkpt lat="43.1993" lon="0.13963">
        <ele>394.91</ele>
        <time>2021-06-24T13:02:32.000Z</time>
      </trkpt>
      <trkpt lat="43.19932" lon="0.13948">
        <ele>395.48</ele>
        <time>2021-06-24T13:02:37.000Z</time>
      </trkpt>
      <trkpt lat="43.19935" lon="0.13934">
        <ele>396.21</ele>
        <time>2021-06-24T13:02:42.000Z</time>
      </trkpt>
      <trkpt lat="43.19937" lon="0.13919">
        <ele>397.38</ele>
        <time>2021-06-24T13:02:47.000Z</time>
      </trkpt>
      <trkpt lat="43.1994" lon="0.13905">
        <ele>397.53</ele>
        <time>2021-06-24T13:02:52.000Z</time>
      </trkpt>
      <trkpt lat="43.19942" lon="0.13891">
        <ele>398.38</ele>
        <time>2021-06-24T13:02:57.000Z</time>
      </trkpt>
      <trkpt lat="43.19945" lon="0.13876">
        <ele>399.2</ele>
        <time>2021-06-24T13:03:02.000Z</time>
      </trkpt>
      <trkpt lat="43.19947" lon="0.13863">
        <ele>399.54</ele>
        <time>2021-06-24T13:03:07.000Z</time>
      </trkpt>
      <trkpt lat="43.19949" lon="0.13849">
        <ele>400.24</ele>
        <time>2021-06-24T13:03:12.000Z</time>
      </trkpt>
      <trkpt lat="43.19952" lon="0.13834">
        <ele>401.25</ele>
        <time>2021-06-24T13:03:17.000Z</time>
      </trkpt>
      <trkpt lat="43.19954" lon="0.13821">
        <ele>402.36</ele>
        <time>2021-06-24T13:03:22.000Z</time>
      </trkpt>
      <trkpt lat="43.19957" lon="0.13808">
        <ele>403.66</ele>
        <time>2021-06-24T13:03:27.000Z</time>
      </trkpt>
      <trkpt lat="43.19961" lon="0.13795">
        <ele>404.2</ele>
        <time>2021-06-24T13:03:33.000Z</time>
      </trkpt>
      <trkpt lat="43.19963" lon="0.13781">
        <ele>404.69</ele>
        <time>2021-06-24T13:03:39.000Z</time>
      </trkpt>
      <trkpt lat="43.19965" lon="0.13768">
        <ele>405.44</ele>
        <time>2021-06-24T13:03:44.000Z</time>
      </trkpt>
      <trkpt lat="43.19967" lon="0.13754">
        <ele>406.49</ele>
        <time>2021-06-24T13:03:50.000Z</time>
      </trkpt>
      <trkpt lat="43.19969" lon="0.13742">
        <ele>407.19</ele>
        <time>2021-06-24T13:03:55.000Z</time>
      </trkpt>
      <trkpt lat="43.19972" lon="0.13729">
        <ele>407.6</ele>
        <time>2021-06-24T13:04:00.000Z</time>
      </trkpt>
      <trkpt lat="43.19975" lon="0.13716">
        <ele>407.6</ele>
        <time>2021-06-24T13:04:05.000Z</time>
      </trkpt>
      <trkpt lat="43.19978" lon="0.13704">
        <ele>408.16</ele>
        <time>2021-06-24T13:04:10.000Z</time>
      </trkpt>
      <trkpt lat="43.1998" lon="0.13691">
        <ele>408.27</ele>
        <time>2021-06-24T13:04:15.000Z</time>
      </trkpt>
      <trkpt lat="43.19983" lon="0.13677">
        <ele>408.58</ele>
        <time>2021-06-24T13:04:20.000Z</time>
      </trkpt>
      <trkpt lat="43.19986" lon="0.13664">
        <ele>409.33</ele>
        <time>2021-06-24T13:04:25.000Z</time>
      </trkpt>
      <trkpt lat="43.19988" lon="0.1365">
        <ele>410.04</ele>
        <time>2021-06-24T13:04:31.000Z</time>
      </trkpt>
      <trkpt lat="43.1999" lon="0.13635">
        <ele>411.09</ele>
        <time>2021-06-24T13:04:36.000Z</time>
      </trkpt>
      <trkpt lat="43.19993" lon="0.13623">
        <ele>412.67</ele>
        <time>2021-06-24T13:04:41.000Z</time>
      </trkpt>
      <trkpt lat="43.19995" lon="0.13608">
        <ele>413.54</ele>
        <time>2021-06-24T13:04:47.000Z</time>
      </trkpt>
      <trkpt lat="43.19998" lon="0.13595">
        <ele>413.7</ele>
        <time>2021-06-24T13:04:52.000Z</time>
      </trkpt>
      <trkpt lat="43.20001" lon="0.13582">
        <ele>414.52</ele>
        <time>2021-06-24T13:04:57.000Z</time>
      </trkpt>
      <trkpt lat="43.20002" lon="0.13569">
        <ele>415.56</ele>
        <time>2021-06-24T13:05:02.000Z</time>
      </trkpt>
      <trkpt lat="43.20002" lon="0.13555">
        <ele>416</ele>
        <time>2021-06-24T13:05:08.000Z</time>
      </trkpt>
      <trkpt lat="43.20005" lon="0.13541">
        <ele>416.62</ele>
        <time>2021-06-24T13:05:13.000Z</time>
      </trkpt>
      <trkpt lat="43.20009" lon="0.13526">
        <ele>416.33</ele>
        <time>2021-06-24T13:05:18.000Z</time>
      </trkpt>
      <trkpt lat="43.20013" lon="0.13507">
        <ele>415.69</ele>
        <time>2021-06-24T13:05:23.000Z</time>
      </trkpt>
      <trkpt lat="43.20017" lon="0.13486">
        <ele>416.08</ele>
        <time>2021-06-24T13:05:28.000Z</time>
      </trkpt>
      <trkpt lat="43.20021" lon="0.13464">
        <ele>416.31</ele>
        <time>2021-06-24T13:05:33.000Z</time>
      </trkpt>
      <trkpt lat="43.20026" lon="0.13442">
        <ele>417.42</ele>
        <time>2021-06-24T13:05:38.000Z</time>
      </trkpt>
      <trkpt lat="43.20031" lon="0.13416">
        <ele>417.89</ele>
        <time>2021-06-24T13:05:43.000Z</time>
      </trkpt>
      <trkpt lat="43.20035" lon="0.13391">
        <ele>418.11</ele>
        <time>2021-06-24T13:05:48.000Z</time>
      </trkpt>
      <trkpt lat="43.2004" lon="0.13365">
        <ele>418.02</ele>
        <time>2021-06-24T13:05:53.000Z</time>
      </trkpt>
      <trkpt lat="43.20046" lon="0.13338">
        <ele>418.19</ele>
        <time>2021-06-24T13:05:58.000Z</time>
      </trkpt>
      <trkpt lat="43.20051" lon="0.13312">
        <ele>419.9</ele>
        <time>2021-06-24T13:06:03.000Z</time>
      </trkpt>
      <trkpt lat="43.20056" lon="0.1329">
        <ele>421.14</ele>
        <time>2021-06-24T13:06:08.000Z</time>
      </trkpt>
      <trkpt lat="43.2006" lon="0.13268">
        <ele>421</ele>
        <time>2021-06-24T13:06:13.000Z</time>
      </trkpt>
      <trkpt lat="43.20063" lon="0.13246">
        <ele>421.25</ele>
        <time>2021-06-24T13:06:18.000Z</time>
      </trkpt>
      <trkpt lat="43.20066" lon="0.13225">
        <ele>421.34</ele>
        <time>2021-06-24T13:06:23.000Z</time>
      </trkpt>
      <trkpt lat="43.20069" lon="0.13205">
        <ele>421.01</ele>
        <time>2021-06-24T13:06:28.000Z</time>
      </trkpt>
      <trkpt lat="43.20071" lon="0.13184">
        <ele>420.33</ele>
        <time>2021-06-24T13:06:33.000Z</time>
      </trkpt>
      <trkpt lat="43.20071" lon="0.13163">
        <ele>420.13</ele>
        <time>2021-06-24T13:06:38.000Z</time>
      </trkpt>
      <trkpt lat="43.20073" lon="0.13144">
        <ele>419.6</ele>
        <time>2021-06-24T13:06:43.000Z</time>
      </trkpt>
      <trkpt lat="43.20073" lon="0.13125">
        <ele>419.68</ele>
        <time>2021-06-24T13:06:48.000Z</time>
      </trkpt>
      <trkpt lat="43.20071" lon="0.13109">
        <ele>420.19</ele>
        <time>2021-06-24T13:06:53.000Z</time>
      </trkpt>
      <trkpt lat="43.20071" lon="0.13094">
        <ele>420.3</ele>
        <time>2021-06-24T13:06:58.000Z</time>
      </trkpt>
      <trkpt lat="43.20073" lon="0.13082">
        <ele>416.09</ele>
        <time>2021-06-24T13:07:23.000Z</time>
      </trkpt>
      <trkpt lat="43.20065" lon="0.13086">
        <ele>420.25</ele>
        <time>2021-06-24T13:08:10.000Z</time>
      </trkpt>
      <trkpt lat="43.20052" lon="0.13091">
        <ele>420.03</ele>
        <time>2021-06-24T13:08:15.000Z</time>
      </trkpt>
      <trkpt lat="43.20039" lon="0.13095">
        <ele>420</ele>
        <time>2021-06-24T13:08:20.000Z</time>
      </trkpt>
      <trkpt lat="43.20027" lon="0.13097">
        <ele>420.34</ele>
        <time>2021-06-24T13:08:25.000Z</time>
      </trkpt>
      <trkpt lat="43.20021" lon="0.13088">
        <ele>421.77</ele>
        <time>2021-06-24T13:08:37.000Z</time>
      </trkpt>
      <trkpt lat="43.2003" lon="0.13084">
        <ele>424.8</ele>
        <time>2021-06-24T13:09:29.000Z</time>
      </trkpt>
      <trkpt lat="43.20038" lon="0.13077">
        <ele>425.44</ele>
        <time>2021-06-24T13:09:34.000Z</time>
      </trkpt>
      <trkpt lat="43.20045" lon="0.13088">
        <ele>425.8</ele>
        <time>2021-06-24T13:09:39.000Z</time>
      </trkpt>
      <trkpt lat="43.20056" lon="0.13092">
        <ele>425.62</ele>
        <time>2021-06-24T13:09:44.000Z</time>
      </trkpt>
      <trkpt lat="43.20061" lon="0.13077">
        <ele>425.65</ele>
        <time>2021-06-24T13:09:49.000Z</time>
      </trkpt>
      <trkpt lat="43.20058" lon="0.13054">
        <ele>425.08</ele>
        <time>2021-06-24T13:09:54.000Z</time>
      </trkpt>
      <trkpt lat="43.20051" lon="0.13022">
        <ele>425.35</ele>
        <time>2021-06-24T13:09:59.000Z</time>
      </trkpt>
      <trkpt lat="43.20044" lon="0.12987">
        <ele>425.31</ele>
        <time>2021-06-24T13:10:04.000Z</time>
      </trkpt>
      <trkpt lat="43.20032" lon="0.12948">
        <ele>424.84</ele>
        <time>2021-06-24T13:10:09.000Z</time>
      </trkpt>
      <trkpt lat="43.20019" lon="0.12897">
        <ele>424.22</ele>
        <time>2021-06-24T13:10:14.000Z</time>
      </trkpt>
      <trkpt lat="43.2001" lon="0.12844">
        <ele>424.3</ele>
        <time>2021-06-24T13:10:19.000Z</time>
      </trkpt>
      <trkpt lat="43.19992" lon="0.12795">
        <ele>421.74</ele>
        <time>2021-06-24T13:10:24.000Z</time>
      </trkpt>
      <trkpt lat="43.19969" lon="0.12742">
        <ele>419.06</ele>
        <time>2021-06-24T13:10:29.000Z</time>
      </trkpt>
      <trkpt lat="43.19963" lon="0.12679">
        <ele>416.57</ele>
        <time>2021-06-24T13:10:34.000Z</time>
      </trkpt>
      <trkpt lat="43.19982" lon="0.12623">
        <ele>413.36</ele>
        <time>2021-06-24T13:10:39.000Z</time>
      </trkpt>
      <trkpt lat="43.20028" lon="0.12603">
        <ele>411.28</ele>
        <time>2021-06-24T13:10:44.000Z</time>
      </trkpt>
      <trkpt lat="43.20068" lon="0.126">
        <ele>409.55</ele>
        <time>2021-06-24T13:10:49.000Z</time>
      </trkpt>
      <trkpt lat="43.201" lon="0.12623">
        <ele>407.11</ele>
        <time>2021-06-24T13:10:54.000Z</time>
      </trkpt>
      <trkpt lat="43.20129" lon="0.1265">
        <ele>401.04</ele>
        <time>2021-06-24T13:10:59.000Z</time>
      </trkpt>
      <trkpt lat="43.20134" lon="0.12673">
        <ele>397.28</ele>
        <time>2021-06-24T13:11:04.000Z</time>
      </trkpt>
      <trkpt lat="43.20143" lon="0.12666">
        <ele>393.7</ele>
        <time>2021-06-24T13:11:15.000Z</time>
      </trkpt>
      <trkpt lat="43.20138" lon="0.12678">
        <ele>390.37</ele>
        <time>2021-06-24T13:11:24.000Z</time>
      </trkpt>
      <trkpt lat="43.20129" lon="0.12704">
        <ele>388.58</ele>
        <time>2021-06-24T13:11:29.000Z</time>
      </trkpt>
      <trkpt lat="43.20119" lon="0.12731">
        <ele>386.4</ele>
        <time>2021-06-24T13:11:34.000Z</time>
      </trkpt>
      <trkpt lat="43.20107" lon="0.1276">
        <ele>384.5</ele>
        <time>2021-06-24T13:11:39.000Z</time>
      </trkpt>
      <trkpt lat="43.20098" lon="0.12794">
        <ele>382.83</ele>
        <time>2021-06-24T13:11:44.000Z</time>
      </trkpt>
      <trkpt lat="43.20105" lon="0.12839">
        <ele>381.03</ele>
        <time>2021-06-24T13:11:49.000Z</time>
      </trkpt>
      <trkpt lat="43.20135" lon="0.12874">
        <ele>381.44</ele>
        <time>2021-06-24T13:11:54.000Z</time>
      </trkpt>
      <trkpt lat="43.20173" lon="0.12847">
        <ele>381.64</ele>
        <time>2021-06-24T13:11:59.000Z</time>
      </trkpt>
      <trkpt lat="43.20206" lon="0.12801">
        <ele>380.13</ele>
        <time>2021-06-24T13:12:04.000Z</time>
      </trkpt>
      <trkpt lat="43.20246" lon="0.12763">
        <ele>378.4</ele>
        <time>2021-06-24T13:12:09.000Z</time>
      </trkpt>
      <trkpt lat="43.20285" lon="0.12769">
        <ele>376.54</ele>
        <time>2021-06-24T13:12:14.000Z</time>
      </trkpt>
      <trkpt lat="43.20325" lon="0.12796">
        <ele>374.46</ele>
        <time>2021-06-24T13:12:19.000Z</time>
      </trkpt>
      <trkpt lat="43.2036" lon="0.12788">
        <ele>372.65</ele>
        <time>2021-06-24T13:12:24.000Z</time>
      </trkpt>
      <trkpt lat="43.20372" lon="0.12729">
        <ele>370.73</ele>
        <time>2021-06-24T13:12:29.000Z</time>
      </trkpt>
      <trkpt lat="43.20376" lon="0.12652">
        <ele>368.64</ele>
        <time>2021-06-24T13:12:34.000Z</time>
      </trkpt>
      <trkpt lat="43.20385" lon="0.1258">
        <ele>366.64</ele>
        <time>2021-06-24T13:12:39.000Z</time>
      </trkpt>
      <trkpt lat="43.2039" lon="0.12507">
        <ele>364.63</ele>
        <time>2021-06-24T13:12:44.000Z</time>
      </trkpt>
      <trkpt lat="43.20396" lon="0.12437">
        <ele>362.85</ele>
        <time>2021-06-24T13:12:49.000Z</time>
      </trkpt>
      <trkpt lat="43.2041" lon="0.12376">
        <ele>360.73</ele>
        <time>2021-06-24T13:12:54.000Z</time>
      </trkpt>
      <trkpt lat="43.20431" lon="0.12337">
        <ele>358.65</ele>
        <time>2021-06-24T13:12:59.000Z</time>
      </trkpt>
      <trkpt lat="43.20454" lon="0.12306">
        <ele>357.58</ele>
        <time>2021-06-24T13:13:04.000Z</time>
      </trkpt>
      <trkpt lat="43.20459" lon="0.1229">
        <ele>354.39</ele>
        <time>2021-06-24T13:13:09.000Z</time>
      </trkpt>
      <trkpt lat="43.20456" lon="0.12277">
        <ele>349</ele>
        <time>2021-06-24T13:23:54.000Z</time>
      </trkpt>
      <trkpt lat="43.20459" lon="0.12262">
        <ele>349.32</ele>
        <time>2021-06-24T13:23:59.000Z</time>
      </trkpt>
      <trkpt lat="43.20461" lon="0.12249">
        <ele>349.2</ele>
        <time>2021-06-24T13:24:05.000Z</time>
      </trkpt>
      <trkpt lat="43.20462" lon="0.12234">
        <ele>348.35</ele>
        <time>2021-06-24T13:24:56.000Z</time>
      </trkpt>
      <trkpt lat="43.20465" lon="0.12206">
        <ele>349.02</ele>
        <time>2021-06-24T13:25:01.000Z</time>
      </trkpt>
      <trkpt lat="43.20471" lon="0.12172">
        <ele>349.5</ele>
        <time>2021-06-24T13:25:06.000Z</time>
      </trkpt>
      <trkpt lat="43.20479" lon="0.12134">
        <ele>349.32</ele>
        <time>2021-06-24T13:25:11.000Z</time>
      </trkpt>
      <trkpt lat="43.20487" lon="0.12098">
        <ele>349.25</ele>
        <time>2021-06-24T13:25:16.000Z</time>
      </trkpt>
      <trkpt lat="43.20496" lon="0.12058">
        <ele>349.21</ele>
        <time>2021-06-24T13:25:21.000Z</time>
      </trkpt>
      <trkpt lat="43.20507" lon="0.12021">
        <ele>349.47</ele>
        <time>2021-06-24T13:25:26.000Z</time>
      </trkpt>
      <trkpt lat="43.20517" lon="0.11985">
        <ele>348.24</ele>
        <time>2021-06-24T13:25:31.000Z</time>
      </trkpt>
      <trkpt lat="43.20528" lon="0.11944">
        <ele>349.15</ele>
        <time>2021-06-24T13:25:36.000Z</time>
      </trkpt>
      <trkpt lat="43.20537" lon="0.11902">
        <ele>348.65</ele>
        <time>2021-06-24T13:25:41.000Z</time>
      </trkpt>
      <trkpt lat="43.20549" lon="0.11857">
        <ele>347.07</ele>
        <time>2021-06-24T13:25:46.000Z</time>
      </trkpt>
      <trkpt lat="43.20559" lon="0.11813">
        <ele>344.75</ele>
        <time>2021-06-24T13:25:51.000Z</time>
      </trkpt>
      <trkpt lat="43.20564" lon="0.11772">
        <ele>343.57</ele>
        <time>2021-06-24T13:25:56.000Z</time>
      </trkpt>
      <trkpt lat="43.20567" lon="0.1173">
        <ele>342.93</ele>
        <time>2021-06-24T13:26:01.000Z</time>
      </trkpt>
      <trkpt lat="43.20564" lon="0.11691">
        <ele>342.73</ele>
        <time>2021-06-24T13:26:06.000Z</time>
      </trkpt>
      <trkpt lat="43.20554" lon="0.11651">
        <ele>342.43</ele>
        <time>2021-06-24T13:26:11.000Z</time>
      </trkpt>
      <trkpt lat="43.20537" lon="0.11613">
        <ele>341.91</ele>
        <time>2021-06-24T13:26:16.000Z</time>
      </trkpt>
      <trkpt lat="43.2052" lon="0.11576">
        <ele>341.34</ele>
        <time>2021-06-24T13:26:21.000Z</time>
      </trkpt>
      <trkpt lat="43.20508" lon="0.11539">
        <ele>340.44</ele>
        <time>2021-06-24T13:26:26.000Z</time>
      </trkpt>
      <trkpt lat="43.20501" lon="0.11504">
        <ele>340.02</ele>
        <time>2021-06-24T13:26:31.000Z</time>
      </trkpt>
      <trkpt lat="43.20497" lon="0.11472">
        <ele>338.99</ele>
        <time>2021-06-24T13:26:36.000Z</time>
      </trkpt>
      <trkpt lat="43.20497" lon="0.11446">
        <ele>338.19</ele>
        <time>2021-06-24T13:26:41.000Z</time>
      </trkpt>
      <trkpt lat="43.20492" lon="0.11434">
        <ele>337.38</ele>
        <time>2021-06-24T13:26:46.000Z</time>
      </trkpt>
      <trkpt lat="43.20483" lon="0.11436">
        <ele>338.16</ele>
        <time>2021-06-24T13:27:08.000Z</time>
      </trkpt>
      <trkpt lat="43.20464" lon="0.11451">
        <ele>338.13</ele>
        <time>2021-06-24T13:27:13.000Z</time>
      </trkpt>
      <trkpt lat="43.20439" lon="0.11466">
        <ele>338.29</ele>
        <time>2021-06-24T13:27:18.000Z</time>
      </trkpt>
      <trkpt lat="43.20414" lon="0.11478">
        <ele>338.21</ele>
        <time>2021-06-24T13:27:23.000Z</time>
      </trkpt>
      <trkpt lat="43.20389" lon="0.1149">
        <ele>339.43</ele>
        <time>2021-06-24T13:27:28.000Z</time>
      </trkpt>
      <trkpt lat="43.20364" lon="0.11492">
        <ele>340.4</ele>
        <time>2021-06-24T13:27:33.000Z</time>
      </trkpt>
      <trkpt lat="43.20346" lon="0.11497">
        <ele>339.92</ele>
        <time>2021-06-24T13:27:38.000Z</time>
      </trkpt>
      <trkpt lat="43.20355" lon="0.1149">
        <ele>341.76</ele>
        <time>2021-06-24T13:27:49.000Z</time>
      </trkpt>
      <trkpt lat="43.20345" lon="0.11493">
        <ele>338.53</ele>
        <time>2021-06-24T13:28:25.000Z</time>
      </trkpt>
      <trkpt lat="43.20325" lon="0.11502">
        <ele>338.86</ele>
        <time>2021-06-24T13:28:30.000Z</time>
      </trkpt>
      <trkpt lat="43.20304" lon="0.11513">
        <ele>339.28</ele>
        <time>2021-06-24T13:28:35.000Z</time>
      </trkpt>
      <trkpt lat="43.20282" lon="0.11524">
        <ele>339.43</ele>
        <time>2021-06-24T13:28:40.000Z</time>
      </trkpt>
      <trkpt lat="43.20261" lon="0.11543">
        <ele>340.49</ele>
        <time>2021-06-24T13:28:45.000Z</time>
      </trkpt>
      <trkpt lat="43.20248" lon="0.11572">
        <ele>341.16</ele>
        <time>2021-06-24T13:28:50.000Z</time>
      </trkpt>
      <trkpt lat="43.20234" lon="0.11604">
        <ele>340.12</ele>
        <time>2021-06-24T13:28:55.000Z</time>
      </trkpt>
      <trkpt lat="43.20221" lon="0.11633">
        <ele>339.93</ele>
        <time>2021-06-24T13:29:00.000Z</time>
      </trkpt>
      <trkpt lat="43.20201" lon="0.11643">
        <ele>339.44</ele>
        <time>2021-06-24T13:29:05.000Z</time>
      </trkpt>
      <trkpt lat="43.20178" lon="0.11653">
        <ele>338.9</ele>
        <time>2021-06-24T13:29:10.000Z</time>
      </trkpt>
      <trkpt lat="43.20156" lon="0.11663">
        <ele>339.26</ele>
        <time>2021-06-24T13:29:15.000Z</time>
      </trkpt>
      <trkpt lat="43.20131" lon="0.11673">
        <ele>339.69</ele>
        <time>2021-06-24T13:29:20.000Z</time>
      </trkpt>
      <trkpt lat="43.20111" lon="0.11668">
        <ele>339.79</ele>
        <time>2021-06-24T13:29:25.000Z</time>
      </trkpt>
      <trkpt lat="43.20093" lon="0.11647">
        <ele>339.92</ele>
        <time>2021-06-24T13:29:30.000Z</time>
      </trkpt>
      <trkpt lat="43.20077" lon="0.11625">
        <ele>340.02</ele>
        <time>2021-06-24T13:29:35.000Z</time>
      </trkpt>
      <trkpt lat="43.20066" lon="0.11611">
        <ele>339.73</ele>
        <time>2021-06-24T13:29:40.000Z</time>
      </trkpt>
      <trkpt lat="43.20056" lon="0.11602">
        <ele>339.94</ele>
        <time>2021-06-24T13:29:45.000Z</time>
      </trkpt>
      <trkpt lat="43.20044" lon="0.11593">
        <ele>341.68</ele>
        <time>2021-06-24T13:29:50.000Z</time>
      </trkpt>
      <trkpt lat="43.20027" lon="0.11584">
        <ele>342.39</ele>
        <time>2021-06-24T13:29:55.000Z</time>
      </trkpt>
      <trkpt lat="43.20008" lon="0.11587">
        <ele>343.04</ele>
        <time>2021-06-24T13:30:00.000Z</time>
      </trkpt>
      <trkpt lat="43.19985" lon="0.11593">
        <ele>343.67</ele>
        <time>2021-06-24T13:30:05.000Z</time>
      </trkpt>
      <trkpt lat="43.19961" lon="0.116">
        <ele>343.67</ele>
        <time>2021-06-24T13:30:10.000Z</time>
      </trkpt>
      <trkpt lat="43.19942" lon="0.11607">
        <ele>343.8</ele>
        <time>2021-06-24T13:30:15.000Z</time>
      </trkpt>
      <trkpt lat="43.19927" lon="0.11613">
        <ele>343.73</ele>
        <time>2021-06-24T13:30:20.000Z</time>
      </trkpt>
      <trkpt lat="43.19918" lon="0.11606">
        <ele>342.71</ele>
        <time>2021-06-24T13:30:25.000Z</time>
      </trkpt>
      <trkpt lat="43.19907" lon="0.11608">
        <ele>346.31</ele>
        <time>2021-06-24T13:30:41.000Z</time>
      </trkpt>
      <trkpt lat="43.19895" lon="0.1162">
        <ele>348.59</ele>
        <time>2021-06-24T13:30:46.000Z</time>
      </trkpt>
      <trkpt lat="43.19883" lon="0.11642">
        <ele>349.44</ele>
        <time>2021-06-24T13:30:51.000Z</time>
      </trkpt>
      <trkpt lat="43.19868" lon="0.11659">
        <ele>349.86</ele>
        <time>2021-06-24T13:30:56.000Z</time>
      </trkpt>
      <trkpt lat="43.19849" lon="0.11665">
        <ele>349.63</ele>
        <time>2021-06-24T13:31:01.000Z</time>
      </trkpt>
      <trkpt lat="43.19829" lon="0.11672">
        <ele>350.37</ele>
        <time>2021-06-24T13:31:06.000Z</time>
      </trkpt>
      <trkpt lat="43.19811" lon="0.11675">
        <ele>350.4</ele>
        <time>2021-06-24T13:31:11.000Z</time>
      </trkpt>
      <trkpt lat="43.19794" lon="0.1167">
        <ele>349.77</ele>
        <time>2021-06-24T13:31:16.000Z</time>
      </trkpt>
      <trkpt lat="43.19778" lon="0.11662">
        <ele>349.19</ele>
        <time>2021-06-24T13:31:21.000Z</time>
      </trkpt>
      <trkpt lat="43.19765" lon="0.11655">
        <ele>349.28</ele>
        <time>2021-06-24T13:31:26.000Z</time>
      </trkpt>
      <trkpt lat="43.19757" lon="0.11646">
        <ele>349.5</ele>
        <time>2021-06-24T13:31:31.000Z</time>
      </trkpt>
      <trkpt lat="43.19753" lon="0.11632">
        <ele>350.51</ele>
        <time>2021-06-24T13:31:46.000Z</time>
      </trkpt>
      <trkpt lat="43.19751" lon="0.11608">
        <ele>350.77</ele>
        <time>2021-06-24T13:31:51.000Z</time>
      </trkpt>
      <trkpt lat="43.19749" lon="0.11579">
        <ele>350.24</ele>
        <time>2021-06-24T13:31:56.000Z</time>
      </trkpt>
      <trkpt lat="43.19746" lon="0.11547">
        <ele>349.73</ele>
        <time>2021-06-24T13:32:01.000Z</time>
      </trkpt>
      <trkpt lat="43.19747" lon="0.11516">
        <ele>349</ele>
        <time>2021-06-24T13:32:06.000Z</time>
      </trkpt>
      <trkpt lat="43.19759" lon="0.11486">
        <ele>348.84</ele>
        <time>2021-06-24T13:32:11.000Z</time>
      </trkpt>
      <trkpt lat="43.19776" lon="0.11456">
        <ele>349.05</ele>
        <time>2021-06-24T13:32:16.000Z</time>
      </trkpt>
      <trkpt lat="43.19798" lon="0.11433">
        <ele>349.54</ele>
        <time>2021-06-24T13:32:21.000Z</time>
      </trkpt>
      <trkpt lat="43.19823" lon="0.11407">
        <ele>349.15</ele>
        <time>2021-06-24T13:32:26.000Z</time>
      </trkpt>
      <trkpt lat="43.19848" lon="0.11378">
        <ele>349.53</ele>
        <time>2021-06-24T13:32:31.000Z</time>
      </trkpt>
      <trkpt lat="43.19868" lon="0.11348">
        <ele>349.23</ele>
        <time>2021-06-24T13:32:36.000Z</time>
      </trkpt>
      <trkpt lat="43.19889" lon="0.11318">
        <ele>348.5</ele>
        <time>2021-06-24T13:32:41.000Z</time>
      </trkpt>
      <trkpt lat="43.1991" lon="0.11291">
        <ele>348.67</ele>
        <time>2021-06-24T13:32:46.000Z</time>
      </trkpt>
      <trkpt lat="43.19927" lon="0.11262">
        <ele>349.08</ele>
        <time>2021-06-24T13:32:51.000Z</time>
      </trkpt>
      <trkpt lat="43.19944" lon="0.11228">
        <ele>348.72</ele>
        <time>2021-06-24T13:32:56.000Z</time>
      </trkpt>
      <trkpt lat="43.19957" lon="0.11191">
        <ele>348.73</ele>
        <time>2021-06-24T13:33:01.000Z</time>
      </trkpt>
      <trkpt lat="43.1997" lon="0.11157">
        <ele>348.1</ele>
        <time>2021-06-24T13:33:06.000Z</time>
      </trkpt>
      <trkpt lat="43.1998" lon="0.11126">
        <ele>346.77</ele>
        <time>2021-06-24T13:33:11.000Z</time>
      </trkpt>
      <trkpt lat="43.19988" lon="0.11094">
        <ele>346.2</ele>
        <time>2021-06-24T13:33:16.000Z</time>
      </trkpt>
      <trkpt lat="43.19999" lon="0.11067">
        <ele>345.36</ele>
        <time>2021-06-24T13:33:21.000Z</time>
      </trkpt>
      <trkpt lat="43.20009" lon="0.11037">
        <ele>345.58</ele>
        <time>2021-06-24T13:33:26.000Z</time>
      </trkpt>
      <trkpt lat="43.20005" lon="0.11004">
        <ele>344.92</ele>
        <time>2021-06-24T13:33:31.000Z</time>
      </trkpt>
      <trkpt lat="43.20009" lon="0.10971">
        <ele>343.59</ele>
        <time>2021-06-24T13:33:36.000Z</time>
      </trkpt>
      <trkpt lat="43.2002" lon="0.10938">
        <ele>342.74</ele>
        <time>2021-06-24T13:33:41.000Z</time>
      </trkpt>
      <trkpt lat="43.20031" lon="0.10904">
        <ele>343.49</ele>
        <time>2021-06-24T13:33:46.000Z</time>
      </trkpt>
      <trkpt lat="43.20046" lon="0.10873">
        <ele>343.11</ele>
        <time>2021-06-24T13:33:51.000Z</time>
      </trkpt>
      <trkpt lat="43.20055" lon="0.10836">
        <ele>342.36</ele>
        <time>2021-06-24T13:33:56.000Z</time>
      </trkpt>
      <trkpt lat="43.20067" lon="0.10802">
        <ele>341.71</ele>
        <time>2021-06-24T13:34:01.000Z</time>
      </trkpt>
      <trkpt lat="43.20079" lon="0.10767">
        <ele>341.59</ele>
        <time>2021-06-24T13:34:06.000Z</time>
      </trkpt>
      <trkpt lat="43.20085" lon="0.10732">
        <ele>342.26</ele>
        <time>2021-06-24T13:34:11.000Z</time>
      </trkpt>
      <trkpt lat="43.20091" lon="0.10694">
        <ele>342.56</ele>
        <time>2021-06-24T13:34:16.000Z</time>
      </trkpt>
      <trkpt lat="43.20098" lon="0.10657">
        <ele>342.84</ele>
        <time>2021-06-24T13:34:21.000Z</time>
      </trkpt>
      <trkpt lat="43.20108" lon="0.10619">
        <ele>343.74</ele>
        <time>2021-06-24T13:34:26.000Z</time>
      </trkpt>
      <trkpt lat="43.20115" lon="0.10579">
        <ele>344.07</ele>
        <time>2021-06-24T13:34:31.000Z</time>
      </trkpt>
      <trkpt lat="43.20127" lon="0.10542">
        <ele>343.98</ele>
        <time>2021-06-24T13:34:36.000Z</time>
      </trkpt>
      <trkpt lat="43.20144" lon="0.10509">
        <ele>344.09</ele>
        <time>2021-06-24T13:34:41.000Z</time>
      </trkpt>
      <trkpt lat="43.20161" lon="0.1048">
        <ele>345.2</ele>
        <time>2021-06-24T13:34:46.000Z</time>
      </trkpt>
      <trkpt lat="43.20178" lon="0.10452">
        <ele>345.11</ele>
        <time>2021-06-24T13:34:51.000Z</time>
      </trkpt>
      <trkpt lat="43.20199" lon="0.10427">
        <ele>345.29</ele>
        <time>2021-06-24T13:34:56.000Z</time>
      </trkpt>
      <trkpt lat="43.20223" lon="0.10411">
        <ele>344.8</ele>
        <time>2021-06-24T13:35:01.000Z</time>
      </trkpt>
      <trkpt lat="43.20246" lon="0.10395">
        <ele>344.92</ele>
        <time>2021-06-24T13:35:06.000Z</time>
      </trkpt>
      <trkpt lat="43.20274" lon="0.10377">
        <ele>345.03</ele>
        <time>2021-06-24T13:35:11.000Z</time>
      </trkpt>
      <trkpt lat="43.203" lon="0.10358">
        <ele>345.93</ele>
        <time>2021-06-24T13:35:16.000Z</time>
      </trkpt>
      <trkpt lat="43.20325" lon="0.10343">
        <ele>346.17</ele>
        <time>2021-06-24T13:35:21.000Z</time>
      </trkpt>
      <trkpt lat="43.20348" lon="0.10325">
        <ele>346.56</ele>
        <time>2021-06-24T13:35:26.000Z</time>
      </trkpt>
      <trkpt lat="43.20361" lon="0.10305">
        <ele>346.95</ele>
        <time>2021-06-24T13:35:31.000Z</time>
      </trkpt>
      <trkpt lat="43.20364" lon="0.1029">
        <ele>346.88</ele>
        <time>2021-06-24T13:35:36.000Z</time>
      </trkpt>
      <trkpt lat="43.20363" lon="0.10277">
        <ele>346.77</ele>
        <time>2021-06-24T13:35:48.000Z</time>
      </trkpt>
      <trkpt lat="43.20362" lon="0.10259">
        <ele>345.64</ele>
        <time>2021-06-24T13:35:53.000Z</time>
      </trkpt>
      <trkpt lat="43.20359" lon="0.10226">
        <ele>345.65</ele>
        <time>2021-06-24T13:35:58.000Z</time>
      </trkpt>
      <trkpt lat="43.20354" lon="0.10192">
        <ele>344.64</ele>
        <time>2021-06-24T13:36:03.000Z</time>
      </trkpt>
      <trkpt lat="43.20351" lon="0.10156">
        <ele>343</ele>
        <time>2021-06-24T13:36:08.000Z</time>
      </trkpt>
      <trkpt lat="43.2035" lon="0.10119">
        <ele>341.47</ele>
        <time>2021-06-24T13:36:13.000Z</time>
      </trkpt>
      <trkpt lat="43.2035" lon="0.10084">
        <ele>340.81</ele>
        <time>2021-06-24T13:36:18.000Z</time>
      </trkpt>
      <trkpt lat="43.20348" lon="0.10059">
        <ele>341.18</ele>
        <time>2021-06-24T13:36:23.000Z</time>
      </trkpt>
      <trkpt lat="43.20349" lon="0.10028">
        <ele>341.5</ele>
        <time>2021-06-24T13:36:28.000Z</time>
      </trkpt>
      <trkpt lat="43.20361" lon="0.10004">
        <ele>340.87</ele>
        <time>2021-06-24T13:36:33.000Z</time>
      </trkpt>
      <trkpt lat="43.20383" lon="0.0999">
        <ele>339.68</ele>
        <time>2021-06-24T13:36:38.000Z</time>
      </trkpt>
      <trkpt lat="43.20407" lon="0.09971">
        <ele>339.8</ele>
        <time>2021-06-24T13:36:43.000Z</time>
      </trkpt>
      <trkpt lat="43.204" lon="0.09936">
        <ele>338.93</ele>
        <time>2021-06-24T13:36:48.000Z</time>
      </trkpt>
      <trkpt lat="43.20393" lon="0.09905">
        <ele>338.4</ele>
        <time>2021-06-24T13:36:53.000Z</time>
      </trkpt>
      <trkpt lat="43.2039" lon="0.0987">
        <ele>336.57</ele>
        <time>2021-06-24T13:36:58.000Z</time>
      </trkpt>
      <trkpt lat="43.20391" lon="0.09827">
        <ele>335.4</ele>
        <time>2021-06-24T13:37:03.000Z</time>
      </trkpt>
      <trkpt lat="43.20398" lon="0.09783">
        <ele>334.05</ele>
        <time>2021-06-24T13:37:08.000Z</time>
      </trkpt>
      <trkpt lat="43.20415" lon="0.09728">
        <ele>333.53</ele>
        <time>2021-06-24T13:37:13.000Z</time>
      </trkpt>
      <trkpt lat="43.20426" lon="0.09676">
        <ele>333.68</ele>
        <time>2021-06-24T13:37:18.000Z</time>
      </trkpt>
      <trkpt lat="43.20432" lon="0.09633">
        <ele>336.02</ele>
        <time>2021-06-24T13:37:23.000Z</time>
      </trkpt>
      <trkpt lat="43.20426" lon="0.09592">
        <ele>336.73</ele>
        <time>2021-06-24T13:37:28.000Z</time>
      </trkpt>
      <trkpt lat="43.20416" lon="0.09566">
        <ele>335.81</ele>
        <time>2021-06-24T13:37:33.000Z</time>
      </trkpt>
      <trkpt lat="43.2041" lon="0.09536">
        <ele>335.39</ele>
        <time>2021-06-24T13:37:38.000Z</time>
      </trkpt>
      <trkpt lat="43.20403" lon="0.09503">
        <ele>335.01</ele>
        <time>2021-06-24T13:37:43.000Z</time>
      </trkpt>
      <trkpt lat="43.20393" lon="0.09471">
        <ele>334.17</ele>
        <time>2021-06-24T13:37:48.000Z</time>
      </trkpt>
      <trkpt lat="43.20381" lon="0.09445">
        <ele>334.08</ele>
        <time>2021-06-24T13:37:53.000Z</time>
      </trkpt>
      <trkpt lat="43.20371" lon="0.09416">
        <ele>334.23</ele>
        <time>2021-06-24T13:37:58.000Z</time>
      </trkpt>
      <trkpt lat="43.20363" lon="0.09386">
        <ele>334.79</ele>
        <time>2021-06-24T13:38:03.000Z</time>
      </trkpt>
      <trkpt lat="43.20357" lon="0.09358">
        <ele>335.61</ele>
        <time>2021-06-24T13:38:08.000Z</time>
      </trkpt>
      <trkpt lat="43.20352" lon="0.09332">
        <ele>335.79</ele>
        <time>2021-06-24T13:38:13.000Z</time>
      </trkpt>
      <trkpt lat="43.20348" lon="0.09301">
        <ele>335.46</ele>
        <time>2021-06-24T13:38:18.000Z</time>
      </trkpt>
      <trkpt lat="43.20347" lon="0.09268">
        <ele>334.57</ele>
        <time>2021-06-24T13:38:23.000Z</time>
      </trkpt>
      <trkpt lat="43.20348" lon="0.09231">
        <ele>334.24</ele>
        <time>2021-06-24T13:38:28.000Z</time>
      </trkpt>
      <trkpt lat="43.20349" lon="0.09191">
        <ele>333.81</ele>
        <time>2021-06-24T13:38:33.000Z</time>
      </trkpt>
      <trkpt lat="43.20352" lon="0.09146">
        <ele>332.42</ele>
        <time>2021-06-24T13:38:38.000Z</time>
      </trkpt>
      <trkpt lat="43.20352" lon="0.091">
        <ele>331.16</ele>
        <time>2021-06-24T13:38:43.000Z</time>
      </trkpt>
      <trkpt lat="43.20352" lon="0.09052">
        <ele>329.3</ele>
        <time>2021-06-24T13:38:48.000Z</time>
      </trkpt>
      <trkpt lat="43.20352" lon="0.09005">
        <ele>330.03</ele>
        <time>2021-06-24T13:38:53.000Z</time>
      </trkpt>
      <trkpt lat="43.20352" lon="0.08962">
        <ele>328.58</ele>
        <time>2021-06-24T13:38:58.000Z</time>
      </trkpt>
      <trkpt lat="43.20355" lon="0.08922">
        <ele>328.86</ele>
        <time>2021-06-24T13:39:03.000Z</time>
      </trkpt>
      <trkpt lat="43.2036" lon="0.08878">
        <ele>328.21</ele>
        <time>2021-06-24T13:39:08.000Z</time>
      </trkpt>
      <trkpt lat="43.20362" lon="0.08837">
        <ele>329</ele>
        <time>2021-06-24T13:39:13.000Z</time>
      </trkpt>
      <trkpt lat="43.20358" lon="0.08797">
        <ele>328.56</ele>
        <time>2021-06-24T13:39:18.000Z</time>
      </trkpt>
      <trkpt lat="43.20351" lon="0.08756">
        <ele>327.86</ele>
        <time>2021-06-24T13:39:23.000Z</time>
      </trkpt>
      <trkpt lat="43.20345" lon="0.08715">
        <ele>327.15</ele>
        <time>2021-06-24T13:39:28.000Z</time>
      </trkpt>
      <trkpt lat="43.20338" lon="0.08679">
        <ele>326.86</ele>
        <time>2021-06-24T13:39:33.000Z</time>
      </trkpt>
      <trkpt lat="43.20332" lon="0.08638">
        <ele>327.79</ele>
        <time>2021-06-24T13:39:38.000Z</time>
      </trkpt>
      <trkpt lat="43.20324" lon="0.08595">
        <ele>329.91</ele>
        <time>2021-06-24T13:39:43.000Z</time>
      </trkpt>
      <trkpt lat="43.20318" lon="0.08555">
        <ele>329.28</ele>
        <time>2021-06-24T13:39:48.000Z</time>
      </trkpt>
      <trkpt lat="43.20315" lon="0.08517">
        <ele>329.38</ele>
        <time>2021-06-24T13:39:53.000Z</time>
      </trkpt>
      <trkpt lat="43.20312" lon="0.08481">
        <ele>329</ele>
        <time>2021-06-24T13:39:58.000Z</time>
      </trkpt>
      <trkpt lat="43.20311" lon="0.08445">
        <ele>328.46</ele>
        <time>2021-06-24T13:40:03.000Z</time>
      </trkpt>
      <trkpt lat="43.20312" lon="0.08409">
        <ele>329.97</ele>
        <time>2021-06-24T13:40:08.000Z</time>
      </trkpt>
      <trkpt lat="43.20316" lon="0.08375">
        <ele>332.7</ele>
        <time>2021-06-24T13:40:13.000Z</time>
      </trkpt>
      <trkpt lat="43.20327" lon="0.08345">
        <ele>333.46</ele>
        <time>2021-06-24T13:40:18.000Z</time>
      </trkpt>
      <trkpt lat="43.20321" lon="0.08312">
        <ele>332.93</ele>
        <time>2021-06-24T13:40:23.000Z</time>
      </trkpt>
      <trkpt lat="43.20311" lon="0.0828">
        <ele>331.07</ele>
        <time>2021-06-24T13:40:28.000Z</time>
      </trkpt>
      <trkpt lat="43.20306" lon="0.08243">
        <ele>330.22</ele>
        <time>2021-06-24T13:40:33.000Z</time>
      </trkpt>
      <trkpt lat="43.20304" lon="0.08207">
        <ele>330.21</ele>
        <time>2021-06-24T13:40:38.000Z</time>
      </trkpt>
      <trkpt lat="43.203" lon="0.08173">
        <ele>330.54</ele>
        <time>2021-06-24T13:40:43.000Z</time>
      </trkpt>
      <trkpt lat="43.20294" lon="0.08134">
        <ele>332.36</ele>
        <time>2021-06-24T13:40:48.000Z</time>
      </trkpt>
      <trkpt lat="43.20287" lon="0.08096">
        <ele>332.4</ele>
        <time>2021-06-24T13:40:53.000Z</time>
      </trkpt>
      <trkpt lat="43.20281" lon="0.0806">
        <ele>333.33</ele>
        <time>2021-06-24T13:40:58.000Z</time>
      </trkpt>
      <trkpt lat="43.20275" lon="0.08021">
        <ele>333.3</ele>
        <time>2021-06-24T13:41:03.000Z</time>
      </trkpt>
      <trkpt lat="43.20269" lon="0.07984">
        <ele>333.32</ele>
        <time>2021-06-24T13:41:08.000Z</time>
      </trkpt>
      <trkpt lat="43.20263" lon="0.07942">
        <ele>333.62</ele>
        <time>2021-06-24T13:41:13.000Z</time>
      </trkpt>
      <trkpt lat="43.20259" lon="0.07901">
        <ele>334.14</ele>
        <time>2021-06-24T13:41:18.000Z</time>
      </trkpt>
      <trkpt lat="43.20254" lon="0.0786">
        <ele>334.04</ele>
        <time>2021-06-24T13:41:23.000Z</time>
      </trkpt>
      <trkpt lat="43.20248" lon="0.07819">
        <ele>333.99</ele>
        <time>2021-06-24T13:41:28.000Z</time>
      </trkpt>
      <trkpt lat="43.20239" lon="0.07779">
        <ele>334.15</ele>
        <time>2021-06-24T13:41:33.000Z</time>
      </trkpt>
      <trkpt lat="43.20229" lon="0.07743">
        <ele>333.61</ele>
        <time>2021-06-24T13:41:38.000Z</time>
      </trkpt>
      <trkpt lat="43.20223" lon="0.07704">
        <ele>333.37</ele>
        <time>2021-06-24T13:41:43.000Z</time>
      </trkpt>
      <trkpt lat="43.20214" lon="0.07672">
        <ele>332.66</ele>
        <time>2021-06-24T13:41:48.000Z</time>
      </trkpt>
      <trkpt lat="43.20204" lon="0.07645">
        <ele>332.43</ele>
        <time>2021-06-24T13:41:53.000Z</time>
      </trkpt>
      <trkpt lat="43.20196" lon="0.07625">
        <ele>331.86</ele>
        <time>2021-06-24T13:41:58.000Z</time>
      </trkpt>
      <trkpt lat="43.20192" lon="0.07608">
        <ele>331.7</ele>
        <time>2021-06-24T13:42:03.000Z</time>
      </trkpt>
      <trkpt lat="43.20194" lon="0.0759">
        <ele>331.58</ele>
        <time>2021-06-24T13:42:08.000Z</time>
      </trkpt>
      <trkpt lat="43.20203" lon="0.07578">
        <ele>332.12</ele>
        <time>2021-06-24T13:42:13.000Z</time>
      </trkpt>
      <trkpt lat="43.20218" lon="0.07568">
        <ele>332.73</ele>
        <time>2021-06-24T13:42:18.000Z</time>
      </trkpt>
      <trkpt lat="43.20238" lon="0.07555">
        <ele>334.32</ele>
        <time>2021-06-24T13:42:23.000Z</time>
      </trkpt>
      <trkpt lat="43.20255" lon="0.07546">
        <ele>335.14</ele>
        <time>2021-06-24T13:42:28.000Z</time>
      </trkpt>
      <trkpt lat="43.20272" lon="0.07535">
        <ele>334.87</ele>
        <time>2021-06-24T13:42:33.000Z</time>
      </trkpt>
      <trkpt lat="43.20292" lon="0.07522">
        <ele>335.65</ele>
        <time>2021-06-24T13:42:38.000Z</time>
      </trkpt>
      <trkpt lat="43.20312" lon="0.0751">
        <ele>336.34</ele>
        <time>2021-06-24T13:42:43.000Z</time>
      </trkpt>
      <trkpt lat="43.20335" lon="0.07497">
        <ele>336.47</ele>
        <time>2021-06-24T13:42:48.000Z</time>
      </trkpt>
      <trkpt lat="43.20361" lon="0.07484">
        <ele>335.68</ele>
        <time>2021-06-24T13:42:53.000Z</time>
      </trkpt>
      <trkpt lat="43.20392" lon="0.0747">
        <ele>335.41</ele>
        <time>2021-06-24T13:42:58.000Z</time>
      </trkpt>
      <trkpt lat="43.20422" lon="0.07454">
        <ele>336.3</ele>
        <time>2021-06-24T13:43:03.000Z</time>
      </trkpt>
      <trkpt lat="43.20448" lon="0.07438">
        <ele>336.34</ele>
        <time>2021-06-24T13:43:08.000Z</time>
      </trkpt>
      <trkpt lat="43.20467" lon="0.07415">
        <ele>334.68</ele>
        <time>2021-06-24T13:43:13.000Z</time>
      </trkpt>
      <trkpt lat="43.20473" lon="0.07388">
        <ele>333.5</ele>
        <time>2021-06-24T13:43:18.000Z</time>
      </trkpt>
      <trkpt lat="43.20462" lon="0.07362">
        <ele>332.34</ele>
        <time>2021-06-24T13:43:23.000Z</time>
      </trkpt>
      <trkpt lat="43.20454" lon="0.07332">
        <ele>332.26</ele>
        <time>2021-06-24T13:43:28.000Z</time>
      </trkpt>
      <trkpt lat="43.20447" lon="0.07293">
        <ele>331.94</ele>
        <time>2021-06-24T13:43:33.000Z</time>
      </trkpt>
      <trkpt lat="43.20435" lon="0.07257">
        <ele>330.72</ele>
        <time>2021-06-24T13:43:38.000Z</time>
      </trkpt>
      <trkpt lat="43.20422" lon="0.07223">
        <ele>329.27</ele>
        <time>2021-06-24T13:43:43.000Z</time>
      </trkpt>
      <trkpt lat="43.20408" lon="0.0719">
        <ele>328.09</ele>
        <time>2021-06-24T13:43:48.000Z</time>
      </trkpt>
      <trkpt lat="43.20397" lon="0.07157">
        <ele>327.63</ele>
        <time>2021-06-24T13:43:53.000Z</time>
      </trkpt>
      <trkpt lat="43.20388" lon="0.07126">
        <ele>328.33</ele>
        <time>2021-06-24T13:43:58.000Z</time>
      </trkpt>
      <trkpt lat="43.2038" lon="0.07101">
        <ele>328.87</ele>
        <time>2021-06-24T13:44:03.000Z</time>
      </trkpt>
      <trkpt lat="43.20371" lon="0.07078">
        <ele>328.92</ele>
        <time>2021-06-24T13:44:08.000Z</time>
      </trkpt>
      <trkpt lat="43.20363" lon="0.07055">
        <ele>329.05</ele>
        <time>2021-06-24T13:44:13.000Z</time>
      </trkpt>
      <trkpt lat="43.20353" lon="0.07025">
        <ele>329.8</ele>
        <time>2021-06-24T13:44:18.000Z</time>
      </trkpt>
      <trkpt lat="43.20346" lon="0.07">
        <ele>330.1</ele>
        <time>2021-06-24T13:44:23.000Z</time>
      </trkpt>
      <trkpt lat="43.20369" lon="0.06986">
        <ele>329.74</ele>
        <time>2021-06-24T13:44:28.000Z</time>
      </trkpt>
      <trkpt lat="43.20393" lon="0.06974">
        <ele>328.96</ele>
        <time>2021-06-24T13:44:33.000Z</time>
      </trkpt>
      <trkpt lat="43.20418" lon="0.0696">
        <ele>329.44</ele>
        <time>2021-06-24T13:44:38.000Z</time>
      </trkpt>
      <trkpt lat="43.20449" lon="0.06946">
        <ele>330.18</ele>
        <time>2021-06-24T13:44:43.000Z</time>
      </trkpt>
      <trkpt lat="43.20482" lon="0.0693">
        <ele>330.86</ele>
        <time>2021-06-24T13:44:48.000Z</time>
      </trkpt>
      <trkpt lat="43.20512" lon="0.06915">
        <ele>331.2</ele>
        <time>2021-06-24T13:44:53.000Z</time>
      </trkpt>
      <trkpt lat="43.20543" lon="0.06898">
        <ele>330.52</ele>
        <time>2021-06-24T13:44:58.000Z</time>
      </trkpt>
      <trkpt lat="43.20552" lon="0.06861">
        <ele>330.44</ele>
        <time>2021-06-24T13:45:03.000Z</time>
      </trkpt>
      <trkpt lat="43.2054" lon="0.06825">
        <ele>330.38</ele>
        <time>2021-06-24T13:45:08.000Z</time>
      </trkpt>
      <trkpt lat="43.20532" lon="0.06793">
        <ele>330.97</ele>
        <time>2021-06-24T13:45:13.000Z</time>
      </trkpt>
      <trkpt lat="43.20524" lon="0.06756">
        <ele>331.75</ele>
        <time>2021-06-24T13:45:18.000Z</time>
      </trkpt>
      <trkpt lat="43.20515" lon="0.06723">
        <ele>332.93</ele>
        <time>2021-06-24T13:45:23.000Z</time>
      </trkpt>
      <trkpt lat="43.20507" lon="0.06693">
        <ele>333.47</ele>
        <time>2021-06-24T13:45:28.000Z</time>
      </trkpt>
      <trkpt lat="43.20498" lon="0.06658">
        <ele>334.09</ele>
        <time>2021-06-24T13:45:33.000Z</time>
      </trkpt>
      <trkpt lat="43.20493" lon="0.06624">
        <ele>334.47</ele>
        <time>2021-06-24T13:45:38.000Z</time>
      </trkpt>
      <trkpt lat="43.20484" lon="0.06593">
        <ele>334.58</ele>
        <time>2021-06-24T13:45:43.000Z</time>
      </trkpt>
      <trkpt lat="43.20474" lon="0.06559">
        <ele>334.97</ele>
        <time>2021-06-24T13:45:48.000Z</time>
      </trkpt>
      <trkpt lat="43.20464" lon="0.06526">
        <ele>335</ele>
        <time>2021-06-24T13:45:53.000Z</time>
      </trkpt>
      <trkpt lat="43.20449" lon="0.0649">
        <ele>334.76</ele>
        <time>2021-06-24T13:45:58.000Z</time>
      </trkpt>
      <trkpt lat="43.20433" lon="0.06455">
        <ele>334.68</ele>
        <time>2021-06-24T13:46:03.000Z</time>
      </trkpt>
      <trkpt lat="43.20412" lon="0.06425">
        <ele>334.77</ele>
        <time>2021-06-24T13:46:08.000Z</time>
      </trkpt>
      <trkpt lat="43.2039" lon="0.06388">
        <ele>334.8</ele>
        <time>2021-06-24T13:46:13.000Z</time>
      </trkpt>
      <trkpt lat="43.20366" lon="0.06352">
        <ele>334.31</ele>
        <time>2021-06-24T13:46:18.000Z</time>
      </trkpt>
      <trkpt lat="43.20344" lon="0.06317">
        <ele>334.48</ele>
        <time>2021-06-24T13:46:23.000Z</time>
      </trkpt>
      <trkpt lat="43.2032" lon="0.06287">
        <ele>334.77</ele>
        <time>2021-06-24T13:46:28.000Z</time>
      </trkpt>
      <trkpt lat="43.20294" lon="0.06258">
        <ele>334.03</ele>
        <time>2021-06-24T13:46:33.000Z</time>
      </trkpt>
      <trkpt lat="43.20271" lon="0.06231">
        <ele>335.07</ele>
        <time>2021-06-24T13:46:38.000Z</time>
      </trkpt>
      <trkpt lat="43.20249" lon="0.06203">
        <ele>334.34</ele>
        <time>2021-06-24T13:46:43.000Z</time>
      </trkpt>
      <trkpt lat="43.20227" lon="0.06179">
        <ele>335.44</ele>
        <time>2021-06-24T13:46:48.000Z</time>
      </trkpt>
      <trkpt lat="43.20202" lon="0.06159">
        <ele>334.93</ele>
        <time>2021-06-24T13:46:53.000Z</time>
      </trkpt>
      <trkpt lat="43.20175" lon="0.06148">
        <ele>334.03</ele>
        <time>2021-06-24T13:46:58.000Z</time>
      </trkpt>
      <trkpt lat="43.20147" lon="0.06145">
        <ele>332.97</ele>
        <time>2021-06-24T13:47:03.000Z</time>
      </trkpt>
      <trkpt lat="43.20119" lon="0.06143">
        <ele>332.88</ele>
        <time>2021-06-24T13:47:08.000Z</time>
      </trkpt>
      <trkpt lat="43.20095" lon="0.06127">
        <ele>334.18</ele>
        <time>2021-06-24T13:47:13.000Z</time>
      </trkpt>
      <trkpt lat="43.20083" lon="0.06105">
        <ele>333.34</ele>
        <time>2021-06-24T13:47:18.000Z</time>
      </trkpt>
      <trkpt lat="43.20087" lon="0.06078">
        <ele>332.98</ele>
        <time>2021-06-24T13:47:23.000Z</time>
      </trkpt>
      <trkpt lat="43.20106" lon="0.06052">
        <ele>333.92</ele>
        <time>2021-06-24T13:47:28.000Z</time>
      </trkpt>
      <trkpt lat="43.20125" lon="0.06026">
        <ele>334.38</ele>
        <time>2021-06-24T13:47:33.000Z</time>
      </trkpt>
      <trkpt lat="43.20144" lon="0.06">
        <ele>334.62</ele>
        <time>2021-06-24T13:47:38.000Z</time>
      </trkpt>
      <trkpt lat="43.20162" lon="0.05972">
        <ele>334.81</ele>
        <time>2021-06-24T13:47:43.000Z</time>
      </trkpt>
      <trkpt lat="43.20177" lon="0.05942">
        <ele>334.83</ele>
        <time>2021-06-24T13:47:48.000Z</time>
      </trkpt>
      <trkpt lat="43.20192" lon="0.05907">
        <ele>334.74</ele>
        <time>2021-06-24T13:47:53.000Z</time>
      </trkpt>
      <trkpt lat="43.20207" lon="0.05869">
        <ele>333.45</ele>
        <time>2021-06-24T13:47:58.000Z</time>
      </trkpt>
      <trkpt lat="43.20229" lon="0.0583">
        <ele>332.66</ele>
        <time>2021-06-24T13:48:03.000Z</time>
      </trkpt>
      <trkpt lat="43.20241" lon="0.05805">
        <ele>331.36</ele>
        <time>2021-06-24T13:48:08.000Z</time>
      </trkpt>
      <trkpt lat="43.20234" lon="0.05775">
        <ele>330.7</ele>
        <time>2021-06-24T13:48:13.000Z</time>
      </trkpt>
      <trkpt lat="43.20232" lon="0.05737">
        <ele>330.31</ele>
        <time>2021-06-24T13:48:18.000Z</time>
      </trkpt>
      <trkpt lat="43.2023" lon="0.05699">
        <ele>328.85</ele>
        <time>2021-06-24T13:48:23.000Z</time>
      </trkpt>
      <trkpt lat="43.20223" lon="0.05654">
        <ele>328.31</ele>
        <time>2021-06-24T13:48:28.000Z</time>
      </trkpt>
      <trkpt lat="43.20217" lon="0.05607">
        <ele>327.64</ele>
        <time>2021-06-24T13:48:33.000Z</time>
      </trkpt>
      <trkpt lat="43.20206" lon="0.05566">
        <ele>325.68</ele>
        <time>2021-06-24T13:48:38.000Z</time>
      </trkpt>
      <trkpt lat="43.20196" lon="0.05527">
        <ele>324.49</ele>
        <time>2021-06-24T13:48:43.000Z</time>
      </trkpt>
      <trkpt lat="43.20183" lon="0.05485">
        <ele>323.56</ele>
        <time>2021-06-24T13:48:48.000Z</time>
      </trkpt>
      <trkpt lat="43.2017" lon="0.05443">
        <ele>324.37</ele>
        <time>2021-06-24T13:48:53.000Z</time>
      </trkpt>
      <trkpt lat="43.20156" lon="0.05402">
        <ele>324.95</ele>
        <time>2021-06-24T13:48:58.000Z</time>
      </trkpt>
      <trkpt lat="43.20145" lon="0.05365">
        <ele>323.7</ele>
        <time>2021-06-24T13:49:03.000Z</time>
      </trkpt>
      <trkpt lat="43.20131" lon="0.05325">
        <ele>322.35</ele>
        <time>2021-06-24T13:49:08.000Z</time>
      </trkpt>
      <trkpt lat="43.20118" lon="0.05285">
        <ele>321.59</ele>
        <time>2021-06-24T13:49:13.000Z</time>
      </trkpt>
      <trkpt lat="43.20107" lon="0.05244">
        <ele>320.91</ele>
        <time>2021-06-24T13:49:18.000Z</time>
      </trkpt>
      <trkpt lat="43.20093" lon="0.05203">
        <ele>320.58</ele>
        <time>2021-06-24T13:49:23.000Z</time>
      </trkpt>
      <trkpt lat="43.20083" lon="0.05163">
        <ele>320.35</ele>
        <time>2021-06-24T13:49:28.000Z</time>
      </trkpt>
      <trkpt lat="43.20075" lon="0.05125">
        <ele>319.67</ele>
        <time>2021-06-24T13:49:33.000Z</time>
      </trkpt>
      <trkpt lat="43.20072" lon="0.0509">
        <ele>319.27</ele>
        <time>2021-06-24T13:49:38.000Z</time>
      </trkpt>
      <trkpt lat="43.20074" lon="0.05051">
        <ele>318.71</ele>
        <time>2021-06-24T13:49:43.000Z</time>
      </trkpt>
      <trkpt lat="43.20077" lon="0.05011">
        <ele>317.76</ele>
        <time>2021-06-24T13:49:48.000Z</time>
      </trkpt>
      <trkpt lat="43.20078" lon="0.04976">
        <ele>316.63</ele>
        <time>2021-06-24T13:49:53.000Z</time>
      </trkpt>
      <trkpt lat="43.2008" lon="0.04935">
        <ele>316.64</ele>
        <time>2021-06-24T13:49:58.000Z</time>
      </trkpt>
      <trkpt lat="43.20082" lon="0.04896">
        <ele>316.72</ele>
        <time>2021-06-24T13:50:03.000Z</time>
      </trkpt>
      <trkpt lat="43.20083" lon="0.04868">
        <ele>316.99</ele>
        <time>2021-06-24T13:50:08.000Z</time>
      </trkpt>
      <trkpt lat="43.20086" lon="0.04846">
        <ele>319.17</ele>
        <time>2021-06-24T13:50:13.000Z</time>
      </trkpt>
      <trkpt lat="43.20091" lon="0.04818">
        <ele>322.86</ele>
        <time>2021-06-24T13:50:18.000Z</time>
      </trkpt>
      <trkpt lat="43.201" lon="0.04788">
        <ele>325.49</ele>
        <time>2021-06-24T13:50:23.000Z</time>
      </trkpt>
      <trkpt lat="43.20111" lon="0.04762">
        <ele>327.1</ele>
        <time>2021-06-24T13:50:28.000Z</time>
      </trkpt>
      <trkpt lat="43.20126" lon="0.04739">
        <ele>328.69</ele>
        <time>2021-06-24T13:50:33.000Z</time>
      </trkpt>
      <trkpt lat="43.20139" lon="0.04718">
        <ele>330.34</ele>
        <time>2021-06-24T13:50:38.000Z</time>
      </trkpt>
      <trkpt lat="43.2015" lon="0.04695">
        <ele>329.82</ele>
        <time>2021-06-24T13:50:43.000Z</time>
      </trkpt>
      <trkpt lat="43.2016" lon="0.04669">
        <ele>328.84</ele>
        <time>2021-06-24T13:50:48.000Z</time>
      </trkpt>
      <trkpt lat="43.20168" lon="0.04642">
        <ele>328.95</ele>
        <time>2021-06-24T13:50:53.000Z</time>
      </trkpt>
      <trkpt lat="43.20173" lon="0.04611">
        <ele>329.94</ele>
        <time>2021-06-24T13:50:58.000Z</time>
      </trkpt>
      <trkpt lat="43.20176" lon="0.04579">
        <ele>330.53</ele>
        <time>2021-06-24T13:51:03.000Z</time>
      </trkpt>
      <trkpt lat="43.20182" lon="0.04551">
        <ele>330.45</ele>
        <time>2021-06-24T13:51:08.000Z</time>
      </trkpt>
      <trkpt lat="43.20187" lon="0.04521">
        <ele>330</ele>
        <time>2021-06-24T13:51:13.000Z</time>
      </trkpt>
      <trkpt lat="43.20192" lon="0.04493">
        <ele>330.56</ele>
        <time>2021-06-24T13:51:18.000Z</time>
      </trkpt>
      <trkpt lat="43.20197" lon="0.04465">
        <ele>331.34</ele>
        <time>2021-06-24T13:51:23.000Z</time>
      </trkpt>
      <trkpt lat="43.202" lon="0.04437">
        <ele>331.32</ele>
        <time>2021-06-24T13:51:28.000Z</time>
      </trkpt>
      <trkpt lat="43.20203" lon="0.04409">
        <ele>330.32</ele>
        <time>2021-06-24T13:51:33.000Z</time>
      </trkpt>
      <trkpt lat="43.20205" lon="0.04382">
        <ele>329.45</ele>
        <time>2021-06-24T13:51:38.000Z</time>
      </trkpt>
      <trkpt lat="43.20204" lon="0.04355">
        <ele>329.25</ele>
        <time>2021-06-24T13:51:43.000Z</time>
      </trkpt>
      <trkpt lat="43.20204" lon="0.04329">
        <ele>329.09</ele>
        <time>2021-06-24T13:51:48.000Z</time>
      </trkpt>
      <trkpt lat="43.202" lon="0.04302">
        <ele>329.44</ele>
        <time>2021-06-24T13:51:53.000Z</time>
      </trkpt>
      <trkpt lat="43.20193" lon="0.04276">
        <ele>329.91</ele>
        <time>2021-06-24T13:51:58.000Z</time>
      </trkpt>
      <trkpt lat="43.20187" lon="0.04251">
        <ele>329.77</ele>
        <time>2021-06-24T13:52:03.000Z</time>
      </trkpt>
      <trkpt lat="43.2018" lon="0.04228">
        <ele>329.79</ele>
        <time>2021-06-24T13:52:08.000Z</time>
      </trkpt>
      <trkpt lat="43.20174" lon="0.04202">
        <ele>330.69</ele>
        <time>2021-06-24T13:52:13.000Z</time>
      </trkpt>
      <trkpt lat="43.20169" lon="0.04176">
        <ele>331.24</ele>
        <time>2021-06-24T13:52:18.000Z</time>
      </trkpt>
      <trkpt lat="43.20164" lon="0.0415">
        <ele>330.72</ele>
        <time>2021-06-24T13:52:23.000Z</time>
      </trkpt>
      <trkpt lat="43.20161" lon="0.04121">
        <ele>331.37</ele>
        <time>2021-06-24T13:52:28.000Z</time>
      </trkpt>
      <trkpt lat="43.2016" lon="0.0409">
        <ele>331.75</ele>
        <time>2021-06-24T13:52:33.000Z</time>
      </trkpt>
      <trkpt lat="43.20159" lon="0.04055">
        <ele>331.47</ele>
        <time>2021-06-24T13:52:38.000Z</time>
      </trkpt>
      <trkpt lat="43.20155" lon="0.04022">
        <ele>332.17</ele>
        <time>2021-06-24T13:52:43.000Z</time>
      </trkpt>
      <trkpt lat="43.20151" lon="0.03984">
        <ele>331.52</ele>
        <time>2021-06-24T13:52:48.000Z</time>
      </trkpt>
      <trkpt lat="43.20145" lon="0.03943">
        <ele>330.54</ele>
        <time>2021-06-24T13:52:53.000Z</time>
      </trkpt>
      <trkpt lat="43.20133" lon="0.03901">
        <ele>329.76</ele>
        <time>2021-06-24T13:52:58.000Z</time>
      </trkpt>
      <trkpt lat="43.20116" lon="0.03862">
        <ele>328.39</ele>
        <time>2021-06-24T13:53:03.000Z</time>
      </trkpt>
      <trkpt lat="43.20094" lon="0.03821">
        <ele>326.38</ele>
        <time>2021-06-24T13:53:08.000Z</time>
      </trkpt>
      <trkpt lat="43.20065" lon="0.03779">
        <ele>324.73</ele>
        <time>2021-06-24T13:53:13.000Z</time>
      </trkpt>
      <trkpt lat="43.20034" lon="0.03732">
        <ele>322.76</ele>
        <time>2021-06-24T13:53:18.000Z</time>
      </trkpt>
      <trkpt lat="43.20017" lon="0.03676">
        <ele>319.5</ele>
        <time>2021-06-24T13:53:23.000Z</time>
      </trkpt>
      <trkpt lat="43.20004" lon="0.03623">
        <ele>318.04</ele>
        <time>2021-06-24T13:53:28.000Z</time>
      </trkpt>
      <trkpt lat="43.19994" lon="0.03578">
        <ele>317.55</ele>
        <time>2021-06-24T13:53:33.000Z</time>
      </trkpt>
      <trkpt lat="43.19986" lon="0.03542">
        <ele>315.55</ele>
        <time>2021-06-24T13:53:38.000Z</time>
      </trkpt>
      <trkpt lat="43.19984" lon="0.03521">
        <ele>313.14</ele>
        <time>2021-06-24T13:53:43.000Z</time>
      </trkpt>
      <trkpt lat="43.19979" lon="0.03503">
        <ele>311.78</ele>
        <time>2021-06-24T13:53:48.000Z</time>
      </trkpt>
      <trkpt lat="43.19975" lon="0.03475">
        <ele>310.84</ele>
        <time>2021-06-24T13:53:53.000Z</time>
      </trkpt>
      <trkpt lat="43.19969" lon="0.03446">
        <ele>310.88</ele>
        <time>2021-06-24T13:53:58.000Z</time>
      </trkpt>
      <trkpt lat="43.19963" lon="0.03417">
        <ele>309.77</ele>
        <time>2021-06-24T13:54:03.000Z</time>
      </trkpt>
      <trkpt lat="43.1996" lon="0.03397">
        <ele>309.23</ele>
        <time>2021-06-24T13:54:08.000Z</time>
      </trkpt>
      <trkpt lat="43.19962" lon="0.03372">
        <ele>308.57</ele>
        <time>2021-06-24T13:54:13.000Z</time>
      </trkpt>
      <trkpt lat="43.19948" lon="0.03354">
        <ele>307.1</ele>
        <time>2021-06-24T13:54:18.000Z</time>
      </trkpt>
      <trkpt lat="43.19934" lon="0.03339">
        <ele>306.69</ele>
        <time>2021-06-24T13:54:23.000Z</time>
      </trkpt>
      <trkpt lat="43.19923" lon="0.03319">
        <ele>305.97</ele>
        <time>2021-06-24T13:54:28.000Z</time>
      </trkpt>
      <trkpt lat="43.19909" lon="0.03304">
        <ele>305.02</ele>
        <time>2021-06-24T13:54:33.000Z</time>
      </trkpt>
      <trkpt lat="43.19902" lon="0.03292">
        <ele>305.89</ele>
        <time>2021-06-24T13:54:38.000Z</time>
      </trkpt>
      <trkpt lat="43.19891" lon="0.03289">
        <ele>307.1</ele>
        <time>2021-06-24T13:54:56.000Z</time>
      </trkpt>
      <trkpt lat="43.19879" lon="0.03271">
        <ele>307.44</ele>
        <time>2021-06-24T13:55:01.000Z</time>
      </trkpt>
      <trkpt lat="43.1988" lon="0.03243">
        <ele>308.35</ele>
        <time>2021-06-24T13:55:06.000Z</time>
      </trkpt>
      <trkpt lat="43.19893" lon="0.0321">
        <ele>308.31</ele>
        <time>2021-06-24T13:55:11.000Z</time>
      </trkpt>
      <trkpt lat="43.19906" lon="0.03182">
        <ele>308.81</ele>
        <time>2021-06-24T13:55:16.000Z</time>
      </trkpt>
      <trkpt lat="43.19923" lon="0.0316">
        <ele>309.46</ele>
        <time>2021-06-24T13:55:21.000Z</time>
      </trkpt>
      <trkpt lat="43.1994" lon="0.03137">
        <ele>309.99</ele>
        <time>2021-06-24T13:55:26.000Z</time>
      </trkpt>
      <trkpt lat="43.19953" lon="0.03108">
        <ele>310.55</ele>
        <time>2021-06-24T13:55:31.000Z</time>
      </trkpt>
      <trkpt lat="43.19966" lon="0.03072">
        <ele>311.04</ele>
        <time>2021-06-24T13:55:36.000Z</time>
      </trkpt>
      <trkpt lat="43.19976" lon="0.0304">
        <ele>310.79</ele>
        <time>2021-06-24T13:55:41.000Z</time>
      </trkpt>
      <trkpt lat="43.19987" lon="0.03012">
        <ele>311.27</ele>
        <time>2021-06-24T13:55:46.000Z</time>
      </trkpt>
      <trkpt lat="43.19997" lon="0.02984">
        <ele>311.69</ele>
        <time>2021-06-24T13:55:51.000Z</time>
      </trkpt>
      <trkpt lat="43.20008" lon="0.02956">
        <ele>312.24</ele>
        <time>2021-06-24T13:55:56.000Z</time>
      </trkpt>
      <trkpt lat="43.20022" lon="0.02931">
        <ele>312.97</ele>
        <time>2021-06-24T13:56:01.000Z</time>
      </trkpt>
      <trkpt lat="43.2003" lon="0.02902">
        <ele>313.66</ele>
        <time>2021-06-24T13:56:06.000Z</time>
      </trkpt>
      <trkpt lat="43.20039" lon="0.0287">
        <ele>314.66</ele>
        <time>2021-06-24T13:56:11.000Z</time>
      </trkpt>
      <trkpt lat="43.2005" lon="0.02841">
        <ele>315.51</ele>
        <time>2021-06-24T13:56:16.000Z</time>
      </trkpt>
      <trkpt lat="43.20055" lon="0.02809">
        <ele>316.05</ele>
        <time>2021-06-24T13:56:21.000Z</time>
      </trkpt>
      <trkpt lat="43.20068" lon="0.02785">
        <ele>317.75</ele>
        <time>2021-06-24T13:56:26.000Z</time>
      </trkpt>
      <trkpt lat="43.20072" lon="0.02759">
        <ele>318.51</ele>
        <time>2021-06-24T13:56:31.000Z</time>
      </trkpt>
      <trkpt lat="43.20078" lon="0.02743">
        <ele>319.37</ele>
        <time>2021-06-24T13:56:36.000Z</time>
      </trkpt>
      <trkpt lat="43.20087" lon="0.02728">
        <ele>319.49</ele>
        <time>2021-06-24T13:56:41.000Z</time>
      </trkpt>
      <trkpt lat="43.20096" lon="0.02709">
        <ele>319.2</ele>
        <time>2021-06-24T13:56:46.000Z</time>
      </trkpt>
      <trkpt lat="43.201" lon="0.02687">
        <ele>320.68</ele>
        <time>2021-06-24T13:56:51.000Z</time>
      </trkpt>
      <trkpt lat="43.201" lon="0.0266">
        <ele>322.68</ele>
        <time>2021-06-24T13:56:56.000Z</time>
      </trkpt>
      <trkpt lat="43.201" lon="0.02627">
        <ele>323.03</ele>
        <time>2021-06-24T13:57:01.000Z</time>
      </trkpt>
      <trkpt lat="43.20098" lon="0.02597">
        <ele>322.21</ele>
        <time>2021-06-24T13:57:06.000Z</time>
      </trkpt>
      <trkpt lat="43.20097" lon="0.02564">
        <ele>320.08</ele>
        <time>2021-06-24T13:57:11.000Z</time>
      </trkpt>
      <trkpt lat="43.20098" lon="0.02532">
        <ele>317.8</ele>
        <time>2021-06-24T13:57:16.000Z</time>
      </trkpt>
      <trkpt lat="43.20095" lon="0.02503">
        <ele>316.52</ele>
        <time>2021-06-24T13:57:21.000Z</time>
      </trkpt>
      <trkpt lat="43.20093" lon="0.02472">
        <ele>316.31</ele>
        <time>2021-06-24T13:57:26.000Z</time>
      </trkpt>
      <trkpt lat="43.20088" lon="0.02441">
        <ele>314.8</ele>
        <time>2021-06-24T13:57:31.000Z</time>
      </trkpt>
      <trkpt lat="43.20081" lon="0.02413">
        <ele>313.65</ele>
        <time>2021-06-24T13:57:36.000Z</time>
      </trkpt>
      <trkpt lat="43.20076" lon="0.02385">
        <ele>313.24</ele>
        <time>2021-06-24T13:57:41.000Z</time>
      </trkpt>
      <trkpt lat="43.20073" lon="0.02357">
        <ele>313.22</ele>
        <time>2021-06-24T13:57:46.000Z</time>
      </trkpt>
      <trkpt lat="43.20074" lon="0.02333">
        <ele>311.94</ele>
        <time>2021-06-24T13:57:51.000Z</time>
      </trkpt>
      <trkpt lat="43.20078" lon="0.02305">
        <ele>312.33</ele>
        <time>2021-06-24T13:57:56.000Z</time>
      </trkpt>
      <trkpt lat="43.20083" lon="0.02275">
        <ele>313.41</ele>
        <time>2021-06-24T13:58:01.000Z</time>
      </trkpt>
      <trkpt lat="43.20091" lon="0.02249">
        <ele>313.46</ele>
        <time>2021-06-24T13:58:06.000Z</time>
      </trkpt>
      <trkpt lat="43.20099" lon="0.02217">
        <ele>313.53</ele>
        <time>2021-06-24T13:58:11.000Z</time>
      </trkpt>
      <trkpt lat="43.20111" lon="0.02182">
        <ele>313.61</ele>
        <time>2021-06-24T13:58:16.000Z</time>
      </trkpt>
      <trkpt lat="43.20118" lon="0.02151">
        <ele>313.4</ele>
        <time>2021-06-24T13:58:21.000Z</time>
      </trkpt>
      <trkpt lat="43.20121" lon="0.02121">
        <ele>313.57</ele>
        <time>2021-06-24T13:58:26.000Z</time>
      </trkpt>
      <trkpt lat="43.20124" lon="0.02096">
        <ele>313.48</ele>
        <time>2021-06-24T13:58:31.000Z</time>
      </trkpt>
      <trkpt lat="43.2012" lon="0.02062">
        <ele>314.13</ele>
        <time>2021-06-24T13:58:36.000Z</time>
      </trkpt>
      <trkpt lat="43.20116" lon="0.02034">
        <ele>314.57</ele>
        <time>2021-06-24T13:58:41.000Z</time>
      </trkpt>
      <trkpt lat="43.20112" lon="0.02008">
        <ele>314.77</ele>
        <time>2021-06-24T13:58:46.000Z</time>
      </trkpt>
      <trkpt lat="43.20107" lon="0.01985">
        <ele>315.64</ele>
        <time>2021-06-24T13:58:51.000Z</time>
      </trkpt>
      <trkpt lat="43.20101" lon="0.01964">
        <ele>315.74</ele>
        <time>2021-06-24T13:58:56.000Z</time>
      </trkpt>
      <trkpt lat="43.20096" lon="0.01941">
        <ele>315.33</ele>
        <time>2021-06-24T13:59:01.000Z</time>
      </trkpt>
      <trkpt lat="43.20093" lon="0.01922">
        <ele>314.84</ele>
        <time>2021-06-24T13:59:06.000Z</time>
      </trkpt>
      <trkpt lat="43.20088" lon="0.01893">
        <ele>314.09</ele>
        <time>2021-06-24T13:59:11.000Z</time>
      </trkpt>
      <trkpt lat="43.20082" lon="0.01863">
        <ele>314.4</ele>
        <time>2021-06-24T13:59:16.000Z</time>
      </trkpt>
      <trkpt lat="43.20076" lon="0.01832">
        <ele>314.03</ele>
        <time>2021-06-24T13:59:21.000Z</time>
      </trkpt>
      <trkpt lat="43.2007" lon="0.01799">
        <ele>313.33</ele>
        <time>2021-06-24T13:59:26.000Z</time>
      </trkpt>
      <trkpt lat="43.20064" lon="0.0177">
        <ele>312.32</ele>
        <time>2021-06-24T13:59:31.000Z</time>
      </trkpt>
      <trkpt lat="43.20057" lon="0.01736">
        <ele>311.34</ele>
        <time>2021-06-24T13:59:36.000Z</time>
      </trkpt>
      <trkpt lat="43.2005" lon="0.017">
        <ele>310.3</ele>
        <time>2021-06-24T13:59:41.000Z</time>
      </trkpt>
      <trkpt lat="43.20044" lon="0.01667">
        <ele>308.79</ele>
        <time>2021-06-24T13:59:46.000Z</time>
      </trkpt>
      <trkpt lat="43.20033" lon="0.01641">
        <ele>308.2</ele>
        <time>2021-06-24T13:59:51.000Z</time>
      </trkpt>
      <trkpt lat="43.20018" lon="0.01616">
        <ele>308.13</ele>
        <time>2021-06-24T13:59:56.000Z</time>
      </trkpt>
      <trkpt lat="43.20002" lon="0.01591">
        <ele>308.33</ele>
        <time>2021-06-24T14:00:01.000Z</time>
      </trkpt>
      <trkpt lat="43.19985" lon="0.01565">
        <ele>308.57</ele>
        <time>2021-06-24T14:00:06.000Z</time>
      </trkpt>
      <trkpt lat="43.19968" lon="0.01538">
        <ele>309.92</ele>
        <time>2021-06-24T14:00:11.000Z</time>
      </trkpt>
      <trkpt lat="43.19953" lon="0.01509">
        <ele>311.95</ele>
        <time>2021-06-24T14:00:16.000Z</time>
      </trkpt>
      <trkpt lat="43.19952" lon="0.01478">
        <ele>312.92</ele>
        <time>2021-06-24T14:00:21.000Z</time>
      </trkpt>
      <trkpt lat="43.19965" lon="0.01454">
        <ele>316.15</ele>
        <time>2021-06-24T14:00:26.000Z</time>
      </trkpt>
      <trkpt lat="43.19982" lon="0.01432">
        <ele>317.11</ele>
        <time>2021-06-24T14:00:31.000Z</time>
      </trkpt>
      <trkpt lat="43.1999" lon="0.01398">
        <ele>318.08</ele>
        <time>2021-06-24T14:00:36.000Z</time>
      </trkpt>
      <trkpt lat="43.19983" lon="0.01365">
        <ele>317.87</ele>
        <time>2021-06-24T14:00:41.000Z</time>
      </trkpt>
      <trkpt lat="43.19977" lon="0.0133">
        <ele>317.87</ele>
        <time>2021-06-24T14:00:46.000Z</time>
      </trkpt>
      <trkpt lat="43.19971" lon="0.01297">
        <ele>317.88</ele>
        <time>2021-06-24T14:00:51.000Z</time>
      </trkpt>
      <trkpt lat="43.19964" lon="0.01264">
        <ele>317.82</ele>
        <time>2021-06-24T14:00:56.000Z</time>
      </trkpt>
      <trkpt lat="43.19958" lon="0.01233">
        <ele>317.72</ele>
        <time>2021-06-24T14:01:01.000Z</time>
      </trkpt>
      <trkpt lat="43.1995" lon="0.01203">
        <ele>317.65</ele>
        <time>2021-06-24T14:01:06.000Z</time>
      </trkpt>
      <trkpt lat="43.19944" lon="0.01172">
        <ele>317.67</ele>
        <time>2021-06-24T14:01:11.000Z</time>
      </trkpt>
      <trkpt lat="43.19938" lon="0.01144">
        <ele>317.54</ele>
        <time>2021-06-24T14:01:16.000Z</time>
      </trkpt>
      <trkpt lat="43.19933" lon="0.01117">
        <ele>316.66</ele>
        <time>2021-06-24T14:01:21.000Z</time>
      </trkpt>
      <trkpt lat="43.19927" lon="0.01089">
        <ele>316.3</ele>
        <time>2021-06-24T14:01:26.000Z</time>
      </trkpt>
      <trkpt lat="43.1992" lon="0.01064">
        <ele>316.4</ele>
        <time>2021-06-24T14:01:31.000Z</time>
      </trkpt>
      <trkpt lat="43.19915" lon="0.01039">
        <ele>316.4</ele>
        <time>2021-06-24T14:01:36.000Z</time>
      </trkpt>
      <trkpt lat="43.19911" lon="0.01017">
        <ele>316.25</ele>
        <time>2021-06-24T14:01:41.000Z</time>
      </trkpt>
      <trkpt lat="43.19905" lon="0.00998">
        <ele>317.31</ele>
        <time>2021-06-24T14:01:46.000Z</time>
      </trkpt>
      <trkpt lat="43.19899" lon="0.00983">
        <ele>319.79</ele>
        <time>2021-06-24T14:01:51.000Z</time>
      </trkpt>
      <trkpt lat="43.1989" lon="0.00972">
        <ele>321.29</ele>
        <time>2021-06-24T14:01:56.000Z</time>
      </trkpt>
      <trkpt lat="43.19882" lon="0.00964">
        <ele>321.94</ele>
        <time>2021-06-24T14:02:01.000Z</time>
      </trkpt>
      <trkpt lat="43.19874" lon="0.00956">
        <ele>323.41</ele>
        <time>2021-06-24T14:02:06.000Z</time>
      </trkpt>
      <trkpt lat="43.1986" lon="0.00947">
        <ele>325.55</ele>
        <time>2021-06-24T14:02:11.000Z</time>
      </trkpt>
      <trkpt lat="43.19849" lon="0.0094">
        <ele>326.99</ele>
        <time>2021-06-24T14:02:16.000Z</time>
      </trkpt>
      <trkpt lat="43.19836" lon="0.00936">
        <ele>329.21</ele>
        <time>2021-06-24T14:02:21.000Z</time>
      </trkpt>
      <trkpt lat="43.19827" lon="0.0093">
        <ele>329.68</ele>
        <time>2021-06-24T14:02:26.000Z</time>
      </trkpt>
      <trkpt lat="43.19816" lon="0.00923">
        <ele>330.17</ele>
        <time>2021-06-24T14:02:31.000Z</time>
      </trkpt>
      <trkpt lat="43.19807" lon="0.00916">
        <ele>329.55</ele>
        <time>2021-06-24T14:02:36.000Z</time>
      </trkpt>
      <trkpt lat="43.19798" lon="0.00908">
        <ele>329.33</ele>
        <time>2021-06-24T14:02:42.000Z</time>
      </trkpt>
      <trkpt lat="43.19789" lon="0.00902">
        <ele>331.28</ele>
        <time>2021-06-24T14:02:47.000Z</time>
      </trkpt>
      <trkpt lat="43.19781" lon="0.00896">
        <ele>333.25</ele>
        <time>2021-06-24T14:02:55.000Z</time>
      </trkpt>
      <trkpt lat="43.19774" lon="0.00887">
        <ele>333.87</ele>
        <time>2021-06-24T14:03:00.000Z</time>
      </trkpt>
      <trkpt lat="43.19768" lon="0.00875">
        <ele>335.04</ele>
        <time>2021-06-24T14:03:05.000Z</time>
      </trkpt>
      <trkpt lat="43.19762" lon="0.00865">
        <ele>337.01</ele>
        <time>2021-06-24T14:03:10.000Z</time>
      </trkpt>
      <trkpt lat="43.19755" lon="0.00855">
        <ele>337.9</ele>
        <time>2021-06-24T14:03:15.000Z</time>
      </trkpt>
      <trkpt lat="43.19748" lon="0.00844">
        <ele>338.36</ele>
        <time>2021-06-24T14:03:20.000Z</time>
      </trkpt>
      <trkpt lat="43.19743" lon="0.0083">
        <ele>338.13</ele>
        <time>2021-06-24T14:03:25.000Z</time>
      </trkpt>
      <trkpt lat="43.19736" lon="0.00817">
        <ele>338.16</ele>
        <time>2021-06-24T14:03:30.000Z</time>
      </trkpt>
      <trkpt lat="43.19727" lon="0.00803">
        <ele>338.87</ele>
        <time>2021-06-24T14:03:35.000Z</time>
      </trkpt>
      <trkpt lat="43.1972" lon="0.00785">
        <ele>340.97</ele>
        <time>2021-06-24T14:03:40.000Z</time>
      </trkpt>
      <trkpt lat="43.19715" lon="0.00765">
        <ele>342.03</ele>
        <time>2021-06-24T14:03:45.000Z</time>
      </trkpt>
      <trkpt lat="43.1971" lon="0.00738">
        <ele>343.23</ele>
        <time>2021-06-24T14:03:50.000Z</time>
      </trkpt>
      <trkpt lat="43.19703" lon="0.00717">
        <ele>344.16</ele>
        <time>2021-06-24T14:03:55.000Z</time>
      </trkpt>
      <trkpt lat="43.19699" lon="0.00702">
        <ele>345</ele>
        <time>2021-06-24T14:04:00.000Z</time>
      </trkpt>
      <trkpt lat="43.19693" lon="0.00685">
        <ele>345.52</ele>
        <time>2021-06-24T14:04:05.000Z</time>
      </trkpt>
      <trkpt lat="43.1969" lon="0.0067">
        <ele>345.67</ele>
        <time>2021-06-24T14:04:10.000Z</time>
      </trkpt>
      <trkpt lat="43.19687" lon="0.00655">
        <ele>345.32</ele>
        <time>2021-06-24T14:04:15.000Z</time>
      </trkpt>
      <trkpt lat="43.19685" lon="0.00641">
        <ele>346.24</ele>
        <time>2021-06-24T14:04:20.000Z</time>
      </trkpt>
      <trkpt lat="43.19681" lon="0.00626">
        <ele>346.72</ele>
        <time>2021-06-24T14:04:25.000Z</time>
      </trkpt>
      <trkpt lat="43.19679" lon="0.0061">
        <ele>346.27</ele>
        <time>2021-06-24T14:04:30.000Z</time>
      </trkpt>
      <trkpt lat="43.19678" lon="0.00596">
        <ele>350.41</ele>
        <time>2021-06-24T14:04:36.000Z</time>
      </trkpt>
      <trkpt lat="43.19676" lon="0.00581">
        <ele>353.31</ele>
        <time>2021-06-24T14:04:41.000Z</time>
      </trkpt>
      <trkpt lat="43.19675" lon="0.00566">
        <ele>355.97</ele>
        <time>2021-06-24T14:04:46.000Z</time>
      </trkpt>
      <trkpt lat="43.19677" lon="0.00552">
        <ele>356.94</ele>
        <time>2021-06-24T14:04:51.000Z</time>
      </trkpt>
      <trkpt lat="43.1968" lon="0.0053">
        <ele>357.12</ele>
        <time>2021-06-24T14:04:56.000Z</time>
      </trkpt>
      <trkpt lat="43.19672" lon="0.00508">
        <ele>355.34</ele>
        <time>2021-06-24T14:05:01.000Z</time>
      </trkpt>
      <trkpt lat="43.19662" lon="0.00484">
        <ele>354.79</ele>
        <time>2021-06-24T14:05:06.000Z</time>
      </trkpt>
      <trkpt lat="43.19654" lon="0.00453">
        <ele>354.44</ele>
        <time>2021-06-24T14:05:11.000Z</time>
      </trkpt>
      <trkpt lat="43.19647" lon="0.00422">
        <ele>353.15</ele>
        <time>2021-06-24T14:05:16.000Z</time>
      </trkpt>
      <trkpt lat="43.1964" lon="0.00392">
        <ele>352.37</ele>
        <time>2021-06-24T14:05:21.000Z</time>
      </trkpt>
      <trkpt lat="43.19634" lon="0.00362">
        <ele>352.63</ele>
        <time>2021-06-24T14:05:26.000Z</time>
      </trkpt>
      <trkpt lat="43.19627" lon="0.00331">
        <ele>352.94</ele>
        <time>2021-06-24T14:05:31.000Z</time>
      </trkpt>
      <trkpt lat="43.1962" lon="0.003">
        <ele>352.89</ele>
        <time>2021-06-24T14:05:36.000Z</time>
      </trkpt>
      <trkpt lat="43.19613" lon="0.00267">
        <ele>352.98</ele>
        <time>2021-06-24T14:05:41.000Z</time>
      </trkpt>
      <trkpt lat="43.19607" lon="0.00235">
        <ele>352.34</ele>
        <time>2021-06-24T14:05:46.000Z</time>
      </trkpt>
      <trkpt lat="43.196" lon="0.00207">
        <ele>352.17</ele>
        <time>2021-06-24T14:05:51.000Z</time>
      </trkpt>
      <trkpt lat="43.19594" lon="0.00179">
        <ele>352.27</ele>
        <time>2021-06-24T14:05:56.000Z</time>
      </trkpt>
      <trkpt lat="43.19588" lon="0.00152">
        <ele>354.32</ele>
        <time>2021-06-24T14:06:01.000Z</time>
      </trkpt>
      <trkpt lat="43.19582" lon="0.00124">
        <ele>355.81</ele>
        <time>2021-06-24T14:06:06.000Z</time>
      </trkpt>
      <trkpt lat="43.19575" lon="0.00096">
        <ele>357.18</ele>
        <time>2021-06-24T14:06:11.000Z</time>
      </trkpt>
      <trkpt lat="43.19569" lon="0.00068">
        <ele>358.1</ele>
        <time>2021-06-24T14:06:16.000Z</time>
      </trkpt>
      <trkpt lat="43.19563" lon="0.0004">
        <ele>357.29</ele>
        <time>2021-06-24T14:06:21.000Z</time>
      </trkpt>
      <trkpt lat="43.19558" lon="0.0001">
        <ele>356.75</ele>
        <time>2021-06-24T14:06:26.000Z</time>
      </trkpt>
      <trkpt lat="43.19551" lon="-0.00018">
        <ele>356.44</ele>
        <time>2021-06-24T14:06:31.000Z</time>
      </trkpt>
      <trkpt lat="43.19544" lon="-0.00046">
        <ele>356.47</ele>
        <time>2021-06-24T14:06:36.000Z</time>
      </trkpt>
      <trkpt lat="43.19538" lon="-0.00074">
        <ele>356.39</ele>
        <time>2021-06-24T14:06:41.000Z</time>
      </trkpt>
      <trkpt lat="43.1953" lon="-0.00105">
        <ele>355.77</ele>
        <time>2021-06-24T14:06:46.000Z</time>
      </trkpt>
      <trkpt lat="43.19524" lon="-0.00135">
        <ele>356.4</ele>
        <time>2021-06-24T14:06:51.000Z</time>
      </trkpt>
      <trkpt lat="43.19517" lon="-0.00163">
        <ele>355.74</ele>
        <time>2021-06-24T14:06:56.000Z</time>
      </trkpt>
      <trkpt lat="43.19514" lon="-0.00194">
        <ele>353.58</ele>
        <time>2021-06-24T14:07:01.000Z</time>
      </trkpt>
      <trkpt lat="43.19508" lon="-0.00223">
        <ele>352.82</ele>
        <time>2021-06-24T14:07:06.000Z</time>
      </trkpt>
      <trkpt lat="43.19501" lon="-0.00251">
        <ele>352.07</ele>
        <time>2021-06-24T14:07:11.000Z</time>
      </trkpt>
      <trkpt lat="43.19495" lon="-0.00278">
        <ele>351.9</ele>
        <time>2021-06-24T14:07:16.000Z</time>
      </trkpt>
      <trkpt lat="43.19489" lon="-0.003">
        <ele>351.73</ele>
        <time>2021-06-24T14:07:21.000Z</time>
      </trkpt>
      <trkpt lat="43.19491" lon="-0.00316">
        <ele>351.67</ele>
        <time>2021-06-24T14:07:26.000Z</time>
      </trkpt>
      <trkpt lat="43.19485" lon="-0.00326">
        <ele>351.66</ele>
        <time>2021-06-24T14:14:10.000Z</time>
      </trkpt>
      <trkpt lat="43.19481" lon="-0.00347">
        <ele>352.07</ele>
        <time>2021-06-24T14:14:15.000Z</time>
      </trkpt>
      <trkpt lat="43.19476" lon="-0.0037">
        <ele>352.2</ele>
        <time>2021-06-24T14:14:20.000Z</time>
      </trkpt>
      <trkpt lat="43.1947" lon="-0.00394">
        <ele>353.21</ele>
        <time>2021-06-24T14:14:25.000Z</time>
      </trkpt>
      <trkpt lat="43.19462" lon="-0.00423">
        <ele>353.77</ele>
        <time>2021-06-24T14:14:30.000Z</time>
      </trkpt>
      <trkpt lat="43.19454" lon="-0.00452">
        <ele>354.73</ele>
        <time>2021-06-24T14:14:35.000Z</time>
      </trkpt>
      <trkpt lat="43.1945" lon="-0.00477">
        <ele>355.89</ele>
        <time>2021-06-24T14:14:40.000Z</time>
      </trkpt>
      <trkpt lat="43.19444" lon="-0.00503">
        <ele>356.05</ele>
        <time>2021-06-24T14:14:45.000Z</time>
      </trkpt>
      <trkpt lat="43.19438" lon="-0.00532">
        <ele>357.11</ele>
        <time>2021-06-24T14:14:50.000Z</time>
      </trkpt>
      <trkpt lat="43.19432" lon="-0.0056">
        <ele>358.5</ele>
        <time>2021-06-24T14:14:55.000Z</time>
      </trkpt>
      <trkpt lat="43.19426" lon="-0.00589">
        <ele>358.82</ele>
        <time>2021-06-24T14:15:00.000Z</time>
      </trkpt>
      <trkpt lat="43.1942" lon="-0.00617">
        <ele>359.52</ele>
        <time>2021-06-24T14:15:05.000Z</time>
      </trkpt>
      <trkpt lat="43.19414" lon="-0.00644">
        <ele>360.02</ele>
        <time>2021-06-24T14:15:10.000Z</time>
      </trkpt>
      <trkpt lat="43.1941" lon="-0.00675">
        <ele>360.09</ele>
        <time>2021-06-24T14:15:15.000Z</time>
      </trkpt>
      <trkpt lat="43.19404" lon="-0.00704">
        <ele>358.87</ele>
        <time>2021-06-24T14:15:20.000Z</time>
      </trkpt>
      <trkpt lat="43.19398" lon="-0.00732">
        <ele>357.65</ele>
        <time>2021-06-24T14:15:25.000Z</time>
      </trkpt>
      <trkpt lat="43.19392" lon="-0.00758">
        <ele>357.27</ele>
        <time>2021-06-24T14:15:30.000Z</time>
      </trkpt>
      <trkpt lat="43.19386" lon="-0.00786">
        <ele>357.33</ele>
        <time>2021-06-24T14:15:35.000Z</time>
      </trkpt>
      <trkpt lat="43.19379" lon="-0.00813">
        <ele>357.19</ele>
        <time>2021-06-24T14:15:40.000Z</time>
      </trkpt>
      <trkpt lat="43.19372" lon="-0.0084">
        <ele>356.62</ele>
        <time>2021-06-24T14:15:45.000Z</time>
      </trkpt>
      <trkpt lat="43.19364" lon="-0.00868">
        <ele>357.13</ele>
        <time>2021-06-24T14:15:50.000Z</time>
      </trkpt>
      <trkpt lat="43.19358" lon="-0.009">
        <ele>357.13</ele>
        <time>2021-06-24T14:15:55.000Z</time>
      </trkpt>
      <trkpt lat="43.19352" lon="-0.00934">
        <ele>357.63</ele>
        <time>2021-06-24T14:16:00.000Z</time>
      </trkpt>
      <trkpt lat="43.19347" lon="-0.00965">
        <ele>356.63</ele>
        <time>2021-06-24T14:16:05.000Z</time>
      </trkpt>
      <trkpt lat="43.19341" lon="-0.00996">
        <ele>357.24</ele>
        <time>2021-06-24T14:16:10.000Z</time>
      </trkpt>
      <trkpt lat="43.19334" lon="-0.01026">
        <ele>357.46</ele>
        <time>2021-06-24T14:16:15.000Z</time>
      </trkpt>
      <trkpt lat="43.19326" lon="-0.01058">
        <ele>356.96</ele>
        <time>2021-06-24T14:16:20.000Z</time>
      </trkpt>
      <trkpt lat="43.19319" lon="-0.01089">
        <ele>357.51</ele>
        <time>2021-06-24T14:16:25.000Z</time>
      </trkpt>
      <trkpt lat="43.19312" lon="-0.0112">
        <ele>357.91</ele>
        <time>2021-06-24T14:16:30.000Z</time>
      </trkpt>
      <trkpt lat="43.19306" lon="-0.01152">
        <ele>358.69</ele>
        <time>2021-06-24T14:16:35.000Z</time>
      </trkpt>
      <trkpt lat="43.19299" lon="-0.01183">
        <ele>358.29</ele>
        <time>2021-06-24T14:16:40.000Z</time>
      </trkpt>
      <trkpt lat="43.19293" lon="-0.01212">
        <ele>357.32</ele>
        <time>2021-06-24T14:16:45.000Z</time>
      </trkpt>
      <trkpt lat="43.19285" lon="-0.01245">
        <ele>355.53</ele>
        <time>2021-06-24T14:16:50.000Z</time>
      </trkpt>
      <trkpt lat="43.19278" lon="-0.01278">
        <ele>355.97</ele>
        <time>2021-06-24T14:16:55.000Z</time>
      </trkpt>
      <trkpt lat="43.19271" lon="-0.01311">
        <ele>356.74</ele>
        <time>2021-06-24T14:17:00.000Z</time>
      </trkpt>
      <trkpt lat="43.19264" lon="-0.01343">
        <ele>356.49</ele>
        <time>2021-06-24T14:17:05.000Z</time>
      </trkpt>
      <trkpt lat="43.19257" lon="-0.01375">
        <ele>355.27</ele>
        <time>2021-06-24T14:17:10.000Z</time>
      </trkpt>
      <trkpt lat="43.19252" lon="-0.01408">
        <ele>354.7</ele>
        <time>2021-06-24T14:17:15.000Z</time>
      </trkpt>
      <trkpt lat="43.19243" lon="-0.01439">
        <ele>354.55</ele>
        <time>2021-06-24T14:17:20.000Z</time>
      </trkpt>
      <trkpt lat="43.19236" lon="-0.01469">
        <ele>354.93</ele>
        <time>2021-06-24T14:17:25.000Z</time>
      </trkpt>
      <trkpt lat="43.1923" lon="-0.015">
        <ele>355.29</ele>
        <time>2021-06-24T14:17:30.000Z</time>
      </trkpt>
      <trkpt lat="43.19222" lon="-0.01531">
        <ele>354.25</ele>
        <time>2021-06-24T14:17:35.000Z</time>
      </trkpt>
      <trkpt lat="43.19214" lon="-0.0156">
        <ele>354.45</ele>
        <time>2021-06-24T14:17:40.000Z</time>
      </trkpt>
      <trkpt lat="43.19207" lon="-0.01593">
        <ele>354</ele>
        <time>2021-06-24T14:17:45.000Z</time>
      </trkpt>
      <trkpt lat="43.192" lon="-0.01628">
        <ele>353.41</ele>
        <time>2021-06-24T14:17:50.000Z</time>
      </trkpt>
      <trkpt lat="43.19192" lon="-0.0166">
        <ele>354.35</ele>
        <time>2021-06-24T14:17:55.000Z</time>
      </trkpt>
      <trkpt lat="43.19186" lon="-0.01691">
        <ele>354.8</ele>
        <time>2021-06-24T14:18:00.000Z</time>
      </trkpt>
      <trkpt lat="43.19179" lon="-0.01725">
        <ele>355.47</ele>
        <time>2021-06-24T14:18:05.000Z</time>
      </trkpt>
      <trkpt lat="43.19171" lon="-0.0176">
        <ele>356.05</ele>
        <time>2021-06-24T14:18:10.000Z</time>
      </trkpt>
      <trkpt lat="43.19163" lon="-0.01796">
        <ele>357.12</ele>
        <time>2021-06-24T14:18:15.000Z</time>
      </trkpt>
      <trkpt lat="43.19157" lon="-0.01828">
        <ele>358.31</ele>
        <time>2021-06-24T14:18:20.000Z</time>
      </trkpt>
      <trkpt lat="43.19152" lon="-0.01861">
        <ele>358.79</ele>
        <time>2021-06-24T14:18:25.000Z</time>
      </trkpt>
      <trkpt lat="43.19146" lon="-0.01891">
        <ele>358.28</ele>
        <time>2021-06-24T14:18:30.000Z</time>
      </trkpt>
      <trkpt lat="43.1914" lon="-0.01921">
        <ele>356.37</ele>
        <time>2021-06-24T14:18:35.000Z</time>
      </trkpt>
      <trkpt lat="43.19131" lon="-0.01952">
        <ele>356.92</ele>
        <time>2021-06-24T14:18:40.000Z</time>
      </trkpt>
      <trkpt lat="43.19121" lon="-0.0198">
        <ele>357.43</ele>
        <time>2021-06-24T14:18:45.000Z</time>
      </trkpt>
      <trkpt lat="43.19117" lon="-0.02011">
        <ele>356.28</ele>
        <time>2021-06-24T14:18:50.000Z</time>
      </trkpt>
      <trkpt lat="43.19109" lon="-0.02045">
        <ele>356.21</ele>
        <time>2021-06-24T14:18:55.000Z</time>
      </trkpt>
      <trkpt lat="43.19104" lon="-0.02078">
        <ele>354.7</ele>
        <time>2021-06-24T14:19:00.000Z</time>
      </trkpt>
      <trkpt lat="43.19096" lon="-0.0211">
        <ele>354.83</ele>
        <time>2021-06-24T14:19:05.000Z</time>
      </trkpt>
      <trkpt lat="43.19087" lon="-0.02144">
        <ele>356.01</ele>
        <time>2021-06-24T14:19:10.000Z</time>
      </trkpt>
      <trkpt lat="43.19072" lon="-0.02174">
        <ele>356.26</ele>
        <time>2021-06-24T14:19:15.000Z</time>
      </trkpt>
      <trkpt lat="43.19053" lon="-0.02205">
        <ele>354.97</ele>
        <time>2021-06-24T14:19:20.000Z</time>
      </trkpt>
      <trkpt lat="43.19031" lon="-0.02229">
        <ele>354.5</ele>
        <time>2021-06-24T14:19:25.000Z</time>
      </trkpt>
      <trkpt lat="43.19004" lon="-0.02246">
        <ele>355.66</ele>
        <time>2021-06-24T14:19:30.000Z</time>
      </trkpt>
      <trkpt lat="43.18977" lon="-0.02259">
        <ele>356.17</ele>
        <time>2021-06-24T14:19:35.000Z</time>
      </trkpt>
      <trkpt lat="43.18949" lon="-0.02274">
        <ele>355.67</ele>
        <time>2021-06-24T14:19:40.000Z</time>
      </trkpt>
      <trkpt lat="43.18923" lon="-0.02286">
        <ele>354.46</ele>
        <time>2021-06-24T14:19:45.000Z</time>
      </trkpt>
      <trkpt lat="43.18897" lon="-0.02301">
        <ele>353.56</ele>
        <time>2021-06-24T14:19:50.000Z</time>
      </trkpt>
      <trkpt lat="43.18871" lon="-0.02315">
        <ele>352.74</ele>
        <time>2021-06-24T14:19:55.000Z</time>
      </trkpt>
      <trkpt lat="43.18846" lon="-0.02326">
        <ele>352.43</ele>
        <time>2021-06-24T14:20:00.000Z</time>
      </trkpt>
      <trkpt lat="43.18819" lon="-0.02338">
        <ele>352.55</ele>
        <time>2021-06-24T14:20:05.000Z</time>
      </trkpt>
      <trkpt lat="43.18794" lon="-0.0235">
        <ele>353.17</ele>
        <time>2021-06-24T14:20:10.000Z</time>
      </trkpt>
      <trkpt lat="43.18769" lon="-0.02362">
        <ele>353.31</ele>
        <time>2021-06-24T14:20:15.000Z</time>
      </trkpt>
      <trkpt lat="43.18747" lon="-0.02376">
        <ele>353.4</ele>
        <time>2021-06-24T14:20:20.000Z</time>
      </trkpt>
      <trkpt lat="43.18727" lon="-0.02395">
        <ele>353.23</ele>
        <time>2021-06-24T14:20:25.000Z</time>
      </trkpt>
      <trkpt lat="43.18711" lon="-0.02412">
        <ele>353.24</ele>
        <time>2021-06-24T14:20:30.000Z</time>
      </trkpt>
      <trkpt lat="43.1869" lon="-0.02431">
        <ele>352.96</ele>
        <time>2021-06-24T14:20:35.000Z</time>
      </trkpt>
      <trkpt lat="43.1867" lon="-0.02448">
        <ele>353.31</ele>
        <time>2021-06-24T14:20:40.000Z</time>
      </trkpt>
      <trkpt lat="43.18651" lon="-0.02465">
        <ele>352.84</ele>
        <time>2021-06-24T14:20:45.000Z</time>
      </trkpt>
      <trkpt lat="43.18631" lon="-0.02484">
        <ele>353.01</ele>
        <time>2021-06-24T14:20:50.000Z</time>
      </trkpt>
      <trkpt lat="43.18613" lon="-0.02508">
        <ele>352.36</ele>
        <time>2021-06-24T14:20:55.000Z</time>
      </trkpt>
      <trkpt lat="43.18595" lon="-0.02528">
        <ele>352.03</ele>
        <time>2021-06-24T14:21:00.000Z</time>
      </trkpt>
      <trkpt lat="43.18575" lon="-0.02548">
        <ele>351.16</ele>
        <time>2021-06-24T14:21:05.000Z</time>
      </trkpt>
      <trkpt lat="43.18556" lon="-0.02566">
        <ele>349.9</ele>
        <time>2021-06-24T14:21:10.000Z</time>
      </trkpt>
      <trkpt lat="43.18537" lon="-0.02582">
        <ele>350.06</ele>
        <time>2021-06-24T14:21:15.000Z</time>
      </trkpt>
      <trkpt lat="43.18539" lon="-0.02609">
        <ele>353.72</ele>
        <time>2021-06-24T14:21:20.000Z</time>
      </trkpt>
      <trkpt lat="43.18547" lon="-0.02643">
        <ele>353.45</ele>
        <time>2021-06-24T14:21:25.000Z</time>
      </trkpt>
      <trkpt lat="43.18541" lon="-0.02673">
        <ele>354.6</ele>
        <time>2021-06-24T14:21:30.000Z</time>
      </trkpt>
      <trkpt lat="43.18526" lon="-0.027">
        <ele>354.23</ele>
        <time>2021-06-24T14:21:35.000Z</time>
      </trkpt>
      <trkpt lat="43.18519" lon="-0.02735">
        <ele>354.13</ele>
        <time>2021-06-24T14:21:40.000Z</time>
      </trkpt>
      <trkpt lat="43.18504" lon="-0.02763">
        <ele>354.88</ele>
        <time>2021-06-24T14:21:45.000Z</time>
      </trkpt>
      <trkpt lat="43.18482" lon="-0.02781">
        <ele>353.9</ele>
        <time>2021-06-24T14:21:50.000Z</time>
      </trkpt>
      <trkpt lat="43.18467" lon="-0.02809">
        <ele>355.79</ele>
        <time>2021-06-24T14:21:55.000Z</time>
      </trkpt>
      <trkpt lat="43.18448" lon="-0.02829">
        <ele>357.49</ele>
        <time>2021-06-24T14:22:00.000Z</time>
      </trkpt>
      <trkpt lat="43.18433" lon="-0.0285">
        <ele>357.5</ele>
        <time>2021-06-24T14:22:05.000Z</time>
      </trkpt>
      <trkpt lat="43.18415" lon="-0.02871">
        <ele>356.32</ele>
        <time>2021-06-24T14:22:10.000Z</time>
      </trkpt>
      <trkpt lat="43.18405" lon="-0.02897">
        <ele>356.61</ele>
        <time>2021-06-24T14:22:15.000Z</time>
      </trkpt>
      <trkpt lat="43.18408" lon="-0.02931">
        <ele>356.43</ele>
        <time>2021-06-24T14:22:20.000Z</time>
      </trkpt>
      <trkpt lat="43.18417" lon="-0.02964">
        <ele>358.37</ele>
        <time>2021-06-24T14:22:25.000Z</time>
      </trkpt>
      <trkpt lat="43.18429" lon="-0.02994">
        <ele>361.13</ele>
        <time>2021-06-24T14:22:30.000Z</time>
      </trkpt>
      <trkpt lat="43.18447" lon="-0.03016">
        <ele>362.95</ele>
        <time>2021-06-24T14:22:35.000Z</time>
      </trkpt>
      <trkpt lat="43.18462" lon="-0.03042">
        <ele>363.69</ele>
        <time>2021-06-24T14:22:40.000Z</time>
      </trkpt>
      <trkpt lat="43.18474" lon="-0.03068">
        <ele>363.41</ele>
        <time>2021-06-24T14:22:45.000Z</time>
      </trkpt>
      <trkpt lat="43.18488" lon="-0.03091">
        <ele>365.57</ele>
        <time>2021-06-24T14:22:50.000Z</time>
      </trkpt>
      <trkpt lat="43.18499" lon="-0.03114">
        <ele>365.86</ele>
        <time>2021-06-24T14:22:55.000Z</time>
      </trkpt>
      <trkpt lat="43.18509" lon="-0.03131">
        <ele>366.29</ele>
        <time>2021-06-24T14:23:00.000Z</time>
      </trkpt>
      <trkpt lat="43.18521" lon="-0.03149">
        <ele>365.9</ele>
        <time>2021-06-24T14:23:05.000Z</time>
      </trkpt>
      <trkpt lat="43.18531" lon="-0.0317">
        <ele>366.29</ele>
        <time>2021-06-24T14:23:10.000Z</time>
      </trkpt>
      <trkpt lat="43.18542" lon="-0.03191">
        <ele>368.5</ele>
        <time>2021-06-24T14:23:15.000Z</time>
      </trkpt>
      <trkpt lat="43.18552" lon="-0.03211">
        <ele>369.52</ele>
        <time>2021-06-24T14:23:20.000Z</time>
      </trkpt>
      <trkpt lat="43.18563" lon="-0.03231">
        <ele>369.77</ele>
        <time>2021-06-24T14:23:25.000Z</time>
      </trkpt>
      <trkpt lat="43.18577" lon="-0.03251">
        <ele>369.97</ele>
        <time>2021-06-24T14:23:30.000Z</time>
      </trkpt>
      <trkpt lat="43.18587" lon="-0.03273">
        <ele>371.22</ele>
        <time>2021-06-24T14:23:35.000Z</time>
      </trkpt>
      <trkpt lat="43.18596" lon="-0.03291">
        <ele>372.29</ele>
        <time>2021-06-24T14:23:40.000Z</time>
      </trkpt>
      <trkpt lat="43.18605" lon="-0.03305">
        <ele>373.48</ele>
        <time>2021-06-24T14:23:45.000Z</time>
      </trkpt>
      <trkpt lat="43.18613" lon="-0.03321">
        <ele>373.23</ele>
        <time>2021-06-24T14:23:50.000Z</time>
      </trkpt>
      <trkpt lat="43.1862" lon="-0.03335">
        <ele>373.81</ele>
        <time>2021-06-24T14:23:55.000Z</time>
      </trkpt>
      <trkpt lat="43.18629" lon="-0.0335">
        <ele>372.8</ele>
        <time>2021-06-24T14:24:00.000Z</time>
      </trkpt>
      <trkpt lat="43.18639" lon="-0.03365">
        <ele>372.8</ele>
        <time>2021-06-24T14:24:05.000Z</time>
      </trkpt>
      <trkpt lat="43.18649" lon="-0.03385">
        <ele>374.74</ele>
        <time>2021-06-24T14:24:10.000Z</time>
      </trkpt>
      <trkpt lat="43.18661" lon="-0.03406">
        <ele>376.28</ele>
        <time>2021-06-24T14:24:15.000Z</time>
      </trkpt>
      <trkpt lat="43.18675" lon="-0.03432">
        <ele>376.98</ele>
        <time>2021-06-24T14:24:20.000Z</time>
      </trkpt>
      <trkpt lat="43.18691" lon="-0.03462">
        <ele>376.43</ele>
        <time>2021-06-24T14:24:25.000Z</time>
      </trkpt>
      <trkpt lat="43.18707" lon="-0.03492">
        <ele>374.46</ele>
        <time>2021-06-24T14:24:30.000Z</time>
      </trkpt>
      <trkpt lat="43.18717" lon="-0.03522">
        <ele>372.59</ele>
        <time>2021-06-24T14:24:35.000Z</time>
      </trkpt>
      <trkpt lat="43.18723" lon="-0.03542">
        <ele>370.42</ele>
        <time>2021-06-24T14:24:40.000Z</time>
      </trkpt>
      <trkpt lat="43.18726" lon="-0.0356">
        <ele>369.38</ele>
        <time>2021-06-24T14:24:45.000Z</time>
      </trkpt>
      <trkpt lat="43.18727" lon="-0.03577">
        <ele>368.84</ele>
        <time>2021-06-24T14:24:50.000Z</time>
      </trkpt>
      <trkpt lat="43.18731" lon="-0.03594">
        <ele>369.45</ele>
        <time>2021-06-24T14:24:55.000Z</time>
      </trkpt>
      <trkpt lat="43.18735" lon="-0.03613">
        <ele>368.33</ele>
        <time>2021-06-24T14:25:00.000Z</time>
      </trkpt>
      <trkpt lat="43.18738" lon="-0.03632">
        <ele>367.69</ele>
        <time>2021-06-24T14:25:05.000Z</time>
      </trkpt>
      <trkpt lat="43.18741" lon="-0.0365">
        <ele>369.1</ele>
        <time>2021-06-24T14:25:10.000Z</time>
      </trkpt>
      <trkpt lat="43.18748" lon="-0.03669">
        <ele>370.21</ele>
        <time>2021-06-24T14:25:15.000Z</time>
      </trkpt>
      <trkpt lat="43.18754" lon="-0.03692">
        <ele>370.56</ele>
        <time>2021-06-24T14:25:20.000Z</time>
      </trkpt>
      <trkpt lat="43.1876" lon="-0.03722">
        <ele>372.04</ele>
        <time>2021-06-24T14:25:25.000Z</time>
      </trkpt>
      <trkpt lat="43.18763" lon="-0.03761">
        <ele>371.32</ele>
        <time>2021-06-24T14:25:30.000Z</time>
      </trkpt>
      <trkpt lat="43.18763" lon="-0.03806">
        <ele>370.6</ele>
        <time>2021-06-24T14:25:35.000Z</time>
      </trkpt>
      <trkpt lat="43.18763" lon="-0.03849">
        <ele>370.11</ele>
        <time>2021-06-24T14:25:40.000Z</time>
      </trkpt>
      <trkpt lat="43.18764" lon="-0.03894">
        <ele>370.47</ele>
        <time>2021-06-24T14:25:45.000Z</time>
      </trkpt>
      <trkpt lat="43.18765" lon="-0.03942">
        <ele>370.69</ele>
        <time>2021-06-24T14:25:50.000Z</time>
      </trkpt>
      <trkpt lat="43.18764" lon="-0.0399">
        <ele>370.06</ele>
        <time>2021-06-24T14:25:55.000Z</time>
      </trkpt>
      <trkpt lat="43.18763" lon="-0.04042">
        <ele>368.91</ele>
        <time>2021-06-24T14:26:00.000Z</time>
      </trkpt>
      <trkpt lat="43.18763" lon="-0.041">
        <ele>368.83</ele>
        <time>2021-06-24T14:26:05.000Z</time>
      </trkpt>
      <trkpt lat="43.18762" lon="-0.04148">
        <ele>368.02</ele>
        <time>2021-06-24T14:26:10.000Z</time>
      </trkpt>
      <trkpt lat="43.18763" lon="-0.04191">
        <ele>367.97</ele>
        <time>2021-06-24T14:26:15.000Z</time>
      </trkpt>
      <trkpt lat="43.18763" lon="-0.04234">
        <ele>367.37</ele>
        <time>2021-06-24T14:26:20.000Z</time>
      </trkpt>
      <trkpt lat="43.18763" lon="-0.04277">
        <ele>365.86</ele>
        <time>2021-06-24T14:26:25.000Z</time>
      </trkpt>
      <trkpt lat="43.18762" lon="-0.04318">
        <ele>364.85</ele>
        <time>2021-06-24T14:26:30.000Z</time>
      </trkpt>
      <trkpt lat="43.18763" lon="-0.0436">
        <ele>363.42</ele>
        <time>2021-06-24T14:26:35.000Z</time>
      </trkpt>
      <trkpt lat="43.18762" lon="-0.04394">
        <ele>362.81</ele>
        <time>2021-06-24T14:26:40.000Z</time>
      </trkpt>
      <trkpt lat="43.18761" lon="-0.04421">
        <ele>362.43</ele>
        <time>2021-06-24T14:26:45.000Z</time>
      </trkpt>
      <trkpt lat="43.18761" lon="-0.04444">
        <ele>362.65</ele>
        <time>2021-06-24T14:26:50.000Z</time>
      </trkpt>
      <trkpt lat="43.1876" lon="-0.0446">
        <ele>363.48</ele>
        <time>2021-06-24T14:26:55.000Z</time>
      </trkpt>
      <trkpt lat="43.18759" lon="-0.04476">
        <ele>364.16</ele>
        <time>2021-06-24T14:27:00.000Z</time>
      </trkpt>
      <trkpt lat="43.1876" lon="-0.0449">
        <ele>364.77</ele>
        <time>2021-06-24T14:27:05.000Z</time>
      </trkpt>
      <trkpt lat="43.18763" lon="-0.04506">
        <ele>364.87</ele>
        <time>2021-06-24T14:27:10.000Z</time>
      </trkpt>
      <trkpt lat="43.18761" lon="-0.04527">
        <ele>365.16</ele>
        <time>2021-06-24T14:27:15.000Z</time>
      </trkpt>
      <trkpt lat="43.18759" lon="-0.04551">
        <ele>365.56</ele>
        <time>2021-06-24T14:27:20.000Z</time>
      </trkpt>
      <trkpt lat="43.18758" lon="-0.04577">
        <ele>366.08</ele>
        <time>2021-06-24T14:27:25.000Z</time>
      </trkpt>
      <trkpt lat="43.18759" lon="-0.046">
        <ele>365.68</ele>
        <time>2021-06-24T14:27:30.000Z</time>
      </trkpt>
      <trkpt lat="43.1876" lon="-0.04625">
        <ele>365.84</ele>
        <time>2021-06-24T14:27:35.000Z</time>
      </trkpt>
      <trkpt lat="43.18761" lon="-0.04646">
        <ele>367.12</ele>
        <time>2021-06-24T14:27:40.000Z</time>
      </trkpt>
      <trkpt lat="43.18762" lon="-0.04668">
        <ele>367.87</ele>
        <time>2021-06-24T14:27:45.000Z</time>
      </trkpt>
      <trkpt lat="43.18762" lon="-0.04687">
        <ele>369.96</ele>
        <time>2021-06-24T14:27:50.000Z</time>
      </trkpt>
      <trkpt lat="43.18762" lon="-0.04704">
        <ele>371.59</ele>
        <time>2021-06-24T14:27:55.000Z</time>
      </trkpt>
      <trkpt lat="43.18761" lon="-0.04722">
        <ele>372.85</ele>
        <time>2021-06-24T14:28:00.000Z</time>
      </trkpt>
      <trkpt lat="43.18761" lon="-0.04737">
        <ele>373.89</ele>
        <time>2021-06-24T14:28:05.000Z</time>
      </trkpt>
      <trkpt lat="43.18763" lon="-0.04754">
        <ele>376.22</ele>
        <time>2021-06-24T14:28:10.000Z</time>
      </trkpt>
      <trkpt lat="43.18761" lon="-0.04767">
        <ele>376.43</ele>
        <time>2021-06-24T14:28:15.000Z</time>
      </trkpt>
      <trkpt lat="43.18759" lon="-0.04781">
        <ele>375.91</ele>
        <time>2021-06-24T14:28:20.000Z</time>
      </trkpt>
      <trkpt lat="43.18758" lon="-0.04794">
        <ele>376.58</ele>
        <time>2021-06-24T14:28:25.000Z</time>
      </trkpt>
      <trkpt lat="43.18757" lon="-0.04807">
        <ele>378.01</ele>
        <time>2021-06-24T14:28:30.000Z</time>
      </trkpt>
      <trkpt lat="43.18757" lon="-0.04821">
        <ele>378.81</ele>
        <time>2021-06-24T14:28:35.000Z</time>
      </trkpt>
      <trkpt lat="43.18759" lon="-0.04835">
        <ele>380.72</ele>
        <time>2021-06-24T14:28:41.000Z</time>
      </trkpt>
      <trkpt lat="43.18758" lon="-0.04848">
        <ele>381.56</ele>
        <time>2021-06-24T14:28:46.000Z</time>
      </trkpt>
      <trkpt lat="43.18758" lon="-0.04861">
        <ele>382.23</ele>
        <time>2021-06-24T14:28:52.000Z</time>
      </trkpt>
      <trkpt lat="43.18757" lon="-0.04875">
        <ele>383.53</ele>
        <time>2021-06-24T14:28:58.000Z</time>
      </trkpt>
      <trkpt lat="43.18756" lon="-0.04888">
        <ele>384.84</ele>
        <time>2021-06-24T14:29:04.000Z</time>
      </trkpt>
      <trkpt lat="43.18755" lon="-0.04901">
        <ele>386.41</ele>
        <time>2021-06-24T14:29:10.000Z</time>
      </trkpt>
      <trkpt lat="43.18754" lon="-0.04913">
        <ele>387.55</ele>
        <time>2021-06-24T14:29:15.000Z</time>
      </trkpt>
      <trkpt lat="43.18751" lon="-0.04927">
        <ele>388.74</ele>
        <time>2021-06-24T14:29:22.000Z</time>
      </trkpt>
      <trkpt lat="43.18749" lon="-0.04939">
        <ele>390.23</ele>
        <time>2021-06-24T14:29:28.000Z</time>
      </trkpt>
      <trkpt lat="43.18746" lon="-0.04953">
        <ele>391.33</ele>
        <time>2021-06-24T14:29:34.000Z</time>
      </trkpt>
      <trkpt lat="43.18744" lon="-0.04966">
        <ele>392.27</ele>
        <time>2021-06-24T14:29:40.000Z</time>
      </trkpt>
      <trkpt lat="43.18744" lon="-0.04978">
        <ele>392.94</ele>
        <time>2021-06-24T14:29:46.000Z</time>
      </trkpt>
      <trkpt lat="43.18741" lon="-0.0499">
        <ele>394.01</ele>
        <time>2021-06-24T14:29:52.000Z</time>
      </trkpt>
      <trkpt lat="43.18738" lon="-0.05002">
        <ele>395.53</ele>
        <time>2021-06-24T14:29:58.000Z</time>
      </trkpt>
      <trkpt lat="43.18736" lon="-0.05015">
        <ele>396.91</ele>
        <time>2021-06-24T14:30:04.000Z</time>
      </trkpt>
      <trkpt lat="43.18733" lon="-0.05029">
        <ele>398.23</ele>
        <time>2021-06-24T14:30:10.000Z</time>
      </trkpt>
      <trkpt lat="43.18729" lon="-0.05041">
        <ele>399.38</ele>
        <time>2021-06-24T14:30:17.000Z</time>
      </trkpt>
      <trkpt lat="43.18722" lon="-0.0505">
        <ele>400.53</ele>
        <time>2021-06-24T14:30:22.000Z</time>
      </trkpt>
      <trkpt lat="43.18719" lon="-0.05063">
        <ele>401.84</ele>
        <time>2021-06-24T14:30:29.000Z</time>
      </trkpt>
      <trkpt lat="43.18714" lon="-0.05075">
        <ele>403.13</ele>
        <time>2021-06-24T14:30:35.000Z</time>
      </trkpt>
      <trkpt lat="43.18709" lon="-0.05087">
        <ele>405.12</ele>
        <time>2021-06-24T14:30:43.000Z</time>
      </trkpt>
      <trkpt lat="43.18702" lon="-0.05096">
        <ele>406.24</ele>
        <time>2021-06-24T14:30:49.000Z</time>
      </trkpt>
      <trkpt lat="43.18694" lon="-0.05102">
        <ele>406.85</ele>
        <time>2021-06-24T14:30:56.000Z</time>
      </trkpt>
      <trkpt lat="43.18685" lon="-0.0511">
        <ele>407.94</ele>
        <time>2021-06-24T14:31:02.000Z</time>
      </trkpt>
      <trkpt lat="43.18678" lon="-0.05118">
        <ele>408.67</ele>
        <time>2021-06-24T14:31:08.000Z</time>
      </trkpt>
      <trkpt lat="43.18671" lon="-0.05127">
        <ele>409.34</ele>
        <time>2021-06-24T14:31:14.000Z</time>
      </trkpt>
      <trkpt lat="43.18662" lon="-0.05135">
        <ele>410.24</ele>
        <time>2021-06-24T14:31:20.000Z</time>
      </trkpt>
      <trkpt lat="43.18654" lon="-0.05142">
        <ele>411.03</ele>
        <time>2021-06-24T14:31:25.000Z</time>
      </trkpt>
      <trkpt lat="43.18649" lon="-0.05153">
        <ele>411.84</ele>
        <time>2021-06-24T14:31:30.000Z</time>
      </trkpt>
      <trkpt lat="43.18644" lon="-0.05166">
        <ele>412.96</ele>
        <time>2021-06-24T14:31:36.000Z</time>
      </trkpt>
      <trkpt lat="43.18639" lon="-0.05179">
        <ele>413.07</ele>
        <time>2021-06-24T14:31:42.000Z</time>
      </trkpt>
      <trkpt lat="43.18633" lon="-0.0519">
        <ele>413.64</ele>
        <time>2021-06-24T14:31:47.000Z</time>
      </trkpt>
      <trkpt lat="43.18628" lon="-0.05201">
        <ele>414.86</ele>
        <time>2021-06-24T14:31:53.000Z</time>
      </trkpt>
      <trkpt lat="43.18627" lon="-0.05214">
        <ele>415.83</ele>
        <time>2021-06-24T14:32:00.000Z</time>
      </trkpt>
      <trkpt lat="43.18627" lon="-0.05226">
        <ele>416.64</ele>
        <time>2021-06-24T14:32:05.000Z</time>
      </trkpt>
      <trkpt lat="43.18627" lon="-0.05239">
        <ele>417.17</ele>
        <time>2021-06-24T14:32:10.000Z</time>
      </trkpt>
      <trkpt lat="43.18628" lon="-0.05252">
        <ele>417.74</ele>
        <time>2021-06-24T14:32:15.000Z</time>
      </trkpt>
      <trkpt lat="43.18629" lon="-0.05265">
        <ele>418.71</ele>
        <time>2021-06-24T14:32:21.000Z</time>
      </trkpt>
      <trkpt lat="43.18631" lon="-0.05278">
        <ele>419.59</ele>
        <time>2021-06-24T14:32:29.000Z</time>
      </trkpt>
      <trkpt lat="43.18634" lon="-0.0529">
        <ele>420.56</ele>
        <time>2021-06-24T14:32:36.000Z</time>
      </trkpt>
      <trkpt lat="43.18638" lon="-0.05301">
        <ele>421.84</ele>
        <time>2021-06-24T14:32:44.000Z</time>
      </trkpt>
      <trkpt lat="43.18644" lon="-0.05312">
        <ele>422.86</ele>
        <time>2021-06-24T14:32:50.000Z</time>
      </trkpt>
      <trkpt lat="43.18649" lon="-0.05322">
        <ele>424.13</ele>
        <time>2021-06-24T14:32:57.000Z</time>
      </trkpt>
      <trkpt lat="43.18654" lon="-0.05333">
        <ele>425.26</ele>
        <time>2021-06-24T14:33:04.000Z</time>
      </trkpt>
      <trkpt lat="43.18659" lon="-0.05344">
        <ele>425.98</ele>
        <time>2021-06-24T14:33:09.000Z</time>
      </trkpt>
      <trkpt lat="43.18663" lon="-0.05357">
        <ele>426.86</ele>
        <time>2021-06-24T14:33:14.000Z</time>
      </trkpt>
      <trkpt lat="43.18666" lon="-0.05369">
        <ele>428.13</ele>
        <time>2021-06-24T14:33:20.000Z</time>
      </trkpt>
      <trkpt lat="43.18673" lon="-0.0538">
        <ele>428.97</ele>
        <time>2021-06-24T14:33:26.000Z</time>
      </trkpt>
      <trkpt lat="43.18678" lon="-0.05392">
        <ele>430.14</ele>
        <time>2021-06-24T14:33:35.000Z</time>
      </trkpt>
      <trkpt lat="43.18681" lon="-0.05405">
        <ele>431.34</ele>
        <time>2021-06-24T14:33:42.000Z</time>
      </trkpt>
      <trkpt lat="43.18683" lon="-0.05417">
        <ele>431.77</ele>
        <time>2021-06-24T14:33:47.000Z</time>
      </trkpt>
      <trkpt lat="43.18679" lon="-0.05431">
        <ele>432</ele>
        <time>2021-06-24T14:33:52.000Z</time>
      </trkpt>
      <trkpt lat="43.18677" lon="-0.05446">
        <ele>432.29</ele>
        <time>2021-06-24T14:33:57.000Z</time>
      </trkpt>
      <trkpt lat="43.18674" lon="-0.05459">
        <ele>432.28</ele>
        <time>2021-06-24T14:34:03.000Z</time>
      </trkpt>
      <trkpt lat="43.18669" lon="-0.05471">
        <ele>432.21</ele>
        <time>2021-06-24T14:34:10.000Z</time>
      </trkpt>
      <trkpt lat="43.18669" lon="-0.05484">
        <ele>432.77</ele>
        <time>2021-06-24T14:34:17.000Z</time>
      </trkpt>
      <trkpt lat="43.18664" lon="-0.05496">
        <ele>433.47</ele>
        <time>2021-06-24T14:34:24.000Z</time>
      </trkpt>
      <trkpt lat="43.18658" lon="-0.05507">
        <ele>433.94</ele>
        <time>2021-06-24T14:34:30.000Z</time>
      </trkpt>
      <trkpt lat="43.18652" lon="-0.05519">
        <ele>435.01</ele>
        <time>2021-06-24T14:34:36.000Z</time>
      </trkpt>
      <trkpt lat="43.18648" lon="-0.05531">
        <ele>436.03</ele>
        <time>2021-06-24T14:34:42.000Z</time>
      </trkpt>
      <trkpt lat="43.18647" lon="-0.05543">
        <ele>436.58</ele>
        <time>2021-06-24T14:34:48.000Z</time>
      </trkpt>
      <trkpt lat="43.18645" lon="-0.05556">
        <ele>437.25</ele>
        <time>2021-06-24T14:34:53.000Z</time>
      </trkpt>
      <trkpt lat="43.18647" lon="-0.05568">
        <ele>438.25</ele>
        <time>2021-06-24T14:34:59.000Z</time>
      </trkpt>
      <trkpt lat="43.18644" lon="-0.05581">
        <ele>439.15</ele>
        <time>2021-06-24T14:35:07.000Z</time>
      </trkpt>
      <trkpt lat="43.18641" lon="-0.05593">
        <ele>440.33</ele>
        <time>2021-06-24T14:35:13.000Z</time>
      </trkpt>
      <trkpt lat="43.1864" lon="-0.05608">
        <ele>441.31</ele>
        <time>2021-06-24T14:35:18.000Z</time>
      </trkpt>
      <trkpt lat="43.18638" lon="-0.05622">
        <ele>442.68</ele>
        <time>2021-06-24T14:35:24.000Z</time>
      </trkpt>
      <trkpt lat="43.18641" lon="-0.05634">
        <ele>443.07</ele>
        <time>2021-06-24T14:35:29.000Z</time>
      </trkpt>
      <trkpt lat="43.18644" lon="-0.05646">
        <ele>443.58</ele>
        <time>2021-06-24T14:35:35.000Z</time>
      </trkpt>
      <trkpt lat="43.18648" lon="-0.05658">
        <ele>444.07</ele>
        <time>2021-06-24T14:35:42.000Z</time>
      </trkpt>
      <trkpt lat="43.18651" lon="-0.05671">
        <ele>445.66</ele>
        <time>2021-06-24T14:35:50.000Z</time>
      </trkpt>
      <trkpt lat="43.18654" lon="-0.05684">
        <ele>446.17</ele>
        <time>2021-06-24T14:35:55.000Z</time>
      </trkpt>
      <trkpt lat="43.18656" lon="-0.057">
        <ele>447.26</ele>
        <time>2021-06-24T14:36:02.000Z</time>
      </trkpt>
      <trkpt lat="43.18655" lon="-0.05713">
        <ele>447.84</ele>
        <time>2021-06-24T14:36:07.000Z</time>
      </trkpt>
      <trkpt lat="43.18649" lon="-0.05724">
        <ele>449.38</ele>
        <time>2021-06-24T14:36:14.000Z</time>
      </trkpt>
      <trkpt lat="43.18643" lon="-0.05734">
        <ele>450.59</ele>
        <time>2021-06-24T14:36:21.000Z</time>
      </trkpt>
      <trkpt lat="43.18634" lon="-0.0574">
        <ele>451.26</ele>
        <time>2021-06-24T14:36:28.000Z</time>
      </trkpt>
      <trkpt lat="43.18628" lon="-0.0575">
        <ele>452.63</ele>
        <time>2021-06-24T14:36:36.000Z</time>
      </trkpt>
      <trkpt lat="43.18622" lon="-0.0576">
        <ele>453.46</ele>
        <time>2021-06-24T14:36:42.000Z</time>
      </trkpt>
      <trkpt lat="43.18615" lon="-0.0577">
        <ele>454.33</ele>
        <time>2021-06-24T14:36:47.000Z</time>
      </trkpt>
      <trkpt lat="43.1861" lon="-0.05781">
        <ele>455.16</ele>
        <time>2021-06-24T14:36:53.000Z</time>
      </trkpt>
      <trkpt lat="43.18606" lon="-0.05793">
        <ele>456.36</ele>
        <time>2021-06-24T14:37:00.000Z</time>
      </trkpt>
      <trkpt lat="43.18602" lon="-0.05805">
        <ele>456.97</ele>
        <time>2021-06-24T14:37:07.000Z</time>
      </trkpt>
      <trkpt lat="43.186" lon="-0.05818">
        <ele>458.26</ele>
        <time>2021-06-24T14:37:16.000Z</time>
      </trkpt>
      <trkpt lat="43.18598" lon="-0.0583">
        <ele>458.78</ele>
        <time>2021-06-24T14:37:22.000Z</time>
      </trkpt>
      <trkpt lat="43.18593" lon="-0.05842">
        <ele>459.39</ele>
        <time>2021-06-24T14:37:28.000Z</time>
      </trkpt>
      <trkpt lat="43.1859" lon="-0.05854">
        <ele>459.99</ele>
        <time>2021-06-24T14:37:33.000Z</time>
      </trkpt>
      <trkpt lat="43.18589" lon="-0.05867">
        <ele>460.69</ele>
        <time>2021-06-24T14:37:40.000Z</time>
      </trkpt>
      <trkpt lat="43.1859" lon="-0.05879">
        <ele>460.98</ele>
        <time>2021-06-24T14:37:45.000Z</time>
      </trkpt>
      <trkpt lat="43.18594" lon="-0.05895">
        <ele>461.27</ele>
        <time>2021-06-24T14:37:50.000Z</time>
      </trkpt>
      <trkpt lat="43.18592" lon="-0.0591">
        <ele>460.9</ele>
        <time>2021-06-24T14:37:56.000Z</time>
      </trkpt>
      <trkpt lat="43.18589" lon="-0.05924">
        <ele>461.2</ele>
        <time>2021-06-24T14:38:02.000Z</time>
      </trkpt>
      <trkpt lat="43.18585" lon="-0.05938">
        <ele>461.86</ele>
        <time>2021-06-24T14:38:08.000Z</time>
      </trkpt>
      <trkpt lat="43.18581" lon="-0.05949">
        <ele>462.37</ele>
        <time>2021-06-24T14:38:14.000Z</time>
      </trkpt>
      <trkpt lat="43.18574" lon="-0.0596">
        <ele>462.6</ele>
        <time>2021-06-24T14:38:20.000Z</time>
      </trkpt>
      <trkpt lat="43.18567" lon="-0.05968">
        <ele>462.87</ele>
        <time>2021-06-24T14:38:25.000Z</time>
      </trkpt>
      <trkpt lat="43.18559" lon="-0.05976">
        <ele>463.09</ele>
        <time>2021-06-24T14:38:30.000Z</time>
      </trkpt>
      <trkpt lat="43.18552" lon="-0.05984">
        <ele>463.39</ele>
        <time>2021-06-24T14:38:35.000Z</time>
      </trkpt>
      <trkpt lat="43.18546" lon="-0.05994">
        <ele>464.04</ele>
        <time>2021-06-24T14:38:40.000Z</time>
      </trkpt>
      <trkpt lat="43.18542" lon="-0.06006">
        <ele>464.95</ele>
        <time>2021-06-24T14:38:45.000Z</time>
      </trkpt>
      <trkpt lat="43.18538" lon="-0.06019">
        <ele>465.85</ele>
        <time>2021-06-24T14:38:51.000Z</time>
      </trkpt>
      <trkpt lat="43.18534" lon="-0.06032">
        <ele>467.06</ele>
        <time>2021-06-24T14:38:57.000Z</time>
      </trkpt>
      <trkpt lat="43.18532" lon="-0.06045">
        <ele>467.93</ele>
        <time>2021-06-24T14:39:02.000Z</time>
      </trkpt>
      <trkpt lat="43.1853" lon="-0.06058">
        <ele>468.72</ele>
        <time>2021-06-24T14:39:07.000Z</time>
      </trkpt>
      <trkpt lat="43.1853" lon="-0.06072">
        <ele>469.73</ele>
        <time>2021-06-24T14:39:12.000Z</time>
      </trkpt>
      <trkpt lat="43.18529" lon="-0.06087">
        <ele>469.79</ele>
        <time>2021-06-24T14:39:17.000Z</time>
      </trkpt>
      <trkpt lat="43.18529" lon="-0.06103">
        <ele>469.25</ele>
        <time>2021-06-24T14:39:22.000Z</time>
      </trkpt>
      <trkpt lat="43.18525" lon="-0.06121">
        <ele>468.53</ele>
        <time>2021-06-24T14:39:27.000Z</time>
      </trkpt>
      <trkpt lat="43.1852" lon="-0.06144">
        <ele>467.33</ele>
        <time>2021-06-24T14:39:32.000Z</time>
      </trkpt>
      <trkpt lat="43.18513" lon="-0.06165">
        <ele>466.55</ele>
        <time>2021-06-24T14:39:37.000Z</time>
      </trkpt>
      <trkpt lat="43.18506" lon="-0.06186">
        <ele>466.79</ele>
        <time>2021-06-24T14:39:42.000Z</time>
      </trkpt>
      <trkpt lat="43.185" lon="-0.06209">
        <ele>466.61</ele>
        <time>2021-06-24T14:39:47.000Z</time>
      </trkpt>
      <trkpt lat="43.18492" lon="-0.06241">
        <ele>466.09</ele>
        <time>2021-06-24T14:39:52.000Z</time>
      </trkpt>
      <trkpt lat="43.18487" lon="-0.06275">
        <ele>465.62</ele>
        <time>2021-06-24T14:39:57.000Z</time>
      </trkpt>
      <trkpt lat="43.18476" lon="-0.06307">
        <ele>465.65</ele>
        <time>2021-06-24T14:40:02.000Z</time>
      </trkpt>
      <trkpt lat="43.18465" lon="-0.06344">
        <ele>464.91</ele>
        <time>2021-06-24T14:40:07.000Z</time>
      </trkpt>
      <trkpt lat="43.18453" lon="-0.0638">
        <ele>463.94</ele>
        <time>2021-06-24T14:40:12.000Z</time>
      </trkpt>
      <trkpt lat="43.18439" lon="-0.06415">
        <ele>463.74</ele>
        <time>2021-06-24T14:40:17.000Z</time>
      </trkpt>
      <trkpt lat="43.18428" lon="-0.06452">
        <ele>463.19</ele>
        <time>2021-06-24T14:40:22.000Z</time>
      </trkpt>
      <trkpt lat="43.18418" lon="-0.06488">
        <ele>462.28</ele>
        <time>2021-06-24T14:40:27.000Z</time>
      </trkpt>
      <trkpt lat="43.1841" lon="-0.06521">
        <ele>461.91</ele>
        <time>2021-06-24T14:40:32.000Z</time>
      </trkpt>
      <trkpt lat="43.18403" lon="-0.06549">
        <ele>461.76</ele>
        <time>2021-06-24T14:40:37.000Z</time>
      </trkpt>
      <trkpt lat="43.18396" lon="-0.06576">
        <ele>462.25</ele>
        <time>2021-06-24T14:40:42.000Z</time>
      </trkpt>
      <trkpt lat="43.18389" lon="-0.06602">
        <ele>463.06</ele>
        <time>2021-06-24T14:40:47.000Z</time>
      </trkpt>
      <trkpt lat="43.1838" lon="-0.06629">
        <ele>464.19</ele>
        <time>2021-06-24T14:40:52.000Z</time>
      </trkpt>
      <trkpt lat="43.18371" lon="-0.06658">
        <ele>463.77</ele>
        <time>2021-06-24T14:40:57.000Z</time>
      </trkpt>
      <trkpt lat="43.18362" lon="-0.06696">
        <ele>462.97</ele>
        <time>2021-06-24T14:41:02.000Z</time>
      </trkpt>
      <trkpt lat="43.1835" lon="-0.06733">
        <ele>462.19</ele>
        <time>2021-06-24T14:41:07.000Z</time>
      </trkpt>
      <trkpt lat="43.18336" lon="-0.06773">
        <ele>461.38</ele>
        <time>2021-06-24T14:41:12.000Z</time>
      </trkpt>
      <trkpt lat="43.18324" lon="-0.06816">
        <ele>459.96</ele>
        <time>2021-06-24T14:41:17.000Z</time>
      </trkpt>
      <trkpt lat="43.18312" lon="-0.06859">
        <ele>459.83</ele>
        <time>2021-06-24T14:41:22.000Z</time>
      </trkpt>
      <trkpt lat="43.18302" lon="-0.06896">
        <ele>459.28</ele>
        <time>2021-06-24T14:41:27.000Z</time>
      </trkpt>
      <trkpt lat="43.18292" lon="-0.06926">
        <ele>457.16</ele>
        <time>2021-06-24T14:41:32.000Z</time>
      </trkpt>
      <trkpt lat="43.18286" lon="-0.06952">
        <ele>456.76</ele>
        <time>2021-06-24T14:41:37.000Z</time>
      </trkpt>
      <trkpt lat="43.18281" lon="-0.06971">
        <ele>456.17</ele>
        <time>2021-06-24T14:41:42.000Z</time>
      </trkpt>
      <trkpt lat="43.18274" lon="-0.06987">
        <ele>457.16</ele>
        <time>2021-06-24T14:41:47.000Z</time>
      </trkpt>
      <trkpt lat="43.18268" lon="-0.07004">
        <ele>458.66</ele>
        <time>2021-06-24T14:41:52.000Z</time>
      </trkpt>
      <trkpt lat="43.18262" lon="-0.07022">
        <ele>459.75</ele>
        <time>2021-06-24T14:41:57.000Z</time>
      </trkpt>
      <trkpt lat="43.18258" lon="-0.0704">
        <ele>459.74</ele>
        <time>2021-06-24T14:42:02.000Z</time>
      </trkpt>
      <trkpt lat="43.18252" lon="-0.07061">
        <ele>460.1</ele>
        <time>2021-06-24T14:42:07.000Z</time>
      </trkpt>
      <trkpt lat="43.18245" lon="-0.07082">
        <ele>461.91</ele>
        <time>2021-06-24T14:42:12.000Z</time>
      </trkpt>
      <trkpt lat="43.18237" lon="-0.07109">
        <ele>462.53</ele>
        <time>2021-06-24T14:42:17.000Z</time>
      </trkpt>
      <trkpt lat="43.18227" lon="-0.07138">
        <ele>463.18</ele>
        <time>2021-06-24T14:42:22.000Z</time>
      </trkpt>
      <trkpt lat="43.18219" lon="-0.0717">
        <ele>464.5</ele>
        <time>2021-06-24T14:42:27.000Z</time>
      </trkpt>
      <trkpt lat="43.18209" lon="-0.07203">
        <ele>464.91</ele>
        <time>2021-06-24T14:42:32.000Z</time>
      </trkpt>
      <trkpt lat="43.182" lon="-0.07237">
        <ele>465.34</ele>
        <time>2021-06-24T14:42:37.000Z</time>
      </trkpt>
      <trkpt lat="43.18192" lon="-0.0727">
        <ele>466.01</ele>
        <time>2021-06-24T14:42:42.000Z</time>
      </trkpt>
      <trkpt lat="43.18184" lon="-0.07299">
        <ele>466.84</ele>
        <time>2021-06-24T14:42:47.000Z</time>
      </trkpt>
      <trkpt lat="43.18176" lon="-0.07325">
        <ele>467.47</ele>
        <time>2021-06-24T14:42:52.000Z</time>
      </trkpt>
      <trkpt lat="43.18167" lon="-0.07351">
        <ele>467.62</ele>
        <time>2021-06-24T14:42:57.000Z</time>
      </trkpt>
      <trkpt lat="43.1816" lon="-0.07371">
        <ele>466.63</ele>
        <time>2021-06-24T14:43:02.000Z</time>
      </trkpt>
      <trkpt lat="43.18157" lon="-0.07392">
        <ele>466.06</ele>
        <time>2021-06-24T14:43:07.000Z</time>
      </trkpt>
      <trkpt lat="43.18149" lon="-0.07413">
        <ele>467.38</ele>
        <time>2021-06-24T14:43:12.000Z</time>
      </trkpt>
      <trkpt lat="43.18141" lon="-0.07434">
        <ele>467.49</ele>
        <time>2021-06-24T14:43:17.000Z</time>
      </trkpt>
      <trkpt lat="43.18135" lon="-0.07457">
        <ele>467.68</ele>
        <time>2021-06-24T14:43:22.000Z</time>
      </trkpt>
      <trkpt lat="43.18129" lon="-0.07481">
        <ele>469.35</ele>
        <time>2021-06-24T14:43:27.000Z</time>
      </trkpt>
      <trkpt lat="43.18123" lon="-0.07502">
        <ele>469.45</ele>
        <time>2021-06-24T14:43:32.000Z</time>
      </trkpt>
      <trkpt lat="43.18115" lon="-0.07522">
        <ele>469.5</ele>
        <time>2021-06-24T14:43:37.000Z</time>
      </trkpt>
      <trkpt lat="43.18108" lon="-0.07543">
        <ele>469.95</ele>
        <time>2021-06-24T14:43:42.000Z</time>
      </trkpt>
      <trkpt lat="43.18102" lon="-0.07565">
        <ele>470.19</ele>
        <time>2021-06-24T14:43:47.000Z</time>
      </trkpt>
      <trkpt lat="43.18095" lon="-0.07587">
        <ele>470.04</ele>
        <time>2021-06-24T14:43:52.000Z</time>
      </trkpt>
      <trkpt lat="43.18089" lon="-0.0761">
        <ele>470.64</ele>
        <time>2021-06-24T14:43:57.000Z</time>
      </trkpt>
      <trkpt lat="43.1808" lon="-0.07635">
        <ele>469.87</ele>
        <time>2021-06-24T14:44:02.000Z</time>
      </trkpt>
      <trkpt lat="43.18072" lon="-0.07667">
        <ele>469.38</ele>
        <time>2021-06-24T14:44:07.000Z</time>
      </trkpt>
      <trkpt lat="43.18061" lon="-0.07704">
        <ele>470.01</ele>
        <time>2021-06-24T14:44:12.000Z</time>
      </trkpt>
      <trkpt lat="43.18049" lon="-0.07745">
        <ele>469.76</ele>
        <time>2021-06-24T14:44:17.000Z</time>
      </trkpt>
      <trkpt lat="43.18039" lon="-0.07784">
        <ele>469.57</ele>
        <time>2021-06-24T14:44:22.000Z</time>
      </trkpt>
      <trkpt lat="43.18028" lon="-0.07821">
        <ele>469.23</ele>
        <time>2021-06-24T14:44:27.000Z</time>
      </trkpt>
      <trkpt lat="43.18017" lon="-0.07857">
        <ele>469.39</ele>
        <time>2021-06-24T14:44:32.000Z</time>
      </trkpt>
      <trkpt lat="43.18009" lon="-0.07894">
        <ele>468.52</ele>
        <time>2021-06-24T14:44:37.000Z</time>
      </trkpt>
      <trkpt lat="43.18" lon="-0.07926">
        <ele>468</ele>
        <time>2021-06-24T14:44:42.000Z</time>
      </trkpt>
      <trkpt lat="43.17989" lon="-0.07957">
        <ele>468.1</ele>
        <time>2021-06-24T14:44:47.000Z</time>
      </trkpt>
      <trkpt lat="43.1798" lon="-0.07986">
        <ele>468.71</ele>
        <time>2021-06-24T14:44:52.000Z</time>
      </trkpt>
      <trkpt lat="43.17973" lon="-0.0801">
        <ele>468.6</ele>
        <time>2021-06-24T14:44:57.000Z</time>
      </trkpt>
      <trkpt lat="43.17967" lon="-0.08034">
        <ele>469.52</ele>
        <time>2021-06-24T14:45:02.000Z</time>
      </trkpt>
      <trkpt lat="43.17961" lon="-0.08053">
        <ele>469.26</ele>
        <time>2021-06-24T14:45:07.000Z</time>
      </trkpt>
      <trkpt lat="43.17954" lon="-0.08075">
        <ele>469.86</ele>
        <time>2021-06-24T14:45:12.000Z</time>
      </trkpt>
      <trkpt lat="43.17947" lon="-0.08096">
        <ele>470.3</ele>
        <time>2021-06-24T14:45:17.000Z</time>
      </trkpt>
      <trkpt lat="43.17938" lon="-0.08123">
        <ele>471.7</ele>
        <time>2021-06-24T14:45:22.000Z</time>
      </trkpt>
      <trkpt lat="43.1793" lon="-0.08153">
        <ele>471.56</ele>
        <time>2021-06-24T14:45:27.000Z</time>
      </trkpt>
      <trkpt lat="43.1792" lon="-0.08187">
        <ele>470.81</ele>
        <time>2021-06-24T14:45:32.000Z</time>
      </trkpt>
      <trkpt lat="43.17911" lon="-0.08223">
        <ele>471.17</ele>
        <time>2021-06-24T14:45:37.000Z</time>
      </trkpt>
      <trkpt lat="43.17899" lon="-0.08263">
        <ele>469.79</ele>
        <time>2021-06-24T14:45:42.000Z</time>
      </trkpt>
      <trkpt lat="43.17887" lon="-0.08309">
        <ele>469.11</ele>
        <time>2021-06-24T14:45:47.000Z</time>
      </trkpt>
      <trkpt lat="43.17874" lon="-0.08358">
        <ele>467.68</ele>
        <time>2021-06-24T14:45:52.000Z</time>
      </trkpt>
      <trkpt lat="43.1786" lon="-0.08405">
        <ele>466.67</ele>
        <time>2021-06-24T14:45:57.000Z</time>
      </trkpt>
      <trkpt lat="43.17846" lon="-0.08452">
        <ele>465.13</ele>
        <time>2021-06-24T14:46:02.000Z</time>
      </trkpt>
      <trkpt lat="43.17833" lon="-0.08499">
        <ele>463.83</ele>
        <time>2021-06-24T14:46:07.000Z</time>
      </trkpt>
      <trkpt lat="43.17815" lon="-0.08547">
        <ele>461.96</ele>
        <time>2021-06-24T14:46:12.000Z</time>
      </trkpt>
      <trkpt lat="43.17796" lon="-0.08599">
        <ele>460.01</ele>
        <time>2021-06-24T14:46:17.000Z</time>
      </trkpt>
      <trkpt lat="43.17762" lon="-0.08651">
        <ele>456.89</ele>
        <time>2021-06-24T14:46:22.000Z</time>
      </trkpt>
      <trkpt lat="43.17728" lon="-0.08707">
        <ele>453.49</ele>
        <time>2021-06-24T14:46:27.000Z</time>
      </trkpt>
      <trkpt lat="43.17697" lon="-0.08767">
        <ele>449.05</ele>
        <time>2021-06-24T14:46:32.000Z</time>
      </trkpt>
      <trkpt lat="43.17681" lon="-0.08839">
        <ele>446.43</ele>
        <time>2021-06-24T14:46:37.000Z</time>
      </trkpt>
      <trkpt lat="43.17695" lon="-0.08909">
        <ele>443.64</ele>
        <time>2021-06-24T14:46:42.000Z</time>
      </trkpt>
      <trkpt lat="43.17721" lon="-0.08978">
        <ele>440.26</ele>
        <time>2021-06-24T14:46:47.000Z</time>
      </trkpt>
      <trkpt lat="43.17754" lon="-0.09045">
        <ele>435.19</ele>
        <time>2021-06-24T14:46:52.000Z</time>
      </trkpt>
      <trkpt lat="43.17804" lon="-0.09098">
        <ele>429.67</ele>
        <time>2021-06-24T14:46:57.000Z</time>
      </trkpt>
      <trkpt lat="43.17852" lon="-0.09154">
        <ele>423.08</ele>
        <time>2021-06-24T14:47:02.000Z</time>
      </trkpt>
      <trkpt lat="43.17895" lon="-0.09219">
        <ele>418.07</ele>
        <time>2021-06-24T14:47:07.000Z</time>
      </trkpt>
      <trkpt lat="43.17927" lon="-0.09289">
        <ele>414.84</ele>
        <time>2021-06-24T14:47:12.000Z</time>
      </trkpt>
      <trkpt lat="43.17955" lon="-0.09354">
        <ele>410.51</ele>
        <time>2021-06-24T14:47:17.000Z</time>
      </trkpt>
      <trkpt lat="43.17985" lon="-0.09409">
        <ele>407.33</ele>
        <time>2021-06-24T14:47:22.000Z</time>
      </trkpt>
      <trkpt lat="43.18019" lon="-0.09458">
        <ele>405.49</ele>
        <time>2021-06-24T14:47:27.000Z</time>
      </trkpt>
      <trkpt lat="43.18048" lon="-0.09515">
        <ele>401.43</ele>
        <time>2021-06-24T14:47:32.000Z</time>
      </trkpt>
      <trkpt lat="43.1807" lon="-0.09578">
        <ele>399.91</ele>
        <time>2021-06-24T14:47:37.000Z</time>
      </trkpt>
      <trkpt lat="43.18093" lon="-0.0964">
        <ele>397.99</ele>
        <time>2021-06-24T14:47:42.000Z</time>
      </trkpt>
      <trkpt lat="43.18113" lon="-0.09704">
        <ele>396.74</ele>
        <time>2021-06-24T14:47:47.000Z</time>
      </trkpt>
      <trkpt lat="43.18131" lon="-0.09774">
        <ele>394.39</ele>
        <time>2021-06-24T14:47:52.000Z</time>
      </trkpt>
      <trkpt lat="43.18146" lon="-0.09844">
        <ele>392.11</ele>
        <time>2021-06-24T14:47:57.000Z</time>
      </trkpt>
      <trkpt lat="43.18164" lon="-0.09914">
        <ele>390.42</ele>
        <time>2021-06-24T14:48:02.000Z</time>
      </trkpt>
      <trkpt lat="43.18186" lon="-0.09982">
        <ele>387.76</ele>
        <time>2021-06-24T14:48:07.000Z</time>
      </trkpt>
      <trkpt lat="43.1821" lon="-0.10047">
        <ele>384.98</ele>
        <time>2021-06-24T14:48:12.000Z</time>
      </trkpt>
      <trkpt lat="43.18232" lon="-0.10112">
        <ele>381.51</ele>
        <time>2021-06-24T14:48:17.000Z</time>
      </trkpt>
      <trkpt lat="43.18257" lon="-0.10174">
        <ele>378.5</ele>
        <time>2021-06-24T14:48:22.000Z</time>
      </trkpt>
      <trkpt lat="43.18279" lon="-0.10234">
        <ele>377.34</ele>
        <time>2021-06-24T14:48:27.000Z</time>
      </trkpt>
      <trkpt lat="43.18296" lon="-0.10302">
        <ele>376.23</ele>
        <time>2021-06-24T14:48:32.000Z</time>
      </trkpt>
      <trkpt lat="43.18312" lon="-0.10369">
        <ele>374.53</ele>
        <time>2021-06-24T14:48:37.000Z</time>
      </trkpt>
      <trkpt lat="43.18328" lon="-0.10438">
        <ele>373.32</ele>
        <time>2021-06-24T14:48:42.000Z</time>
      </trkpt>
      <trkpt lat="43.18343" lon="-0.10507">
        <ele>370.2</ele>
        <time>2021-06-24T14:48:47.000Z</time>
      </trkpt>
      <trkpt lat="43.1836" lon="-0.1057">
        <ele>367.45</ele>
        <time>2021-06-24T14:48:52.000Z</time>
      </trkpt>
      <trkpt lat="43.18376" lon="-0.10633">
        <ele>365.42</ele>
        <time>2021-06-24T14:48:57.000Z</time>
      </trkpt>
      <trkpt lat="43.18389" lon="-0.10694">
        <ele>364.2</ele>
        <time>2021-06-24T14:49:02.000Z</time>
      </trkpt>
      <trkpt lat="43.18401" lon="-0.10753">
        <ele>362.35</ele>
        <time>2021-06-24T14:49:07.000Z</time>
      </trkpt>
      <trkpt lat="43.18409" lon="-0.10804">
        <ele>359.22</ele>
        <time>2021-06-24T14:49:12.000Z</time>
      </trkpt>
      <trkpt lat="43.18415" lon="-0.10849">
        <ele>357.35</ele>
        <time>2021-06-24T14:49:17.000Z</time>
      </trkpt>
      <trkpt lat="43.18415" lon="-0.10894">
        <ele>356.32</ele>
        <time>2021-06-24T14:49:22.000Z</time>
      </trkpt>
      <trkpt lat="43.18416" lon="-0.10934">
        <ele>355.13</ele>
        <time>2021-06-24T14:49:27.000Z</time>
      </trkpt>
      <trkpt lat="43.18416" lon="-0.10973">
        <ele>355.09</ele>
        <time>2021-06-24T14:49:32.000Z</time>
      </trkpt>
      <trkpt lat="43.18406" lon="-0.1101">
        <ele>355.65</ele>
        <time>2021-06-24T14:49:37.000Z</time>
      </trkpt>
      <trkpt lat="43.18399" lon="-0.11044">
        <ele>355.15</ele>
        <time>2021-06-24T14:49:42.000Z</time>
      </trkpt>
      <trkpt lat="43.18397" lon="-0.11078">
        <ele>355.02</ele>
        <time>2021-06-24T14:49:47.000Z</time>
      </trkpt>
      <trkpt lat="43.18398" lon="-0.11116">
        <ele>354.71</ele>
        <time>2021-06-24T14:49:52.000Z</time>
      </trkpt>
      <trkpt lat="43.18392" lon="-0.11157">
        <ele>357.05</ele>
        <time>2021-06-24T14:49:57.000Z</time>
      </trkpt>
      <trkpt lat="43.18391" lon="-0.11196">
        <ele>357.48</ele>
        <time>2021-06-24T14:50:02.000Z</time>
      </trkpt>
      <trkpt lat="43.18401" lon="-0.1123">
        <ele>357.61</ele>
        <time>2021-06-24T14:50:07.000Z</time>
      </trkpt>
      <trkpt lat="43.18409" lon="-0.11266">
        <ele>359.1</ele>
        <time>2021-06-24T14:50:12.000Z</time>
      </trkpt>
      <trkpt lat="43.18412" lon="-0.11292">
        <ele>361.92</ele>
        <time>2021-06-24T14:50:17.000Z</time>
      </trkpt>
      <trkpt lat="43.18413" lon="-0.11316">
        <ele>362.83</ele>
        <time>2021-06-24T14:50:22.000Z</time>
      </trkpt>
      <trkpt lat="43.18415" lon="-0.11345">
        <ele>363.06</ele>
        <time>2021-06-24T14:50:27.000Z</time>
      </trkpt>
      <trkpt lat="43.18422" lon="-0.11374">
        <ele>362.61</ele>
        <time>2021-06-24T14:50:32.000Z</time>
      </trkpt>
      <trkpt lat="43.18446" lon="-0.1138">
        <ele>362.01</ele>
        <time>2021-06-24T14:50:37.000Z</time>
      </trkpt>
      <trkpt lat="43.18475" lon="-0.11388">
        <ele>361.52</ele>
        <time>2021-06-24T14:50:42.000Z</time>
      </trkpt>
      <trkpt lat="43.18502" lon="-0.11398">
        <ele>360.61</ele>
        <time>2021-06-24T14:50:47.000Z</time>
      </trkpt>
      <trkpt lat="43.1852" lon="-0.11423">
        <ele>360.2</ele>
        <time>2021-06-24T14:50:52.000Z</time>
      </trkpt>
      <trkpt lat="43.18536" lon="-0.11445">
        <ele>360.8</ele>
        <time>2021-06-24T14:50:57.000Z</time>
      </trkpt>
      <trkpt lat="43.18555" lon="-0.11468">
        <ele>361.58</ele>
        <time>2021-06-24T14:51:02.000Z</time>
      </trkpt>
      <trkpt lat="43.18575" lon="-0.11492">
        <ele>360.8</ele>
        <time>2021-06-24T14:51:07.000Z</time>
      </trkpt>
      <trkpt lat="43.18594" lon="-0.11514">
        <ele>361.27</ele>
        <time>2021-06-24T14:51:12.000Z</time>
      </trkpt>
      <trkpt lat="43.18611" lon="-0.11532">
        <ele>361.97</ele>
        <time>2021-06-24T14:51:17.000Z</time>
      </trkpt>
      <trkpt lat="43.18621" lon="-0.11541">
        <ele>364.36</ele>
        <time>2021-06-24T14:51:22.000Z</time>
      </trkpt>
      <trkpt lat="43.18635" lon="-0.11558">
        <ele>366.47</ele>
        <time>2021-06-24T14:51:27.000Z</time>
      </trkpt>
      <trkpt lat="43.18638" lon="-0.1157">
        <ele>368.22</ele>
        <time>2021-06-24T14:51:32.000Z</time>
      </trkpt>
      <trkpt lat="43.18637" lon="-0.11583">
        <ele>368.63</ele>
        <time>2021-06-24T14:51:38.000Z</time>
      </trkpt>
      <trkpt lat="43.18634" lon="-0.11597">
        <ele>368.5</ele>
        <time>2021-06-24T14:51:43.000Z</time>
      </trkpt>
      <trkpt lat="43.18632" lon="-0.11613">
        <ele>368.61</ele>
        <time>2021-06-24T14:51:48.000Z</time>
      </trkpt>
      <trkpt lat="43.18629" lon="-0.11635">
        <ele>369.06</ele>
        <time>2021-06-24T14:51:53.000Z</time>
      </trkpt>
      <trkpt lat="43.18627" lon="-0.11659">
        <ele>369.2</ele>
        <time>2021-06-24T14:51:58.000Z</time>
      </trkpt>
      <trkpt lat="43.18625" lon="-0.1168">
        <ele>369.01</ele>
        <time>2021-06-24T14:52:03.000Z</time>
      </trkpt>
      <trkpt lat="43.18626" lon="-0.11699">
        <ele>368.53</ele>
        <time>2021-06-24T14:52:08.000Z</time>
      </trkpt>
      <trkpt lat="43.18631" lon="-0.11719">
        <ele>368.23</ele>
        <time>2021-06-24T14:52:13.000Z</time>
      </trkpt>
      <trkpt lat="43.18636" lon="-0.11739">
        <ele>368.74</ele>
        <time>2021-06-24T14:52:18.000Z</time>
      </trkpt>
      <trkpt lat="43.18643" lon="-0.11762">
        <ele>369.57</ele>
        <time>2021-06-24T14:52:23.000Z</time>
      </trkpt>
      <trkpt lat="43.18648" lon="-0.11788">
        <ele>370.17</ele>
        <time>2021-06-24T14:52:28.000Z</time>
      </trkpt>
      <trkpt lat="43.1865" lon="-0.11815">
        <ele>369.41</ele>
        <time>2021-06-24T14:52:33.000Z</time>
      </trkpt>
      <trkpt lat="43.18653" lon="-0.11844">
        <ele>368.28</ele>
        <time>2021-06-24T14:52:38.000Z</time>
      </trkpt>
      <trkpt lat="43.18656" lon="-0.11874">
        <ele>368.16</ele>
        <time>2021-06-24T14:52:43.000Z</time>
      </trkpt>
      <trkpt lat="43.1866" lon="-0.11905">
        <ele>368.06</ele>
        <time>2021-06-24T14:52:48.000Z</time>
      </trkpt>
      <trkpt lat="43.18665" lon="-0.11937">
        <ele>369.21</ele>
        <time>2021-06-24T14:52:53.000Z</time>
      </trkpt>
      <trkpt lat="43.18671" lon="-0.11967">
        <ele>368.57</ele>
        <time>2021-06-24T14:52:58.000Z</time>
      </trkpt>
      <trkpt lat="43.18673" lon="-0.11996">
        <ele>368.11</ele>
        <time>2021-06-24T14:53:03.000Z</time>
      </trkpt>
      <trkpt lat="43.18672" lon="-0.12025">
        <ele>368.66</ele>
        <time>2021-06-24T14:53:08.000Z</time>
      </trkpt>
      <trkpt lat="43.1867" lon="-0.12053">
        <ele>369.1</ele>
        <time>2021-06-24T14:53:13.000Z</time>
      </trkpt>
      <trkpt lat="43.1867" lon="-0.12082">
        <ele>371.11</ele>
        <time>2021-06-24T14:53:18.000Z</time>
      </trkpt>
      <trkpt lat="43.18668" lon="-0.12114">
        <ele>373.31</ele>
        <time>2021-06-24T14:53:23.000Z</time>
      </trkpt>
      <trkpt lat="43.18672" lon="-0.12138">
        <ele>375.08</ele>
        <time>2021-06-24T14:53:28.000Z</time>
      </trkpt>
      <trkpt lat="43.18673" lon="-0.12168">
        <ele>376.97</ele>
        <time>2021-06-24T14:53:33.000Z</time>
      </trkpt>
      <trkpt lat="43.18674" lon="-0.12197">
        <ele>378.88</ele>
        <time>2021-06-24T14:53:38.000Z</time>
      </trkpt>
      <trkpt lat="43.18677" lon="-0.12226">
        <ele>378.36</ele>
        <time>2021-06-24T14:53:43.000Z</time>
      </trkpt>
      <trkpt lat="43.1868" lon="-0.12261">
        <ele>377.69</ele>
        <time>2021-06-24T14:53:48.000Z</time>
      </trkpt>
      <trkpt lat="43.18682" lon="-0.12298">
        <ele>376.52</ele>
        <time>2021-06-24T14:53:53.000Z</time>
      </trkpt>
      <trkpt lat="43.18687" lon="-0.12334">
        <ele>376</ele>
        <time>2021-06-24T14:53:58.000Z</time>
      </trkpt>
      <trkpt lat="43.18688" lon="-0.12371">
        <ele>375.68</ele>
        <time>2021-06-24T14:54:03.000Z</time>
      </trkpt>
      <trkpt lat="43.1868" lon="-0.1241">
        <ele>375.6</ele>
        <time>2021-06-24T14:54:08.000Z</time>
      </trkpt>
      <trkpt lat="43.18677" lon="-0.12449">
        <ele>374.91</ele>
        <time>2021-06-24T14:54:13.000Z</time>
      </trkpt>
      <trkpt lat="43.1867" lon="-0.12487">
        <ele>373.81</ele>
        <time>2021-06-24T14:54:18.000Z</time>
      </trkpt>
      <trkpt lat="43.18665" lon="-0.12527">
        <ele>372.67</ele>
        <time>2021-06-24T14:54:23.000Z</time>
      </trkpt>
      <trkpt lat="43.18659" lon="-0.12565">
        <ele>373.02</ele>
        <time>2021-06-24T14:54:28.000Z</time>
      </trkpt>
      <trkpt lat="43.18653" lon="-0.12605">
        <ele>372.63</ele>
        <time>2021-06-24T14:54:33.000Z</time>
      </trkpt>
      <trkpt lat="43.18648" lon="-0.12641">
        <ele>372.02</ele>
        <time>2021-06-24T14:54:38.000Z</time>
      </trkpt>
      <trkpt lat="43.18644" lon="-0.12675">
        <ele>371.14</ele>
        <time>2021-06-24T14:54:43.000Z</time>
      </trkpt>
      <trkpt lat="43.1864" lon="-0.12706">
        <ele>370.65</ele>
        <time>2021-06-24T14:54:48.000Z</time>
      </trkpt>
      <trkpt lat="43.18635" lon="-0.12737">
        <ele>369.71</ele>
        <time>2021-06-24T14:54:53.000Z</time>
      </trkpt>
      <trkpt lat="43.18632" lon="-0.12767">
        <ele>369.08</ele>
        <time>2021-06-24T14:54:58.000Z</time>
      </trkpt>
      <trkpt lat="43.18627" lon="-0.128">
        <ele>368.37</ele>
        <time>2021-06-24T14:55:03.000Z</time>
      </trkpt>
      <trkpt lat="43.18622" lon="-0.12833">
        <ele>368.68</ele>
        <time>2021-06-24T14:55:08.000Z</time>
      </trkpt>
      <trkpt lat="43.18617" lon="-0.12865">
        <ele>370.4</ele>
        <time>2021-06-24T14:55:13.000Z</time>
      </trkpt>
      <trkpt lat="43.18612" lon="-0.12899">
        <ele>370.95</ele>
        <time>2021-06-24T14:55:18.000Z</time>
      </trkpt>
      <trkpt lat="43.18607" lon="-0.12932">
        <ele>370.55</ele>
        <time>2021-06-24T14:55:23.000Z</time>
      </trkpt>
      <trkpt lat="43.18602" lon="-0.12963">
        <ele>371.62</ele>
        <time>2021-06-24T14:55:28.000Z</time>
      </trkpt>
      <trkpt lat="43.18598" lon="-0.12997">
        <ele>372.59</ele>
        <time>2021-06-24T14:55:33.000Z</time>
      </trkpt>
      <trkpt lat="43.18597" lon="-0.13034">
        <ele>376.67</ele>
        <time>2021-06-24T14:55:38.000Z</time>
      </trkpt>
      <trkpt lat="43.18585" lon="-0.13073">
        <ele>376.59</ele>
        <time>2021-06-24T14:55:43.000Z</time>
      </trkpt>
      <trkpt lat="43.18579" lon="-0.13117">
        <ele>375.52</ele>
        <time>2021-06-24T14:55:48.000Z</time>
      </trkpt>
      <trkpt lat="43.18573" lon="-0.13163">
        <ele>373.98</ele>
        <time>2021-06-24T14:55:53.000Z</time>
      </trkpt>
      <trkpt lat="43.18566" lon="-0.1321">
        <ele>373.34</ele>
        <time>2021-06-24T14:55:58.000Z</time>
      </trkpt>
      <trkpt lat="43.18559" lon="-0.13259">
        <ele>372.12</ele>
        <time>2021-06-24T14:56:03.000Z</time>
      </trkpt>
      <trkpt lat="43.18552" lon="-0.13304">
        <ele>371.58</ele>
        <time>2021-06-24T14:56:08.000Z</time>
      </trkpt>
      <trkpt lat="43.18545" lon="-0.13348">
        <ele>370.75</ele>
        <time>2021-06-24T14:56:13.000Z</time>
      </trkpt>
      <trkpt lat="43.18539" lon="-0.13388">
        <ele>371.25</ele>
        <time>2021-06-24T14:56:18.000Z</time>
      </trkpt>
      <trkpt lat="43.18533" lon="-0.13422">
        <ele>371.23</ele>
        <time>2021-06-24T14:56:23.000Z</time>
      </trkpt>
      <trkpt lat="43.18529" lon="-0.13453">
        <ele>370.96</ele>
        <time>2021-06-24T14:56:28.000Z</time>
      </trkpt>
      <trkpt lat="43.18528" lon="-0.13485">
        <ele>369.97</ele>
        <time>2021-06-24T14:56:33.000Z</time>
      </trkpt>
      <trkpt lat="43.18529" lon="-0.13517">
        <ele>368.93</ele>
        <time>2021-06-24T14:56:38.000Z</time>
      </trkpt>
      <trkpt lat="43.18532" lon="-0.13549">
        <ele>369.96</ele>
        <time>2021-06-24T14:56:43.000Z</time>
      </trkpt>
      <trkpt lat="43.18536" lon="-0.13583">
        <ele>370.3</ele>
        <time>2021-06-24T14:56:48.000Z</time>
      </trkpt>
      <trkpt lat="43.18539" lon="-0.1362">
        <ele>370.93</ele>
        <time>2021-06-24T14:56:53.000Z</time>
      </trkpt>
      <trkpt lat="43.18544" lon="-0.13661">
        <ele>371.5</ele>
        <time>2021-06-24T14:56:58.000Z</time>
      </trkpt>
      <trkpt lat="43.18549" lon="-0.13707">
        <ele>372.4</ele>
        <time>2021-06-24T14:57:03.000Z</time>
      </trkpt>
      <trkpt lat="43.18555" lon="-0.1375">
        <ele>372.37</ele>
        <time>2021-06-24T14:57:08.000Z</time>
      </trkpt>
      <trkpt lat="43.18559" lon="-0.13794">
        <ele>372.1</ele>
        <time>2021-06-24T14:57:13.000Z</time>
      </trkpt>
      <trkpt lat="43.18564" lon="-0.13836">
        <ele>372.19</ele>
        <time>2021-06-24T14:57:18.000Z</time>
      </trkpt>
      <trkpt lat="43.18568" lon="-0.13877">
        <ele>372.26</ele>
        <time>2021-06-24T14:57:23.000Z</time>
      </trkpt>
      <trkpt lat="43.18574" lon="-0.13917">
        <ele>372.87</ele>
        <time>2021-06-24T14:57:28.000Z</time>
      </trkpt>
      <trkpt lat="43.18578" lon="-0.13952">
        <ele>372.07</ele>
        <time>2021-06-24T14:57:33.000Z</time>
      </trkpt>
      <trkpt lat="43.18583" lon="-0.1399">
        <ele>372.31</ele>
        <time>2021-06-24T14:57:38.000Z</time>
      </trkpt>
      <trkpt lat="43.18588" lon="-0.14031">
        <ele>372.56</ele>
        <time>2021-06-24T14:57:43.000Z</time>
      </trkpt>
      <trkpt lat="43.18593" lon="-0.14072">
        <ele>372.76</ele>
        <time>2021-06-24T14:57:48.000Z</time>
      </trkpt>
      <trkpt lat="43.18599" lon="-0.14112">
        <ele>372.37</ele>
        <time>2021-06-24T14:57:53.000Z</time>
      </trkpt>
      <trkpt lat="43.18604" lon="-0.14154">
        <ele>371.01</ele>
        <time>2021-06-24T14:57:58.000Z</time>
      </trkpt>
      <trkpt lat="43.18607" lon="-0.142">
        <ele>367.95</ele>
        <time>2021-06-24T14:58:03.000Z</time>
      </trkpt>
      <trkpt lat="43.18603" lon="-0.1425">
        <ele>366.31</ele>
        <time>2021-06-24T14:58:08.000Z</time>
      </trkpt>
      <trkpt lat="43.18591" lon="-0.143">
        <ele>364.35</ele>
        <time>2021-06-24T14:58:13.000Z</time>
      </trkpt>
      <trkpt lat="43.18578" lon="-0.14345">
        <ele>363.06</ele>
        <time>2021-06-24T14:58:18.000Z</time>
      </trkpt>
      <trkpt lat="43.18569" lon="-0.14385">
        <ele>362.28</ele>
        <time>2021-06-24T14:58:23.000Z</time>
      </trkpt>
      <trkpt lat="43.18561" lon="-0.1442">
        <ele>361.15</ele>
        <time>2021-06-24T14:58:28.000Z</time>
      </trkpt>
      <trkpt lat="43.18552" lon="-0.14453">
        <ele>360.88</ele>
        <time>2021-06-24T14:58:33.000Z</time>
      </trkpt>
      <trkpt lat="43.18543" lon="-0.14482">
        <ele>360.96</ele>
        <time>2021-06-24T14:58:38.000Z</time>
      </trkpt>
      <trkpt lat="43.18534" lon="-0.14515">
        <ele>361.53</ele>
        <time>2021-06-24T14:58:43.000Z</time>
      </trkpt>
      <trkpt lat="43.18524" lon="-0.14547">
        <ele>362.67</ele>
        <time>2021-06-24T14:58:48.000Z</time>
      </trkpt>
      <trkpt lat="43.18516" lon="-0.1458">
        <ele>362.84</ele>
        <time>2021-06-24T14:58:53.000Z</time>
      </trkpt>
      <trkpt lat="43.18505" lon="-0.14613">
        <ele>363.28</ele>
        <time>2021-06-24T14:58:58.000Z</time>
      </trkpt>
      <trkpt lat="43.18491" lon="-0.14642">
        <ele>363.94</ele>
        <time>2021-06-24T14:59:03.000Z</time>
      </trkpt>
      <trkpt lat="43.18477" lon="-0.14672">
        <ele>364.96</ele>
        <time>2021-06-24T14:59:08.000Z</time>
      </trkpt>
      <trkpt lat="43.18462" lon="-0.14696">
        <ele>367.63</ele>
        <time>2021-06-24T14:59:13.000Z</time>
      </trkpt>
      <trkpt lat="43.1845" lon="-0.14723">
        <ele>367.29</ele>
        <time>2021-06-24T14:59:18.000Z</time>
      </trkpt>
      <trkpt lat="43.1844" lon="-0.14752">
        <ele>366.67</ele>
        <time>2021-06-24T14:59:23.000Z</time>
      </trkpt>
      <trkpt lat="43.18432" lon="-0.1478">
        <ele>367.07</ele>
        <time>2021-06-24T14:59:28.000Z</time>
      </trkpt>
      <trkpt lat="43.18424" lon="-0.14804">
        <ele>368.13</ele>
        <time>2021-06-24T14:59:33.000Z</time>
      </trkpt>
      <trkpt lat="43.18418" lon="-0.14829">
        <ele>367.49</ele>
        <time>2021-06-24T14:59:38.000Z</time>
      </trkpt>
      <trkpt lat="43.18411" lon="-0.14853">
        <ele>367.34</ele>
        <time>2021-06-24T14:59:43.000Z</time>
      </trkpt>
      <trkpt lat="43.18405" lon="-0.14875">
        <ele>366.74</ele>
        <time>2021-06-24T14:59:48.000Z</time>
      </trkpt>
      <trkpt lat="43.18399" lon="-0.14899">
        <ele>366.57</ele>
        <time>2021-06-24T14:59:53.000Z</time>
      </trkpt>
      <trkpt lat="43.18393" lon="-0.14923">
        <ele>366.4</ele>
        <time>2021-06-24T14:59:58.000Z</time>
      </trkpt>
      <trkpt lat="43.18389" lon="-0.14943">
        <ele>366.3</ele>
        <time>2021-06-24T15:00:03.000Z</time>
      </trkpt>
      <trkpt lat="43.18384" lon="-0.14963">
        <ele>367.14</ele>
        <time>2021-06-24T15:00:08.000Z</time>
      </trkpt>
      <trkpt lat="43.18378" lon="-0.14988">
        <ele>367.33</ele>
        <time>2021-06-24T15:00:13.000Z</time>
      </trkpt>
      <trkpt lat="43.18371" lon="-0.15015">
        <ele>368.8</ele>
        <time>2021-06-24T15:00:18.000Z</time>
      </trkpt>
      <trkpt lat="43.18366" lon="-0.15036">
        <ele>370.48</ele>
        <time>2021-06-24T15:00:23.000Z</time>
      </trkpt>
      <trkpt lat="43.18361" lon="-0.15055">
        <ele>372.03</ele>
        <time>2021-06-24T15:00:28.000Z</time>
      </trkpt>
      <trkpt lat="43.18356" lon="-0.15071">
        <ele>373.63</ele>
        <time>2021-06-24T15:00:33.000Z</time>
      </trkpt>
      <trkpt lat="43.18348" lon="-0.15086">
        <ele>374.3</ele>
        <time>2021-06-24T15:00:38.000Z</time>
      </trkpt>
      <trkpt lat="43.1834" lon="-0.15101">
        <ele>374.79</ele>
        <time>2021-06-24T15:00:43.000Z</time>
      </trkpt>
      <trkpt lat="43.18332" lon="-0.15119">
        <ele>375.99</ele>
        <time>2021-06-24T15:00:48.000Z</time>
      </trkpt>
      <trkpt lat="43.18325" lon="-0.15135">
        <ele>377.03</ele>
        <time>2021-06-24T15:00:53.000Z</time>
      </trkpt>
      <trkpt lat="43.18318" lon="-0.1515">
        <ele>378.54</ele>
        <time>2021-06-24T15:00:58.000Z</time>
      </trkpt>
      <trkpt lat="43.1831" lon="-0.15166">
        <ele>379.26</ele>
        <time>2021-06-24T15:01:03.000Z</time>
      </trkpt>
      <trkpt lat="43.18303" lon="-0.15182">
        <ele>379.85</ele>
        <time>2021-06-24T15:01:08.000Z</time>
      </trkpt>
      <trkpt lat="43.18295" lon="-0.15197">
        <ele>379.7</ele>
        <time>2021-06-24T15:01:13.000Z</time>
      </trkpt>
      <trkpt lat="43.18289" lon="-0.1521">
        <ele>380.09</ele>
        <time>2021-06-24T15:01:18.000Z</time>
      </trkpt>
      <trkpt lat="43.18284" lon="-0.15221">
        <ele>379.74</ele>
        <time>2021-06-24T15:01:23.000Z</time>
      </trkpt>
      <trkpt lat="43.18277" lon="-0.15233">
        <ele>380.15</ele>
        <time>2021-06-24T15:01:28.000Z</time>
      </trkpt>
      <trkpt lat="43.18271" lon="-0.15246">
        <ele>380.87</ele>
        <time>2021-06-24T15:01:33.000Z</time>
      </trkpt>
      <trkpt lat="43.18266" lon="-0.15258">
        <ele>381.29</ele>
        <time>2021-06-24T15:01:38.000Z</time>
      </trkpt>
      <trkpt lat="43.18262" lon="-0.15271">
        <ele>382.27</ele>
        <time>2021-06-24T15:01:44.000Z</time>
      </trkpt>
      <trkpt lat="43.18259" lon="-0.15282">
        <ele>383.29</ele>
        <time>2021-06-24T15:01:49.000Z</time>
      </trkpt>
      <trkpt lat="43.18254" lon="-0.15295">
        <ele>384.33</ele>
        <time>2021-06-24T15:01:54.000Z</time>
      </trkpt>
      <trkpt lat="43.1825" lon="-0.15307">
        <ele>384.97</ele>
        <time>2021-06-24T15:01:59.000Z</time>
      </trkpt>
      <trkpt lat="43.18246" lon="-0.15319">
        <ele>385.53</ele>
        <time>2021-06-24T15:02:05.000Z</time>
      </trkpt>
      <trkpt lat="43.18245" lon="-0.15332">
        <ele>386.83</ele>
        <time>2021-06-24T15:02:10.000Z</time>
      </trkpt>
      <trkpt lat="43.18243" lon="-0.15345">
        <ele>387.02</ele>
        <time>2021-06-24T15:02:16.000Z</time>
      </trkpt>
      <trkpt lat="43.18243" lon="-0.15358">
        <ele>387.49</ele>
        <time>2021-06-24T15:02:23.000Z</time>
      </trkpt>
      <trkpt lat="43.18245" lon="-0.15371">
        <ele>387.6</ele>
        <time>2021-06-24T15:02:30.000Z</time>
      </trkpt>
      <trkpt lat="43.18248" lon="-0.15382">
        <ele>388.34</ele>
        <time>2021-06-24T15:02:37.000Z</time>
      </trkpt>
      <trkpt lat="43.1825" lon="-0.15396">
        <ele>389.62</ele>
        <time>2021-06-24T15:02:44.000Z</time>
      </trkpt>
      <trkpt lat="43.18255" lon="-0.15408">
        <ele>391.05</ele>
        <time>2021-06-24T15:02:51.000Z</time>
      </trkpt>
      <trkpt lat="43.1826" lon="-0.15419">
        <ele>391.96</ele>
        <time>2021-06-24T15:02:58.000Z</time>
      </trkpt>
      <trkpt lat="43.18265" lon="-0.15431">
        <ele>394.2</ele>
        <time>2021-06-24T15:03:06.000Z</time>
      </trkpt>
      <trkpt lat="43.1827" lon="-0.15443">
        <ele>395.83</ele>
        <time>2021-06-24T15:03:13.000Z</time>
      </trkpt>
      <trkpt lat="43.18276" lon="-0.15453">
        <ele>396.71</ele>
        <time>2021-06-24T15:03:20.000Z</time>
      </trkpt>
      <trkpt lat="43.18277" lon="-0.15466">
        <ele>399.2</ele>
        <time>2021-06-24T15:04:53.000Z</time>
      </trkpt>
      <trkpt lat="43.18282" lon="-0.15479">
        <ele>398.53</ele>
        <time>2021-06-24T15:05:01.000Z</time>
      </trkpt>
      <trkpt lat="43.18289" lon="-0.15489">
        <ele>398.62</ele>
        <time>2021-06-24T15:05:09.000Z</time>
      </trkpt>
      <trkpt lat="43.18295" lon="-0.15499">
        <ele>398.82</ele>
        <time>2021-06-24T15:05:16.000Z</time>
      </trkpt>
      <trkpt lat="43.18302" lon="-0.15507">
        <ele>398.5</ele>
        <time>2021-06-24T15:05:23.000Z</time>
      </trkpt>
      <trkpt lat="43.18311" lon="-0.15515">
        <ele>401.81</ele>
        <time>2021-06-24T15:05:34.000Z</time>
      </trkpt>
      <trkpt lat="43.1832" lon="-0.15517">
        <ele>403.23</ele>
        <time>2021-06-24T15:05:40.000Z</time>
      </trkpt>
      <trkpt lat="43.1833" lon="-0.1552">
        <ele>404.38</ele>
        <time>2021-06-24T15:05:46.000Z</time>
      </trkpt>
      <trkpt lat="43.18341" lon="-0.15522">
        <ele>405.5</ele>
        <time>2021-06-24T15:05:52.000Z</time>
      </trkpt>
      <trkpt lat="43.1835" lon="-0.15522">
        <ele>407.75</ele>
        <time>2021-06-24T15:05:58.000Z</time>
      </trkpt>
      <trkpt lat="43.1836" lon="-0.15522">
        <ele>410.38</ele>
        <time>2021-06-24T15:06:04.000Z</time>
      </trkpt>
      <trkpt lat="43.1837" lon="-0.15522">
        <ele>413.17</ele>
        <time>2021-06-24T15:06:11.000Z</time>
      </trkpt>
      <trkpt lat="43.1838" lon="-0.15522">
        <ele>415.64</ele>
        <time>2021-06-24T15:06:18.000Z</time>
      </trkpt>
      <trkpt lat="43.18389" lon="-0.15523">
        <ele>415.72</ele>
        <time>2021-06-24T15:06:24.000Z</time>
      </trkpt>
      <trkpt lat="43.18399" lon="-0.15524">
        <ele>415.81</ele>
        <time>2021-06-24T15:06:31.000Z</time>
      </trkpt>
      <trkpt lat="43.18408" lon="-0.15529">
        <ele>415.97</ele>
        <time>2021-06-24T15:06:37.000Z</time>
      </trkpt>
      <trkpt lat="43.18416" lon="-0.15538">
        <ele>416.09</ele>
        <time>2021-06-24T15:06:43.000Z</time>
      </trkpt>
      <trkpt lat="43.18421" lon="-0.15548">
        <ele>416.73</ele>
        <time>2021-06-24T15:06:48.000Z</time>
      </trkpt>
      <trkpt lat="43.18423" lon="-0.15561">
        <ele>417.02</ele>
        <time>2021-06-24T15:06:54.000Z</time>
      </trkpt>
      <trkpt lat="43.1842" lon="-0.15575">
        <ele>416.9</ele>
        <time>2021-06-24T15:07:00.000Z</time>
      </trkpt>
      <trkpt lat="43.18414" lon="-0.15585">
        <ele>417.26</ele>
        <time>2021-06-24T15:07:05.000Z</time>
      </trkpt>
      <trkpt lat="43.18407" lon="-0.15593">
        <ele>418.23</ele>
        <time>2021-06-24T15:07:11.000Z</time>
      </trkpt>
      <trkpt lat="43.18398" lon="-0.15599">
        <ele>418.86</ele>
        <time>2021-06-24T15:07:17.000Z</time>
      </trkpt>
      <trkpt lat="43.1839" lon="-0.15605">
        <ele>419.74</ele>
        <time>2021-06-24T15:07:23.000Z</time>
      </trkpt>
      <trkpt lat="43.18381" lon="-0.15611">
        <ele>421.01</ele>
        <time>2021-06-24T15:07:29.000Z</time>
      </trkpt>
      <trkpt lat="43.18372" lon="-0.15618">
        <ele>422.24</ele>
        <time>2021-06-24T15:07:36.000Z</time>
      </trkpt>
      <trkpt lat="43.18363" lon="-0.15625">
        <ele>422.97</ele>
        <time>2021-06-24T15:07:42.000Z</time>
      </trkpt>
      <trkpt lat="43.18355" lon="-0.15632">
        <ele>423.56</ele>
        <time>2021-06-24T15:07:48.000Z</time>
      </trkpt>
      <trkpt lat="43.18347" lon="-0.15639">
        <ele>424.2</ele>
        <time>2021-06-24T15:07:54.000Z</time>
      </trkpt>
      <trkpt lat="43.18338" lon="-0.15647">
        <ele>424.57</ele>
        <time>2021-06-24T15:08:00.000Z</time>
      </trkpt>
      <trkpt lat="43.1833" lon="-0.15652">
        <ele>424.97</ele>
        <time>2021-06-24T15:08:05.000Z</time>
      </trkpt>
      <trkpt lat="43.18322" lon="-0.15659">
        <ele>425.57</ele>
        <time>2021-06-24T15:08:11.000Z</time>
      </trkpt>
      <trkpt lat="43.18314" lon="-0.15667">
        <ele>426.48</ele>
        <time>2021-06-24T15:08:17.000Z</time>
      </trkpt>
      <trkpt lat="43.18305" lon="-0.15675">
        <ele>426.92</ele>
        <time>2021-06-24T15:08:23.000Z</time>
      </trkpt>
      <trkpt lat="43.18295" lon="-0.15683">
        <ele>426.68</ele>
        <time>2021-06-24T15:08:28.000Z</time>
      </trkpt>
      <trkpt lat="43.18284" lon="-0.15691">
        <ele>427.25</ele>
        <time>2021-06-24T15:08:33.000Z</time>
      </trkpt>
      <trkpt lat="43.18272" lon="-0.15699">
        <ele>426.91</ele>
        <time>2021-06-24T15:08:38.000Z</time>
      </trkpt>
      <trkpt lat="43.1826" lon="-0.15708">
        <ele>426.52</ele>
        <time>2021-06-24T15:08:43.000Z</time>
      </trkpt>
      <trkpt lat="43.18247" lon="-0.15718">
        <ele>425.69</ele>
        <time>2021-06-24T15:08:48.000Z</time>
      </trkpt>
      <trkpt lat="43.18235" lon="-0.15727">
        <ele>425.63</ele>
        <time>2021-06-24T15:08:53.000Z</time>
      </trkpt>
      <trkpt lat="43.18223" lon="-0.15736">
        <ele>427.31</ele>
        <time>2021-06-24T15:08:58.000Z</time>
      </trkpt>
      <trkpt lat="43.18213" lon="-0.15745">
        <ele>428.24</ele>
        <time>2021-06-24T15:09:03.000Z</time>
      </trkpt>
      <trkpt lat="43.18203" lon="-0.15753">
        <ele>429.61</ele>
        <time>2021-06-24T15:09:08.000Z</time>
      </trkpt>
      <trkpt lat="43.18193" lon="-0.15761">
        <ele>430.46</ele>
        <time>2021-06-24T15:09:13.000Z</time>
      </trkpt>
      <trkpt lat="43.18185" lon="-0.15771">
        <ele>431.94</ele>
        <time>2021-06-24T15:09:18.000Z</time>
      </trkpt>
      <trkpt lat="43.18178" lon="-0.15779">
        <ele>433.35</ele>
        <time>2021-06-24T15:09:23.000Z</time>
      </trkpt>
      <trkpt lat="43.18171" lon="-0.1579">
        <ele>434.43</ele>
        <time>2021-06-24T15:09:28.000Z</time>
      </trkpt>
      <trkpt lat="43.18165" lon="-0.158">
        <ele>435.99</ele>
        <time>2021-06-24T15:09:33.000Z</time>
      </trkpt>
      <trkpt lat="43.1816" lon="-0.15813">
        <ele>437.3</ele>
        <time>2021-06-24T15:09:39.000Z</time>
      </trkpt>
      <trkpt lat="43.18157" lon="-0.15825">
        <ele>437.61</ele>
        <time>2021-06-24T15:09:44.000Z</time>
      </trkpt>
      <trkpt lat="43.18153" lon="-0.15837">
        <ele>437.6</ele>
        <time>2021-06-24T15:09:49.000Z</time>
      </trkpt>
      <trkpt lat="43.1815" lon="-0.15851">
        <ele>438</ele>
        <time>2021-06-24T15:09:55.000Z</time>
      </trkpt>
      <trkpt lat="43.18147" lon="-0.15863">
        <ele>438.6</ele>
        <time>2021-06-24T15:10:00.000Z</time>
      </trkpt>
      <trkpt lat="43.18144" lon="-0.15876">
        <ele>438.58</ele>
        <time>2021-06-24T15:10:05.000Z</time>
      </trkpt>
      <trkpt lat="43.18141" lon="-0.1589">
        <ele>438.98</ele>
        <time>2021-06-24T15:10:11.000Z</time>
      </trkpt>
      <trkpt lat="43.18138" lon="-0.15902">
        <ele>438.83</ele>
        <time>2021-06-24T15:10:16.000Z</time>
      </trkpt>
      <trkpt lat="43.18135" lon="-0.15917">
        <ele>438.57</ele>
        <time>2021-06-24T15:10:21.000Z</time>
      </trkpt>
      <trkpt lat="43.18133" lon="-0.15933">
        <ele>438.89</ele>
        <time>2021-06-24T15:10:26.000Z</time>
      </trkpt>
      <trkpt lat="43.18131" lon="-0.1595">
        <ele>439.77</ele>
        <time>2021-06-24T15:10:31.000Z</time>
      </trkpt>
      <trkpt lat="43.1813" lon="-0.15968">
        <ele>440.27</ele>
        <time>2021-06-24T15:10:36.000Z</time>
      </trkpt>
      <trkpt lat="43.1813" lon="-0.15987">
        <ele>440.52</ele>
        <time>2021-06-24T15:10:41.000Z</time>
      </trkpt>
      <trkpt lat="43.18128" lon="-0.16006">
        <ele>440.87</ele>
        <time>2021-06-24T15:10:46.000Z</time>
      </trkpt>
      <trkpt lat="43.18127" lon="-0.16025">
        <ele>441.38</ele>
        <time>2021-06-24T15:10:51.000Z</time>
      </trkpt>
      <trkpt lat="43.18126" lon="-0.16045">
        <ele>441.79</ele>
        <time>2021-06-24T15:10:56.000Z</time>
      </trkpt>
      <trkpt lat="43.18125" lon="-0.16065">
        <ele>442.14</ele>
        <time>2021-06-24T15:11:01.000Z</time>
      </trkpt>
      <trkpt lat="43.18124" lon="-0.16081">
        <ele>442.84</ele>
        <time>2021-06-24T15:11:06.000Z</time>
      </trkpt>
      <trkpt lat="43.18124" lon="-0.16097">
        <ele>443.47</ele>
        <time>2021-06-24T15:11:11.000Z</time>
      </trkpt>
      <trkpt lat="43.18123" lon="-0.16112">
        <ele>444.24</ele>
        <time>2021-06-24T15:11:16.000Z</time>
      </trkpt>
      <trkpt lat="43.18123" lon="-0.16127">
        <ele>445.18</ele>
        <time>2021-06-24T15:11:21.000Z</time>
      </trkpt>
      <trkpt lat="43.18122" lon="-0.16139">
        <ele>445.59</ele>
        <time>2021-06-24T15:11:26.000Z</time>
      </trkpt>
      <trkpt lat="43.18122" lon="-0.16152">
        <ele>446.51</ele>
        <time>2021-06-24T15:11:31.000Z</time>
      </trkpt>
      <trkpt lat="43.18121" lon="-0.16165">
        <ele>447.36</ele>
        <time>2021-06-24T15:11:36.000Z</time>
      </trkpt>
      <trkpt lat="43.1812" lon="-0.16179">
        <ele>447.97</ele>
        <time>2021-06-24T15:11:41.000Z</time>
      </trkpt>
      <trkpt lat="43.1812" lon="-0.16192">
        <ele>448.57</ele>
        <time>2021-06-24T15:11:46.000Z</time>
      </trkpt>
      <trkpt lat="43.1812" lon="-0.16205">
        <ele>449.24</ele>
        <time>2021-06-24T15:11:51.000Z</time>
      </trkpt>
      <trkpt lat="43.18121" lon="-0.16218">
        <ele>449.67</ele>
        <time>2021-06-24T15:11:56.000Z</time>
      </trkpt>
      <trkpt lat="43.18122" lon="-0.16232">
        <ele>450.54</ele>
        <time>2021-06-24T15:12:01.000Z</time>
      </trkpt>
      <trkpt lat="43.18125" lon="-0.16245">
        <ele>451.16</ele>
        <time>2021-06-24T15:12:06.000Z</time>
      </trkpt>
      <trkpt lat="43.18129" lon="-0.16256">
        <ele>451.71</ele>
        <time>2021-06-24T15:12:11.000Z</time>
      </trkpt>
      <trkpt lat="43.18133" lon="-0.16269">
        <ele>452.49</ele>
        <time>2021-06-24T15:12:16.000Z</time>
      </trkpt>
      <trkpt lat="43.18137" lon="-0.1628">
        <ele>453.53</ele>
        <time>2021-06-24T15:12:21.000Z</time>
      </trkpt>
      <trkpt lat="43.18142" lon="-0.16291">
        <ele>454.61</ele>
        <time>2021-06-24T15:12:26.000Z</time>
      </trkpt>
      <trkpt lat="43.18147" lon="-0.16302">
        <ele>455.91</ele>
        <time>2021-06-24T15:12:31.000Z</time>
      </trkpt>
      <trkpt lat="43.18152" lon="-0.16313">
        <ele>456.59</ele>
        <time>2021-06-24T15:12:36.000Z</time>
      </trkpt>
      <trkpt lat="43.18157" lon="-0.16325">
        <ele>457.11</ele>
        <time>2021-06-24T15:12:42.000Z</time>
      </trkpt>
      <trkpt lat="43.18162" lon="-0.16338">
        <ele>458.24</ele>
        <time>2021-06-24T15:12:48.000Z</time>
      </trkpt>
      <trkpt lat="43.18167" lon="-0.16349">
        <ele>458.77</ele>
        <time>2021-06-24T15:12:54.000Z</time>
      </trkpt>
      <trkpt lat="43.18173" lon="-0.16361">
        <ele>459.17</ele>
        <time>2021-06-24T15:13:00.000Z</time>
      </trkpt>
      <trkpt lat="43.18178" lon="-0.16371">
        <ele>459.75</ele>
        <time>2021-06-24T15:13:05.000Z</time>
      </trkpt>
      <trkpt lat="43.18181" lon="-0.16383">
        <ele>460.32</ele>
        <time>2021-06-24T15:13:10.000Z</time>
      </trkpt>
      <trkpt lat="43.18185" lon="-0.16396">
        <ele>461.88</ele>
        <time>2021-06-24T15:13:16.000Z</time>
      </trkpt>
      <trkpt lat="43.18187" lon="-0.16409">
        <ele>463.81</ele>
        <time>2021-06-24T15:13:22.000Z</time>
      </trkpt>
      <trkpt lat="43.1819" lon="-0.16423">
        <ele>464.94</ele>
        <time>2021-06-24T15:13:28.000Z</time>
      </trkpt>
      <trkpt lat="43.18191" lon="-0.16438">
        <ele>465.76</ele>
        <time>2021-06-24T15:13:34.000Z</time>
      </trkpt>
      <trkpt lat="43.1819" lon="-0.16451">
        <ele>466.22</ele>
        <time>2021-06-24T15:13:39.000Z</time>
      </trkpt>
      <trkpt lat="43.18188" lon="-0.16467">
        <ele>466.61</ele>
        <time>2021-06-24T15:13:44.000Z</time>
      </trkpt>
      <trkpt lat="43.18185" lon="-0.16486">
        <ele>466.04</ele>
        <time>2021-06-24T15:13:49.000Z</time>
      </trkpt>
      <trkpt lat="43.18183" lon="-0.16504">
        <ele>464.99</ele>
        <time>2021-06-24T15:13:54.000Z</time>
      </trkpt>
      <trkpt lat="43.18181" lon="-0.1652">
        <ele>466.28</ele>
        <time>2021-06-24T15:15:17.000Z</time>
      </trkpt>
      <trkpt lat="43.18176" lon="-0.16539">
        <ele>466.43</ele>
        <time>2021-06-24T15:15:22.000Z</time>
      </trkpt>
      <trkpt lat="43.18171" lon="-0.16567">
        <ele>465.59</ele>
        <time>2021-06-24T15:15:27.000Z</time>
      </trkpt>
      <trkpt lat="43.18168" lon="-0.16602">
        <ele>464.71</ele>
        <time>2021-06-24T15:15:32.000Z</time>
      </trkpt>
      <trkpt lat="43.18161" lon="-0.16647">
        <ele>463.39</ele>
        <time>2021-06-24T15:15:37.000Z</time>
      </trkpt>
      <trkpt lat="43.18156" lon="-0.16698">
        <ele>461.69</ele>
        <time>2021-06-24T15:15:42.000Z</time>
      </trkpt>
      <trkpt lat="43.18154" lon="-0.16749">
        <ele>460.12</ele>
        <time>2021-06-24T15:15:47.000Z</time>
      </trkpt>
      <trkpt lat="43.18151" lon="-0.16801">
        <ele>457.35</ele>
        <time>2021-06-24T15:15:52.000Z</time>
      </trkpt>
      <trkpt lat="43.18153" lon="-0.1686">
        <ele>453.55</ele>
        <time>2021-06-24T15:15:57.000Z</time>
      </trkpt>
      <trkpt lat="43.18158" lon="-0.16926">
        <ele>450.29</ele>
        <time>2021-06-24T15:16:02.000Z</time>
      </trkpt>
      <trkpt lat="43.18168" lon="-0.16993">
        <ele>447.43</ele>
        <time>2021-06-24T15:16:07.000Z</time>
      </trkpt>
      <trkpt lat="43.1818" lon="-0.17062">
        <ele>444.1</ele>
        <time>2021-06-24T15:16:12.000Z</time>
      </trkpt>
      <trkpt lat="43.18194" lon="-0.17132">
        <ele>439.76</ele>
        <time>2021-06-24T15:16:17.000Z</time>
      </trkpt>
      <trkpt lat="43.18207" lon="-0.17205">
        <ele>435.31</ele>
        <time>2021-06-24T15:16:22.000Z</time>
      </trkpt>
      <trkpt lat="43.18204" lon="-0.17278">
        <ele>431.94</ele>
        <time>2021-06-24T15:16:27.000Z</time>
      </trkpt>
      <trkpt lat="43.182" lon="-0.1735">
        <ele>426.82</ele>
        <time>2021-06-24T15:16:32.000Z</time>
      </trkpt>
      <trkpt lat="43.18204" lon="-0.17423">
        <ele>422.75</ele>
        <time>2021-06-24T15:16:37.000Z</time>
      </trkpt>
      <trkpt lat="43.18208" lon="-0.17493">
        <ele>419.21</ele>
        <time>2021-06-24T15:16:42.000Z</time>
      </trkpt>
      <trkpt lat="43.18217" lon="-0.17562">
        <ele>416.09</ele>
        <time>2021-06-24T15:16:47.000Z</time>
      </trkpt>
      <trkpt lat="43.18236" lon="-0.17634">
        <ele>414.12</ele>
        <time>2021-06-24T15:16:52.000Z</time>
      </trkpt>
      <trkpt lat="43.18257" lon="-0.17707">
        <ele>411.94</ele>
        <time>2021-06-24T15:16:57.000Z</time>
      </trkpt>
      <trkpt lat="43.18284" lon="-0.1778">
        <ele>409.39</ele>
        <time>2021-06-24T15:17:02.000Z</time>
      </trkpt>
      <trkpt lat="43.18312" lon="-0.17856">
        <ele>405.54</ele>
        <time>2021-06-24T15:17:07.000Z</time>
      </trkpt>
      <trkpt lat="43.18336" lon="-0.1794">
        <ele>402.32</ele>
        <time>2021-06-24T15:17:12.000Z</time>
      </trkpt>
      <trkpt lat="43.18359" lon="-0.18024">
        <ele>398.55</ele>
        <time>2021-06-24T15:17:17.000Z</time>
      </trkpt>
      <trkpt lat="43.18379" lon="-0.18108">
        <ele>394.59</ele>
        <time>2021-06-24T15:17:22.000Z</time>
      </trkpt>
      <trkpt lat="43.18391" lon="-0.18189">
        <ele>390.54</ele>
        <time>2021-06-24T15:17:27.000Z</time>
      </trkpt>
      <trkpt lat="43.18402" lon="-0.18265">
        <ele>385.55</ele>
        <time>2021-06-24T15:17:32.000Z</time>
      </trkpt>
      <trkpt lat="43.18394" lon="-0.18341">
        <ele>380.21</ele>
        <time>2021-06-24T15:17:37.000Z</time>
      </trkpt>
      <trkpt lat="43.1836" lon="-0.18412">
        <ele>374.08</ele>
        <time>2021-06-24T15:17:42.000Z</time>
      </trkpt>
      <trkpt lat="43.18319" lon="-0.18467">
        <ele>367.14</ele>
        <time>2021-06-24T15:17:47.000Z</time>
      </trkpt>
      <trkpt lat="43.18296" lon="-0.18521">
        <ele>360.79</ele>
        <time>2021-06-24T15:17:52.000Z</time>
      </trkpt>
      <trkpt lat="43.18294" lon="-0.18588">
        <ele>355.4</ele>
        <time>2021-06-24T15:17:57.000Z</time>
      </trkpt>
      <trkpt lat="43.18315" lon="-0.18653">
        <ele>348.3</ele>
        <time>2021-06-24T15:18:02.000Z</time>
      </trkpt>
      <trkpt lat="43.18357" lon="-0.18705">
        <ele>342.56</ele>
        <time>2021-06-24T15:18:07.000Z</time>
      </trkpt>
      <trkpt lat="43.18392" lon="-0.18742">
        <ele>336.72</ele>
        <time>2021-06-24T15:18:12.000Z</time>
      </trkpt>
      <trkpt lat="43.1839" lon="-0.18781">
        <ele>333.12</ele>
        <time>2021-06-24T15:18:17.000Z</time>
      </trkpt>
      <trkpt lat="43.18351" lon="-0.18811">
        <ele>328.36</ele>
        <time>2021-06-24T15:18:22.000Z</time>
      </trkpt>
      <trkpt lat="43.18351" lon="-0.18866">
        <ele>324.42</ele>
        <time>2021-06-24T15:18:27.000Z</time>
      </trkpt>
      <trkpt lat="43.18383" lon="-0.1892">
        <ele>319.73</ele>
        <time>2021-06-24T15:18:32.000Z</time>
      </trkpt>
      <trkpt lat="43.18405" lon="-0.1899">
        <ele>314.98</ele>
        <time>2021-06-24T15:18:37.000Z</time>
      </trkpt>
      <trkpt lat="43.18448" lon="-0.19049">
        <ele>310.3</ele>
        <time>2021-06-24T15:18:42.000Z</time>
      </trkpt>
      <trkpt lat="43.18485" lon="-0.19098">
        <ele>305.04</ele>
        <time>2021-06-24T15:18:47.000Z</time>
      </trkpt>
      <trkpt lat="43.18467" lon="-0.19147">
        <ele>300.31</ele>
        <time>2021-06-24T15:18:52.000Z</time>
      </trkpt>
      <trkpt lat="43.18417" lon="-0.19179">
        <ele>295.13</ele>
        <time>2021-06-24T15:18:57.000Z</time>
      </trkpt>
      <trkpt lat="43.18363" lon="-0.19225">
        <ele>290.41</ele>
        <time>2021-06-24T15:19:02.000Z</time>
      </trkpt>
      <trkpt lat="43.18339" lon="-0.19294">
        <ele>285.99</ele>
        <time>2021-06-24T15:19:07.000Z</time>
      </trkpt>
      <trkpt lat="43.18336" lon="-0.19361">
        <ele>284.31</ele>
        <time>2021-06-24T15:19:12.000Z</time>
      </trkpt>
      <trkpt lat="43.18341" lon="-0.19426">
        <ele>282.87</ele>
        <time>2021-06-24T15:19:17.000Z</time>
      </trkpt>
      <trkpt lat="43.18354" lon="-0.19487">
        <ele>280.69</ele>
        <time>2021-06-24T15:19:22.000Z</time>
      </trkpt>
      <trkpt lat="43.18365" lon="-0.19546">
        <ele>279.69</ele>
        <time>2021-06-24T15:19:27.000Z</time>
      </trkpt>
      <trkpt lat="43.18375" lon="-0.19598">
        <ele>279.25</ele>
        <time>2021-06-24T15:19:32.000Z</time>
      </trkpt>
      <trkpt lat="43.18384" lon="-0.19644">
        <ele>278.9</ele>
        <time>2021-06-24T15:19:37.000Z</time>
      </trkpt>
      <trkpt lat="43.18392" lon="-0.19688">
        <ele>278.5</ele>
        <time>2021-06-24T15:19:42.000Z</time>
      </trkpt>
      <trkpt lat="43.18401" lon="-0.19729">
        <ele>278.42</ele>
        <time>2021-06-24T15:19:47.000Z</time>
      </trkpt>
      <trkpt lat="43.18408" lon="-0.19768">
        <ele>278.94</ele>
        <time>2021-06-24T15:19:52.000Z</time>
      </trkpt>
      <trkpt lat="43.18415" lon="-0.19804">
        <ele>279.28</ele>
        <time>2021-06-24T15:19:57.000Z</time>
      </trkpt>
      <trkpt lat="43.18423" lon="-0.19842">
        <ele>278.89</ele>
        <time>2021-06-24T15:20:02.000Z</time>
      </trkpt>
      <trkpt lat="43.18431" lon="-0.19881">
        <ele>278.32</ele>
        <time>2021-06-24T15:20:07.000Z</time>
      </trkpt>
      <trkpt lat="43.18437" lon="-0.19915">
        <ele>277.65</ele>
        <time>2021-06-24T15:20:12.000Z</time>
      </trkpt>
      <trkpt lat="43.18443" lon="-0.19941">
        <ele>279.66</ele>
        <time>2021-06-24T15:20:17.000Z</time>
      </trkpt>
      <trkpt lat="43.18447" lon="-0.19958">
        <ele>281.07</ele>
        <time>2021-06-24T15:20:22.000Z</time>
      </trkpt>
      <trkpt lat="43.18453" lon="-0.19977">
        <ele>281.05</ele>
        <time>2021-06-24T15:20:27.000Z</time>
      </trkpt>
      <trkpt lat="43.18462" lon="-0.19997">
        <ele>279.53</ele>
        <time>2021-06-24T15:20:32.000Z</time>
      </trkpt>
      <trkpt lat="43.18473" lon="-0.20026">
        <ele>277.14</ele>
        <time>2021-06-24T15:20:37.000Z</time>
      </trkpt>
      <trkpt lat="43.18486" lon="-0.20061">
        <ele>275.6</ele>
        <time>2021-06-24T15:20:42.000Z</time>
      </trkpt>
      <trkpt lat="43.18499" lon="-0.20094">
        <ele>276.8</ele>
        <time>2021-06-24T15:20:47.000Z</time>
      </trkpt>
      <trkpt lat="43.18512" lon="-0.20127">
        <ele>276.75</ele>
        <time>2021-06-24T15:20:52.000Z</time>
      </trkpt>
      <trkpt lat="43.18527" lon="-0.20163">
        <ele>277.93</ele>
        <time>2021-06-24T15:20:57.000Z</time>
      </trkpt>
      <trkpt lat="43.18544" lon="-0.202">
        <ele>279.21</ele>
        <time>2021-06-24T15:21:02.000Z</time>
      </trkpt>
      <trkpt lat="43.1856" lon="-0.20237">
        <ele>278.96</ele>
        <time>2021-06-24T15:21:07.000Z</time>
      </trkpt>
      <trkpt lat="43.18578" lon="-0.20276">
        <ele>278.6</ele>
        <time>2021-06-24T15:21:12.000Z</time>
      </trkpt>
      <trkpt lat="43.18595" lon="-0.20316">
        <ele>277.55</ele>
        <time>2021-06-24T15:21:17.000Z</time>
      </trkpt>
      <trkpt lat="43.18611" lon="-0.20357">
        <ele>277.38</ele>
        <time>2021-06-24T15:21:22.000Z</time>
      </trkpt>
      <trkpt lat="43.1863" lon="-0.20399">
        <ele>276.53</ele>
        <time>2021-06-24T15:21:27.000Z</time>
      </trkpt>
      <trkpt lat="43.18649" lon="-0.20445">
        <ele>275.4</ele>
        <time>2021-06-24T15:21:32.000Z</time>
      </trkpt>
      <trkpt lat="43.18669" lon="-0.20494">
        <ele>274.67</ele>
        <time>2021-06-24T15:21:37.000Z</time>
      </trkpt>
      <trkpt lat="43.18689" lon="-0.20544">
        <ele>273.64</ele>
        <time>2021-06-24T15:21:42.000Z</time>
      </trkpt>
      <trkpt lat="43.18708" lon="-0.20594">
        <ele>273.12</ele>
        <time>2021-06-24T15:21:47.000Z</time>
      </trkpt>
      <trkpt lat="43.18726" lon="-0.2064">
        <ele>272.6</ele>
        <time>2021-06-24T15:21:52.000Z</time>
      </trkpt>
      <trkpt lat="43.18739" lon="-0.20689">
        <ele>270.7</ele>
        <time>2021-06-24T15:21:57.000Z</time>
      </trkpt>
      <trkpt lat="43.18745" lon="-0.20748">
        <ele>268.12</ele>
        <time>2021-06-24T15:22:02.000Z</time>
      </trkpt>
      <trkpt lat="43.18752" lon="-0.20814">
        <ele>263.81</ele>
        <time>2021-06-24T15:22:07.000Z</time>
      </trkpt>
      <trkpt lat="43.18783" lon="-0.20862">
        <ele>260.18</ele>
        <time>2021-06-24T15:22:12.000Z</time>
      </trkpt>
      <trkpt lat="43.18821" lon="-0.20889">
        <ele>258.29</ele>
        <time>2021-06-24T15:22:17.000Z</time>
      </trkpt>
      <trkpt lat="43.18856" lon="-0.20915">
        <ele>256.87</ele>
        <time>2021-06-24T15:22:22.000Z</time>
      </trkpt>
      <trkpt lat="43.18888" lon="-0.20941">
        <ele>256.06</ele>
        <time>2021-06-24T15:22:27.000Z</time>
      </trkpt>
      <trkpt lat="43.18919" lon="-0.20965">
        <ele>254.57</ele>
        <time>2021-06-24T15:22:32.000Z</time>
      </trkpt>
      <trkpt lat="43.18951" lon="-0.20992">
        <ele>254.86</ele>
        <time>2021-06-24T15:22:37.000Z</time>
      </trkpt>
      <trkpt lat="43.18984" lon="-0.21018">
        <ele>255.03</ele>
        <time>2021-06-24T15:22:42.000Z</time>
      </trkpt>
      <trkpt lat="43.19015" lon="-0.21041">
        <ele>254.41</ele>
        <time>2021-06-24T15:22:47.000Z</time>
      </trkpt>
      <trkpt lat="43.19043" lon="-0.21067">
        <ele>255.05</ele>
        <time>2021-06-24T15:22:52.000Z</time>
      </trkpt>
      <trkpt lat="43.1907" lon="-0.21086">
        <ele>255.99</ele>
        <time>2021-06-24T15:22:57.000Z</time>
      </trkpt>
      <trkpt lat="43.19097" lon="-0.21106">
        <ele>255.9</ele>
        <time>2021-06-24T15:23:02.000Z</time>
      </trkpt>
      <trkpt lat="43.19124" lon="-0.21126">
        <ele>255.51</ele>
        <time>2021-06-24T15:23:07.000Z</time>
      </trkpt>
      <trkpt lat="43.19149" lon="-0.21151">
        <ele>255.06</ele>
        <time>2021-06-24T15:23:12.000Z</time>
      </trkpt>
      <trkpt lat="43.19168" lon="-0.21184">
        <ele>253.62</ele>
        <time>2021-06-24T15:23:17.000Z</time>
      </trkpt>
      <trkpt lat="43.19183" lon="-0.21222">
        <ele>252.73</ele>
        <time>2021-06-24T15:23:22.000Z</time>
      </trkpt>
      <trkpt lat="43.19197" lon="-0.21265">
        <ele>253.17</ele>
        <time>2021-06-24T15:23:27.000Z</time>
      </trkpt>
      <trkpt lat="43.19194" lon="-0.21312">
        <ele>252.46</ele>
        <time>2021-06-24T15:23:32.000Z</time>
      </trkpt>
      <trkpt lat="43.19175" lon="-0.21344">
        <ele>252.82</ele>
        <time>2021-06-24T15:23:37.000Z</time>
      </trkpt>
      <trkpt lat="43.19148" lon="-0.21364">
        <ele>253.29</ele>
        <time>2021-06-24T15:23:42.000Z</time>
      </trkpt>
      <trkpt lat="43.19139" lon="-0.21401">
        <ele>253.81</ele>
        <time>2021-06-24T15:23:47.000Z</time>
      </trkpt>
      <trkpt lat="43.19135" lon="-0.21435">
        <ele>253.92</ele>
        <time>2021-06-24T15:23:52.000Z</time>
      </trkpt>
      <trkpt lat="43.19131" lon="-0.21463">
        <ele>253.44</ele>
        <time>2021-06-24T15:23:57.000Z</time>
      </trkpt>
      <trkpt lat="43.1913" lon="-0.2149">
        <ele>252.64</ele>
        <time>2021-06-24T15:24:02.000Z</time>
      </trkpt>
      <trkpt lat="43.19127" lon="-0.21522">
        <ele>251.27</ele>
        <time>2021-06-24T15:24:07.000Z</time>
      </trkpt>
      <trkpt lat="43.19122" lon="-0.21556">
        <ele>250.15</ele>
        <time>2021-06-24T15:24:12.000Z</time>
      </trkpt>
      <trkpt lat="43.19118" lon="-0.21591">
        <ele>248.64</ele>
        <time>2021-06-24T15:24:17.000Z</time>
      </trkpt>
      <trkpt lat="43.19114" lon="-0.21629">
        <ele>248.85</ele>
        <time>2021-06-24T15:24:22.000Z</time>
      </trkpt>
      <trkpt lat="43.19107" lon="-0.21665">
        <ele>249.28</ele>
        <time>2021-06-24T15:24:27.000Z</time>
      </trkpt>
      <trkpt lat="43.19103" lon="-0.21698">
        <ele>249.16</ele>
        <time>2021-06-24T15:24:32.000Z</time>
      </trkpt>
      <trkpt lat="43.19112" lon="-0.21712">
        <ele>249.97</ele>
        <time>2021-06-24T15:24:37.000Z</time>
      </trkpt>
      <trkpt lat="43.19135" lon="-0.2172">
        <ele>251.59</ele>
        <time>2021-06-24T15:24:42.000Z</time>
      </trkpt>
      <trkpt lat="43.1916" lon="-0.21728">
        <ele>254.08</ele>
        <time>2021-06-24T15:24:47.000Z</time>
      </trkpt>
      <trkpt lat="43.19188" lon="-0.21732">
        <ele>253.45</ele>
        <time>2021-06-24T15:24:52.000Z</time>
      </trkpt>
      <trkpt lat="43.19221" lon="-0.21734">
        <ele>253.39</ele>
        <time>2021-06-24T15:24:57.000Z</time>
      </trkpt>
      <trkpt lat="43.19254" lon="-0.21733">
        <ele>255.24</ele>
        <time>2021-06-24T15:25:02.000Z</time>
      </trkpt>
      <trkpt lat="43.19284" lon="-0.2174">
        <ele>255.13</ele>
        <time>2021-06-24T15:25:07.000Z</time>
      </trkpt>
      <trkpt lat="43.19311" lon="-0.21758">
        <ele>253.97</ele>
        <time>2021-06-24T15:25:12.000Z</time>
      </trkpt>
      <trkpt lat="43.19339" lon="-0.21776">
        <ele>252.01</ele>
        <time>2021-06-24T15:25:17.000Z</time>
      </trkpt>
      <trkpt lat="43.1937" lon="-0.21789">
        <ele>251.72</ele>
        <time>2021-06-24T15:25:22.000Z</time>
      </trkpt>
      <trkpt lat="43.19402" lon="-0.21802">
        <ele>251.73</ele>
        <time>2021-06-24T15:25:27.000Z</time>
      </trkpt>
      <trkpt lat="43.19434" lon="-0.21814">
        <ele>252.54</ele>
        <time>2021-06-24T15:25:32.000Z</time>
      </trkpt>
      <trkpt lat="43.19464" lon="-0.21825">
        <ele>252.87</ele>
        <time>2021-06-24T15:25:37.000Z</time>
      </trkpt>
      <trkpt lat="43.1949" lon="-0.2181">
        <ele>252.45</ele>
        <time>2021-06-24T15:25:42.000Z</time>
      </trkpt>
      <trkpt lat="43.19497" lon="-0.21775">
        <ele>251.22</ele>
        <time>2021-06-24T15:25:47.000Z</time>
      </trkpt>
      <trkpt lat="43.1952" lon="-0.21784">
        <ele>250.2</ele>
        <time>2021-06-24T15:25:52.000Z</time>
      </trkpt>
      <trkpt lat="43.19542" lon="-0.21811">
        <ele>249.28</ele>
        <time>2021-06-24T15:25:57.000Z</time>
      </trkpt>
      <trkpt lat="43.19562" lon="-0.21842">
        <ele>250.21</ele>
        <time>2021-06-24T15:26:02.000Z</time>
      </trkpt>
      <trkpt lat="43.19582" lon="-0.21874">
        <ele>250.09</ele>
        <time>2021-06-24T15:26:07.000Z</time>
      </trkpt>
      <trkpt lat="43.19604" lon="-0.21905">
        <ele>251.68</ele>
        <time>2021-06-24T15:26:12.000Z</time>
      </trkpt>
      <trkpt lat="43.19628" lon="-0.21935">
        <ele>251.57</ele>
        <time>2021-06-24T15:26:17.000Z</time>
      </trkpt>
      <trkpt lat="43.19654" lon="-0.2196">
        <ele>251.47</ele>
        <time>2021-06-24T15:26:22.000Z</time>
      </trkpt>
      <trkpt lat="43.19682" lon="-0.21979">
        <ele>251.33</ele>
        <time>2021-06-24T15:26:27.000Z</time>
      </trkpt>
      <trkpt lat="43.19714" lon="-0.21993">
        <ele>249.28</ele>
        <time>2021-06-24T15:26:32.000Z</time>
      </trkpt>
      <trkpt lat="43.19747" lon="-0.22005">
        <ele>248.78</ele>
        <time>2021-06-24T15:26:37.000Z</time>
      </trkpt>
      <trkpt lat="43.19781" lon="-0.22018">
        <ele>249.67</ele>
        <time>2021-06-24T15:26:42.000Z</time>
      </trkpt>
      <trkpt lat="43.19813" lon="-0.22036">
        <ele>249.35</ele>
        <time>2021-06-24T15:26:47.000Z</time>
      </trkpt>
      <trkpt lat="43.19846" lon="-0.22052">
        <ele>248.93</ele>
        <time>2021-06-24T15:26:52.000Z</time>
      </trkpt>
      <trkpt lat="43.19879" lon="-0.22069">
        <ele>248.73</ele>
        <time>2021-06-24T15:26:57.000Z</time>
      </trkpt>
      <trkpt lat="43.19911" lon="-0.22082">
        <ele>248.82</ele>
        <time>2021-06-24T15:27:02.000Z</time>
      </trkpt>
      <trkpt lat="43.19944" lon="-0.22097">
        <ele>248.43</ele>
        <time>2021-06-24T15:27:07.000Z</time>
      </trkpt>
      <trkpt lat="43.19977" lon="-0.22114">
        <ele>248.07</ele>
        <time>2021-06-24T15:27:12.000Z</time>
      </trkpt>
      <trkpt lat="43.20011" lon="-0.22131">
        <ele>247.91</ele>
        <time>2021-06-24T15:27:17.000Z</time>
      </trkpt>
      <trkpt lat="43.20043" lon="-0.22153">
        <ele>248.27</ele>
        <time>2021-06-24T15:27:22.000Z</time>
      </trkpt>
      <trkpt lat="43.20074" lon="-0.2217">
        <ele>248.41</ele>
        <time>2021-06-24T15:27:27.000Z</time>
      </trkpt>
      <trkpt lat="43.20104" lon="-0.22186">
        <ele>248.05</ele>
        <time>2021-06-24T15:27:32.000Z</time>
      </trkpt>
      <trkpt lat="43.20138" lon="-0.22202">
        <ele>248.44</ele>
        <time>2021-06-24T15:27:37.000Z</time>
      </trkpt>
      <trkpt lat="43.20172" lon="-0.22215">
        <ele>249.1</ele>
        <time>2021-06-24T15:27:42.000Z</time>
      </trkpt>
      <trkpt lat="43.20203" lon="-0.22226">
        <ele>248.01</ele>
        <time>2021-06-24T15:27:47.000Z</time>
      </trkpt>
      <trkpt lat="43.20236" lon="-0.2224">
        <ele>247.79</ele>
        <time>2021-06-24T15:27:52.000Z</time>
      </trkpt>
      <trkpt lat="43.20266" lon="-0.22256">
        <ele>246.8</ele>
        <time>2021-06-24T15:27:57.000Z</time>
      </trkpt>
      <trkpt lat="43.20297" lon="-0.22267">
        <ele>245.98</ele>
        <time>2021-06-24T15:28:02.000Z</time>
      </trkpt>
      <trkpt lat="43.20325" lon="-0.2228">
        <ele>244.64</ele>
        <time>2021-06-24T15:28:07.000Z</time>
      </trkpt>
      <trkpt lat="43.20354" lon="-0.22293">
        <ele>244.1</ele>
        <time>2021-06-24T15:28:12.000Z</time>
      </trkpt>
      <trkpt lat="43.20382" lon="-0.22308">
        <ele>243.19</ele>
        <time>2021-06-24T15:28:17.000Z</time>
      </trkpt>
      <trkpt lat="43.20409" lon="-0.22323">
        <ele>242.78</ele>
        <time>2021-06-24T15:28:22.000Z</time>
      </trkpt>
      <trkpt lat="43.20436" lon="-0.22333">
        <ele>243.07</ele>
        <time>2021-06-24T15:28:27.000Z</time>
      </trkpt>
      <trkpt lat="43.20464" lon="-0.22343">
        <ele>242.37</ele>
        <time>2021-06-24T15:28:32.000Z</time>
      </trkpt>
      <trkpt lat="43.20491" lon="-0.22355">
        <ele>241.78</ele>
        <time>2021-06-24T15:28:37.000Z</time>
      </trkpt>
      <trkpt lat="43.2052" lon="-0.22375">
        <ele>242.04</ele>
        <time>2021-06-24T15:28:42.000Z</time>
      </trkpt>
      <trkpt lat="43.20548" lon="-0.22395">
        <ele>241.78</ele>
        <time>2021-06-24T15:28:47.000Z</time>
      </trkpt>
      <trkpt lat="43.20577" lon="-0.22415">
        <ele>241.74</ele>
        <time>2021-06-24T15:28:52.000Z</time>
      </trkpt>
      <trkpt lat="43.20606" lon="-0.2244">
        <ele>242.37</ele>
        <time>2021-06-24T15:28:57.000Z</time>
      </trkpt>
      <trkpt lat="43.20633" lon="-0.22465">
        <ele>242.3</ele>
        <time>2021-06-24T15:29:02.000Z</time>
      </trkpt>
      <trkpt lat="43.20659" lon="-0.22489">
        <ele>242.87</ele>
        <time>2021-06-24T15:29:07.000Z</time>
      </trkpt>
      <trkpt lat="43.20687" lon="-0.22513">
        <ele>242.95</ele>
        <time>2021-06-24T15:29:12.000Z</time>
      </trkpt>
      <trkpt lat="43.20713" lon="-0.2254">
        <ele>243.7</ele>
        <time>2021-06-24T15:29:17.000Z</time>
      </trkpt>
      <trkpt lat="43.20738" lon="-0.22568">
        <ele>243.67</ele>
        <time>2021-06-24T15:29:22.000Z</time>
      </trkpt>
      <trkpt lat="43.20765" lon="-0.22594">
        <ele>243.91</ele>
        <time>2021-06-24T15:29:27.000Z</time>
      </trkpt>
      <trkpt lat="43.20792" lon="-0.22616">
        <ele>243.95</ele>
        <time>2021-06-24T15:29:32.000Z</time>
      </trkpt>
      <trkpt lat="43.2082" lon="-0.22628">
        <ele>243.16</ele>
        <time>2021-06-24T15:29:37.000Z</time>
      </trkpt>
      <trkpt lat="43.2085" lon="-0.22635">
        <ele>242.64</ele>
        <time>2021-06-24T15:29:42.000Z</time>
      </trkpt>
      <trkpt lat="43.20879" lon="-0.22647">
        <ele>241.67</ele>
        <time>2021-06-24T15:29:47.000Z</time>
      </trkpt>
      <trkpt lat="43.20905" lon="-0.22665">
        <ele>240.36</ele>
        <time>2021-06-24T15:29:52.000Z</time>
      </trkpt>
      <trkpt lat="43.20932" lon="-0.22682">
        <ele>239.34</ele>
        <time>2021-06-24T15:29:57.000Z</time>
      </trkpt>
      <trkpt lat="43.2096" lon="-0.22699">
        <ele>238.22</ele>
        <time>2021-06-24T15:30:02.000Z</time>
      </trkpt>
      <trkpt lat="43.20987" lon="-0.2272">
        <ele>238.85</ele>
        <time>2021-06-24T15:30:07.000Z</time>
      </trkpt>
      <trkpt lat="43.21017" lon="-0.22739">
        <ele>238.98</ele>
        <time>2021-06-24T15:30:12.000Z</time>
      </trkpt>
      <trkpt lat="43.21046" lon="-0.22757">
        <ele>238.76</ele>
        <time>2021-06-24T15:30:17.000Z</time>
      </trkpt>
      <trkpt lat="43.21076" lon="-0.22772">
        <ele>238.72</ele>
        <time>2021-06-24T15:30:22.000Z</time>
      </trkpt>
      <trkpt lat="43.21107" lon="-0.22782">
        <ele>238.16</ele>
        <time>2021-06-24T15:30:27.000Z</time>
      </trkpt>
      <trkpt lat="43.2114" lon="-0.22795">
        <ele>238.35</ele>
        <time>2021-06-24T15:30:32.000Z</time>
      </trkpt>
      <trkpt lat="43.21172" lon="-0.22809">
        <ele>238.32</ele>
        <time>2021-06-24T15:30:37.000Z</time>
      </trkpt>
      <trkpt lat="43.21204" lon="-0.22821">
        <ele>238.81</ele>
        <time>2021-06-24T15:30:42.000Z</time>
      </trkpt>
      <trkpt lat="43.21237" lon="-0.22833">
        <ele>238.53</ele>
        <time>2021-06-24T15:30:47.000Z</time>
      </trkpt>
      <trkpt lat="43.2127" lon="-0.22844">
        <ele>238.51</ele>
        <time>2021-06-24T15:30:52.000Z</time>
      </trkpt>
      <trkpt lat="43.21303" lon="-0.22855">
        <ele>238.35</ele>
        <time>2021-06-24T15:30:57.000Z</time>
      </trkpt>
      <trkpt lat="43.21336" lon="-0.22865">
        <ele>238.78</ele>
        <time>2021-06-24T15:31:02.000Z</time>
      </trkpt>
      <trkpt lat="43.21369" lon="-0.22875">
        <ele>238.99</ele>
        <time>2021-06-24T15:31:07.000Z</time>
      </trkpt>
      <trkpt lat="43.214" lon="-0.22885">
        <ele>238.98</ele>
        <time>2021-06-24T15:31:12.000Z</time>
      </trkpt>
      <trkpt lat="43.21431" lon="-0.22895">
        <ele>238.14</ele>
        <time>2021-06-24T15:31:17.000Z</time>
      </trkpt>
      <trkpt lat="43.21462" lon="-0.22905">
        <ele>238.06</ele>
        <time>2021-06-24T15:31:22.000Z</time>
      </trkpt>
      <trkpt lat="43.21494" lon="-0.22912">
        <ele>237.98</ele>
        <time>2021-06-24T15:31:27.000Z</time>
      </trkpt>
      <trkpt lat="43.21527" lon="-0.22919">
        <ele>238.12</ele>
        <time>2021-06-24T15:31:32.000Z</time>
      </trkpt>
      <trkpt lat="43.21558" lon="-0.22933">
        <ele>237.05</ele>
        <time>2021-06-24T15:31:37.000Z</time>
      </trkpt>
      <trkpt lat="43.21586" lon="-0.22946">
        <ele>236.88</ele>
        <time>2021-06-24T15:31:42.000Z</time>
      </trkpt>
      <trkpt lat="43.21613" lon="-0.22962">
        <ele>236.97</ele>
        <time>2021-06-24T15:31:47.000Z</time>
      </trkpt>
      <trkpt lat="43.21641" lon="-0.22981">
        <ele>236.68</ele>
        <time>2021-06-24T15:31:52.000Z</time>
      </trkpt>
      <trkpt lat="43.21669" lon="-0.23001">
        <ele>236.94</ele>
        <time>2021-06-24T15:31:57.000Z</time>
      </trkpt>
      <trkpt lat="43.21698" lon="-0.23023">
        <ele>237.32</ele>
        <time>2021-06-24T15:32:02.000Z</time>
      </trkpt>
      <trkpt lat="43.21725" lon="-0.23044">
        <ele>239</ele>
        <time>2021-06-24T15:32:07.000Z</time>
      </trkpt>
      <trkpt lat="43.21756" lon="-0.2306">
        <ele>240.21</ele>
        <time>2021-06-24T15:32:12.000Z</time>
      </trkpt>
      <trkpt lat="43.21785" lon="-0.23074">
        <ele>240.01</ele>
        <time>2021-06-24T15:32:17.000Z</time>
      </trkpt>
      <trkpt lat="43.21813" lon="-0.23094">
        <ele>239.79</ele>
        <time>2021-06-24T15:32:22.000Z</time>
      </trkpt>
      <trkpt lat="43.2184" lon="-0.23116">
        <ele>239.31</ele>
        <time>2021-06-24T15:32:27.000Z</time>
      </trkpt>
      <trkpt lat="43.21866" lon="-0.23141">
        <ele>239.59</ele>
        <time>2021-06-24T15:32:32.000Z</time>
      </trkpt>
      <trkpt lat="43.2189" lon="-0.23167">
        <ele>240.22</ele>
        <time>2021-06-24T15:32:37.000Z</time>
      </trkpt>
      <trkpt lat="43.21915" lon="-0.23192">
        <ele>240.42</ele>
        <time>2021-06-24T15:32:42.000Z</time>
      </trkpt>
      <trkpt lat="43.2194" lon="-0.23216">
        <ele>239.83</ele>
        <time>2021-06-24T15:32:47.000Z</time>
      </trkpt>
      <trkpt lat="43.21963" lon="-0.23242">
        <ele>239.4</ele>
        <time>2021-06-24T15:32:52.000Z</time>
      </trkpt>
      <trkpt lat="43.21987" lon="-0.23266">
        <ele>238.17</ele>
        <time>2021-06-24T15:32:57.000Z</time>
      </trkpt>
      <trkpt lat="43.2201" lon="-0.23291">
        <ele>237.94</ele>
        <time>2021-06-24T15:33:02.000Z</time>
      </trkpt>
      <trkpt lat="43.22032" lon="-0.23311">
        <ele>237.72</ele>
        <time>2021-06-24T15:33:07.000Z</time>
      </trkpt>
      <trkpt lat="43.22057" lon="-0.23328">
        <ele>237.48</ele>
        <time>2021-06-24T15:33:12.000Z</time>
      </trkpt>
      <trkpt lat="43.22086" lon="-0.23342">
        <ele>236.49</ele>
        <time>2021-06-24T15:33:17.000Z</time>
      </trkpt>
      <trkpt lat="43.22115" lon="-0.23354">
        <ele>235.69</ele>
        <time>2021-06-24T15:33:22.000Z</time>
      </trkpt>
      <trkpt lat="43.22143" lon="-0.23363">
        <ele>234.46</ele>
        <time>2021-06-24T15:33:27.000Z</time>
      </trkpt>
      <trkpt lat="43.2217" lon="-0.23375">
        <ele>236.5</ele>
        <time>2021-06-24T15:33:32.000Z</time>
      </trkpt>
      <trkpt lat="43.22198" lon="-0.23384">
        <ele>235.76</ele>
        <time>2021-06-24T15:33:37.000Z</time>
      </trkpt>
      <trkpt lat="43.22225" lon="-0.23398">
        <ele>234.41</ele>
        <time>2021-06-24T15:33:42.000Z</time>
      </trkpt>
      <trkpt lat="43.22251" lon="-0.23412">
        <ele>232.58</ele>
        <time>2021-06-24T15:33:47.000Z</time>
      </trkpt>
      <trkpt lat="43.22277" lon="-0.23426">
        <ele>231.86</ele>
        <time>2021-06-24T15:33:52.000Z</time>
      </trkpt>
      <trkpt lat="43.22306" lon="-0.23437">
        <ele>232.74</ele>
        <time>2021-06-24T15:33:57.000Z</time>
      </trkpt>
      <trkpt lat="43.22335" lon="-0.23449">
        <ele>234.11</ele>
        <time>2021-06-24T15:34:02.000Z</time>
      </trkpt>
      <trkpt lat="43.22362" lon="-0.23461">
        <ele>234.47</ele>
        <time>2021-06-24T15:34:07.000Z</time>
      </trkpt>
      <trkpt lat="43.22389" lon="-0.23475">
        <ele>233.9</ele>
        <time>2021-06-24T15:34:12.000Z</time>
      </trkpt>
      <trkpt lat="43.22413" lon="-0.23494">
        <ele>234.66</ele>
        <time>2021-06-24T15:34:17.000Z</time>
      </trkpt>
      <trkpt lat="43.22438" lon="-0.23515">
        <ele>234.95</ele>
        <time>2021-06-24T15:34:22.000Z</time>
      </trkpt>
      <trkpt lat="43.22464" lon="-0.23537">
        <ele>235.99</ele>
        <time>2021-06-24T15:34:27.000Z</time>
      </trkpt>
      <trkpt lat="43.22487" lon="-0.2356">
        <ele>237.42</ele>
        <time>2021-06-24T15:34:32.000Z</time>
      </trkpt>
      <trkpt lat="43.22509" lon="-0.23582">
        <ele>236.44</ele>
        <time>2021-06-24T15:34:37.000Z</time>
      </trkpt>
      <trkpt lat="43.22531" lon="-0.23605">
        <ele>235.78</ele>
        <time>2021-06-24T15:34:42.000Z</time>
      </trkpt>
      <trkpt lat="43.22553" lon="-0.23628">
        <ele>235.26</ele>
        <time>2021-06-24T15:34:47.000Z</time>
      </trkpt>
      <trkpt lat="43.22575" lon="-0.23652">
        <ele>234.89</ele>
        <time>2021-06-24T15:34:52.000Z</time>
      </trkpt>
      <trkpt lat="43.22598" lon="-0.23675">
        <ele>234.01</ele>
        <time>2021-06-24T15:34:57.000Z</time>
      </trkpt>
      <trkpt lat="43.22621" lon="-0.23699">
        <ele>233.31</ele>
        <time>2021-06-24T15:35:02.000Z</time>
      </trkpt>
      <trkpt lat="43.22645" lon="-0.23722">
        <ele>232.2</ele>
        <time>2021-06-24T15:35:07.000Z</time>
      </trkpt>
      <trkpt lat="43.2267" lon="-0.23746">
        <ele>231.87</ele>
        <time>2021-06-24T15:35:12.000Z</time>
      </trkpt>
      <trkpt lat="43.22694" lon="-0.23769">
        <ele>231.9</ele>
        <time>2021-06-24T15:35:17.000Z</time>
      </trkpt>
      <trkpt lat="43.22717" lon="-0.23792">
        <ele>232.02</ele>
        <time>2021-06-24T15:35:22.000Z</time>
      </trkpt>
      <trkpt lat="43.2274" lon="-0.23815">
        <ele>232.63</ele>
        <time>2021-06-24T15:35:27.000Z</time>
      </trkpt>
      <trkpt lat="43.22762" lon="-0.23838">
        <ele>232.87</ele>
        <time>2021-06-24T15:35:32.000Z</time>
      </trkpt>
      <trkpt lat="43.22783" lon="-0.23861">
        <ele>233.03</ele>
        <time>2021-06-24T15:35:37.000Z</time>
      </trkpt>
      <trkpt lat="43.22804" lon="-0.23887">
        <ele>233.4</ele>
        <time>2021-06-24T15:35:42.000Z</time>
      </trkpt>
      <trkpt lat="43.22826" lon="-0.23912">
        <ele>232.64</ele>
        <time>2021-06-24T15:35:47.000Z</time>
      </trkpt>
      <trkpt lat="43.2285" lon="-0.23936">
        <ele>232.63</ele>
        <time>2021-06-24T15:35:52.000Z</time>
      </trkpt>
      <trkpt lat="43.22873" lon="-0.23961">
        <ele>232.59</ele>
        <time>2021-06-24T15:35:57.000Z</time>
      </trkpt>
      <trkpt lat="43.22895" lon="-0.23984">
        <ele>232.99</ele>
        <time>2021-06-24T15:36:02.000Z</time>
      </trkpt>
      <trkpt lat="43.22917" lon="-0.24006">
        <ele>232.95</ele>
        <time>2021-06-24T15:36:07.000Z</time>
      </trkpt>
      <trkpt lat="43.22938" lon="-0.24026">
        <ele>233.02</ele>
        <time>2021-06-24T15:36:12.000Z</time>
      </trkpt>
      <trkpt lat="43.2296" lon="-0.24047">
        <ele>232.24</ele>
        <time>2021-06-24T15:36:17.000Z</time>
      </trkpt>
      <trkpt lat="43.22982" lon="-0.24068">
        <ele>231.5</ele>
        <time>2021-06-24T15:36:22.000Z</time>
      </trkpt>
      <trkpt lat="43.23004" lon="-0.2409">
        <ele>231.38</ele>
        <time>2021-06-24T15:36:27.000Z</time>
      </trkpt>
      <trkpt lat="43.23027" lon="-0.24112">
        <ele>231.28</ele>
        <time>2021-06-24T15:36:32.000Z</time>
      </trkpt>
      <trkpt lat="43.23049" lon="-0.24136">
        <ele>231.25</ele>
        <time>2021-06-24T15:36:37.000Z</time>
      </trkpt>
      <trkpt lat="43.23071" lon="-0.24161">
        <ele>231.04</ele>
        <time>2021-06-24T15:36:42.000Z</time>
      </trkpt>
      <trkpt lat="43.23092" lon="-0.24187">
        <ele>230.52</ele>
        <time>2021-06-24T15:36:47.000Z</time>
      </trkpt>
      <trkpt lat="43.23113" lon="-0.24213">
        <ele>230.56</ele>
        <time>2021-06-24T15:36:52.000Z</time>
      </trkpt>
      <trkpt lat="43.23133" lon="-0.2424">
        <ele>230.59</ele>
        <time>2021-06-24T15:36:57.000Z</time>
      </trkpt>
      <trkpt lat="43.23152" lon="-0.24269">
        <ele>230.82</ele>
        <time>2021-06-24T15:37:02.000Z</time>
      </trkpt>
      <trkpt lat="43.23172" lon="-0.24296">
        <ele>230.59</ele>
        <time>2021-06-24T15:37:07.000Z</time>
      </trkpt>
      <trkpt lat="43.23191" lon="-0.24323">
        <ele>229.67</ele>
        <time>2021-06-24T15:37:12.000Z</time>
      </trkpt>
      <trkpt lat="43.2321" lon="-0.24352">
        <ele>229.54</ele>
        <time>2021-06-24T15:37:17.000Z</time>
      </trkpt>
      <trkpt lat="43.23229" lon="-0.24382">
        <ele>230.06</ele>
        <time>2021-06-24T15:37:22.000Z</time>
      </trkpt>
      <trkpt lat="43.23248" lon="-0.24411">
        <ele>230.59</ele>
        <time>2021-06-24T15:37:27.000Z</time>
      </trkpt>
      <trkpt lat="43.23268" lon="-0.2444">
        <ele>229.89</ele>
        <time>2021-06-24T15:37:32.000Z</time>
      </trkpt>
      <trkpt lat="43.23287" lon="-0.24469">
        <ele>229.27</ele>
        <time>2021-06-24T15:37:37.000Z</time>
      </trkpt>
      <trkpt lat="43.23307" lon="-0.24499">
        <ele>228.88</ele>
        <time>2021-06-24T15:37:42.000Z</time>
      </trkpt>
      <trkpt lat="43.23326" lon="-0.24528">
        <ele>229.05</ele>
        <time>2021-06-24T15:37:47.000Z</time>
      </trkpt>
      <trkpt lat="43.23346" lon="-0.24556">
        <ele>228.77</ele>
        <time>2021-06-24T15:37:52.000Z</time>
      </trkpt>
      <trkpt lat="43.23367" lon="-0.24584">
        <ele>228.93</ele>
        <time>2021-06-24T15:37:57.000Z</time>
      </trkpt>
      <trkpt lat="43.23387" lon="-0.24613">
        <ele>228.77</ele>
        <time>2021-06-24T15:38:02.000Z</time>
      </trkpt>
      <trkpt lat="43.23408" lon="-0.24642">
        <ele>228.3</ele>
        <time>2021-06-24T15:38:07.000Z</time>
      </trkpt>
      <trkpt lat="43.23429" lon="-0.24671">
        <ele>229.09</ele>
        <time>2021-06-24T15:38:12.000Z</time>
      </trkpt>
      <trkpt lat="43.23448" lon="-0.24701">
        <ele>228.97</ele>
        <time>2021-06-24T15:38:17.000Z</time>
      </trkpt>
      <trkpt lat="43.23469" lon="-0.24728">
        <ele>228.8</ele>
        <time>2021-06-24T15:38:22.000Z</time>
      </trkpt>
      <trkpt lat="43.23489" lon="-0.24755">
        <ele>227.77</ele>
        <time>2021-06-24T15:38:27.000Z</time>
      </trkpt>
      <trkpt lat="43.23508" lon="-0.24779">
        <ele>227.73</ele>
        <time>2021-06-24T15:38:32.000Z</time>
      </trkpt>
      <trkpt lat="43.23529" lon="-0.24802">
        <ele>227.58</ele>
        <time>2021-06-24T15:38:37.000Z</time>
      </trkpt>
      <trkpt lat="43.23552" lon="-0.24825">
        <ele>226.77</ele>
        <time>2021-06-24T15:38:42.000Z</time>
      </trkpt>
      <trkpt lat="43.23575" lon="-0.24849">
        <ele>225.98</ele>
        <time>2021-06-24T15:38:47.000Z</time>
      </trkpt>
      <trkpt lat="43.23596" lon="-0.24878">
        <ele>225.55</ele>
        <time>2021-06-24T15:38:52.000Z</time>
      </trkpt>
      <trkpt lat="43.23615" lon="-0.24908">
        <ele>224.93</ele>
        <time>2021-06-24T15:38:57.000Z</time>
      </trkpt>
      <trkpt lat="43.2364" lon="-0.2493">
        <ele>223.97</ele>
        <time>2021-06-24T15:39:02.000Z</time>
      </trkpt>
      <trkpt lat="43.23666" lon="-0.24945">
        <ele>223.81</ele>
        <time>2021-06-24T15:39:07.000Z</time>
      </trkpt>
      <trkpt lat="43.2369" lon="-0.24962">
        <ele>223.71</ele>
        <time>2021-06-24T15:39:12.000Z</time>
      </trkpt>
      <trkpt lat="43.23714" lon="-0.24979">
        <ele>222.96</ele>
        <time>2021-06-24T15:39:17.000Z</time>
      </trkpt>
      <trkpt lat="43.23735" lon="-0.25002">
        <ele>222.14</ele>
        <time>2021-06-24T15:39:22.000Z</time>
      </trkpt>
      <trkpt lat="43.2375" lon="-0.25028">
        <ele>220.99</ele>
        <time>2021-06-24T15:39:27.000Z</time>
      </trkpt>
      <trkpt lat="43.23763" lon="-0.25066">
        <ele>220.93</ele>
        <time>2021-06-24T15:39:32.000Z</time>
      </trkpt>
      <trkpt lat="43.23774" lon="-0.251">
        <ele>220.71</ele>
        <time>2021-06-24T15:39:37.000Z</time>
      </trkpt>
      <trkpt lat="43.23783" lon="-0.25137">
        <ele>221.06</ele>
        <time>2021-06-24T15:39:42.000Z</time>
      </trkpt>
      <trkpt lat="43.2378" lon="-0.25174">
        <ele>220.83</ele>
        <time>2021-06-24T15:39:47.000Z</time>
      </trkpt>
      <trkpt lat="43.23778" lon="-0.25215">
        <ele>221.15</ele>
        <time>2021-06-24T15:39:52.000Z</time>
      </trkpt>
      <trkpt lat="43.23796" lon="-0.25243">
        <ele>220.59</ele>
        <time>2021-06-24T15:39:57.000Z</time>
      </trkpt>
      <trkpt lat="43.23816" lon="-0.25272">
        <ele>222.62</ele>
        <time>2021-06-24T15:40:02.000Z</time>
      </trkpt>
      <trkpt lat="43.2383" lon="-0.25307">
        <ele>224.01</ele>
        <time>2021-06-24T15:40:07.000Z</time>
      </trkpt>
      <trkpt lat="43.23836" lon="-0.25343">
        <ele>224.42</ele>
        <time>2021-06-24T15:40:12.000Z</time>
      </trkpt>
      <trkpt lat="43.23841" lon="-0.25378">
        <ele>223.54</ele>
        <time>2021-06-24T15:40:17.000Z</time>
      </trkpt>
      <trkpt lat="43.2385" lon="-0.2541">
        <ele>223.82</ele>
        <time>2021-06-24T15:40:22.000Z</time>
      </trkpt>
      <trkpt lat="43.23872" lon="-0.25431">
        <ele>223.12</ele>
        <time>2021-06-24T15:40:27.000Z</time>
      </trkpt>
      <trkpt lat="43.23893" lon="-0.25455">
        <ele>222.53</ele>
        <time>2021-06-24T15:40:32.000Z</time>
      </trkpt>
      <trkpt lat="43.23912" lon="-0.25481">
        <ele>222.15</ele>
        <time>2021-06-24T15:40:37.000Z</time>
      </trkpt>
      <trkpt lat="43.23935" lon="-0.25504">
        <ele>221.2</ele>
        <time>2021-06-24T15:40:42.000Z</time>
      </trkpt>
      <trkpt lat="43.23955" lon="-0.25528">
        <ele>220.33</ele>
        <time>2021-06-24T15:40:47.000Z</time>
      </trkpt>
      <trkpt lat="43.23976" lon="-0.25555">
        <ele>221.14</ele>
        <time>2021-06-24T15:40:52.000Z</time>
      </trkpt>
      <trkpt lat="43.23993" lon="-0.25581">
        <ele>222.01</ele>
        <time>2021-06-24T15:40:57.000Z</time>
      </trkpt>
      <trkpt lat="43.24008" lon="-0.25612">
        <ele>221.77</ele>
        <time>2021-06-24T15:41:02.000Z</time>
      </trkpt>
      <trkpt lat="43.24022" lon="-0.25644">
        <ele>222.16</ele>
        <time>2021-06-24T15:41:07.000Z</time>
      </trkpt>
      <trkpt lat="43.24035" lon="-0.25676">
        <ele>221.13</ele>
        <time>2021-06-24T15:41:12.000Z</time>
      </trkpt>
      <trkpt lat="43.24048" lon="-0.25709">
        <ele>221.83</ele>
        <time>2021-06-24T15:41:17.000Z</time>
      </trkpt>
      <trkpt lat="43.24064" lon="-0.25738">
        <ele>222.15</ele>
        <time>2021-06-24T15:41:22.000Z</time>
      </trkpt>
      <trkpt lat="43.24081" lon="-0.25764">
        <ele>221.53</ele>
        <time>2021-06-24T15:41:27.000Z</time>
      </trkpt>
      <trkpt lat="43.24096" lon="-0.25789">
        <ele>221.44</ele>
        <time>2021-06-24T15:41:32.000Z</time>
      </trkpt>
      <trkpt lat="43.24113" lon="-0.25812">
        <ele>223.17</ele>
        <time>2021-06-24T15:41:37.000Z</time>
      </trkpt>
      <trkpt lat="43.24127" lon="-0.25836">
        <ele>223.47</ele>
        <time>2021-06-24T15:41:42.000Z</time>
      </trkpt>
      <trkpt lat="43.24141" lon="-0.25864">
        <ele>223.79</ele>
        <time>2021-06-24T15:41:47.000Z</time>
      </trkpt>
      <trkpt lat="43.24154" lon="-0.25891">
        <ele>222.66</ele>
        <time>2021-06-24T15:41:52.000Z</time>
      </trkpt>
      <trkpt lat="43.24167" lon="-0.25919">
        <ele>222.42</ele>
        <time>2021-06-24T15:41:57.000Z</time>
      </trkpt>
      <trkpt lat="43.24179" lon="-0.25946">
        <ele>221.72</ele>
        <time>2021-06-24T15:42:02.000Z</time>
      </trkpt>
      <trkpt lat="43.2419" lon="-0.25978">
        <ele>222.34</ele>
        <time>2021-06-24T15:42:07.000Z</time>
      </trkpt>
      <trkpt lat="43.24201" lon="-0.26008">
        <ele>222.49</ele>
        <time>2021-06-24T15:42:12.000Z</time>
      </trkpt>
      <trkpt lat="43.24213" lon="-0.26037">
        <ele>223.18</ele>
        <time>2021-06-24T15:42:17.000Z</time>
      </trkpt>
      <trkpt lat="43.24224" lon="-0.26064">
        <ele>223.21</ele>
        <time>2021-06-24T15:42:22.000Z</time>
      </trkpt>
      <trkpt lat="43.24233" lon="-0.26091">
        <ele>223.22</ele>
        <time>2021-06-24T15:42:27.000Z</time>
      </trkpt>
      <trkpt lat="43.24242" lon="-0.26117">
        <ele>223.22</ele>
        <time>2021-06-24T15:42:32.000Z</time>
      </trkpt>
      <trkpt lat="43.24251" lon="-0.26148">
        <ele>224.01</ele>
        <time>2021-06-24T15:42:37.000Z</time>
      </trkpt>
      <trkpt lat="43.24258" lon="-0.26181">
        <ele>225.2</ele>
        <time>2021-06-24T15:42:42.000Z</time>
      </trkpt>
      <trkpt lat="43.24265" lon="-0.26214">
        <ele>224.94</ele>
        <time>2021-06-24T15:42:47.000Z</time>
      </trkpt>
      <trkpt lat="43.24272" lon="-0.26244">
        <ele>223.98</ele>
        <time>2021-06-24T15:42:52.000Z</time>
      </trkpt>
      <trkpt lat="43.24278" lon="-0.26276">
        <ele>222.08</ele>
        <time>2021-06-24T15:42:57.000Z</time>
      </trkpt>
      <trkpt lat="43.24284" lon="-0.26308">
        <ele>220.49</ele>
        <time>2021-06-24T15:43:02.000Z</time>
      </trkpt>
      <trkpt lat="43.24291" lon="-0.26339">
        <ele>220</ele>
        <time>2021-06-24T15:43:07.000Z</time>
      </trkpt>
      <trkpt lat="43.24301" lon="-0.2637">
        <ele>220.75</ele>
        <time>2021-06-24T15:43:12.000Z</time>
      </trkpt>
      <trkpt lat="43.2431" lon="-0.26401">
        <ele>221.21</ele>
        <time>2021-06-24T15:43:17.000Z</time>
      </trkpt>
      <trkpt lat="43.24318" lon="-0.26432">
        <ele>220.11</ele>
        <time>2021-06-24T15:43:22.000Z</time>
      </trkpt>
      <trkpt lat="43.24326" lon="-0.26463">
        <ele>219.83</ele>
        <time>2021-06-24T15:43:27.000Z</time>
      </trkpt>
      <trkpt lat="43.24332" lon="-0.26493">
        <ele>218.01</ele>
        <time>2021-06-24T15:43:32.000Z</time>
      </trkpt>
      <trkpt lat="43.24336" lon="-0.26527">
        <ele>217.67</ele>
        <time>2021-06-24T15:43:37.000Z</time>
      </trkpt>
      <trkpt lat="43.2434" lon="-0.26558">
        <ele>217.46</ele>
        <time>2021-06-24T15:43:42.000Z</time>
      </trkpt>
      <trkpt lat="43.24344" lon="-0.26589">
        <ele>217.91</ele>
        <time>2021-06-24T15:43:47.000Z</time>
      </trkpt>
      <trkpt lat="43.24348" lon="-0.2662">
        <ele>218.95</ele>
        <time>2021-06-24T15:43:52.000Z</time>
      </trkpt>
      <trkpt lat="43.24352" lon="-0.26652">
        <ele>219.12</ele>
        <time>2021-06-24T15:43:57.000Z</time>
      </trkpt>
      <trkpt lat="43.24356" lon="-0.26685">
        <ele>219.18</ele>
        <time>2021-06-24T15:44:02.000Z</time>
      </trkpt>
      <trkpt lat="43.2436" lon="-0.26724">
        <ele>220.25</ele>
        <time>2021-06-24T15:44:07.000Z</time>
      </trkpt>
      <trkpt lat="43.24365" lon="-0.26761">
        <ele>219.61</ele>
        <time>2021-06-24T15:44:12.000Z</time>
      </trkpt>
      <trkpt lat="43.24375" lon="-0.26795">
        <ele>219.39</ele>
        <time>2021-06-24T15:44:17.000Z</time>
      </trkpt>
      <trkpt lat="43.24387" lon="-0.26829">
        <ele>219.79</ele>
        <time>2021-06-24T15:44:22.000Z</time>
      </trkpt>
      <trkpt lat="43.24386" lon="-0.26868">
        <ele>221.22</ele>
        <time>2021-06-24T15:44:27.000Z</time>
      </trkpt>
      <trkpt lat="43.24401" lon="-0.26901">
        <ele>222.33</ele>
        <time>2021-06-24T15:44:32.000Z</time>
      </trkpt>
      <trkpt lat="43.24413" lon="-0.26933">
        <ele>222.79</ele>
        <time>2021-06-24T15:44:37.000Z</time>
      </trkpt>
      <trkpt lat="43.24426" lon="-0.26965">
        <ele>221.17</ele>
        <time>2021-06-24T15:44:42.000Z</time>
      </trkpt>
      <trkpt lat="43.24436" lon="-0.26998">
        <ele>219.32</ele>
        <time>2021-06-24T15:44:47.000Z</time>
      </trkpt>
      <trkpt lat="43.24446" lon="-0.2703">
        <ele>217.78</ele>
        <time>2021-06-24T15:44:52.000Z</time>
      </trkpt>
      <trkpt lat="43.24455" lon="-0.27061">
        <ele>217.16</ele>
        <time>2021-06-24T15:44:57.000Z</time>
      </trkpt>
      <trkpt lat="43.24463" lon="-0.27093">
        <ele>217.51</ele>
        <time>2021-06-24T15:45:02.000Z</time>
      </trkpt>
      <trkpt lat="43.24471" lon="-0.27122">
        <ele>217.29</ele>
        <time>2021-06-24T15:45:07.000Z</time>
      </trkpt>
      <trkpt lat="43.24479" lon="-0.27153">
        <ele>216.84</ele>
        <time>2021-06-24T15:45:12.000Z</time>
      </trkpt>
      <trkpt lat="43.24488" lon="-0.27182">
        <ele>217.63</ele>
        <time>2021-06-24T15:45:17.000Z</time>
      </trkpt>
      <trkpt lat="43.24495" lon="-0.27211">
        <ele>218.82</ele>
        <time>2021-06-24T15:45:22.000Z</time>
      </trkpt>
      <trkpt lat="43.24503" lon="-0.2724">
        <ele>219.14</ele>
        <time>2021-06-24T15:45:27.000Z</time>
      </trkpt>
      <trkpt lat="43.24511" lon="-0.27268">
        <ele>218.86</ele>
        <time>2021-06-24T15:45:32.000Z</time>
      </trkpt>
      <trkpt lat="43.24519" lon="-0.27297">
        <ele>219.19</ele>
        <time>2021-06-24T15:45:37.000Z</time>
      </trkpt>
      <trkpt lat="43.24527" lon="-0.27324">
        <ele>218.11</ele>
        <time>2021-06-24T15:45:42.000Z</time>
      </trkpt>
      <trkpt lat="43.24536" lon="-0.27354">
        <ele>217.61</ele>
        <time>2021-06-24T15:45:47.000Z</time>
      </trkpt>
      <trkpt lat="43.24544" lon="-0.27385">
        <ele>217.7</ele>
        <time>2021-06-24T15:45:52.000Z</time>
      </trkpt>
      <trkpt lat="43.24554" lon="-0.27415">
        <ele>218.1</ele>
        <time>2021-06-24T15:45:57.000Z</time>
      </trkpt>
      <trkpt lat="43.24562" lon="-0.27446">
        <ele>217.73</ele>
        <time>2021-06-24T15:46:02.000Z</time>
      </trkpt>
      <trkpt lat="43.2457" lon="-0.27476">
        <ele>218.01</ele>
        <time>2021-06-24T15:46:07.000Z</time>
      </trkpt>
      <trkpt lat="43.24579" lon="-0.27506">
        <ele>217.13</ele>
        <time>2021-06-24T15:46:12.000Z</time>
      </trkpt>
      <trkpt lat="43.24587" lon="-0.27534">
        <ele>216.63</ele>
        <time>2021-06-24T15:46:17.000Z</time>
      </trkpt>
      <trkpt lat="43.24595" lon="-0.27564">
        <ele>216.62</ele>
        <time>2021-06-24T15:46:22.000Z</time>
      </trkpt>
      <trkpt lat="43.24604" lon="-0.27595">
        <ele>216.23</ele>
        <time>2021-06-24T15:46:27.000Z</time>
      </trkpt>
      <trkpt lat="43.24611" lon="-0.27626">
        <ele>216.5</ele>
        <time>2021-06-24T15:46:32.000Z</time>
      </trkpt>
      <trkpt lat="43.2462" lon="-0.27658">
        <ele>216.26</ele>
        <time>2021-06-24T15:46:37.000Z</time>
      </trkpt>
      <trkpt lat="43.24629" lon="-0.2769">
        <ele>216.52</ele>
        <time>2021-06-24T15:46:42.000Z</time>
      </trkpt>
      <trkpt lat="43.24637" lon="-0.27722">
        <ele>217.13</ele>
        <time>2021-06-24T15:46:47.000Z</time>
      </trkpt>
      <trkpt lat="43.24645" lon="-0.27752">
        <ele>216.97</ele>
        <time>2021-06-24T15:46:52.000Z</time>
      </trkpt>
      <trkpt lat="43.24654" lon="-0.27784">
        <ele>217.29</ele>
        <time>2021-06-24T15:46:57.000Z</time>
      </trkpt>
      <trkpt lat="43.24661" lon="-0.27814">
        <ele>216.51</ele>
        <time>2021-06-24T15:47:02.000Z</time>
      </trkpt>
      <trkpt lat="43.24671" lon="-0.27844">
        <ele>215.48</ele>
        <time>2021-06-24T15:47:07.000Z</time>
      </trkpt>
      <trkpt lat="43.24679" lon="-0.27875">
        <ele>215.08</ele>
        <time>2021-06-24T15:47:12.000Z</time>
      </trkpt>
      <trkpt lat="43.24687" lon="-0.27906">
        <ele>215.7</ele>
        <time>2021-06-24T15:47:17.000Z</time>
      </trkpt>
      <trkpt lat="43.24695" lon="-0.27939">
        <ele>215.86</ele>
        <time>2021-06-24T15:47:22.000Z</time>
      </trkpt>
      <trkpt lat="43.24703" lon="-0.27969">
        <ele>214.5</ele>
        <time>2021-06-24T15:47:27.000Z</time>
      </trkpt>
      <trkpt lat="43.24711" lon="-0.27999">
        <ele>213.67</ele>
        <time>2021-06-24T15:47:32.000Z</time>
      </trkpt>
      <trkpt lat="43.24719" lon="-0.28029">
        <ele>212.7</ele>
        <time>2021-06-24T15:47:37.000Z</time>
      </trkpt>
      <trkpt lat="43.24727" lon="-0.28059">
        <ele>212.67</ele>
        <time>2021-06-24T15:47:42.000Z</time>
      </trkpt>
      <trkpt lat="43.24734" lon="-0.28089">
        <ele>214.2</ele>
        <time>2021-06-24T15:47:47.000Z</time>
      </trkpt>
      <trkpt lat="43.2474" lon="-0.28115">
        <ele>213.95</ele>
        <time>2021-06-24T15:47:52.000Z</time>
      </trkpt>
      <trkpt lat="43.24745" lon="-0.28139">
        <ele>213.92</ele>
        <time>2021-06-24T15:47:57.000Z</time>
      </trkpt>
      <trkpt lat="43.24751" lon="-0.2816">
        <ele>214.21</ele>
        <time>2021-06-24T15:48:02.000Z</time>
      </trkpt>
      <trkpt lat="43.24758" lon="-0.2818">
        <ele>215.37</ele>
        <time>2021-06-24T15:48:07.000Z</time>
      </trkpt>
      <trkpt lat="43.24748" lon="-0.28206">
        <ele>215.48</ele>
        <time>2021-06-24T15:48:12.000Z</time>
      </trkpt>
      <trkpt lat="43.24738" lon="-0.28234">
        <ele>216.24</ele>
        <time>2021-06-24T15:48:17.000Z</time>
      </trkpt>
      <trkpt lat="43.24727" lon="-0.28262">
        <ele>216.23</ele>
        <time>2021-06-24T15:48:22.000Z</time>
      </trkpt>
      <trkpt lat="43.24717" lon="-0.28291">
        <ele>216.35</ele>
        <time>2021-06-24T15:48:27.000Z</time>
      </trkpt>
      <trkpt lat="43.24709" lon="-0.28321">
        <ele>217.77</ele>
        <time>2021-06-24T15:48:32.000Z</time>
      </trkpt>
      <trkpt lat="43.247" lon="-0.2835">
        <ele>217.65</ele>
        <time>2021-06-24T15:48:37.000Z</time>
      </trkpt>
      <trkpt lat="43.24691" lon="-0.28381">
        <ele>217.29</ele>
        <time>2021-06-24T15:48:42.000Z</time>
      </trkpt>
      <trkpt lat="43.24683" lon="-0.2841">
        <ele>217.6</ele>
        <time>2021-06-24T15:48:47.000Z</time>
      </trkpt>
      <trkpt lat="43.24674" lon="-0.28434">
        <ele>217.21</ele>
        <time>2021-06-24T15:48:52.000Z</time>
      </trkpt>
      <trkpt lat="43.24667" lon="-0.28456">
        <ele>217.41</ele>
        <time>2021-06-24T15:48:57.000Z</time>
      </trkpt>
      <trkpt lat="43.24663" lon="-0.28472">
        <ele>216.59</ele>
        <time>2021-06-24T15:49:02.000Z</time>
      </trkpt>
      <trkpt lat="43.2466" lon="-0.28486">
        <ele>216.23</ele>
        <time>2021-06-24T15:49:07.000Z</time>
      </trkpt>
      <trkpt lat="43.24655" lon="-0.285">
        <ele>216.19</ele>
        <time>2021-06-24T15:49:12.000Z</time>
      </trkpt>
      <trkpt lat="43.24651" lon="-0.28516">
        <ele>218.32</ele>
        <time>2021-06-24T15:49:17.000Z</time>
      </trkpt>
      <trkpt lat="43.24648" lon="-0.28531">
        <ele>220.34</ele>
        <time>2021-06-24T15:49:22.000Z</time>
      </trkpt>
      <trkpt lat="43.24642" lon="-0.28546">
        <ele>221.87</ele>
        <time>2021-06-24T15:49:27.000Z</time>
      </trkpt>
      <trkpt lat="43.24636" lon="-0.2856">
        <ele>222.49</ele>
        <time>2021-06-24T15:49:32.000Z</time>
      </trkpt>
      <trkpt lat="43.2463" lon="-0.28574">
        <ele>223.03</ele>
        <time>2021-06-24T15:49:37.000Z</time>
      </trkpt>
      <trkpt lat="43.24623" lon="-0.28588">
        <ele>222.53</ele>
        <time>2021-06-24T15:49:42.000Z</time>
      </trkpt>
      <trkpt lat="43.24615" lon="-0.28603">
        <ele>222.78</ele>
        <time>2021-06-24T15:49:47.000Z</time>
      </trkpt>
      <trkpt lat="43.24607" lon="-0.28618">
        <ele>223.11</ele>
        <time>2021-06-24T15:49:52.000Z</time>
      </trkpt>
      <trkpt lat="43.24597" lon="-0.28638">
        <ele>222.92</ele>
        <time>2021-06-24T15:49:57.000Z</time>
      </trkpt>
      <trkpt lat="43.24585" lon="-0.28661">
        <ele>222.22</ele>
        <time>2021-06-24T15:50:02.000Z</time>
      </trkpt>
      <trkpt lat="43.24568" lon="-0.28688">
        <ele>220.7</ele>
        <time>2021-06-24T15:50:07.000Z</time>
      </trkpt>
      <trkpt lat="43.24545" lon="-0.28718">
        <ele>218.49</ele>
        <time>2021-06-24T15:50:12.000Z</time>
      </trkpt>
      <trkpt lat="43.24517" lon="-0.28751">
        <ele>216.31</ele>
        <time>2021-06-24T15:50:17.000Z</time>
      </trkpt>
      <trkpt lat="43.24488" lon="-0.28784">
        <ele>215.32</ele>
        <time>2021-06-24T15:50:22.000Z</time>
      </trkpt>
      <trkpt lat="43.24462" lon="-0.28814">
        <ele>214.9</ele>
        <time>2021-06-24T15:50:27.000Z</time>
      </trkpt>
      <trkpt lat="43.24437" lon="-0.28844">
        <ele>214.85</ele>
        <time>2021-06-24T15:50:32.000Z</time>
      </trkpt>
      <trkpt lat="43.24416" lon="-0.28875">
        <ele>214.44</ele>
        <time>2021-06-24T15:50:37.000Z</time>
      </trkpt>
      <trkpt lat="43.24406" lon="-0.28913">
        <ele>215.18</ele>
        <time>2021-06-24T15:50:42.000Z</time>
      </trkpt>
      <trkpt lat="43.24398" lon="-0.2895">
        <ele>215.95</ele>
        <time>2021-06-24T15:50:47.000Z</time>
      </trkpt>
      <trkpt lat="43.2438" lon="-0.28973">
        <ele>216.07</ele>
        <time>2021-06-24T15:50:52.000Z</time>
      </trkpt>
      <trkpt lat="43.24355" lon="-0.28981">
        <ele>216.45</ele>
        <time>2021-06-24T15:50:57.000Z</time>
      </trkpt>
      <trkpt lat="43.2433" lon="-0.28994">
        <ele>216.07</ele>
        <time>2021-06-24T15:51:02.000Z</time>
      </trkpt>
      <trkpt lat="43.24306" lon="-0.29015">
        <ele>215.68</ele>
        <time>2021-06-24T15:51:07.000Z</time>
      </trkpt>
      <trkpt lat="43.24285" lon="-0.29039">
        <ele>215.2</ele>
        <time>2021-06-24T15:51:12.000Z</time>
      </trkpt>
      <trkpt lat="43.24264" lon="-0.29065">
        <ele>214.2</ele>
        <time>2021-06-24T15:51:17.000Z</time>
      </trkpt>
      <trkpt lat="43.24241" lon="-0.29091">
        <ele>213.17</ele>
        <time>2021-06-24T15:51:22.000Z</time>
      </trkpt>
      <trkpt lat="43.24218" lon="-0.29117">
        <ele>212.64</ele>
        <time>2021-06-24T15:51:27.000Z</time>
      </trkpt>
      <trkpt lat="43.24194" lon="-0.29143">
        <ele>214.02</ele>
        <time>2021-06-24T15:51:32.000Z</time>
      </trkpt>
      <trkpt lat="43.24172" lon="-0.29169">
        <ele>214.23</ele>
        <time>2021-06-24T15:51:37.000Z</time>
      </trkpt>
      <trkpt lat="43.24152" lon="-0.29197">
        <ele>214.22</ele>
        <time>2021-06-24T15:51:42.000Z</time>
      </trkpt>
      <trkpt lat="43.24131" lon="-0.29223">
        <ele>213.61</ele>
        <time>2021-06-24T15:51:47.000Z</time>
      </trkpt>
      <trkpt lat="43.2411" lon="-0.29249">
        <ele>212.53</ele>
        <time>2021-06-24T15:51:52.000Z</time>
      </trkpt>
      <trkpt lat="43.24091" lon="-0.29279">
        <ele>213.4</ele>
        <time>2021-06-24T15:51:57.000Z</time>
      </trkpt>
      <trkpt lat="43.24081" lon="-0.29313">
        <ele>213.03</ele>
        <time>2021-06-24T15:52:02.000Z</time>
      </trkpt>
      <trkpt lat="43.24071" lon="-0.2935">
        <ele>213.36</ele>
        <time>2021-06-24T15:52:07.000Z</time>
      </trkpt>
      <trkpt lat="43.24055" lon="-0.29379">
        <ele>212.98</ele>
        <time>2021-06-24T15:52:12.000Z</time>
      </trkpt>
      <trkpt lat="43.24033" lon="-0.29383">
        <ele>213.61</ele>
        <time>2021-06-24T15:52:17.000Z</time>
      </trkpt>
      <trkpt lat="43.24015" lon="-0.29386">
        <ele>214</ele>
        <time>2021-06-24T15:52:22.000Z</time>
      </trkpt>
      <trkpt lat="43.23996" lon="-0.29405">
        <ele>212.8</ele>
        <time>2021-06-24T15:52:27.000Z</time>
      </trkpt>
      <trkpt lat="43.23982" lon="-0.29436">
        <ele>212.11</ele>
        <time>2021-06-24T15:52:32.000Z</time>
      </trkpt>
      <trkpt lat="43.23972" lon="-0.29471">
        <ele>211.47</ele>
        <time>2021-06-24T15:52:37.000Z</time>
      </trkpt>
      <trkpt lat="43.23965" lon="-0.29506">
        <ele>210.83</ele>
        <time>2021-06-24T15:52:42.000Z</time>
      </trkpt>
      <trkpt lat="43.2396" lon="-0.29542">
        <ele>210.97</ele>
        <time>2021-06-24T15:52:47.000Z</time>
      </trkpt>
      <trkpt lat="43.23959" lon="-0.29578">
        <ele>211.27</ele>
        <time>2021-06-24T15:52:52.000Z</time>
      </trkpt>
      <trkpt lat="43.2396" lon="-0.29616">
        <ele>211.86</ele>
        <time>2021-06-24T15:52:57.000Z</time>
      </trkpt>
      <trkpt lat="43.23965" lon="-0.29655">
        <ele>212.08</ele>
        <time>2021-06-24T15:53:02.000Z</time>
      </trkpt>
      <trkpt lat="43.23973" lon="-0.29693">
        <ele>211.94</ele>
        <time>2021-06-24T15:53:07.000Z</time>
      </trkpt>
      <trkpt lat="43.23983" lon="-0.2973">
        <ele>211.71</ele>
        <time>2021-06-24T15:53:12.000Z</time>
      </trkpt>
      <trkpt lat="43.23995" lon="-0.29763">
        <ele>211.7</ele>
        <time>2021-06-24T15:53:17.000Z</time>
      </trkpt>
      <trkpt lat="43.24009" lon="-0.29792">
        <ele>211.36</ele>
        <time>2021-06-24T15:53:22.000Z</time>
      </trkpt>
      <trkpt lat="43.24024" lon="-0.2982">
        <ele>210.95</ele>
        <time>2021-06-24T15:53:27.000Z</time>
      </trkpt>
      <trkpt lat="43.2404" lon="-0.29844">
        <ele>210.54</ele>
        <time>2021-06-24T15:53:32.000Z</time>
      </trkpt>
      <trkpt lat="43.24057" lon="-0.29865">
        <ele>210.41</ele>
        <time>2021-06-24T15:53:37.000Z</time>
      </trkpt>
      <trkpt lat="43.24077" lon="-0.29886">
        <ele>210.68</ele>
        <time>2021-06-24T15:53:42.000Z</time>
      </trkpt>
      <trkpt lat="43.24099" lon="-0.29904">
        <ele>210.75</ele>
        <time>2021-06-24T15:53:47.000Z</time>
      </trkpt>
      <trkpt lat="43.24121" lon="-0.29922">
        <ele>210.66</ele>
        <time>2021-06-24T15:53:52.000Z</time>
      </trkpt>
      <trkpt lat="43.24142" lon="-0.29938">
        <ele>210.9</ele>
        <time>2021-06-24T15:53:57.000Z</time>
      </trkpt>
      <trkpt lat="43.24164" lon="-0.29957">
        <ele>211.17</ele>
        <time>2021-06-24T15:54:02.000Z</time>
      </trkpt>
      <trkpt lat="43.24188" lon="-0.29976">
        <ele>211</ele>
        <time>2021-06-24T15:54:07.000Z</time>
      </trkpt>
      <trkpt lat="43.2421" lon="-0.29996">
        <ele>210.51</ele>
        <time>2021-06-24T15:54:12.000Z</time>
      </trkpt>
      <trkpt lat="43.24232" lon="-0.30021">
        <ele>210.32</ele>
        <time>2021-06-24T15:54:17.000Z</time>
      </trkpt>
      <trkpt lat="43.24252" lon="-0.30047">
        <ele>209.94</ele>
        <time>2021-06-24T15:54:22.000Z</time>
      </trkpt>
      <trkpt lat="43.24271" lon="-0.30077">
        <ele>209.4</ele>
        <time>2021-06-24T15:54:27.000Z</time>
      </trkpt>
      <trkpt lat="43.24289" lon="-0.30105">
        <ele>208.85</ele>
        <time>2021-06-24T15:54:32.000Z</time>
      </trkpt>
      <trkpt lat="43.24307" lon="-0.30134">
        <ele>208.25</ele>
        <time>2021-06-24T15:54:37.000Z</time>
      </trkpt>
      <trkpt lat="43.24326" lon="-0.30164">
        <ele>207.71</ele>
        <time>2021-06-24T15:54:42.000Z</time>
      </trkpt>
      <trkpt lat="43.24344" lon="-0.30191">
        <ele>207.31</ele>
        <time>2021-06-24T15:54:47.000Z</time>
      </trkpt>
      <trkpt lat="43.24361" lon="-0.3022">
        <ele>207.41</ele>
        <time>2021-06-24T15:54:52.000Z</time>
      </trkpt>
      <trkpt lat="43.24379" lon="-0.3025">
        <ele>207.49</ele>
        <time>2021-06-24T15:54:57.000Z</time>
      </trkpt>
      <trkpt lat="43.24398" lon="-0.30279">
        <ele>207.13</ele>
        <time>2021-06-24T15:55:02.000Z</time>
      </trkpt>
      <trkpt lat="43.24416" lon="-0.30305">
        <ele>206.56</ele>
        <time>2021-06-24T15:55:07.000Z</time>
      </trkpt>
      <trkpt lat="43.24434" lon="-0.30332">
        <ele>206.26</ele>
        <time>2021-06-24T15:55:12.000Z</time>
      </trkpt>
      <trkpt lat="43.24452" lon="-0.30355">
        <ele>206.1</ele>
        <time>2021-06-24T15:55:17.000Z</time>
      </trkpt>
      <trkpt lat="43.24473" lon="-0.3038">
        <ele>206.34</ele>
        <time>2021-06-24T15:55:22.000Z</time>
      </trkpt>
      <trkpt lat="43.24496" lon="-0.30398">
        <ele>206.08</ele>
        <time>2021-06-24T15:55:27.000Z</time>
      </trkpt>
      <trkpt lat="43.24504" lon="-0.30432">
        <ele>206.72</ele>
        <time>2021-06-24T15:55:32.000Z</time>
      </trkpt>
      <trkpt lat="43.24496" lon="-0.30465">
        <ele>205.89</ele>
        <time>2021-06-24T15:55:37.000Z</time>
      </trkpt>
      <trkpt lat="43.24488" lon="-0.30497">
        <ele>204.57</ele>
        <time>2021-06-24T15:55:42.000Z</time>
      </trkpt>
      <trkpt lat="43.24481" lon="-0.30531">
        <ele>204.53</ele>
        <time>2021-06-24T15:55:47.000Z</time>
      </trkpt>
      <trkpt lat="43.24475" lon="-0.30567">
        <ele>204.88</ele>
        <time>2021-06-24T15:55:52.000Z</time>
      </trkpt>
      <trkpt lat="43.2447" lon="-0.30604">
        <ele>205.32</ele>
        <time>2021-06-24T15:55:57.000Z</time>
      </trkpt>
      <trkpt lat="43.24465" lon="-0.30639">
        <ele>205.83</ele>
        <time>2021-06-24T15:56:02.000Z</time>
      </trkpt>
      <trkpt lat="43.24463" lon="-0.30672">
        <ele>208.14</ele>
        <time>2021-06-24T15:56:07.000Z</time>
      </trkpt>
      <trkpt lat="43.24458" lon="-0.307">
        <ele>208.67</ele>
        <time>2021-06-24T15:56:12.000Z</time>
      </trkpt>
      <trkpt lat="43.24454" lon="-0.30728">
        <ele>209.93</ele>
        <time>2021-06-24T15:56:17.000Z</time>
      </trkpt>
      <trkpt lat="43.24449" lon="-0.30756">
        <ele>210.96</ele>
        <time>2021-06-24T15:56:22.000Z</time>
      </trkpt>
      <trkpt lat="43.24444" lon="-0.30784">
        <ele>211.4</ele>
        <time>2021-06-24T15:56:27.000Z</time>
      </trkpt>
      <trkpt lat="43.2444" lon="-0.30815">
        <ele>210.6</ele>
        <time>2021-06-24T15:56:32.000Z</time>
      </trkpt>
      <trkpt lat="43.24436" lon="-0.30849">
        <ele>210.17</ele>
        <time>2021-06-24T15:56:37.000Z</time>
      </trkpt>
      <trkpt lat="43.24431" lon="-0.30885">
        <ele>209.27</ele>
        <time>2021-06-24T15:56:42.000Z</time>
      </trkpt>
      <trkpt lat="43.24425" lon="-0.30926">
        <ele>208.09</ele>
        <time>2021-06-24T15:56:47.000Z</time>
      </trkpt>
      <trkpt lat="43.24418" lon="-0.30971">
        <ele>207.53</ele>
        <time>2021-06-24T15:56:52.000Z</time>
      </trkpt>
      <trkpt lat="43.24409" lon="-0.31015">
        <ele>207.47</ele>
        <time>2021-06-24T15:56:57.000Z</time>
      </trkpt>
      <trkpt lat="43.24403" lon="-0.31057">
        <ele>209.48</ele>
        <time>2021-06-24T15:57:02.000Z</time>
      </trkpt>
      <trkpt lat="43.24405" lon="-0.31095">
        <ele>210.01</ele>
        <time>2021-06-24T15:57:07.000Z</time>
      </trkpt>
      <trkpt lat="43.24424" lon="-0.3112">
        <ele>209.1</ele>
        <time>2021-06-24T15:57:12.000Z</time>
      </trkpt>
      <trkpt lat="43.24452" lon="-0.31138">
        <ele>207.23</ele>
        <time>2021-06-24T15:57:17.000Z</time>
      </trkpt>
      <trkpt lat="43.24482" lon="-0.31157">
        <ele>206.67</ele>
        <time>2021-06-24T15:57:22.000Z</time>
      </trkpt>
      <trkpt lat="43.24509" lon="-0.3118">
        <ele>207.14</ele>
        <time>2021-06-24T15:57:27.000Z</time>
      </trkpt>
      <trkpt lat="43.24532" lon="-0.31212">
        <ele>205.93</ele>
        <time>2021-06-24T15:57:32.000Z</time>
      </trkpt>
      <trkpt lat="43.24552" lon="-0.31245">
        <ele>204.68</ele>
        <time>2021-06-24T15:57:37.000Z</time>
      </trkpt>
      <trkpt lat="43.24571" lon="-0.31279">
        <ele>203.76</ele>
        <time>2021-06-24T15:57:42.000Z</time>
      </trkpt>
      <trkpt lat="43.24589" lon="-0.31312">
        <ele>203</ele>
        <time>2021-06-24T15:57:47.000Z</time>
      </trkpt>
      <trkpt lat="43.24607" lon="-0.31345">
        <ele>202.43</ele>
        <time>2021-06-24T15:57:52.000Z</time>
      </trkpt>
      <trkpt lat="43.24626" lon="-0.31378">
        <ele>201.6</ele>
        <time>2021-06-24T15:57:57.000Z</time>
      </trkpt>
      <trkpt lat="43.24645" lon="-0.31412">
        <ele>201.82</ele>
        <time>2021-06-24T15:58:02.000Z</time>
      </trkpt>
      <trkpt lat="43.24669" lon="-0.31441">
        <ele>201.13</ele>
        <time>2021-06-24T15:58:07.000Z</time>
      </trkpt>
      <trkpt lat="43.24697" lon="-0.3146">
        <ele>201.03</ele>
        <time>2021-06-24T15:58:12.000Z</time>
      </trkpt>
      <trkpt lat="43.24728" lon="-0.31474">
        <ele>203.5</ele>
        <time>2021-06-24T15:58:17.000Z</time>
      </trkpt>
      <trkpt lat="43.24756" lon="-0.31488">
        <ele>204.34</ele>
        <time>2021-06-24T15:58:22.000Z</time>
      </trkpt>
      <trkpt lat="43.24785" lon="-0.31502">
        <ele>204.07</ele>
        <time>2021-06-24T15:58:27.000Z</time>
      </trkpt>
      <trkpt lat="43.24812" lon="-0.31517">
        <ele>205.05</ele>
        <time>2021-06-24T15:58:32.000Z</time>
      </trkpt>
      <trkpt lat="43.24836" lon="-0.31533">
        <ele>205.79</ele>
        <time>2021-06-24T15:58:37.000Z</time>
      </trkpt>
      <trkpt lat="43.24853" lon="-0.31555">
        <ele>205.72</ele>
        <time>2021-06-24T15:58:42.000Z</time>
      </trkpt>
      <trkpt lat="43.24864" lon="-0.31584">
        <ele>205.8</ele>
        <time>2021-06-24T15:58:47.000Z</time>
      </trkpt>
      <trkpt lat="43.24877" lon="-0.31617">
        <ele>205.21</ele>
        <time>2021-06-24T15:58:52.000Z</time>
      </trkpt>
      <trkpt lat="43.24896" lon="-0.31649">
        <ele>204.28</ele>
        <time>2021-06-24T15:58:57.000Z</time>
      </trkpt>
      <trkpt lat="43.24916" lon="-0.31678">
        <ele>202.92</ele>
        <time>2021-06-24T15:59:02.000Z</time>
      </trkpt>
      <trkpt lat="43.24939" lon="-0.31705">
        <ele>201.84</ele>
        <time>2021-06-24T15:59:07.000Z</time>
      </trkpt>
      <trkpt lat="43.24959" lon="-0.31732">
        <ele>201.36</ele>
        <time>2021-06-24T15:59:12.000Z</time>
      </trkpt>
      <trkpt lat="43.24978" lon="-0.31757">
        <ele>200.08</ele>
        <time>2021-06-24T15:59:17.000Z</time>
      </trkpt>
      <trkpt lat="43.24993" lon="-0.31783">
        <ele>198.4</ele>
        <time>2021-06-24T15:59:22.000Z</time>
      </trkpt>
      <trkpt lat="43.25008" lon="-0.3181">
        <ele>196.98</ele>
        <time>2021-06-24T15:59:27.000Z</time>
      </trkpt>
      <trkpt lat="43.25021" lon="-0.31839">
        <ele>195.85</ele>
        <time>2021-06-24T15:59:32.000Z</time>
      </trkpt>
      <trkpt lat="43.25036" lon="-0.3187">
        <ele>195.93</ele>
        <time>2021-06-24T15:59:37.000Z</time>
      </trkpt>
      <trkpt lat="43.25057" lon="-0.31897">
        <ele>199.66</ele>
        <time>2021-06-24T15:59:42.000Z</time>
      </trkpt>
      <trkpt lat="43.25076" lon="-0.31922">
        <ele>202.1</ele>
        <time>2021-06-24T15:59:47.000Z</time>
      </trkpt>
      <trkpt lat="43.25094" lon="-0.31946">
        <ele>204.5</ele>
        <time>2021-06-24T15:59:52.000Z</time>
      </trkpt>
      <trkpt lat="43.25111" lon="-0.31968">
        <ele>205.36</ele>
        <time>2021-06-24T15:59:57.000Z</time>
      </trkpt>
      <trkpt lat="43.2513" lon="-0.31987">
        <ele>204.4</ele>
        <time>2021-06-24T16:00:02.000Z</time>
      </trkpt>
      <trkpt lat="43.25149" lon="-0.32011">
        <ele>203.31</ele>
        <time>2021-06-24T16:00:07.000Z</time>
      </trkpt>
      <trkpt lat="43.2517" lon="-0.32031">
        <ele>202.56</ele>
        <time>2021-06-24T16:00:12.000Z</time>
      </trkpt>
      <trkpt lat="43.2519" lon="-0.32056">
        <ele>202.65</ele>
        <time>2021-06-24T16:00:17.000Z</time>
      </trkpt>
      <trkpt lat="43.25206" lon="-0.32083">
        <ele>202.73</ele>
        <time>2021-06-24T16:00:22.000Z</time>
      </trkpt>
      <trkpt lat="43.25222" lon="-0.3211">
        <ele>202.48</ele>
        <time>2021-06-24T16:00:27.000Z</time>
      </trkpt>
      <trkpt lat="43.25238" lon="-0.32138">
        <ele>201.6</ele>
        <time>2021-06-24T16:00:32.000Z</time>
      </trkpt>
      <trkpt lat="43.25252" lon="-0.32169">
        <ele>201.95</ele>
        <time>2021-06-24T16:00:37.000Z</time>
      </trkpt>
      <trkpt lat="43.25269" lon="-0.32198">
        <ele>202.52</ele>
        <time>2021-06-24T16:00:42.000Z</time>
      </trkpt>
      <trkpt lat="43.25294" lon="-0.32213">
        <ele>201.66</ele>
        <time>2021-06-24T16:00:47.000Z</time>
      </trkpt>
      <trkpt lat="43.25321" lon="-0.32226">
        <ele>201.4</ele>
        <time>2021-06-24T16:00:52.000Z</time>
      </trkpt>
      <trkpt lat="43.25344" lon="-0.32245">
        <ele>200.63</ele>
        <time>2021-06-24T16:00:57.000Z</time>
      </trkpt>
      <trkpt lat="43.25359" lon="-0.3227">
        <ele>199.12</ele>
        <time>2021-06-24T16:01:02.000Z</time>
      </trkpt>
      <trkpt lat="43.25357" lon="-0.32287">
        <ele>198.63</ele>
        <time>2021-06-24T16:01:07.000Z</time>
      </trkpt>
      <trkpt lat="43.25348" lon="-0.32285">
        <ele>198.11</ele>
        <time>2021-06-24T16:01:12.000Z</time>
      </trkpt>
      <trkpt lat="43.25358" lon="-0.32286">
        <ele>204.74</ele>
        <time>2021-06-24T16:12:41.000Z</time>
      </trkpt>
      <trkpt lat="43.25367" lon="-0.32285">
        <ele>204.18</ele>
        <time>2021-06-24T16:12:46.000Z</time>
      </trkpt>
      <trkpt lat="43.2538" lon="-0.32304">
        <ele>203.52</ele>
        <time>2021-06-24T16:12:51.000Z</time>
      </trkpt>
      <trkpt lat="43.25394" lon="-0.32328">
        <ele>203.27</ele>
        <time>2021-06-24T16:12:56.000Z</time>
      </trkpt>
      <trkpt lat="43.25409" lon="-0.32354">
        <ele>202.7</ele>
        <time>2021-06-24T16:13:01.000Z</time>
      </trkpt>
      <trkpt lat="43.25427" lon="-0.32376">
        <ele>201.67</ele>
        <time>2021-06-24T16:13:06.000Z</time>
      </trkpt>
      <trkpt lat="43.25446" lon="-0.32395">
        <ele>199.97</ele>
        <time>2021-06-24T16:13:11.000Z</time>
      </trkpt>
      <trkpt lat="43.25468" lon="-0.32415">
        <ele>198.96</ele>
        <time>2021-06-24T16:13:16.000Z</time>
      </trkpt>
      <trkpt lat="43.25492" lon="-0.32434">
        <ele>197.53</ele>
        <time>2021-06-24T16:13:21.000Z</time>
      </trkpt>
      <trkpt lat="43.25513" lon="-0.32454">
        <ele>198.28</ele>
        <time>2021-06-24T16:13:26.000Z</time>
      </trkpt>
      <trkpt lat="43.25535" lon="-0.32464">
        <ele>197.67</ele>
        <time>2021-06-24T16:13:31.000Z</time>
      </trkpt>
      <trkpt lat="43.25557" lon="-0.32464">
        <ele>198.72</ele>
        <time>2021-06-24T16:13:36.000Z</time>
      </trkpt>
      <trkpt lat="43.25572" lon="-0.32438">
        <ele>199.33</ele>
        <time>2021-06-24T16:13:41.000Z</time>
      </trkpt>
      <trkpt lat="43.25586" lon="-0.32411">
        <ele>198.99</ele>
        <time>2021-06-24T16:13:46.000Z</time>
      </trkpt>
      <trkpt lat="43.25601" lon="-0.32382">
        <ele>197.73</ele>
        <time>2021-06-24T16:13:51.000Z</time>
      </trkpt>
      <trkpt lat="43.25616" lon="-0.32354">
        <ele>198.28</ele>
        <time>2021-06-24T16:13:56.000Z</time>
      </trkpt>
      <trkpt lat="43.2563" lon="-0.32331">
        <ele>199.34</ele>
        <time>2021-06-24T16:14:01.000Z</time>
      </trkpt>
      <trkpt lat="43.25643" lon="-0.32314">
        <ele>200.65</ele>
        <time>2021-06-24T16:14:06.000Z</time>
      </trkpt>
      <trkpt lat="43.25652" lon="-0.32309">
        <ele>201.56</ele>
        <time>2021-06-24T16:14:11.000Z</time>
      </trkpt>
      <trkpt lat="43.25651" lon="-0.32296">
        <ele>199.58</ele>
        <time>2021-06-24T16:14:27.000Z</time>
      </trkpt>
      <trkpt lat="43.2566" lon="-0.32297">
        <ele>189.17</ele>
        <time>2021-06-24T16:22:01.000Z</time>
      </trkpt>
      <trkpt lat="43.25651" lon="-0.32297">
        <ele>189.2</ele>
        <time>2021-06-24T16:22:47.000Z</time>
      </trkpt>
      <trkpt lat="43.25661" lon="-0.32299">
        <ele>189.2</ele>
        <time>2021-06-24T16:23:20.000Z</time>
      </trkpt>
      <trkpt lat="43.25652" lon="-0.32293">
        <ele>189.11</ele>
        <time>2021-06-24T16:24:07.000Z</time>
      </trkpt>
      <trkpt lat="43.25666" lon="-0.32296">
        <ele>189</ele>
        <time>2021-06-24T16:24:55.000Z</time>
      </trkpt>
      <trkpt lat="43.25649" lon="-0.32294">
        <ele>189</ele>
        <time>2021-06-24T16:26:04.000Z</time>
      </trkpt>
      <trkpt lat="43.25659" lon="-0.32296">
        <ele>189</ele>
        <time>2021-06-24T16:26:37.000Z</time>
      </trkpt>
      <trkpt lat="43.2567" lon="-0.32291">
        <ele>188.92</ele>
        <time>2021-06-24T16:28:02.000Z</time>
      </trkpt>
      <trkpt lat="43.25647" lon="-0.32309">
        <ele>188.68</ele>
        <time>2021-06-24T16:28:09.000Z</time>
      </trkpt>
      <trkpt lat="43.25617" lon="-0.3233">
        <ele>188.11</ele>
        <time>2021-06-24T16:28:14.000Z</time>
      </trkpt>
      <trkpt lat="43.25623" lon="-0.32321">
        <ele>188.1</ele>
        <time>2021-06-24T16:28:29.000Z</time>
      </trkpt>
      <trkpt lat="43.25646" lon="-0.32302">
        <ele>188.1</ele>
        <time>2021-06-24T16:28:43.000Z</time>
      </trkpt>
      <trkpt lat="43.25653" lon="-0.32298">
        <ele>188.1</ele>
        <time>2021-06-24T16:29:00.000Z</time>
      </trkpt>
    </trkseg>
  </trk>
</gpx>